<?xml version='1.0' encoding='UTF-8'?><gpx version="1.1" creator="JPX - https://github.com/jenetics/jpx" xmlns="http://www.topografix.com/GPX/1/1"><trk><trkseg><trkpt lat="44.71664502155194" lon="9.906468353602273"><ele>834.0</ele><time>2026-03-22T09:12:26.999Z</time></trkpt><trkpt lat="44.71664743510029" lon="9.906376442012848"><ele>834.0</ele><time>2026-03-22T09:12:28.999Z</time></trkpt><trkpt lat="44.71661702990458" lon="9.906272322770375"><ele>834.0</ele><time>2026-03-22T09:12:30.999Z</time></trkpt><trkpt lat="44.71661537765169" lon="9.906166294287889"><ele>834.0</ele><time>2026-03-22T09:12:32.999Z</time></trkpt><trkpt lat="44.71659799674688" lon="9.906070583412175"><ele>834.0</ele><time>2026-03-22T09:12:35.999Z</time></trkpt><trkpt lat="44.71651893163018" lon="9.906026807091362"><ele>834.0</ele><time>2026-03-22T09:12:38.999Z</time></trkpt><trkpt lat="44.716481151188255" lon="9.905878602838252"><ele>834.4000000000001</ele><time>2026-03-22T09:12:41.999Z</time></trkpt><trkpt lat="44.71644721687475" lon="9.905710470003312"><ele>834.8</ele><time>2026-03-22T09:12:43.999Z</time></trkpt><trkpt lat="44.71643113011495" lon="9.905624307171179"><ele>835.2</ele><time>2026-03-22T09:12:44.999Z</time></trkpt><trkpt lat="44.71642278907291" lon="9.90552779645601"><ele>835.5999999999999</ele><time>2026-03-22T09:12:45.999Z</time></trkpt><trkpt lat="44.71638883714193" lon="9.9053893829565"><ele>836.0</ele><time>2026-03-22T09:12:46.999Z</time></trkpt><trkpt lat="44.716342038011064" lon="9.905211743730534"><ele>836.0</ele><time>2026-03-22T09:12:47.999Z</time></trkpt><trkpt lat="44.716287945099744" lon="9.905088180984137"><ele>836.0</ele><time>2026-03-22T09:12:48.999Z</time></trkpt><trkpt lat="44.716205547470004" lon="9.90500377107887"><ele>836.0</ele><time>2026-03-22T09:12:49.999Z</time></trkpt><trkpt lat="44.71611579627832" lon="9.904900091273408"><ele>836.0</ele><time>2026-03-22T09:12:51.999Z</time></trkpt><trkpt lat="44.71605173693384" lon="9.904845953182804"><ele>836.0</ele><time>2026-03-22T09:12:52.999Z</time></trkpt><trkpt lat="44.71598108739751" lon="9.904817591775034"><ele>835.0</ele><time>2026-03-22T09:12:53.999Z</time></trkpt><trkpt lat="44.71590989941186" lon="9.904820472663303"><ele>834.0</ele><time>2026-03-22T09:12:54.999Z</time></trkpt><trkpt lat="44.71581750560558" lon="9.904817468171606"><ele>833.0</ele><time>2026-03-22T09:12:55.999Z</time></trkpt><trkpt lat="44.71574521979811" lon="9.904826653288078"><ele>832.0</ele><time>2026-03-22T09:12:56.999Z</time></trkpt><trkpt lat="44.71567728838338" lon="9.90485215919223"><ele>831.0</ele><time>2026-03-22T09:12:58.999Z</time></trkpt><trkpt lat="44.71560838421416" lon="9.904849949482896"><ele>830.0</ele><time>2026-03-22T09:13:00Z</time></trkpt><trkpt lat="44.71553866020889" lon="9.90485079299153"><ele>829.0</ele><time>2026-03-22T09:13:01Z</time></trkpt><trkpt lat="44.71547552399773" lon="9.904823821775125"><ele>828.9999999999999</ele><time>2026-03-22T09:13:04Z</time></trkpt><trkpt lat="44.715429470083734" lon="9.904914011598553"><ele>829.0</ele><time>2026-03-22T09:13:06Z</time></trkpt><trkpt lat="44.715353162460076" lon="9.905007246211229"><ele>829.0</ele><time>2026-03-22T09:13:08Z</time></trkpt><trkpt lat="44.715286522913004" lon="9.905039261356139"><ele>829.0</ele><time>2026-03-22T09:13:11Z</time></trkpt><trkpt lat="44.71522053590614" lon="9.90509036396065"><ele>828.9999999999999</ele><time>2026-03-22T09:13:14Z</time></trkpt><trkpt lat="44.71515946547435" lon="9.905010738285096"><ele>829.0</ele><time>2026-03-22T09:13:17Z</time></trkpt><trkpt lat="44.71506350880668" lon="9.905009372007372"><ele>825.4999999999999</ele><time>2026-03-22T09:13:19Z</time></trkpt><trkpt lat="44.71497502654682" lon="9.904961733799084"><ele>822.0</ele><time>2026-03-22T09:13:20Z</time></trkpt><trkpt lat="44.714907271947645" lon="9.904919105521174"><ele>818.5</ele><time>2026-03-22T09:13:21Z</time></trkpt><trkpt lat="44.714831465575635" lon="9.904881002977044"><ele>815.0</ele><time>2026-03-22T09:13:22Z</time></trkpt><trkpt lat="44.71477039189466" lon="9.904817755811074"><ele>811.4999999999999</ele><time>2026-03-22T09:13:24Z</time></trkpt><trkpt lat="44.71473124985179" lon="9.904714530526489"><ele>808.0</ele><time>2026-03-22T09:13:29Z</time></trkpt><trkpt lat="44.71466614929207" lon="9.904688796381942"><ele>807.9999999999999</ele><time>2026-03-22T09:13:35Z</time></trkpt><trkpt lat="44.714583545766324" lon="9.904776106781055"><ele>808.0</ele><time>2026-03-22T09:13:37Z</time></trkpt><trkpt lat="44.71448529114524" lon="9.904839112609055"><ele>808.0</ele><time>2026-03-22T09:13:39Z</time></trkpt><trkpt lat="44.71440046988205" lon="9.904883756911792"><ele>808.0</ele><time>2026-03-22T09:13:40Z</time></trkpt><trkpt lat="44.71435284746112" lon="9.904949136634535"><ele>807.9999999999999</ele><time>2026-03-22T09:13:41Z</time></trkpt><trkpt lat="44.71431822182457" lon="9.905028561130715"><ele>808.0</ele><time>2026-03-22T09:13:43Z</time></trkpt><trkpt lat="44.71420549490455" lon="9.905124432164593"><ele>806.1666666666666</ele><time>2026-03-22T09:13:47Z</time></trkpt><trkpt lat="44.71418752444924" lon="9.905267683026736"><ele>804.3333333333333</ele><time>2026-03-22T09:13:49Z</time></trkpt><trkpt lat="44.714173550469816" lon="9.90537376055021"><ele>802.5</ele><time>2026-03-22T09:13:52Z</time></trkpt><trkpt lat="44.71416520250044" lon="9.90549653019"><ele>800.6666666666667</ele><time>2026-03-22T09:13:54Z</time></trkpt><trkpt lat="44.714156598989206" lon="9.905589562012898"><ele>798.8333333333334</ele><time>2026-03-22T09:13:55.999Z</time></trkpt><trkpt lat="44.71413617465022" lon="9.905682126301594"><ele>797.0</ele><time>2026-03-22T09:13:57.999Z</time></trkpt><trkpt lat="44.71411057785553" lon="9.905764050449868"><ele>797.0</ele><time>2026-03-22T09:13:59.999Z</time></trkpt><trkpt lat="44.71412590513668" lon="9.905909956844829"><ele>797.0</ele><time>2026-03-22T09:14:01.999Z</time></trkpt><trkpt lat="44.714155904281604" lon="9.906079475143315"><ele>797.0</ele><time>2026-03-22T09:14:03.999Z</time></trkpt><trkpt lat="44.71405232172157" lon="9.906140840002076"><ele>797.0</ele><time>2026-03-22T09:14:04.999Z</time></trkpt><trkpt lat="44.7140286863813" lon="9.906272763813366"><ele>797.0</ele><time>2026-03-22T09:14:06.999Z</time></trkpt><trkpt lat="44.71397459598936" lon="9.906348840475708"><ele>794.2</ele><time>2026-03-22T09:14:08.999Z</time></trkpt><trkpt lat="44.713951179361615" lon="9.906479549061249"><ele>791.4000000000001</ele><time>2026-03-22T09:14:10.999Z</time></trkpt><trkpt lat="44.713919227335616" lon="9.906589249822296"><ele>788.5999999999999</ele><time>2026-03-22T09:14:11.999Z</time></trkpt><trkpt lat="44.71386323257259" lon="9.906717543346115"><ele>785.8</ele><time>2026-03-22T09:14:12.999Z</time></trkpt><trkpt lat="44.71380869519133" lon="9.906824366428868"><ele>783.0</ele><time>2026-03-22T09:14:13.999Z</time></trkpt><trkpt lat="44.7137136590893" lon="9.906923630190922"><ele>779.5</ele><time>2026-03-22T09:14:14.999Z</time></trkpt><trkpt lat="44.713597666969086" lon="9.907038283355142"><ele>776.0</ele><time>2026-03-22T09:14:15.999Z</time></trkpt><trkpt lat="44.71350115276202" lon="9.907130421667118"><ele>772.5</ele><time>2026-03-22T09:14:16.999Z</time></trkpt><trkpt lat="44.71341372187535" lon="9.90730369330676"><ele>769.0</ele><time>2026-03-22T09:14:17.999Z</time></trkpt><trkpt lat="44.71334278525674" lon="9.9074091519678"><ele>771.4000000000001</ele><time>2026-03-22T09:14:18.999Z</time></trkpt><trkpt lat="44.713274064626106" lon="9.907548141361376"><ele>773.8</ele><time>2026-03-22T09:14:19.999Z</time></trkpt><trkpt lat="44.71321249249946" lon="9.907654797167035"><ele>776.2</ele><time>2026-03-22T09:14:20.999Z</time></trkpt><trkpt lat="44.71314380033531" lon="9.907763989842861"><ele>778.5999999999999</ele><time>2026-03-22T09:14:21.999Z</time></trkpt><trkpt lat="44.71308782636553" lon="9.907856421791996"><ele>781.0</ele><time>2026-03-22T09:14:22.999Z</time></trkpt><trkpt lat="44.713009045356706" lon="9.907886327204933"><ele>781.0</ele><time>2026-03-22T09:14:24.999Z</time></trkpt><trkpt lat="44.71288148733614" lon="9.9076712565514"><ele>781.0</ele><time>2026-03-22T09:14:34.999Z</time></trkpt><trkpt lat="44.712886016638855" lon="9.907564345569075"><ele>781.0</ele><time>2026-03-22T09:14:35.999Z</time></trkpt><trkpt lat="44.71288190836008" lon="9.907452516195114"><ele>781.0</ele><time>2026-03-22T09:14:36.999Z</time></trkpt><trkpt lat="44.71289301912074" lon="9.907365213773048"><ele>781.0</ele><time>2026-03-22T09:14:37.999Z</time></trkpt><trkpt lat="44.712922656264304" lon="9.907278753127505"><ele>784.4</ele><time>2026-03-22T09:14:38.999Z</time></trkpt><trkpt lat="44.712935193175106" lon="9.907132402390893"><ele>787.8</ele><time>2026-03-22T09:14:40.999Z</time></trkpt><trkpt lat="44.71289425119531" lon="9.906988053416308"><ele>791.1999999999999</ele><time>2026-03-22T09:14:42.999Z</time></trkpt><trkpt lat="44.71287014372762" lon="9.90689047281811"><ele>794.5999999999999</ele><time>2026-03-22T09:14:44.999Z</time></trkpt><trkpt lat="44.71286454171012" lon="9.906756818395278"><ele>798.0</ele><time>2026-03-22T09:14:45.999Z</time></trkpt><trkpt lat="44.712876062975624" lon="9.906585400405229"><ele>800.4</ele><time>2026-03-22T09:14:47.999Z</time></trkpt><trkpt lat="44.712905904889915" lon="9.906427996667807"><ele>802.8</ele><time>2026-03-22T09:14:49.999Z</time></trkpt><trkpt lat="44.71292489243896" lon="9.906343160142132"><ele>805.2</ele><time>2026-03-22T09:14:50.999Z</time></trkpt><trkpt lat="44.71290706774837" lon="9.906222958358882"><ele>807.6</ele><time>2026-03-22T09:14:52.999Z</time></trkpt><trkpt lat="44.71281412340093" lon="9.906088137033267"><ele>810.0</ele><time>2026-03-22T09:14:54.999Z</time></trkpt><trkpt lat="44.71277519540014" lon="9.905917447572518"><ele>812.3333333333334</ele><time>2026-03-22T09:14:56.999Z</time></trkpt><trkpt lat="44.71276971067263" lon="9.90576913379764"><ele>814.6666666666667</ele><time>2026-03-22T09:14:58.999Z</time></trkpt><trkpt lat="44.71270273242996" lon="9.905720699733092"><ele>817.0</ele><time>2026-03-22T09:15:00.999Z</time></trkpt><trkpt lat="44.71275991398932" lon="9.905650901463806"><ele>819.3333333333334</ele><time>2026-03-22T09:15:04.999Z</time></trkpt><trkpt lat="44.712810530434794" lon="9.905543524268548"><ele>821.6666666666667</ele><time>2026-03-22T09:15:07Z</time></trkpt><trkpt lat="44.7128471108551" lon="9.905466817735759"><ele>824.0</ele><time>2026-03-22T09:15:09Z</time></trkpt><trkpt lat="44.71291678333432" lon="9.905419087347111"><ele>824.0000000000001</ele><time>2026-03-22T09:15:11Z</time></trkpt><trkpt lat="44.712927658253655" lon="9.90532127624694"><ele>824.0</ele><time>2026-03-22T09:15:13Z</time></trkpt><trkpt lat="44.71296746667214" lon="9.90521468365169"><ele>824.0</ele><time>2026-03-22T09:15:15Z</time></trkpt><trkpt lat="44.712995861185725" lon="9.905133916560512"><ele>824.0</ele><time>2026-03-22T09:15:17Z</time></trkpt><trkpt lat="44.712991550835106" lon="9.905042248795471"><ele>824.0000000000001</ele><time>2026-03-22T09:15:19Z</time></trkpt><trkpt lat="44.71305409365732" lon="9.90493773404895"><ele>824.0</ele><time>2026-03-22T09:15:22Z</time></trkpt><trkpt lat="44.71308875552085" lon="9.90485015501004"><ele>827.0</ele><time>2026-03-22T09:15:23Z</time></trkpt><trkpt lat="44.71317348088602" lon="9.904767045639463"><ele>830.0</ele><time>2026-03-22T09:15:24Z</time></trkpt><trkpt lat="44.71325827702495" lon="9.904673642198485"><ele>833.0</ele><time>2026-03-22T09:15:25Z</time></trkpt><trkpt lat="44.71331706397474" lon="9.904597732519257"><ele>836.0</ele><time>2026-03-22T09:15:26Z</time></trkpt><trkpt lat="44.71334860028179" lon="9.904497920703847"><ele>839.0</ele><time>2026-03-22T09:15:27Z</time></trkpt><trkpt lat="44.713392781863085" lon="9.904392298859698"><ele>839.0000000000001</ele><time>2026-03-22T09:15:28Z</time></trkpt><trkpt lat="44.713447848271684" lon="9.904310754545145"><ele>839.0</ele><time>2026-03-22T09:15:29Z</time></trkpt><trkpt lat="44.713479869654826" lon="9.90420812574162"><ele>839.0</ele><time>2026-03-22T09:15:30Z</time></trkpt><trkpt lat="44.71351609290779" lon="9.904097596177127"><ele>839.0</ele><time>2026-03-22T09:15:31Z</time></trkpt><trkpt lat="44.71355402021354" lon="9.904003472126723"><ele>839.0000000000001</ele><time>2026-03-22T09:15:32Z</time></trkpt><trkpt lat="44.71361038257257" lon="9.903895156036493"><ele>839.0</ele><time>2026-03-22T09:15:33Z</time></trkpt><trkpt lat="44.71364601817643" lon="9.903783781425208"><ele>840.0</ele><time>2026-03-22T09:15:34Z</time></trkpt><trkpt lat="44.71371751087949" lon="9.903701907466086"><ele>841.0</ele><time>2026-03-22T09:15:35Z</time></trkpt><trkpt lat="44.713827070977686" lon="9.903588269258321"><ele>842.0</ele><time>2026-03-22T09:15:37Z</time></trkpt><trkpt lat="44.71389236564449" lon="9.903546490859702"><ele>843.0</ele><time>2026-03-22T09:15:38Z</time></trkpt><trkpt lat="44.71393930088879" lon="9.903403828332944"><ele>844.0</ele><time>2026-03-22T09:15:40Z</time></trkpt><trkpt lat="44.7139881681427" lon="9.903289427735604"><ele>843.9999999999999</ele><time>2026-03-22T09:15:42Z</time></trkpt><trkpt lat="44.71400625815064" lon="9.903137435986814"><ele>844.0</ele><time>2026-03-22T09:15:44Z</time></trkpt><trkpt lat="44.71396016364868" lon="9.903042095410518"><ele>844.0</ele><time>2026-03-22T09:15:46Z</time></trkpt><trkpt lat="44.71396878925624" lon="9.902928080213659"><ele>844.0</ele><time>2026-03-22T09:15:48Z</time></trkpt><trkpt lat="44.71397794698146" lon="9.902836104069568"><ele>843.9999999999999</ele><time>2026-03-22T09:15:49Z</time></trkpt><trkpt lat="44.714011070583744" lon="9.902736471786794"><ele>844.0</ele><time>2026-03-22T09:15:51Z</time></trkpt><trkpt lat="44.71410276374586" lon="9.902635238300153"><ele>844.1666666666666</ele><time>2026-03-22T09:15:53Z</time></trkpt><trkpt lat="44.7141526226253" lon="9.90249965381282"><ele>844.3333333333333</ele><time>2026-03-22T09:15:55Z</time></trkpt><trkpt lat="44.7141803557604" lon="9.90241619142873"><ele>844.5</ele><time>2026-03-22T09:15:57.999Z</time></trkpt><trkpt lat="44.7142311737999" lon="9.902334134169788"><ele>844.6666666666667</ele><time>2026-03-22T09:15:58.999Z</time></trkpt><trkpt lat="44.714199107194624" lon="9.902202852555543"><ele>844.8333333333334</ele><time>2026-03-22T09:16:01.999Z</time></trkpt><trkpt lat="44.71416642470267" lon="9.902098979888043"><ele>845.0</ele><time>2026-03-22T09:16:03.999Z</time></trkpt><trkpt lat="44.71406617845025" lon="9.902065469452078"><ele>845.0000000000001</ele><time>2026-03-22T09:16:05.999Z</time></trkpt><trkpt lat="44.71402299051562" lon="9.901927885120884"><ele>845.0</ele><time>2026-03-22T09:16:08.999Z</time></trkpt><trkpt lat="44.71404568923408" lon="9.901826846034284"><ele>845.0</ele><time>2026-03-22T09:16:10.999Z</time></trkpt><trkpt lat="44.71408182740246" lon="9.901740228641525"><ele>845.0</ele><time>2026-03-22T09:16:12.999Z</time></trkpt><trkpt lat="44.714120624424645" lon="9.901640833043793"><ele>845.0000000000001</ele><time>2026-03-22T09:16:15.999Z</time></trkpt><trkpt lat="44.714122932879405" lon="9.901542651560634"><ele>845.0</ele><time>2026-03-22T09:16:17.999Z</time></trkpt><trkpt lat="44.71418781637776" lon="9.901366057563413"><ele>844.5000000000001</ele><time>2026-03-22T09:16:19.999Z</time></trkpt><trkpt lat="44.71423977268783" lon="9.901280283198103"><ele>844.0</ele><time>2026-03-22T09:16:20.999Z</time></trkpt><trkpt lat="44.714236377784836" lon="9.901154520991417"><ele>843.5</ele><time>2026-03-22T09:16:22.999Z</time></trkpt><trkpt lat="44.7141623279326" lon="9.901096822810246"><ele>843.0</ele><time>2026-03-22T09:16:26.999Z</time></trkpt><trkpt lat="44.7140786001663" lon="9.901032827459987"><ele>842.5000000000001</ele><time>2026-03-22T09:16:29.999Z</time></trkpt><trkpt lat="44.71407516342627" lon="9.900937940676966"><ele>842.0</ele><time>2026-03-22T09:16:31.999Z</time></trkpt><trkpt lat="44.71399837589531" lon="9.900825151244353"><ele>841.25</ele><time>2026-03-22T09:16:33.999Z</time></trkpt><trkpt lat="44.7139767735859" lon="9.900702448805406"><ele>840.5</ele><time>2026-03-22T09:16:36.999Z</time></trkpt><trkpt lat="44.7139468010908" lon="9.90057770090069"><ele>839.75</ele><time>2026-03-22T09:16:38.999Z</time></trkpt><trkpt lat="44.71372791496271" lon="9.900424406167152"><ele>839.0</ele><time>2026-03-22T09:16:41.999Z</time></trkpt><trkpt lat="44.71361814558109" lon="9.900329776134276"><ele>836.8000000000001</ele><time>2026-03-22T09:16:42.999Z</time></trkpt><trkpt lat="44.71353916545841" lon="9.900268426201613"><ele>834.6</ele><time>2026-03-22T09:16:43.999Z</time></trkpt><trkpt lat="44.713468299874705" lon="9.900218776671911"><ele>832.4</ele><time>2026-03-22T09:16:44.999Z</time></trkpt><trkpt lat="44.71342788442266" lon="9.900123363578226"><ele>830.2</ele><time>2026-03-22T09:16:45.999Z</time></trkpt><trkpt lat="44.71331353099826" lon="9.899993468757668"><ele>828.0</ele><time>2026-03-22T09:16:47.999Z</time></trkpt><trkpt lat="44.71321748907482" lon="9.89993007863538"><ele>832.4</ele><time>2026-03-22T09:16:49.999Z</time></trkpt><trkpt lat="44.71315080884256" lon="9.899848390813677"><ele>836.8</ele><time>2026-03-22T09:16:50.999Z</time></trkpt><trkpt lat="44.71309066747732" lon="9.899811879782169"><ele>841.2</ele><time>2026-03-22T09:16:51.999Z</time></trkpt><trkpt lat="44.712976177684546" lon="9.899748839537912"><ele>845.6</ele><time>2026-03-22T09:16:53.999Z</time></trkpt><trkpt lat="44.712889702404546" lon="9.8997079400162"><ele>850.0</ele><time>2026-03-22T09:16:55.999Z</time></trkpt><trkpt lat="44.71280387509223" lon="9.899643857306286"><ele>850.0</ele><time>2026-03-22T09:16:57.999Z</time></trkpt><trkpt lat="44.71270717115928" lon="9.899598229826449"><ele>843.0</ele><time>2026-03-22T09:16:59.999Z</time></trkpt><trkpt lat="44.71263984906192" lon="9.899586073391115"><ele>843.0</ele><time>2026-03-22T09:17:02.999Z</time></trkpt><trkpt lat="44.71257122312789" lon="9.899536579844211"><ele>843.0</ele><time>2026-03-22T09:17:04.999Z</time></trkpt><trkpt lat="44.712557404798886" lon="9.899650766709277"><ele>843.0</ele><time>2026-03-22T09:17:08.999Z</time></trkpt><trkpt lat="44.712660423992425" lon="9.899650201360096"><ele>843.0</ele><time>2026-03-22T09:17:12Z</time></trkpt></trkseg><trkseg><trkpt lat="44.71445879311226" lon="9.89918996959175"><ele>870.0</ele><time>2026-03-22T09:42:11Z</time></trkpt><trkpt lat="44.7145197021696" lon="9.899231421735996"><ele>870.0</ele><time>2026-03-22T09:42:12Z</time></trkpt><trkpt lat="44.714623423644" lon="9.899233054329615"><ele>870.0</ele><time>2026-03-22T09:42:13Z</time></trkpt><trkpt lat="44.71472239382334" lon="9.89926430674107"><ele>870.0</ele><time>2026-03-22T09:42:14Z</time></trkpt><trkpt lat="44.714798090188836" lon="9.899290412587828"><ele>870.0</ele><time>2026-03-22T09:42:15Z</time></trkpt><trkpt lat="44.71487409453475" lon="9.899290772528992"><ele>870.0</ele><time>2026-03-22T09:42:16Z</time></trkpt><trkpt lat="44.71494714362872" lon="9.899386409810761"><ele>870.0</ele><time>2026-03-22T09:42:18Z</time></trkpt><trkpt lat="44.715031516588716" lon="9.89940954135256"><ele>870.0</ele><time>2026-03-22T09:42:20Z</time></trkpt><trkpt lat="44.715104703645395" lon="9.899432870263285"><ele>870.0</ele><time>2026-03-22T09:42:21Z</time></trkpt><trkpt lat="44.71521072618322" lon="9.899478110602564"><ele>870.0</ele><time>2026-03-22T09:42:22Z</time></trkpt><trkpt lat="44.71528112323395" lon="9.899493473387775"><ele>870.0</ele><time>2026-03-22T09:42:23Z</time></trkpt><trkpt lat="44.7153223355056" lon="9.899598963764898"><ele>870.0</ele><time>2026-03-22T09:42:26Z</time></trkpt><trkpt lat="44.71532895263957" lon="9.899707329584649"><ele>874.0</ele><time>2026-03-22T09:42:29Z</time></trkpt><trkpt lat="44.71535994836076" lon="9.899876052725794"><ele>878.0</ele><time>2026-03-22T09:42:31Z</time></trkpt><trkpt lat="44.71538430683507" lon="9.899982747793063"><ele>882.0</ele><time>2026-03-22T09:42:32Z</time></trkpt><trkpt lat="44.7154097202403" lon="9.900095248845174"><ele>886.0</ele><time>2026-03-22T09:42:33Z</time></trkpt><trkpt lat="44.715396268784716" lon="9.900312189044753"><ele>890.0</ele><time>2026-03-22T09:42:35Z</time></trkpt><trkpt lat="44.71540041600647" lon="9.900431993826961"><ele>890.6666666666667</ele><time>2026-03-22T09:42:36Z</time></trkpt><trkpt lat="44.71541690545068" lon="9.900539979009109"><ele>891.3333333333334</ele><time>2026-03-22T09:42:37Z</time></trkpt><trkpt lat="44.71544633664121" lon="9.90063096300133"><ele>892.0</ele><time>2026-03-22T09:42:38Z</time></trkpt><trkpt lat="44.71545053716431" lon="9.900751981964113"><ele>892.6666666666667</ele><time>2026-03-22T09:42:39Z</time></trkpt><trkpt lat="44.71546835179047" lon="9.900914765809434"><ele>893.3333333333334</ele><time>2026-03-22T09:42:40Z</time></trkpt><trkpt lat="44.71546676233953" lon="9.901041815945504"><ele>894.0</ele><time>2026-03-22T09:42:41Z</time></trkpt><trkpt lat="44.71543682907418" lon="9.9011682178328"><ele>894.0</ele><time>2026-03-22T09:42:42Z</time></trkpt><trkpt lat="44.715395699986296" lon="9.90128174876979"><ele>894.0</ele><time>2026-03-22T09:42:43Z</time></trkpt><trkpt lat="44.71537085480714" lon="9.901384671713554"><ele>894.0</ele><time>2026-03-22T09:42:44Z</time></trkpt><trkpt lat="44.71535764685804" lon="9.90147141233286"><ele>894.0</ele><time>2026-03-22T09:42:45Z</time></trkpt><trkpt lat="44.715346211529436" lon="9.901580029925016"><ele>894.0</ele><time>2026-03-22T09:42:46Z</time></trkpt><trkpt lat="44.71536763247454" lon="9.901668839077596"><ele>894.0</ele><time>2026-03-22T09:42:47Z</time></trkpt><trkpt lat="44.715458874002344" lon="9.901685931482655"><ele>894.0</ele><time>2026-03-22T09:42:49Z</time></trkpt><trkpt lat="44.71552072223637" lon="9.901648283837716"><ele>894.0</ele><time>2026-03-22T09:42:50Z</time></trkpt><trkpt lat="44.71558894070212" lon="9.901599364162221"><ele>894.0</ele><time>2026-03-22T09:42:51Z</time></trkpt><trkpt lat="44.71568180665237" lon="9.90157945302427"><ele>894.0</ele><time>2026-03-22T09:42:51.999Z</time></trkpt><trkpt lat="44.715743762227476" lon="9.901537070275662"><ele>894.0</ele><time>2026-03-22T09:42:52.999Z</time></trkpt><trkpt lat="44.71585292898361" lon="9.901487972331932"><ele>894.0</ele><time>2026-03-22T09:42:54.999Z</time></trkpt><trkpt lat="44.715965080523425" lon="9.901412665016377"><ele>894.0</ele><time>2026-03-22T09:42:56.999Z</time></trkpt><trkpt lat="44.71602685095526" lon="9.901346513402698"><ele>894.0</ele><time>2026-03-22T09:42:57.999Z</time></trkpt><trkpt lat="44.71608122763727" lon="9.901265629286545"><ele>894.0</ele><time>2026-03-22T09:42:58.999Z</time></trkpt><trkpt lat="44.71613676475795" lon="9.901220504268604"><ele>894.0</ele><time>2026-03-22T09:42:59.999Z</time></trkpt><trkpt lat="44.71625410626419" lon="9.901202162049662"><ele>894.0</ele><time>2026-03-22T09:43:01.999Z</time></trkpt><trkpt lat="44.7163295363454" lon="9.901124369415713"><ele>894.0</ele><time>2026-03-22T09:43:02.999Z</time></trkpt><trkpt lat="44.71634293152783" lon="9.901034893417659"><ele>894.5</ele><time>2026-03-22T09:43:04.999Z</time></trkpt><trkpt lat="44.71634322417825" lon="9.9011478103756"><ele>895.0</ele><time>2026-03-22T09:43:13.999Z</time></trkpt><trkpt lat="44.716350552650105" lon="9.901255795465714"><ele>895.5</ele><time>2026-03-22T09:43:17.999Z</time></trkpt><trkpt lat="44.716379262540244" lon="9.90139760839616"><ele>896.0</ele><time>2026-03-22T09:43:19.999Z</time></trkpt><trkpt lat="44.71639868317965" lon="9.901493383385757"><ele>896.5</ele><time>2026-03-22T09:43:21.999Z</time></trkpt><trkpt lat="44.716418981696876" lon="9.901643085441817"><ele>897.0</ele><time>2026-03-22T09:43:23.999Z</time></trkpt><trkpt lat="44.716466757010814" lon="9.901751019912789"><ele>894.6</ele><time>2026-03-22T09:43:25.999Z</time></trkpt><trkpt lat="44.71641686786656" lon="9.901859116258686"><ele>892.2</ele><time>2026-03-22T09:43:27.999Z</time></trkpt><trkpt lat="44.71634293971537" lon="9.901893328088097"><ele>889.8</ele><time>2026-03-22T09:43:29.999Z</time></trkpt><trkpt lat="44.716226108183925" lon="9.901887260976308"><ele>887.4</ele><time>2026-03-22T09:43:31.999Z</time></trkpt><trkpt lat="44.716144528489984" lon="9.90181430351706"><ele>885.0</ele><time>2026-03-22T09:43:33.999Z</time></trkpt><trkpt lat="44.71604108326371" lon="9.901795109541503"><ele>884.2</ele><time>2026-03-22T09:43:35.999Z</time></trkpt><trkpt lat="44.71595191329951" lon="9.901805354706205"><ele>883.4</ele><time>2026-03-22T09:43:37.999Z</time></trkpt><trkpt lat="44.71586069480852" lon="9.901729170444046"><ele>882.5999999999999</ele><time>2026-03-22T09:43:39.999Z</time></trkpt><trkpt lat="44.715765768721255" lon="9.901716776258851"><ele>881.8</ele><time>2026-03-22T09:43:41.999Z</time></trkpt><trkpt lat="44.715657427147704" lon="9.901689644581328"><ele>881.0</ele><time>2026-03-22T09:43:43.999Z</time></trkpt><trkpt lat="44.71556701600009" lon="9.901668033867795"><ele>881.0000000000001</ele><time>2026-03-22T09:43:45.999Z</time></trkpt><trkpt lat="44.71549282924348" lon="9.9017094342628"><ele>881.0</ele><time>2026-03-22T09:43:47.999Z</time></trkpt><trkpt lat="44.71550611874257" lon="9.90185347969986"><ele>881.0</ele><time>2026-03-22T09:43:50.999Z</time></trkpt><trkpt lat="44.71552416513572" lon="9.90196303882426"><ele>881.0</ele><time>2026-03-22T09:43:53.999Z</time></trkpt><trkpt lat="44.715571303523106" lon="9.90205785417961"><ele>881.0000000000001</ele><time>2026-03-22T09:43:57.999Z</time></trkpt><trkpt lat="44.715607056944364" lon="9.902171103441457"><ele>881.0</ele><time>2026-03-22T09:44:18Z</time></trkpt><trkpt lat="44.715669320984375" lon="9.902305446313628"><ele>881.0000000000001</ele><time>2026-03-22T09:44:22Z</time></trkpt><trkpt lat="44.71566380685904" lon="9.90240558409156"><ele>881.0</ele><time>2026-03-22T09:44:24Z</time></trkpt><trkpt lat="44.71575470243918" lon="9.902515192590897"><ele>881.0</ele><time>2026-03-22T09:44:26Z</time></trkpt><trkpt lat="44.71581582344412" lon="9.902596139480153"><ele>881.0</ele><time>2026-03-22T09:44:27Z</time></trkpt><trkpt lat="44.715871431473474" lon="9.902698626910917"><ele>881.0000000000001</ele><time>2026-03-22T09:44:28Z</time></trkpt><trkpt lat="44.715883183381194" lon="9.902796526717896"><ele>881.0</ele><time>2026-03-22T09:44:32Z</time></trkpt><trkpt lat="44.715949175670396" lon="9.902826706568728"><ele>880.1999999999999</ele><time>2026-03-22T09:44:35Z</time></trkpt><trkpt lat="44.71600950337536" lon="9.902879025747216"><ele>879.3999999999999</ele><time>2026-03-22T09:44:37Z</time></trkpt><trkpt lat="44.71601093401856" lon="9.902998296038875"><ele>878.6</ele><time>2026-03-22T09:44:42Z</time></trkpt><trkpt lat="44.71608153569795" lon="9.903126061241815"><ele>877.8</ele><time>2026-03-22T09:44:45Z</time></trkpt><trkpt lat="44.716143991867106" lon="9.90325855455521"><ele>877.0</ele><time>2026-03-22T09:44:47Z</time></trkpt><trkpt lat="44.71623864929416" lon="9.903352274981057"><ele>874.8333333333333</ele><time>2026-03-22T09:44:49Z</time></trkpt><trkpt lat="44.7162880433931" lon="9.903434088871762"><ele>872.6666666666666</ele><time>2026-03-22T09:44:50Z</time></trkpt><trkpt lat="44.71633973164372" lon="9.90352226475702"><ele>870.5</ele><time>2026-03-22T09:44:51Z</time></trkpt><trkpt lat="44.716398056513825" lon="9.903627283994819"><ele>868.3333333333333</ele><time>2026-03-22T09:44:52Z</time></trkpt><trkpt lat="44.7164442562967" lon="9.903688006455381"><ele>866.1666666666666</ele><time>2026-03-22T09:44:53Z</time></trkpt><trkpt lat="44.71651270873376" lon="9.903766764084377"><ele>864.0</ele><time>2026-03-22T09:44:55Z</time></trkpt><trkpt lat="44.716581460286235" lon="9.903834622851887"><ele>864.0</ele><time>2026-03-22T09:44:57Z</time></trkpt><trkpt lat="44.7166447957316" lon="9.90391452997083"><ele>864.0000000000001</ele><time>2026-03-22T09:44:59Z</time></trkpt><trkpt lat="44.71672022284173" lon="9.903995822815501"><ele>864.0000000000001</ele><time>2026-03-22T09:45:01Z</time></trkpt><trkpt lat="44.716797777404764" lon="9.904119854698319"><ele>864.0</ele><time>2026-03-22T09:45:02.999Z</time></trkpt><trkpt lat="44.71688793622633" lon="9.904238756953614"><ele>864.0</ele><time>2026-03-22T09:45:04.999Z</time></trkpt><trkpt lat="44.716914377208326" lon="9.904366080509105"><ele>859.6</ele><time>2026-03-22T09:45:06.999Z</time></trkpt><trkpt lat="44.716964274852124" lon="9.904495521743522"><ele>855.2</ele><time>2026-03-22T09:45:09.999Z</time></trkpt><trkpt lat="44.71700077362414" lon="9.904625221991118"><ele>850.8000000000001</ele><time>2026-03-22T09:45:11.999Z</time></trkpt><trkpt lat="44.7169982821428" lon="9.90472695801234"><ele>846.4000000000001</ele><time>2026-03-22T09:45:13.999Z</time></trkpt><trkpt lat="44.7169733524405" lon="9.904858693473175"><ele>842.0</ele><time>2026-03-22T09:45:15.999Z</time></trkpt><trkpt lat="44.71696690462171" lon="9.904990390943006"><ele>840.6</ele><time>2026-03-22T09:45:17.999Z</time></trkpt><trkpt lat="44.71698255929358" lon="9.905137284585983"><ele>839.2</ele><time>2026-03-22T09:45:19.999Z</time></trkpt><trkpt lat="44.717024306279924" lon="9.905250032998694"><ele>837.8</ele><time>2026-03-22T09:45:21.999Z</time></trkpt><trkpt lat="44.717085351154054" lon="9.905370245199812"><ele>836.4</ele><time>2026-03-22T09:45:23.999Z</time></trkpt><trkpt lat="44.71707774136736" lon="9.905492213293233"><ele>835.0</ele><time>2026-03-22T09:45:25.999Z</time></trkpt><trkpt lat="44.717122595943195" lon="9.905626087415655"><ele>834.9999999999999</ele><time>2026-03-22T09:45:27.999Z</time></trkpt><trkpt lat="44.717119002122814" lon="9.90573367408614"><ele>835.0</ele><time>2026-03-22T09:45:28.999Z</time></trkpt><trkpt lat="44.71710802168253" lon="9.905831615709248"><ele>835.0</ele><time>2026-03-22T09:45:29.999Z</time></trkpt><trkpt lat="44.71711435725803" lon="9.905938353965634"><ele>835.0</ele><time>2026-03-22T09:45:30.999Z</time></trkpt><trkpt lat="44.717103780259556" lon="9.906049782178952"><ele>834.9999999999999</ele><time>2026-03-22T09:45:31.999Z</time></trkpt><trkpt lat="44.71706749301697" lon="9.906152290696394"><ele>835.0</ele><time>2026-03-22T09:45:32.999Z</time></trkpt><trkpt lat="44.71701800631228" lon="9.906257754173803"><ele>834.8333333333333</ele><time>2026-03-22T09:45:33.999Z</time></trkpt><trkpt lat="44.71692583737055" lon="9.906316329071654"><ele>834.6666666666666</ele><time>2026-03-22T09:45:35.999Z</time></trkpt><trkpt lat="44.71686972354467" lon="9.906393720940269"><ele>834.5</ele><time>2026-03-22T09:45:37.999Z</time></trkpt><trkpt lat="44.716801894751804" lon="9.906447204275683"><ele>834.3333333333333</ele><time>2026-03-22T09:45:39.999Z</time></trkpt><trkpt lat="44.716725421414566" lon="9.906374989598696"><ele>834.1666666666666</ele><time>2026-03-22T09:45:42.999Z</time></trkpt><trkpt lat="44.716709575876685" lon="9.906275755795761"><ele>834.0</ele><time>2026-03-22T09:45:45.999Z</time></trkpt><trkpt lat="44.71665425933176" lon="9.906142201311106"><ele>834.0</ele><time>2026-03-22T09:45:48.999Z</time></trkpt><trkpt lat="44.716559710462676" lon="9.906072915617363"><ele>834.0</ele><time>2026-03-22T09:45:51.999Z</time></trkpt><trkpt lat="44.71652099413382" lon="9.905947989269794"><ele>834.0</ele><time>2026-03-22T09:45:53.999Z</time></trkpt><trkpt lat="44.716520979433405" lon="9.905825008310003"><ele>834.0</ele><time>2026-03-22T09:45:54.999Z</time></trkpt><trkpt lat="44.71648991733846" lon="9.905680953601681"><ele>834.0</ele><time>2026-03-22T09:45:55.999Z</time></trkpt><trkpt lat="44.71646376791884" lon="9.90551259884271"><ele>834.3333333333334</ele><time>2026-03-22T09:45:56.999Z</time></trkpt><trkpt lat="44.71643245794744" lon="9.905419075882486"><ele>834.6666666666667</ele><time>2026-03-22T09:45:57.999Z</time></trkpt><trkpt lat="44.7164223718635" lon="9.905303921257632"><ele>835.0</ele><time>2026-03-22T09:45:58.999Z</time></trkpt><trkpt lat="44.71638054139916" lon="9.905195297566072"><ele>835.3333333333334</ele><time>2026-03-22T09:45:59.999Z</time></trkpt><trkpt lat="44.71628619710002" lon="9.905088039664141"><ele>835.6666666666667</ele><time>2026-03-22T09:46:00.999Z</time></trkpt><trkpt lat="44.716228219844744" lon="9.905041211406491"><ele>836.0</ele><time>2026-03-22T09:46:01.999Z</time></trkpt><trkpt lat="44.71616230802375" lon="9.904983961092407"><ele>834.8333333333334</ele><time>2026-03-22T09:46:02.999Z</time></trkpt><trkpt lat="44.71610729005667" lon="9.904914119936935"><ele>833.6666666666667</ele><time>2026-03-22T09:46:03.999Z</time></trkpt><trkpt lat="44.71603704267367" lon="9.904885064703718"><ele>832.5</ele><time>2026-03-22T09:46:04.999Z</time></trkpt><trkpt lat="44.71595819342556" lon="9.904879160440846"><ele>831.3333333333333</ele><time>2026-03-22T09:46:05.999Z</time></trkpt><trkpt lat="44.71588743926284" lon="9.904880689304383"><ele>830.1666666666666</ele><time>2026-03-22T09:46:06.999Z</time></trkpt><trkpt lat="44.715821083956854" lon="9.904889489582116"><ele>829.0</ele><time>2026-03-22T09:46:07.999Z</time></trkpt><trkpt lat="44.71572480653645" lon="9.904869710282648"><ele>829.0</ele><time>2026-03-22T09:46:10Z</time></trkpt><trkpt lat="44.715647247615095" lon="9.904869591569126"><ele>829.0</ele><time>2026-03-22T09:46:11Z</time></trkpt><trkpt lat="44.71557039971158" lon="9.904838739158407"><ele>829.0</ele><time>2026-03-22T09:46:14Z</time></trkpt><trkpt lat="44.71550795545506" lon="9.904855466162932"><ele>829.0</ele><time>2026-03-22T09:46:15Z</time></trkpt><trkpt lat="44.71546957660465" lon="9.904945089359611"><ele>829.0</ele><time>2026-03-22T09:46:19Z</time></trkpt><trkpt lat="44.715413263392456" lon="9.904999332974533"><ele>829.0</ele><time>2026-03-22T09:46:22Z</time></trkpt><trkpt lat="44.7153572568545" lon="9.905045363309174"><ele>829.0</ele><time>2026-03-22T09:46:24Z</time></trkpt><trkpt lat="44.71528209686435" lon="9.905042162995874"><ele>824.8000000000001</ele><time>2026-03-22T09:46:26Z</time></trkpt><trkpt lat="44.71521560570537" lon="9.905017765252934"><ele>820.6</ele><time>2026-03-22T09:46:27Z</time></trkpt><trkpt lat="44.71511207217878" lon="9.904925620533797"><ele>816.4</ele><time>2026-03-22T09:46:29Z</time></trkpt><trkpt lat="44.71502252446777" lon="9.904923470174296"><ele>812.2</ele><time>2026-03-22T09:46:31Z</time></trkpt><trkpt lat="44.71494530542304" lon="9.904872706840013"><ele>808.0</ele><time>2026-03-22T09:46:33Z</time></trkpt><trkpt lat="44.714863463827" lon="9.904801137830669"><ele>807.9999999999999</ele><time>2026-03-22T09:46:35Z</time></trkpt><trkpt lat="44.71482389504509" lon="9.904700496224276"><ele>808.0</ele><time>2026-03-22T09:46:37Z</time></trkpt><trkpt lat="44.71472959882481" lon="9.904642905470073"><ele>808.0</ele><time>2026-03-22T09:46:41Z</time></trkpt><trkpt lat="44.71462304938063" lon="9.904625758895872"><ele>808.0</ele><time>2026-03-22T09:46:43Z</time></trkpt><trkpt lat="44.71455756612746" lon="9.904642608100966"><ele>807.9999999999999</ele><time>2026-03-22T09:46:44Z</time></trkpt><trkpt lat="44.714489668497244" lon="9.904667822041201"><ele>808.0</ele><time>2026-03-22T09:46:45Z</time></trkpt><trkpt lat="44.714424796827615" lon="9.90470319376546"><ele>808.4999999999999</ele><time>2026-03-22T09:46:46Z</time></trkpt><trkpt lat="44.71435004752983" lon="9.904766539815244"><ele>809.0</ele><time>2026-03-22T09:46:48Z</time></trkpt><trkpt lat="44.714306878027415" lon="9.904857401496749"><ele>809.5</ele><time>2026-03-22T09:46:49Z</time></trkpt><trkpt lat="44.7142762759664" lon="9.904994219282038"><ele>810.0</ele><time>2026-03-22T09:46:51Z</time></trkpt><trkpt lat="44.714248891343985" lon="9.905085568754602"><ele>810.4999999999999</ele><time>2026-03-22T09:46:53Z</time></trkpt><trkpt lat="44.714226801706246" lon="9.905185500496742"><ele>811.0</ele><time>2026-03-22T09:46:55Z</time></trkpt><trkpt lat="44.714162350790865" lon="9.905308231917706"><ele>808.1999999999999</ele><time>2026-03-22T09:46:57Z</time></trkpt><trkpt lat="44.71414470246765" lon="9.905422068140632"><ele>805.4</ele><time>2026-03-22T09:46:59Z</time></trkpt><trkpt lat="44.71412670190043" lon="9.905529648813726"><ele>802.6</ele><time>2026-03-22T09:47:01Z</time></trkpt><trkpt lat="44.71410759248613" lon="9.905695060853063"><ele>799.8</ele><time>2026-03-22T09:47:03Z</time></trkpt><trkpt lat="44.71411084154949" lon="9.905824095242801"><ele>797.0</ele><time>2026-03-22T09:47:04Z</time></trkpt><trkpt lat="44.71407260768316" lon="9.905940465491867"><ele>794.2</ele><time>2026-03-22T09:47:07Z</time></trkpt><trkpt lat="44.7140309781366" lon="9.906033326003984"><ele>791.4000000000001</ele><time>2026-03-22T09:47:09Z</time></trkpt><trkpt lat="44.714004362359034" lon="9.906129894161394"><ele>788.5999999999999</ele><time>2026-03-22T09:47:11Z</time></trkpt><trkpt lat="44.71396663724316" lon="9.906227474392777"><ele>785.8</ele><time>2026-03-22T09:47:14Z</time></trkpt><trkpt lat="44.71396561345056" lon="9.906322011058165"><ele>783.0</ele><time>2026-03-22T09:47:15Z</time></trkpt><trkpt lat="44.713618264710504" lon="9.907381005574042"><ele>782.5999999999999</ele><time>2026-03-22T09:47:18Z</time></trkpt><trkpt lat="44.7135371424521" lon="9.907520673237572"><ele>782.1999999999999</ele><time>2026-03-22T09:47:19Z</time></trkpt><trkpt lat="44.71348585428092" lon="9.907625291186628"><ele>781.8</ele><time>2026-03-22T09:47:20Z</time></trkpt><trkpt lat="44.71343495622447" lon="9.907717113681606"><ele>781.4</ele><time>2026-03-22T09:47:21Z</time></trkpt><trkpt lat="44.71337133211213" lon="9.907855539816698"><ele>781.0</ele><time>2026-03-22T09:47:22Z</time></trkpt><trkpt lat="44.71333299079782" lon="9.907955810556523"><ele>781.0</ele><time>2026-03-22T09:47:22.999Z</time></trkpt><trkpt lat="44.71325770990123" lon="9.908015972304721"><ele>781.0</ele><time>2026-03-22T09:47:23.999Z</time></trkpt><trkpt lat="44.71314453165937" lon="9.90813321252257"><ele>781.0</ele><time>2026-03-22T09:47:25.999Z</time></trkpt><trkpt lat="44.71308627761349" lon="9.908220188920028"><ele>781.0</ele><time>2026-03-22T09:47:26.999Z</time></trkpt><trkpt lat="44.71298786196508" lon="9.908295667054471"><ele>781.0</ele><time>2026-03-22T09:47:28.999Z</time></trkpt><trkpt lat="44.71295156253069" lon="9.908371691797633"><ele>781.0</ele><time>2026-03-22T09:47:30.999Z</time></trkpt><trkpt lat="44.71289276513142" lon="9.908307416216603"><ele>781.0</ele><time>2026-03-22T09:47:32.999Z</time></trkpt><trkpt lat="44.71289332914034" lon="9.908198634659529"><ele>781.0</ele><time>2026-03-22T09:47:34.999Z</time></trkpt><trkpt lat="44.71286330069839" lon="9.908042302777567"><ele>781.0</ele><time>2026-03-22T09:47:36.999Z</time></trkpt><trkpt lat="44.71284337748862" lon="9.90792714946296"><ele>781.0</ele><time>2026-03-22T09:47:38.999Z</time></trkpt><trkpt lat="44.71289726660955" lon="9.907811077148237"><ele>781.0</ele><time>2026-03-22T09:47:40.999Z</time></trkpt><trkpt lat="44.71294318155117" lon="9.907680276070854"><ele>781.0</ele><time>2026-03-22T09:47:42.999Z</time></trkpt><trkpt lat="44.71290792160612" lon="9.907592194779761"><ele>781.0</ele><time>2026-03-22T09:47:43.999Z</time></trkpt><trkpt lat="44.71287515596271" lon="9.907447312244495"><ele>781.0</ele><time>2026-03-22T09:47:44.999Z</time></trkpt><trkpt lat="44.71286785410034" lon="9.907318257964917"><ele>781.0</ele><time>2026-03-22T09:47:45.999Z</time></trkpt><trkpt lat="44.712915257851066" lon="9.90718683749968"><ele>784.4</ele><time>2026-03-22T09:47:46.999Z</time></trkpt><trkpt lat="44.71288170257096" lon="9.907075873255932"><ele>787.8</ele><time>2026-03-22T09:47:49.999Z</time></trkpt><trkpt lat="44.71284898458325" lon="9.906957895159508"><ele>791.1999999999999</ele><time>2026-03-22T09:47:51.999Z</time></trkpt><trkpt lat="44.71286224588972" lon="9.906801679357802"><ele>794.5999999999999</ele><time>2026-03-22T09:47:53.999Z</time></trkpt><trkpt lat="44.712877052082256" lon="9.906698944914702"><ele>798.0</ele><time>2026-03-22T09:47:54.999Z</time></trkpt><trkpt lat="44.71291458478205" lon="9.906540562865674"><ele>800.4</ele><time>2026-03-22T09:47:56.999Z</time></trkpt><trkpt lat="44.712937829384934" lon="9.906373349592169"><ele>802.8</ele><time>2026-03-22T09:47:58.999Z</time></trkpt><trkpt lat="44.71287145492561" lon="9.906232268034763"><ele>805.2</ele><time>2026-03-22T09:48:01.999Z</time></trkpt><trkpt lat="44.71282971322781" lon="9.906148171954358"><ele>807.6</ele><time>2026-03-22T09:48:02.999Z</time></trkpt><trkpt lat="44.71277360297558" lon="9.906089708664439"><ele>810.0</ele><time>2026-03-22T09:48:03.999Z</time></trkpt><trkpt lat="44.712739973704714" lon="9.905922888829485"><ele>811.9999999999999</ele><time>2026-03-22T09:48:05.999Z</time></trkpt><trkpt lat="44.712754421283464" lon="9.905836169254835"><ele>814.0</ele><time>2026-03-22T09:48:06.999Z</time></trkpt><trkpt lat="44.712716153130614" lon="9.905753540669073"><ele>816.0</ele><time>2026-03-22T09:48:09.999Z</time></trkpt><trkpt lat="44.71276974444838" lon="9.905661913209897"><ele>818.0</ele><time>2026-03-22T09:48:11.999Z</time></trkpt><trkpt lat="44.71282924652358" lon="9.905604883544218"><ele>820.0</ele><time>2026-03-22T09:48:12.999Z</time></trkpt><trkpt lat="44.71288702286574" lon="9.905541715903814"><ele>821.9999999999999</ele><time>2026-03-22T09:48:13.999Z</time></trkpt><trkpt lat="44.71293507661092" lon="9.905454352026586"><ele>824.0</ele><time>2026-03-22T09:48:14.999Z</time></trkpt><trkpt lat="44.71298281187515" lon="9.905372669854788"><ele>824.0</ele><time>2026-03-22T09:48:16Z</time></trkpt><trkpt lat="44.71301705383697" lon="9.905287037486948"><ele>824.0</ele><time>2026-03-22T09:48:17Z</time></trkpt><trkpt lat="44.713056981859495" lon="9.905192761718453"><ele>824.0</ele><time>2026-03-22T09:48:18Z</time></trkpt><trkpt lat="44.713140045803605" lon="9.905090577020875"><ele>824.0</ele><time>2026-03-22T09:48:20Z</time></trkpt><trkpt lat="44.71318796342219" lon="9.905014700726579"><ele>824.0</ele><time>2026-03-22T09:48:22Z</time></trkpt><trkpt lat="44.71323469238134" lon="9.904815349045325"><ele>827.0</ele><time>2026-03-22T09:48:24Z</time></trkpt><trkpt lat="44.71323139096913" lon="9.904676074999461"><ele>830.0</ele><time>2026-03-22T09:48:26Z</time></trkpt><trkpt lat="44.71324584789098" lon="9.904586197574185"><ele>833.0</ele><time>2026-03-22T09:48:29Z</time></trkpt><trkpt lat="44.71328695139032" lon="9.90449827838217"><ele>836.0</ele><time>2026-03-22T09:48:31Z</time></trkpt><trkpt lat="44.71339500932979" lon="9.90442700381507"><ele>839.0</ele><time>2026-03-22T09:48:32Z</time></trkpt><trkpt lat="44.71345497465423" lon="9.904318149891147"><ele>839.4000000000001</ele><time>2026-03-22T09:48:33Z</time></trkpt><trkpt lat="44.71351507851961" lon="9.90411849505885"><ele>839.8</ele><time>2026-03-22T09:48:34Z</time></trkpt><trkpt lat="44.71355440211997" lon="9.90403712940932"><ele>840.2</ele><time>2026-03-22T09:48:35Z</time></trkpt><trkpt lat="44.71357847983118" lon="9.90394165870876"><ele>840.5999999999999</ele><time>2026-03-22T09:48:36Z</time></trkpt><trkpt lat="44.71361334851635" lon="9.90384903871664"><ele>841.0</ele><time>2026-03-22T09:48:37Z</time></trkpt><trkpt lat="44.71367245893164" lon="9.903760554084235"><ele>838.8333333333333</ele><time>2026-03-22T09:48:38Z</time></trkpt><trkpt lat="44.71368929930953" lon="9.903624857753524"><ele>836.6666666666666</ele><time>2026-03-22T09:48:39Z</time></trkpt><trkpt lat="44.71371996673297" lon="9.903547251135574"><ele>834.5</ele><time>2026-03-22T09:48:40Z</time></trkpt><trkpt lat="44.71379202157023" lon="9.903540454062782"><ele>832.3333333333333</ele><time>2026-03-22T09:48:41Z</time></trkpt><trkpt lat="44.71387245612802" lon="9.90356773678019"><ele>830.1666666666666</ele><time>2026-03-22T09:48:42Z</time></trkpt><trkpt lat="44.71394726952845" lon="9.90352298549312"><ele>828.0</ele><time>2026-03-22T09:48:43Z</time></trkpt><trkpt lat="44.7140063285237" lon="9.903461582045763"><ele>830.6666666666666</ele><time>2026-03-22T09:48:44Z</time></trkpt><trkpt lat="44.714036858100364" lon="9.903354570669556"><ele>833.3333333333333</ele><time>2026-03-22T09:48:45Z</time></trkpt><trkpt lat="44.71409007912799" lon="9.903282995219993"><ele>836.0</ele><time>2026-03-22T09:48:46Z</time></trkpt><trkpt lat="44.71410109541452" lon="9.90318932816496"><ele>838.6666666666666</ele><time>2026-03-22T09:48:47Z</time></trkpt><trkpt lat="44.7140481411583" lon="9.903059501131253"><ele>841.3333333333333</ele><time>2026-03-22T09:48:49Z</time></trkpt><trkpt lat="44.71401377448069" lon="9.902944018978964"><ele>844.0</ele><time>2026-03-22T09:48:51Z</time></trkpt><trkpt lat="44.71402895997071" lon="9.902787470410289"><ele>844.0</ele><time>2026-03-22T09:48:53Z</time></trkpt><trkpt lat="44.714087829323205" lon="9.90273105210935"><ele>844.0</ele><time>2026-03-22T09:48:55Z</time></trkpt><trkpt lat="44.714117660274944" lon="9.902622053691326"><ele>844.0</ele><time>2026-03-22T09:48:58Z</time></trkpt><trkpt lat="44.7142328077418" lon="9.902299052039389"><ele>844.0</ele><time>2026-03-22T09:49:00Z</time></trkpt><trkpt lat="44.71425819080714" lon="9.902142477298101"><ele>844.2</ele><time>2026-03-22T09:49:02Z</time></trkpt><trkpt lat="44.71428179425833" lon="9.901997591781335"><ele>844.4000000000001</ele><time>2026-03-22T09:49:04Z</time></trkpt><trkpt lat="44.71423496179766" lon="9.901880756795682"><ele>844.6</ele><time>2026-03-22T09:49:06Z</time></trkpt><trkpt lat="44.71414245697191" lon="9.90179125712599"><ele>844.8</ele><time>2026-03-22T09:49:08Z</time></trkpt><trkpt lat="44.71407124412099" lon="9.901777093217676"><ele>845.0</ele><time>2026-03-22T09:49:09Z</time></trkpt><trkpt lat="44.71400049280817" lon="9.901777631907889"><ele>844.25</ele><time>2026-03-22T09:49:10Z</time></trkpt><trkpt lat="44.714074028738835" lon="9.901659069280297"><ele>843.5</ele><time>2026-03-22T09:49:13Z</time></trkpt><trkpt lat="44.714143938614846" lon="9.901456821393843"><ele>842.75</ele><time>2026-03-22T09:49:15Z</time></trkpt><trkpt lat="44.71417313103262" lon="9.901344374515775"><ele>842.0</ele><time>2026-03-22T09:49:16Z</time></trkpt><trkpt lat="44.714220624787586" lon="9.901229530090157"><ele>842.0000000000001</ele><time>2026-03-22T09:49:16.999Z</time></trkpt><trkpt lat="44.714277145550014" lon="9.90114074558239"><ele>842.0</ele><time>2026-03-22T09:49:17.999Z</time></trkpt><trkpt lat="44.71430209532778" lon="9.90104256998703"><ele>842.0</ele><time>2026-03-22T09:49:18.999Z</time></trkpt><trkpt lat="44.714346660962626" lon="9.90090746120409"><ele>842.0</ele><time>2026-03-22T09:49:19.999Z</time></trkpt><trkpt lat="44.71437107551332" lon="9.900818927485519"><ele>842.0000000000001</ele><time>2026-03-22T09:49:20.999Z</time></trkpt><trkpt lat="44.71442911052008" lon="9.900758573272729"><ele>842.0</ele><time>2026-03-22T09:49:21.999Z</time></trkpt><trkpt lat="44.714492344946166" lon="9.900764272569686"><ele>841.5000000000001</ele><time>2026-03-22T09:49:22.999Z</time></trkpt><trkpt lat="44.71448367408968" lon="9.900672048348492"><ele>841.0</ele><time>2026-03-22T09:49:24.999Z</time></trkpt><trkpt lat="44.714425701827665" lon="9.90060359165259"><ele>840.5</ele><time>2026-03-22T09:49:25.999Z</time></trkpt><trkpt lat="44.71437284509233" lon="9.900520298243785"><ele>840.0</ele><time>2026-03-22T09:49:27.999Z</time></trkpt><trkpt lat="44.71429053082493" lon="9.900493550473088"><ele>839.5000000000001</ele><time>2026-03-22T09:49:28.999Z</time></trkpt><trkpt lat="44.71421801169176" lon="9.900437705767045"><ele>839.0</ele><time>2026-03-22T09:49:29.999Z</time></trkpt><trkpt lat="44.71417409324782" lon="9.900369964961506"><ele>839.0</ele><time>2026-03-22T09:49:30.999Z</time></trkpt><trkpt lat="44.7140726026393" lon="9.900311113845577"><ele>839.0</ele><time>2026-03-22T09:49:31.999Z</time></trkpt><trkpt lat="44.71398271888597" lon="9.900285759645868"><ele>839.0</ele><time>2026-03-22T09:49:33.999Z</time></trkpt><trkpt lat="44.713905615251285" lon="9.90022251620019"><ele>839.0</ele><time>2026-03-22T09:49:35.999Z</time></trkpt><trkpt lat="44.71383734642023" lon="9.900222762345336"><ele>839.0</ele><time>2026-03-22T09:49:36.999Z</time></trkpt><trkpt lat="44.713472017722715" lon="9.900029423301529"><ele>841.75</ele><time>2026-03-22T09:49:37.999Z</time></trkpt><trkpt lat="44.71333766528689" lon="9.899989497169374"><ele>844.5</ele><time>2026-03-22T09:49:38.999Z</time></trkpt><trkpt lat="44.713213651431296" lon="9.899940564376521"><ele>847.25</ele><time>2026-03-22T09:49:39.999Z</time></trkpt><trkpt lat="44.713105942192435" lon="9.899887840817627"><ele>850.0</ele><time>2026-03-22T09:49:40.999Z</time></trkpt><trkpt lat="44.713000692724975" lon="9.899842836359353"><ele>849.9999999999999</ele><time>2026-03-22T09:49:41.999Z</time></trkpt><trkpt lat="44.712916970743" lon="9.899795231162399"><ele>850.0</ele><time>2026-03-22T09:49:42.999Z</time></trkpt><trkpt lat="44.71285411981632" lon="9.899733532138717"><ele>850.0</ele><time>2026-03-22T09:49:44.999Z</time></trkpt><trkpt lat="44.71279672671048" lon="9.899667134341568"><ele>850.0</ele><time>2026-03-22T09:49:48.999Z</time></trkpt><trkpt lat="44.71271871398259" lon="9.899663903388388"><ele>849.9999999999999</ele><time>2026-03-22T09:52:08.999Z</time></trkpt><trkpt lat="44.71263527981141" lon="9.899629123448193"><ele>850.0</ele><time>2026-03-22T09:52:11.999Z</time></trkpt><trkpt lat="44.71257663108893" lon="9.899585229648428"><ele>849.9999999999999</ele><time>2026-03-22T09:52:13.999Z</time></trkpt><trkpt lat="44.71262547949673" lon="9.899652571250753"><ele>850.0</ele><time>2026-03-22T09:52:19.999Z</time></trkpt><trkpt lat="44.7127082473504" lon="9.899645125232828"><ele>850.0</ele><time>2026-03-22T09:52:22.999Z</time></trkpt><trkpt lat="44.712769445567936" lon="9.899712909676577"><ele>850.0</ele><time>2026-03-22T09:54:48Z</time></trkpt><trkpt lat="44.71286745172016" lon="9.899749187710094"><ele>849.9999999999999</ele><time>2026-03-22T09:55:32Z</time></trkpt><trkpt lat="44.71292764849741" lon="9.8997765234718"><ele>850.0</ele><time>2026-03-22T09:55:33Z</time></trkpt><trkpt lat="44.713042853994075" lon="9.899763485488844"><ele>850.0</ele><time>2026-03-22T09:55:34.999Z</time></trkpt><trkpt lat="44.713120852638326" lon="9.899706876015218"><ele>850.0</ele><time>2026-03-22T09:55:36.999Z</time></trkpt><trkpt lat="44.71316901623642" lon="9.899636520141064"><ele>850.0</ele><time>2026-03-22T09:55:39.999Z</time></trkpt><trkpt lat="44.71322246358481" lon="9.89957151083168"><ele>850.0</ele><time>2026-03-22T09:55:41.999Z</time></trkpt><trkpt lat="44.713345655213104" lon="9.899491132757795"><ele>850.0</ele><time>2026-03-22T09:55:43.999Z</time></trkpt><trkpt lat="44.713437339317004" lon="9.899447453931844"><ele>849.9999999999999</ele><time>2026-03-22T09:55:44.999Z</time></trkpt><trkpt lat="44.713502595204076" lon="9.899387151065726"><ele>850.0</ele><time>2026-03-22T09:55:45.999Z</time></trkpt><trkpt lat="44.71358174093517" lon="9.899362725823133"><ele>850.0</ele><time>2026-03-22T09:55:46.999Z</time></trkpt><trkpt lat="44.713648566693614" lon="9.89933524584716"><ele>850.0</ele><time>2026-03-22T09:55:47.999Z</time></trkpt><trkpt lat="44.71370754966925" lon="9.899293324339448"><ele>849.9999999999999</ele><time>2026-03-22T09:55:48.999Z</time></trkpt><trkpt lat="44.713819825427464" lon="9.899316779660701"><ele>850.0</ele><time>2026-03-22T09:55:50.999Z</time></trkpt><trkpt lat="44.713905596630376" lon="9.899331470371582"><ele>851.4</ele><time>2026-03-22T09:55:52.999Z</time></trkpt><trkpt lat="44.71397750330789" lon="9.899362775131342"><ele>852.8</ele><time>2026-03-22T09:56:07.999Z</time></trkpt><trkpt lat="44.714049541561636" lon="9.899321462213049"><ele>854.2</ele><time>2026-03-22T09:56:09.999Z</time></trkpt><trkpt lat="44.714132893242" lon="9.899276508420888"><ele>855.6</ele><time>2026-03-22T09:56:11.999Z</time></trkpt><trkpt lat="44.71421424458421" lon="9.8992257651714"><ele>857.0</ele><time>2026-03-22T09:56:13.999Z</time></trkpt><trkpt lat="44.714336390122774" lon="9.899173455815566"><ele>859.6</ele><time>2026-03-22T09:56:15.999Z</time></trkpt><trkpt lat="44.71446692319083" lon="9.899181667241828"><ele>862.2</ele><time>2026-03-22T09:56:17.999Z</time></trkpt><trkpt lat="44.71455269166998" lon="9.899227901459309"><ele>864.8</ele><time>2026-03-22T09:56:18.999Z</time></trkpt><trkpt lat="44.714656702437225" lon="9.899258264676686"><ele>867.4</ele><time>2026-03-22T09:56:19.999Z</time></trkpt><trkpt lat="44.714737358296865" lon="9.899271629828734"><ele>870.0</ele><time>2026-03-22T09:56:20.999Z</time></trkpt><trkpt lat="44.714844539574706" lon="9.89926535471228"><ele>870.0</ele><time>2026-03-22T09:56:21.999Z</time></trkpt><trkpt lat="44.71490775902205" lon="9.899295206196578"><ele>870.0</ele><time>2026-03-22T09:56:22.999Z</time></trkpt><trkpt lat="44.71495525730825" lon="9.899359834534486"><ele>870.0</ele><time>2026-03-22T09:56:23.999Z</time></trkpt><trkpt lat="44.71503227536324" lon="9.899428949261155"><ele>870.0</ele><time>2026-03-22T09:56:25.999Z</time></trkpt><trkpt lat="44.71514610511276" lon="9.899444718476829"><ele>870.0</ele><time>2026-03-22T09:56:27.999Z</time></trkpt><trkpt lat="44.71520703069518" lon="9.899467259367519"><ele>870.0</ele><time>2026-03-22T09:56:28.999Z</time></trkpt><trkpt lat="44.7152791379033" lon="9.899555146017905"><ele>874.0</ele><time>2026-03-22T09:56:30.999Z</time></trkpt><trkpt lat="44.71534415218556" lon="9.899553658086694"><ele>878.0</ele><time>2026-03-22T09:56:35.999Z</time></trkpt><trkpt lat="44.7153488862769" lon="9.899648353768939"><ele>882.0</ele><time>2026-03-22T09:56:41Z</time></trkpt><trkpt lat="44.71539666416823" lon="9.899845750367934"><ele>886.0</ele><time>2026-03-22T09:56:44Z</time></trkpt><trkpt lat="44.715425782957766" lon="9.899987814622833"><ele>890.0</ele><time>2026-03-22T09:56:45Z</time></trkpt><trkpt lat="44.71544337897261" lon="9.900143282049218"><ele>891.0000000000001</ele><time>2026-03-22T09:56:46Z</time></trkpt><trkpt lat="44.71542426254423" lon="9.90027809563462"><ele>892.0</ele><time>2026-03-22T09:56:47Z</time></trkpt><trkpt lat="44.715407057430866" lon="9.900381671776742"><ele>893.0</ele><time>2026-03-22T09:56:48Z</time></trkpt><trkpt lat="44.71541769087362" lon="9.900473602932301"><ele>894.0</ele><time>2026-03-22T09:56:49Z</time></trkpt><trkpt lat="44.71544562559908" lon="9.900588331530793"><ele>895.0000000000001</ele><time>2026-03-22T09:56:50Z</time></trkpt><trkpt lat="44.71545916868263" lon="9.90071888066862"><ele>896.0</ele><time>2026-03-22T09:56:51Z</time></trkpt><trkpt lat="44.71547502485627" lon="9.90087139331736"><ele>895.6666666666667</ele><time>2026-03-22T09:56:52Z</time></trkpt><trkpt lat="44.71548677496014" lon="9.900975151097434"><ele>895.3333333333334</ele><time>2026-03-22T09:56:53Z</time></trkpt><trkpt lat="44.715453021547624" lon="9.90110480514335"><ele>895.0</ele><time>2026-03-22T09:56:54Z</time></trkpt><trkpt lat="44.71541075727456" lon="9.90121423122962"><ele>894.6666666666667</ele><time>2026-03-22T09:56:55Z</time></trkpt><trkpt lat="44.71538712109557" lon="9.901303954457427"><ele>894.3333333333334</ele><time>2026-03-22T09:56:56Z</time></trkpt><trkpt lat="44.71537342549481" lon="9.90139376724262"><ele>894.0</ele><time>2026-03-22T09:56:57Z</time></trkpt><trkpt lat="44.71535749897687" lon="9.901498345929749"><ele>894.0</ele><time>2026-03-22T09:56:58Z</time></trkpt><trkpt lat="44.715364497739714" lon="9.901597078120664"><ele>894.0000000000001</ele><time>2026-03-22T09:56:59Z</time></trkpt><trkpt lat="44.71544070642276" lon="9.901663090305595"><ele>894.0000000000001</ele><time>2026-03-22T09:57:01Z</time></trkpt><trkpt lat="44.715537240732104" lon="9.901606350705862"><ele>894.0</ele><time>2026-03-22T09:57:04Z</time></trkpt><trkpt lat="44.715651889454755" lon="9.901564949535397"><ele>894.0</ele><time>2026-03-22T09:57:06Z</time></trkpt><trkpt lat="44.715767786299466" lon="9.90151308262409"><ele>894.0</ele><time>2026-03-22T09:57:08Z</time></trkpt><trkpt lat="44.715851411459234" lon="9.901465507582493"><ele>894.0</ele><time>2026-03-22T09:57:10Z</time></trkpt><trkpt lat="44.71591186748894" lon="9.90142451643303"><ele>894.0</ele><time>2026-03-22T09:57:11Z</time></trkpt><trkpt lat="44.715979099384406" lon="9.90134855907311"><ele>894.0</ele><time>2026-03-22T09:57:12Z</time></trkpt><trkpt lat="44.716043305555615" lon="9.901291172036395"><ele>894.0</ele><time>2026-03-22T09:57:13Z</time></trkpt><trkpt lat="44.7161438310737" lon="9.901234557872309"><ele>894.0</ele><time>2026-03-22T09:57:15Z</time></trkpt><trkpt lat="44.71625490407246" lon="9.90120043150743"><ele>894.5</ele><time>2026-03-22T09:57:17Z</time></trkpt><trkpt lat="44.716335383228184" lon="9.901175069110959"><ele>895.0</ele><time>2026-03-22T09:57:19Z</time></trkpt><trkpt lat="44.716376414624705" lon="9.901295635533987"><ele>895.5</ele><time>2026-03-22T09:57:21Z</time></trkpt><trkpt lat="44.71639055907374" lon="9.901403235018075"><ele>896.0</ele><time>2026-03-22T09:57:22Z</time></trkpt><trkpt lat="44.7164112502973" lon="9.901495052600147"><ele>896.5</ele><time>2026-03-22T09:57:23Z</time></trkpt><trkpt lat="44.716442478937374" lon="9.901649178445274"><ele>897.0</ele><time>2026-03-22T09:57:25Z</time></trkpt><trkpt lat="44.71648423977747" lon="9.9017822109478"><ele>895.0</ele><time>2026-03-22T09:57:27Z</time></trkpt><trkpt lat="44.716430379363985" lon="9.901863772450259"><ele>893.0</ele><time>2026-03-22T09:57:29Z</time></trkpt><trkpt lat="44.71636786485854" lon="9.90188823284789"><ele>891.0</ele><time>2026-03-22T09:57:30Z</time></trkpt><trkpt lat="44.71624717369708" lon="9.90189474029715"><ele>889.0</ele><time>2026-03-22T09:57:32Z</time></trkpt><trkpt lat="44.716174764436836" lon="9.901862794889988"><ele>887.0</ele><time>2026-03-22T09:57:33Z</time></trkpt><trkpt lat="44.71611198786025" lon="9.901830944449834"><ele>885.0</ele><time>2026-03-22T09:57:33.999Z</time></trkpt><trkpt lat="44.716020965720425" lon="9.901795519333891"><ele>887.25</ele><time>2026-03-22T09:57:35.999Z</time></trkpt><trkpt lat="44.71582546963537" lon="9.901741309740258"><ele>889.5</ele><time>2026-03-22T09:57:39.999Z</time></trkpt><trkpt lat="44.715748381889284" lon="9.901726997786751"><ele>891.75</ele><time>2026-03-22T09:57:40.999Z</time></trkpt><trkpt lat="44.715651161317254" lon="9.901696102489163"><ele>894.0</ele><time>2026-03-22T09:57:42.999Z</time></trkpt><trkpt lat="44.71556893105985" lon="9.901742086681493"><ele>891.4000000000001</ele><time>2026-03-22T09:57:46.999Z</time></trkpt><trkpt lat="44.71556993402262" lon="9.901835276266262"><ele>888.8000000000001</ele><time>2026-03-22T09:57:49.999Z</time></trkpt><trkpt lat="44.715612854894275" lon="9.901950090862346"><ele>886.1999999999999</ele><time>2026-03-22T09:57:51.999Z</time></trkpt><trkpt lat="44.71564780486383" lon="9.902090557859795"><ele>883.5999999999999</ele><time>2026-03-22T09:57:53.999Z</time></trkpt><trkpt lat="44.7156502518344" lon="9.902213417224432"><ele>881.0</ele><time>2026-03-22T09:57:54.999Z</time></trkpt><trkpt lat="44.715667534514004" lon="9.902352704297183"><ele>881.0</ele><time>2026-03-22T09:57:56.999Z</time></trkpt><trkpt lat="44.71573451323834" lon="9.902487932910876"><ele>880.9999999999999</ele><time>2026-03-22T09:57:58.999Z</time></trkpt><trkpt lat="44.715811617389036" lon="9.902550042075312"><ele>880.9999999999999</ele><time>2026-03-22T09:57:59.999Z</time></trkpt><trkpt lat="44.71587635912581" lon="9.902669771857155"><ele>881.0</ele><time>2026-03-22T09:58:00.999Z</time></trkpt><trkpt lat="44.71590202592547" lon="9.902768579368496"><ele>881.0</ele><time>2026-03-22T09:58:01.999Z</time></trkpt><trkpt lat="44.71595457636237" lon="9.902853995147613"><ele>880.3333333333334</ele><time>2026-03-22T09:58:03.999Z</time></trkpt><trkpt lat="44.71602783518761" lon="9.90285705179876"><ele>879.6666666666667</ele><time>2026-03-22T09:58:05.999Z</time></trkpt><trkpt lat="44.71605413102923" lon="9.902966456784826"><ele>879.0</ele><time>2026-03-22T09:58:10.999Z</time></trkpt><trkpt lat="44.71608718085864" lon="9.903068409515273"><ele>878.3333333333333</ele><time>2026-03-22T09:58:11.999Z</time></trkpt><trkpt lat="44.71612143826055" lon="9.90315405446274"><ele>877.6666666666666</ele><time>2026-03-22T09:58:12.999Z</time></trkpt><trkpt lat="44.71617144228359" lon="9.903310108244742"><ele>877.0</ele><time>2026-03-22T09:58:13.999Z</time></trkpt><trkpt lat="44.71622245359068" lon="9.903391384625037"><ele>874.4000000000001</ele><time>2026-03-22T09:58:14.999Z</time></trkpt><trkpt lat="44.716279220373515" lon="9.903465980142029"><ele>871.8000000000001</ele><time>2026-03-22T09:58:15.999Z</time></trkpt><trkpt lat="44.716353302745866" lon="9.90356389104146"><ele>869.2</ele><time>2026-03-22T09:58:16.999Z</time></trkpt><trkpt lat="44.71643186737745" lon="9.903666056105754"><ele>866.6</ele><time>2026-03-22T09:58:17.999Z</time></trkpt><trkpt lat="44.716488579676145" lon="9.90373299826178"><ele>864.0</ele><time>2026-03-22T09:58:19.999Z</time></trkpt><trkpt lat="44.71656719362939" lon="9.903827032072844"><ele>864.0</ele><time>2026-03-22T09:58:22.999Z</time></trkpt><trkpt lat="44.71662575843605" lon="9.903875267596085"><ele>864.0</ele><time>2026-03-22T09:58:24.999Z</time></trkpt><trkpt lat="44.71667053463105" lon="9.90394798513332"><ele>864.0</ele><time>2026-03-22T09:58:26.999Z</time></trkpt><trkpt lat="44.7167214157404" lon="9.904010908010566"><ele>864.0</ele><time>2026-03-22T09:58:27.999Z</time></trkpt><trkpt lat="44.716769449182166" lon="9.904118156591938"><ele>864.0</ele><time>2026-03-22T09:58:30.999Z</time></trkpt><trkpt lat="44.71682035985477" lon="9.904266734591896"><ele>864.0</ele><time>2026-03-22T09:58:32.999Z</time></trkpt><trkpt lat="44.71686489106621" lon="9.904379250832388"><ele>859.6</ele><time>2026-03-22T09:58:33.999Z</time></trkpt><trkpt lat="44.7169263305161" lon="9.90449555169718"><ele>855.2</ele><time>2026-03-22T09:58:34.999Z</time></trkpt><trkpt lat="44.71697216785086" lon="9.904583652893692"><ele>850.8000000000001</ele><time>2026-03-22T09:58:35.999Z</time></trkpt><trkpt lat="44.71701873407208" lon="9.904692477799566"><ele>846.4000000000001</ele><time>2026-03-22T09:58:36.999Z</time></trkpt><trkpt lat="44.7170301464257" lon="9.90479397771314"><ele>842.0</ele><time>2026-03-22T09:58:37.999Z</time></trkpt><trkpt lat="44.71701954052582" lon="9.904946203704664"><ele>839.6666666666667</ele><time>2026-03-22T09:58:39.999Z</time></trkpt><trkpt lat="44.717038108776485" lon="9.90526110380202"><ele>837.3333333333333</ele><time>2026-03-22T09:58:47Z</time></trkpt><trkpt lat="44.717029988148425" lon="9.905402901460834"><ele>835.0</ele><time>2026-03-22T09:58:50Z</time></trkpt><trkpt lat="44.71706633184491" lon="9.905876313245754"><ele>834.8333333333333</ele><time>2026-03-22T09:58:51Z</time></trkpt><trkpt lat="44.71706772296829" lon="9.9059944671165"><ele>834.6666666666666</ele><time>2026-03-22T09:58:52Z</time></trkpt><trkpt lat="44.717021147486264" lon="9.906097370424705"><ele>834.5</ele><time>2026-03-22T09:58:53Z</time></trkpt><trkpt lat="44.71700491033835" lon="9.906212150110676"><ele>834.3333333333333</ele><time>2026-03-22T09:58:55Z</time></trkpt><trkpt lat="44.71703244766958" lon="9.90633470928128"><ele>834.1666666666666</ele><time>2026-03-22T09:58:56Z</time></trkpt><trkpt lat="44.716992322326696" lon="9.906433837041924"><ele>834.0</ele><time>2026-03-22T09:58:57Z</time></trkpt><trkpt lat="44.71690182821035" lon="9.906495963934038"><ele>834.0</ele><time>2026-03-22T09:58:59Z</time></trkpt><trkpt lat="44.71679111835492" lon="9.906490853035796"><ele>834.0</ele><time>2026-03-22T09:59:01Z</time></trkpt><trkpt lat="44.71669747963921" lon="9.90651738800668"><ele>834.0</ele><time>2026-03-22T09:59:03Z</time></trkpt><trkpt lat="44.716627598396165" lon="9.906539762153178"><ele>834.0</ele><time>2026-03-22T09:59:05Z</time></trkpt><trkpt lat="44.71660296933738" lon="9.906434813812393"><ele>834.0</ele><time>2026-03-22T09:59:07Z</time></trkpt><trkpt lat="44.716606173522706" lon="9.90634408084417"><ele>834.0</ele><time>2026-03-22T09:59:08Z</time></trkpt><trkpt lat="44.716618142405544" lon="9.906234593368339"><ele>834.0</ele><time>2026-03-22T09:59:10Z</time></trkpt><trkpt lat="44.71666799337575" lon="9.906171377309791"><ele>834.0</ele><time>2026-03-22T09:59:11Z</time></trkpt><trkpt lat="44.71662697002413" lon="9.90609955989194"><ele>834.0</ele><time>2026-03-22T09:59:14Z</time></trkpt><trkpt lat="44.71657328088411" lon="9.906040533921193"><ele>834.0</ele><time>2026-03-22T09:59:17Z</time></trkpt><trkpt lat="44.71655591263099" lon="9.905920872305618"><ele>834.0</ele><time>2026-03-22T09:59:20Z</time></trkpt><trkpt lat="44.716486033562035" lon="9.905577644104932"><ele>834.5</ele><time>2026-03-22T09:59:22Z</time></trkpt><trkpt lat="44.716445926924514" lon="9.905364645413059"><ele>835.0</ele><time>2026-03-22T09:59:23Z</time></trkpt><trkpt lat="44.716420487847266" lon="9.905249561929715"><ele>835.5</ele><time>2026-03-22T09:59:24Z</time></trkpt><trkpt lat="44.71632407140271" lon="9.905135706021584"><ele>836.0</ele><time>2026-03-22T09:59:26Z</time></trkpt><trkpt lat="44.7162324639939" lon="9.905017732348492"><ele>834.5999999999999</ele><time>2026-03-22T09:59:27Z</time></trkpt><trkpt lat="44.716157417868686" lon="9.904907876580499"><ele>833.2</ele><time>2026-03-22T09:59:28Z</time></trkpt><trkpt lat="44.716086669180164" lon="9.904829540034417"><ele>831.8</ele><time>2026-03-22T09:59:29Z</time></trkpt><trkpt lat="44.7159500177685" lon="9.904821017644966"><ele>830.4000000000001</ele><time>2026-03-22T09:59:31Z</time></trkpt><trkpt lat="44.715848852478395" lon="9.904831750708881"><ele>829.0</ele><time>2026-03-22T09:59:32Z</time></trkpt><trkpt lat="44.715784304042174" lon="9.904863890130944"><ele>829.0</ele><time>2026-03-22T09:59:33Z</time></trkpt><trkpt lat="44.71567771892203" lon="9.904835746198632"><ele>829.0</ele><time>2026-03-22T09:59:34.999Z</time></trkpt><trkpt lat="44.71556814440553" lon="9.90483826029001"><ele>829.0</ele><time>2026-03-22T09:59:35.999Z</time></trkpt><trkpt lat="44.71550993166323" lon="9.904800814958403"><ele>829.0</ele><time>2026-03-22T09:59:36.999Z</time></trkpt><trkpt lat="44.71543423854541" lon="9.904809818583713"><ele>829.0</ele><time>2026-03-22T09:59:38.999Z</time></trkpt><trkpt lat="44.715453319560105" lon="9.90494671169946"><ele>828.9999999999999</ele><time>2026-03-22T09:59:40.999Z</time></trkpt><trkpt lat="44.715397353081975" lon="9.905027781230276"><ele>829.0</ele><time>2026-03-22T09:59:43.999Z</time></trkpt><trkpt lat="44.715340329528075" lon="9.905089579663098"><ele>829.0</ele><time>2026-03-22T09:59:46.999Z</time></trkpt><trkpt lat="44.715279348892004" lon="9.905112137495474"><ele>829.0</ele><time>2026-03-22T09:59:48.999Z</time></trkpt><trkpt lat="44.71521643017814" lon="9.905072999246508"><ele>828.9999999999999</ele><time>2026-03-22T09:59:50.999Z</time></trkpt><trkpt lat="44.715138772009524" lon="9.904996989436375"><ele>829.0</ele><time>2026-03-22T09:59:53.999Z</time></trkpt><trkpt lat="44.715025422028084" lon="9.904920815224838"><ele>824.8000000000001</ele><time>2026-03-22T09:59:55.999Z</time></trkpt><trkpt lat="44.71491228491771" lon="9.904892749535442"><ele>820.6</ele><time>2026-03-22T09:59:56.999Z</time></trkpt><trkpt lat="44.714823447487205" lon="9.904778697820086"><ele>816.4</ele><time>2026-03-22T09:59:58.999Z</time></trkpt><trkpt lat="44.71478180096123" lon="9.90462793145609"><ele>812.2</ele><time>2026-03-22T09:59:59.999Z</time></trkpt><trkpt lat="44.71471622127385" lon="9.904556472156132"><ele>808.0</ele><time>2026-03-22T10:00:00.999Z</time></trkpt><trkpt lat="44.71460185682755" lon="9.904463946172418"><ele>807.9999999999999</ele><time>2026-03-22T10:00:02.999Z</time></trkpt><trkpt lat="44.714512200796435" lon="9.904436252449853"><ele>808.0</ele><time>2026-03-22T10:00:04.999Z</time></trkpt><trkpt lat="44.714446685153845" lon="9.90454272103657"><ele>808.0</ele><time>2026-03-22T10:00:06.999Z</time></trkpt><trkpt lat="44.71438100836836" lon="9.904582129578422"><ele>808.0</ele><time>2026-03-22T10:00:07.999Z</time></trkpt><trkpt lat="44.714305937972995" lon="9.904648558385583"><ele>807.9999999999999</ele><time>2026-03-22T10:00:08.999Z</time></trkpt><trkpt lat="44.714303624038806" lon="9.904743688294452"><ele>808.0</ele><time>2026-03-22T10:00:09.999Z</time></trkpt><trkpt lat="44.71427273359965" lon="9.904859426193191"><ele>808.5999999999999</ele><time>2026-03-22T10:00:10.999Z</time></trkpt><trkpt lat="44.714244673099564" lon="9.90496235261575"><ele>809.1999999999999</ele><time>2026-03-22T10:00:11.999Z</time></trkpt><trkpt lat="44.7142297516854" lon="9.905066165682115"><ele>809.8</ele><time>2026-03-22T10:00:12.999Z</time></trkpt><trkpt lat="44.71423075460247" lon="9.905155380252664"><ele>810.4</ele><time>2026-03-22T10:00:13.999Z</time></trkpt><trkpt lat="44.714197046108836" lon="9.905338656127709"><ele>811.0</ele><time>2026-03-22T10:00:15.999Z</time></trkpt><trkpt lat="44.71415414786011" lon="9.905474183941859"><ele>808.1999999999999</ele><time>2026-03-22T10:00:16.999Z</time></trkpt><trkpt lat="44.714114696392514" lon="9.905656161356603"><ele>805.4</ele><time>2026-03-22T10:00:18.999Z</time></trkpt><trkpt lat="44.7140679314524" lon="9.905767201844228"><ele>802.6</ele><time>2026-03-22T10:00:19.999Z</time></trkpt><trkpt lat="44.714063196283014" lon="9.905880813906677"><ele>799.8</ele><time>2026-03-22T10:00:21.999Z</time></trkpt><trkpt lat="44.71405658541593" lon="9.906011143245728"><ele>797.0</ele><time>2026-03-22T10:00:24.999Z</time></trkpt><trkpt lat="44.71402191232306" lon="9.9061398309721"><ele>793.5</ele><time>2026-03-22T10:00:25.999Z</time></trkpt><trkpt lat="44.713904340759896" lon="9.906236660539285"><ele>790.0</ele><time>2026-03-22T10:00:27.999Z</time></trkpt><trkpt lat="44.713835307231214" lon="9.906456034501701"><ele>786.5</ele><time>2026-03-22T10:00:29.999Z</time></trkpt><trkpt lat="44.71382207380609" lon="9.906595093419975"><ele>783.0</ele><time>2026-03-22T10:00:30.999Z</time></trkpt><trkpt lat="44.713821279623865" lon="9.906714723629698"><ele>780.6666666666666</ele><time>2026-03-22T10:00:31.999Z</time></trkpt><trkpt lat="44.713827861093534" lon="9.906808479213554"><ele>778.3333333333333</ele><time>2026-03-22T10:00:32.999Z</time></trkpt><trkpt lat="44.71382823623671" lon="9.906909035762745"><ele>776.0</ele><time>2026-03-22T10:00:33.999Z</time></trkpt><trkpt lat="44.71377027305361" lon="9.906993333573293"><ele>773.6666666666666</ele><time>2026-03-22T10:00:34.999Z</time></trkpt><trkpt lat="44.713732126114486" lon="9.907104781182207"><ele>771.3333333333333</ele><time>2026-03-22T10:00:35.999Z</time></trkpt><trkpt lat="44.71368667323151" lon="9.907235986668297"><ele>769.0</ele><time>2026-03-22T10:00:36.999Z</time></trkpt><trkpt lat="44.71362915051521" lon="9.907388247694099"><ele>768.9999999999999</ele><time>2026-03-22T10:00:37.999Z</time></trkpt><trkpt lat="44.713581931408555" lon="9.907453751700334"><ele>769.0</ele><time>2026-03-22T10:00:38.999Z</time></trkpt><trkpt lat="44.71352413831215" lon="9.907577528043438"><ele>769.0</ele><time>2026-03-22T10:00:39.999Z</time></trkpt><trkpt lat="44.713463188744875" lon="9.907671054825284"><ele>769.0</ele><time>2026-03-22T10:00:40.999Z</time></trkpt><trkpt lat="44.71340746437127" lon="9.907778522477543"><ele>768.9999999999999</ele><time>2026-03-22T10:00:41.999Z</time></trkpt><trkpt lat="44.71337578841213" lon="9.907888187399159"><ele>769.0</ele><time>2026-03-22T10:00:42.999Z</time></trkpt><trkpt lat="44.713283689300475" lon="9.90802431008326"><ele>771.4000000000001</ele><time>2026-03-22T10:00:44.999Z</time></trkpt><trkpt lat="44.713201859796186" lon="9.908122823242884"><ele>773.8</ele><time>2026-03-22T10:00:45.999Z</time></trkpt><trkpt lat="44.71310576212804" lon="9.908181485894843"><ele>776.2</ele><time>2026-03-22T10:00:47.999Z</time></trkpt><trkpt lat="44.713034823011014" lon="9.9082382437856"><ele>778.5999999999999</ele><time>2026-03-22T10:00:49.999Z</time></trkpt><trkpt lat="44.71296259424688" lon="9.908271130984394"><ele>781.0</ele><time>2026-03-22T10:00:52Z</time></trkpt><trkpt lat="44.71293176465067" lon="9.908167142293953"><ele>780.9999999999999</ele><time>2026-03-22T10:00:55Z</time></trkpt><trkpt lat="44.71290115541256" lon="9.908083808429872"><ele>781.0</ele><time>2026-03-22T10:00:57Z</time></trkpt><trkpt lat="44.71290279741533" lon="9.90798205266152"><ele>781.0</ele><time>2026-03-22T10:00:59Z</time></trkpt><trkpt lat="44.71292073599531" lon="9.907877365803488"><ele>781.0</ele><time>2026-03-22T10:01:00Z</time></trkpt><trkpt lat="44.71294131176057" lon="9.907780723183494"><ele>780.9999999999999</ele><time>2026-03-22T10:01:01Z</time></trkpt><trkpt lat="44.71295133998535" lon="9.907621163470386"><ele>781.0</ele><time>2026-03-22T10:01:03Z</time></trkpt><trkpt lat="44.712937283307475" lon="9.907528575644342"><ele>784.4</ele><time>2026-03-22T10:01:04Z</time></trkpt><trkpt lat="44.712912018198836" lon="9.907409927822266"><ele>787.8</ele><time>2026-03-22T10:01:05Z</time></trkpt><trkpt lat="44.712971456691804" lon="9.90727777747395"><ele>791.1999999999999</ele><time>2026-03-22T10:01:07Z</time></trkpt><trkpt lat="44.712930797806905" lon="9.907148761149102"><ele>794.5999999999999</ele><time>2026-03-22T10:01:09Z</time></trkpt><trkpt lat="44.71288299086329" lon="9.907004508861041"><ele>798.0</ele><time>2026-03-22T10:01:11Z</time></trkpt><trkpt lat="44.71288958020934" lon="9.90682668507761"><ele>800.0</ele><time>2026-03-22T10:01:13Z</time></trkpt><trkpt lat="44.712902921722765" lon="9.906705442023533"><ele>802.0</ele><time>2026-03-22T10:01:14Z</time></trkpt><trkpt lat="44.7129222968676" lon="9.906589603452543"><ele>804.0</ele><time>2026-03-22T10:01:15Z</time></trkpt><trkpt lat="44.712946437007055" lon="9.90647842593928"><ele>806.0</ele><time>2026-03-22T10:01:16Z</time></trkpt><trkpt lat="44.712968914081785" lon="9.90638128945892"><ele>808.0</ele><time>2026-03-22T10:01:17Z</time></trkpt><trkpt lat="44.71294380852969" lon="9.906285057132093"><ele>810.0</ele><time>2026-03-22T10:01:19Z</time></trkpt><trkpt lat="44.712907117288694" lon="9.906148467524158"><ele>810.0</ele><time>2026-03-22T10:01:23Z</time></trkpt><trkpt lat="44.712831924259405" lon="9.906035190252513"><ele>810.0</ele><time>2026-03-22T10:01:25Z</time></trkpt><trkpt lat="44.71280231423464" lon="9.905932509621472"><ele>810.0</ele><time>2026-03-22T10:01:27Z</time></trkpt><trkpt lat="44.7128293386223" lon="9.905809793609142"><ele>810.0</ele><time>2026-03-22T10:01:29Z</time></trkpt><trkpt lat="44.71278571218512" lon="9.90555434939103"><ele>812.8</ele><time>2026-03-22T10:01:30Z</time></trkpt><trkpt lat="44.712870098975785" lon="9.905464003894885"><ele>815.6</ele><time>2026-03-22T10:01:31Z</time></trkpt><trkpt lat="44.71294357963948" lon="9.90537384612677"><ele>818.4000000000001</ele><time>2026-03-22T10:01:32Z</time></trkpt><trkpt lat="44.71299882662431" lon="9.905284092128829"><ele>821.2</ele><time>2026-03-22T10:01:33Z</time></trkpt><trkpt lat="44.71304883593203" lon="9.905179740487533"><ele>824.0</ele><time>2026-03-22T10:01:34Z</time></trkpt><trkpt lat="44.713096055249494" lon="9.905085855943698"><ele>826.5000000000001</ele><time>2026-03-22T10:01:35Z</time></trkpt><trkpt lat="44.71313715816798" lon="9.905018277921902"><ele>829.0</ele><time>2026-03-22T10:01:36Z</time></trkpt><trkpt lat="44.713223059052126" lon="9.905011502643491"><ele>831.5</ele><time>2026-03-22T10:01:37Z</time></trkpt><trkpt lat="44.71330960564953" lon="9.9049021616388"><ele>834.0</ele><time>2026-03-22T10:01:39Z</time></trkpt><trkpt lat="44.71333011972458" lon="9.904784641264303"><ele>836.5000000000001</ele><time>2026-03-22T10:01:40Z</time></trkpt><trkpt lat="44.71335183817882" lon="9.904694661193432"><ele>839.0</ele><time>2026-03-22T10:01:41Z</time></trkpt><trkpt lat="44.71330193480637" lon="9.904602429410987"><ele>839.0000000000001</ele><time>2026-03-22T10:01:43Z</time></trkpt><trkpt lat="44.71329010596983" lon="9.904491939027988"><ele>839.0</ele><time>2026-03-22T10:01:44.999Z</time></trkpt><trkpt lat="44.713323269813706" lon="9.904397332947042"><ele>839.0</ele><time>2026-03-22T10:01:45.999Z</time></trkpt><trkpt lat="44.713382373501815" lon="9.904322004184136"><ele>839.0</ele><time>2026-03-22T10:01:46.999Z</time></trkpt><trkpt lat="44.71344819100534" lon="9.904262593015947"><ele>839.0000000000001</ele><time>2026-03-22T10:01:47.999Z</time></trkpt><trkpt lat="44.71348521175384" lon="9.90414549904441"><ele>839.0</ele><time>2026-03-22T10:01:49.999Z</time></trkpt><trkpt lat="44.71355604121661" lon="9.904075862267534"><ele>836.8000000000001</ele><time>2026-03-22T10:01:50.999Z</time></trkpt><trkpt lat="44.71361552093495" lon="9.90390819760436"><ele>834.6</ele><time>2026-03-22T10:01:52.999Z</time></trkpt><trkpt lat="44.71368250411266" lon="9.90379663640376"><ele>832.4</ele><time>2026-03-22T10:01:53.999Z</time></trkpt><trkpt lat="44.71370537125388" lon="9.903695806324311"><ele>830.2</ele><time>2026-03-22T10:01:54.999Z</time></trkpt><trkpt lat="44.713821024777715" lon="9.903621661400424"><ele>828.0</ele><time>2026-03-22T10:01:56.999Z</time></trkpt><trkpt lat="44.71389497784194" lon="9.903582415117256"><ele>828.0</ele><time>2026-03-22T10:01:57.999Z</time></trkpt><trkpt lat="44.7139909435282" lon="9.903501882590897"><ele>828.0</ele><time>2026-03-22T10:01:59.999Z</time></trkpt><trkpt lat="44.714038599825244" lon="9.903391088669286"><ele>828.0</ele><time>2026-03-22T10:02:00.999Z</time></trkpt><trkpt lat="44.71408019217736" lon="9.903317284452536"><ele>828.0</ele><time>2026-03-22T10:02:01.999Z</time></trkpt><trkpt lat="44.714068859836864" lon="9.903171276724164"><ele>828.0</ele><time>2026-03-22T10:02:03.999Z</time></trkpt><trkpt lat="44.71403168218482" lon="9.903093558785777"><ele>828.0</ele><time>2026-03-22T10:02:04.999Z</time></trkpt><trkpt lat="44.71405880902316" lon="9.902951878917452"><ele>830.6666666666666</ele><time>2026-03-22T10:02:06.999Z</time></trkpt><trkpt lat="44.71408792189809" lon="9.902845999582658"><ele>833.3333333333333</ele><time>2026-03-22T10:02:07.999Z</time></trkpt><trkpt lat="44.71410289504602" lon="9.90273299238428"><ele>836.0</ele><time>2026-03-22T10:02:09.999Z</time></trkpt><trkpt lat="44.71412904686378" lon="9.902634495571599"><ele>838.6666666666666</ele><time>2026-03-22T10:02:12.999Z</time></trkpt><trkpt lat="44.7141722942214" lon="9.90253721301627"><ele>841.3333333333333</ele><time>2026-03-22T10:02:14.999Z</time></trkpt><trkpt lat="44.71420086524471" lon="9.902414489610688"><ele>844.0</ele><time>2026-03-22T10:02:16.999Z</time></trkpt><trkpt lat="44.71420890947486" lon="9.902183402256975"><ele>844.1666666666666</ele><time>2026-03-22T10:02:17.999Z</time></trkpt><trkpt lat="44.71415855376698" lon="9.90206208526782"><ele>844.3333333333333</ele><time>2026-03-22T10:02:18.999Z</time></trkpt><trkpt lat="44.714101449455974" lon="9.901947991110395"><ele>844.5</ele><time>2026-03-22T10:02:21.999Z</time></trkpt><trkpt lat="44.7140277423167" lon="9.901881521992431"><ele>844.6666666666667</ele><time>2026-03-22T10:02:24.999Z</time></trkpt><trkpt lat="44.71405126998252" lon="9.901784301199877"><ele>844.8333333333334</ele><time>2026-03-22T10:02:26.999Z</time></trkpt><trkpt lat="44.714076309073974" lon="9.901689484467415"><ele>845.0</ele><time>2026-03-22T10:02:28.999Z</time></trkpt><trkpt lat="44.714273278024976" lon="9.901136050777474"><ele>844.5000000000001</ele><time>2026-03-22T10:02:31.999Z</time></trkpt><trkpt lat="44.71429179344396" lon="9.901048075631305"><ele>844.0</ele><time>2026-03-22T10:02:32.999Z</time></trkpt><trkpt lat="44.71432461997971" lon="9.900919088551648"><ele>843.5</ele><time>2026-03-22T10:02:33.999Z</time></trkpt><trkpt lat="44.71434174232838" lon="9.900780441058142"><ele>843.0</ele><time>2026-03-22T10:02:34.999Z</time></trkpt><trkpt lat="44.71441741054475" lon="9.900728674598724"><ele>842.5000000000001</ele><time>2026-03-22T10:02:35.999Z</time></trkpt><trkpt lat="44.71450374280007" lon="9.900715286255984"><ele>842.0</ele><time>2026-03-22T10:02:36.999Z</time></trkpt><trkpt lat="44.714444747190534" lon="9.900557093030454"><ele>841.5000000000001</ele><time>2026-03-22T10:02:39.999Z</time></trkpt><trkpt lat="44.714381704010876" lon="9.90049354823022"><ele>841.0</ele><time>2026-03-22T10:02:40.999Z</time></trkpt><trkpt lat="44.71429802855435" lon="9.900487854628125"><ele>840.5</ele><time>2026-03-22T10:02:41.999Z</time></trkpt><trkpt lat="44.7142387811985" lon="9.900457126274711"><ele>840.0</ele><time>2026-03-22T10:02:42.999Z</time></trkpt><trkpt lat="44.71416525757504" lon="9.90042876987927"><ele>839.5000000000001</ele><time>2026-03-22T10:02:43.999Z</time></trkpt><trkpt lat="44.714083860008984" lon="9.900333270108824"><ele>839.0</ele><time>2026-03-22T10:02:44.999Z</time></trkpt><trkpt lat="44.714024072958935" lon="9.900293982684332"><ele>839.0</ele><time>2026-03-22T10:02:45.999Z</time></trkpt><trkpt lat="44.71396145239748" lon="9.900257615579795"><ele>839.0</ele><time>2026-03-22T10:02:46.999Z</time></trkpt><trkpt lat="44.713869336244734" lon="9.900201813039986"><ele>839.0</ele><time>2026-03-22T10:02:47.999Z</time></trkpt><trkpt lat="44.713797299537305" lon="9.900215516472786"><ele>839.0</ele><time>2026-03-22T10:02:48.999Z</time></trkpt><trkpt lat="44.71365292000284" lon="9.90014887609431"><ele>839.0</ele><time>2026-03-22T10:02:50.999Z</time></trkpt><trkpt lat="44.71354003238002" lon="9.900117468732933"><ele>841.75</ele><time>2026-03-22T10:02:51.999Z</time></trkpt><trkpt lat="44.713385657185206" lon="9.90005823513982"><ele>844.5</ele><time>2026-03-22T10:02:52.999Z</time></trkpt><trkpt lat="44.713227409544636" lon="9.899987977953407"><ele>847.25</ele><time>2026-03-22T10:02:53.999Z</time></trkpt><trkpt lat="44.713122842020674" lon="9.899946190159493"><ele>850.0</ele><time>2026-03-22T10:02:54.999Z</time></trkpt><trkpt lat="44.713025317064165" lon="9.89987002903874"><ele>849.9999999999999</ele><time>2026-03-22T10:02:55.999Z</time></trkpt><trkpt lat="44.71296573464366" lon="9.899827740599985"><ele>850.0</ele><time>2026-03-22T10:02:56.999Z</time></trkpt><trkpt lat="44.7128639658487" lon="9.899755600110009"><ele>850.0</ele><time>2026-03-22T10:02:59Z</time></trkpt><trkpt lat="44.712826554793175" lon="9.899683950212346"><ele>850.0</ele><time>2026-03-22T10:03:03Z</time></trkpt><trkpt lat="44.712748280064254" lon="9.89965924587151"><ele>849.9999999999999</ele><time>2026-03-22T10:03:22Z</time></trkpt><trkpt lat="44.71265439273041" lon="9.899634132979738"><ele>850.0</ele><time>2026-03-22T10:03:24Z</time></trkpt><trkpt lat="44.71258097375144" lon="9.899567346372198"><ele>849.9999999999999</ele><time>2026-03-22T10:03:26Z</time></trkpt><trkpt lat="44.7126660309098" lon="9.899640693281547"><ele>850.0</ele><time>2026-03-22T10:03:32Z</time></trkpt><trkpt lat="44.71274550070753" lon="9.899672078897108"><ele>850.0</ele><time>2026-03-22T10:03:33Z</time></trkpt><trkpt lat="44.71280556980137" lon="9.899727888727453"><ele>850.0</ele><time>2026-03-22T10:33:49.999Z</time></trkpt><trkpt lat="44.71287349146743" lon="9.899763380125146"><ele>849.9999999999999</ele><time>2026-03-22T10:33:51.999Z</time></trkpt><trkpt lat="44.71293776765513" lon="9.899747403192576"><ele>850.0</ele><time>2026-03-22T10:33:53.999Z</time></trkpt><trkpt lat="44.713028345182906" lon="9.899715095934994"><ele>849.9999999999999</ele><time>2026-03-22T10:33:56.999Z</time></trkpt><trkpt lat="44.713124491615545" lon="9.899635670667665"><ele>850.0</ele><time>2026-03-22T10:33:58.999Z</time></trkpt><trkpt lat="44.713170671847905" lon="9.899568505856095"><ele>850.0</ele><time>2026-03-22T10:33:59.999Z</time></trkpt><trkpt lat="44.71323009760972" lon="9.899507978422784"><ele>850.0</ele><time>2026-03-22T10:34:00.999Z</time></trkpt><trkpt lat="44.71330560737439" lon="9.899470138248029"><ele>849.9999999999999</ele><time>2026-03-22T10:34:01.999Z</time></trkpt><trkpt lat="44.71338790273408" lon="9.899434929429829"><ele>850.0</ele><time>2026-03-22T10:34:02.999Z</time></trkpt><trkpt lat="44.71350573963834" lon="9.899381488016502"><ele>851.4</ele><time>2026-03-22T10:34:04.999Z</time></trkpt><trkpt lat="44.7135968773635" lon="9.899316140450141"><ele>852.8</ele><time>2026-03-22T10:34:06.999Z</time></trkpt><trkpt lat="44.71367238122477" lon="9.899248962398445"><ele>854.2</ele><time>2026-03-22T10:34:08.999Z</time></trkpt><trkpt lat="44.71379244301185" lon="9.899246275035473"><ele>855.6</ele><time>2026-03-22T10:34:10.999Z</time></trkpt><trkpt lat="44.71389592931701" lon="9.89929229349443"><ele>857.0</ele><time>2026-03-22T10:34:12.999Z</time></trkpt><trkpt lat="44.71397704693289" lon="9.89933288574812"><ele>857.0000000000001</ele><time>2026-03-22T10:34:14.999Z</time></trkpt><trkpt lat="44.71403879577871" lon="9.899285014828157"><ele>857.0</ele><time>2026-03-22T10:34:15.999Z</time></trkpt><trkpt lat="44.71414995368385" lon="9.899219905990957"><ele>857.0</ele><time>2026-03-22T10:34:17.999Z</time></trkpt><trkpt lat="44.71421103184459" lon="9.899181197687836"><ele>857.0</ele><time>2026-03-22T10:34:18.999Z</time></trkpt><trkpt lat="44.7142901049398" lon="9.899143237414835"><ele>857.0000000000001</ele><time>2026-03-22T10:34:19.999Z</time></trkpt><trkpt lat="44.714368387348735" lon="9.899117101747708"><ele>857.0</ele><time>2026-03-22T10:34:20.999Z</time></trkpt><trkpt lat="44.71444810080422" lon="9.89913994655521"><ele>859.6</ele><time>2026-03-22T10:34:21.999Z</time></trkpt><trkpt lat="44.71455044311121" lon="9.89919940088077"><ele>862.2</ele><time>2026-03-22T10:34:22.999Z</time></trkpt><trkpt lat="44.71464360807996" lon="9.89921622375825"><ele>864.8</ele><time>2026-03-22T10:34:23.999Z</time></trkpt><trkpt lat="44.71473154274327" lon="9.899215311646126"><ele>867.4</ele><time>2026-03-22T10:34:24.999Z</time></trkpt><trkpt lat="44.7148082824981" lon="9.899214289782897"><ele>870.0</ele><time>2026-03-22T10:34:25.998Z</time></trkpt><trkpt lat="44.7148877653453" lon="9.89931263321376"><ele>870.0</ele><time>2026-03-22T10:34:28Z</time></trkpt><trkpt lat="44.71494086415619" lon="9.899400425916884"><ele>870.0</ele><time>2026-03-22T10:34:30Z</time></trkpt><trkpt lat="44.71500516224633" lon="9.899456485975843"><ele>870.0</ele><time>2026-03-22T10:34:31Z</time></trkpt><trkpt lat="44.7150806320826" lon="9.899444201664659"><ele>870.0</ele><time>2026-03-22T10:34:32Z</time></trkpt><trkpt lat="44.71514787117457" lon="9.899428830096465"><ele>870.0</ele><time>2026-03-22T10:34:33Z</time></trkpt><trkpt lat="44.71526526097054" lon="9.899490664294158"><ele>870.0</ele><time>2026-03-22T10:34:35Z</time></trkpt><trkpt lat="44.71534605787837" lon="9.899529664489442"><ele>873.3333333333334</ele><time>2026-03-22T10:34:37Z</time></trkpt><trkpt lat="44.71540192194306" lon="9.89947116803687"><ele>876.6666666666667</ele><time>2026-03-22T10:34:40Z</time></trkpt><trkpt lat="44.71549374615669" lon="9.899463493430943"><ele>880.0</ele><time>2026-03-22T10:34:42Z</time></trkpt><trkpt lat="44.71558529039103" lon="9.899531106117253"><ele>883.3333333333334</ele><time>2026-03-22T10:34:44Z</time></trkpt><trkpt lat="44.715654655959554" lon="9.899557304112204"><ele>886.6666666666667</ele><time>2026-03-22T10:34:47Z</time></trkpt><trkpt lat="44.715734250306745" lon="9.89956898713031"><ele>890.0</ele><time>2026-03-22T10:34:48Z</time></trkpt><trkpt lat="44.71572840055537" lon="9.899696617088164"><ele>890.0</ele><time>2026-03-22T10:34:51Z</time></trkpt><trkpt lat="44.715756450458606" lon="9.899776616682045"><ele>890.0</ele><time>2026-03-22T10:34:52Z</time></trkpt><trkpt lat="44.71570533243931" lon="9.899675571060625"><ele>890.0</ele><time>2026-03-22T10:34:57Z</time></trkpt><trkpt lat="44.71554794320468" lon="9.899742266776725"><ele>890.0</ele><time>2026-03-22T10:34:59Z</time></trkpt><trkpt lat="44.7154706248675" lon="9.899781161080375"><ele>890.0</ele><time>2026-03-22T10:35:01Z</time></trkpt><trkpt lat="44.71545377176788" lon="9.899907660427592"><ele>890.0</ele><time>2026-03-22T10:35:03Z</time></trkpt><trkpt lat="44.71542236110582" lon="9.900082416992971"><ele>890.0</ele><time>2026-03-22T10:35:05Z</time></trkpt><trkpt lat="44.71538382795475" lon="9.90019205245155"><ele>890.0</ele><time>2026-03-22T10:35:07Z</time></trkpt><trkpt lat="44.715404665920296" lon="9.90029022841566"><ele>890.0</ele><time>2026-03-22T10:35:09Z</time></trkpt><trkpt lat="44.71542263862117" lon="9.900482301217135"><ele>890.0</ele><time>2026-03-22T10:35:11Z</time></trkpt><trkpt lat="44.71543908618129" lon="9.900601316185782"><ele>890.6666666666667</ele><time>2026-03-22T10:35:12Z</time></trkpt><trkpt lat="44.715450240036596" lon="9.900716755190452"><ele>891.3333333333334</ele><time>2026-03-22T10:35:13Z</time></trkpt><trkpt lat="44.715465187073384" lon="9.900864824772006"><ele>892.0</ele><time>2026-03-22T10:35:15Z</time></trkpt><trkpt lat="44.715449003081886" lon="9.901009258306445"><ele>892.6666666666667</ele><time>2026-03-22T10:35:17Z</time></trkpt><trkpt lat="44.7154263461951" lon="9.901111071935759"><ele>893.3333333333334</ele><time>2026-03-22T10:35:17.999Z</time></trkpt><trkpt lat="44.71540384047979" lon="9.901210525283405"><ele>894.0</ele><time>2026-03-22T10:35:18.999Z</time></trkpt><trkpt lat="44.71539510275575" lon="9.901308172212035"><ele>894.0</ele><time>2026-03-22T10:35:19.999Z</time></trkpt><trkpt lat="44.71538240409987" lon="9.901399194646412"><ele>894.0000000000001</ele><time>2026-03-22T10:35:20.999Z</time></trkpt><trkpt lat="44.715358370596334" lon="9.9015218858521"><ele>894.0000000000001</ele><time>2026-03-22T10:35:22.999Z</time></trkpt><trkpt lat="44.71542099396649" lon="9.901643159346884"><ele>894.0</ele><time>2026-03-22T10:35:24.999Z</time></trkpt><trkpt lat="44.715544466545325" lon="9.901603735805919"><ele>894.0</ele><time>2026-03-22T10:35:26.999Z</time></trkpt><trkpt lat="44.71562396977112" lon="9.901558989533992"><ele>894.0</ele><time>2026-03-22T10:35:27.999Z</time></trkpt><trkpt lat="44.715695614205764" lon="9.901521240113578"><ele>894.0000000000001</ele><time>2026-03-22T10:35:28.999Z</time></trkpt><trkpt lat="44.71575743481933" lon="9.90148377913317"><ele>894.0000000000001</ele><time>2026-03-22T10:35:29.999Z</time></trkpt><trkpt lat="44.71586594145623" lon="9.901419311937284"><ele>894.0</ele><time>2026-03-22T10:35:31.999Z</time></trkpt><trkpt lat="44.71598045431407" lon="9.901330781276855"><ele>894.0</ele><time>2026-03-22T10:35:33.999Z</time></trkpt><trkpt lat="44.71606657707988" lon="9.901242476759101"><ele>894.6</ele><time>2026-03-22T10:35:35.999Z</time></trkpt><trkpt lat="44.71612642319114" lon="9.90120545683565"><ele>895.2</ele><time>2026-03-22T10:35:36.999Z</time></trkpt><trkpt lat="44.71619498115215" lon="9.901173738662546"><ele>895.8000000000001</ele><time>2026-03-22T10:35:37.999Z</time></trkpt><trkpt lat="44.7163161022745" lon="9.901126006002524"><ele>896.4000000000001</ele><time>2026-03-22T10:35:39.999Z</time></trkpt><trkpt lat="44.71634599923986" lon="9.9012538095147"><ele>897.0</ele><time>2026-03-22T10:35:42.999Z</time></trkpt><trkpt lat="44.71638074647432" lon="9.901399231043074"><ele>897.0</ele><time>2026-03-22T10:35:44.999Z</time></trkpt><trkpt lat="44.71641161804511" lon="9.901507622726246"><ele>897.0</ele><time>2026-03-22T10:35:46.999Z</time></trkpt><trkpt lat="44.716437891620416" lon="9.901642123825823"><ele>897.0</ele><time>2026-03-22T10:35:48.999Z</time></trkpt><trkpt lat="44.71643592890422" lon="9.901782005579697"><ele>897.0</ele><time>2026-03-22T10:35:50.999Z</time></trkpt><trkpt lat="44.71632357619726" lon="9.901839318761608"><ele>897.0</ele><time>2026-03-22T10:35:52.999Z</time></trkpt><trkpt lat="44.71623412790924" lon="9.90186464271216"><ele>896.4000000000001</ele><time>2026-03-22T10:35:54.999Z</time></trkpt><trkpt lat="44.716184300791056" lon="9.901798873931556"><ele>895.8000000000001</ele><time>2026-03-22T10:35:55.999Z</time></trkpt><trkpt lat="44.71608944962066" lon="9.901777877613622"><ele>895.2</ele><time>2026-03-22T10:35:58.999Z</time></trkpt><trkpt lat="44.715970897003416" lon="9.90175530565169"><ele>894.6</ele><time>2026-03-22T10:36:01.999Z</time></trkpt><trkpt lat="44.715864048952334" lon="9.901714788120172"><ele>894.0</ele><time>2026-03-22T10:36:03.999Z</time></trkpt><trkpt lat="44.71576930552467" lon="9.901710595254395"><ele>894.0</ele><time>2026-03-22T10:36:06.999Z</time></trkpt><trkpt lat="44.71553570196497" lon="9.901675334454577"><ele>894.0</ele><time>2026-03-22T10:36:08.999Z</time></trkpt><trkpt lat="44.71547796734783" lon="9.901768350040227"><ele>894.0</ele><time>2026-03-22T10:36:11.999Z</time></trkpt><trkpt lat="44.71550496987836" lon="9.901899675483817"><ele>894.0</ele><time>2026-03-22T10:36:13.999Z</time></trkpt><trkpt lat="44.7155693167919" lon="9.902055148686006"><ele>891.4000000000001</ele><time>2026-03-22T10:36:15.999Z</time></trkpt><trkpt lat="44.7156056973437" lon="9.902141217133561"><ele>888.8000000000001</ele><time>2026-03-22T10:36:16.999Z</time></trkpt><trkpt lat="44.71564840802821" lon="9.90226408752479"><ele>886.1999999999999</ele><time>2026-03-22T10:36:18.999Z</time></trkpt><trkpt lat="44.71568678140762" lon="9.90238967085668"><ele>883.5999999999999</ele><time>2026-03-22T10:36:20.999Z</time></trkpt><trkpt lat="44.71577332693434" lon="9.902569696963251"><ele>881.0</ele><time>2026-03-22T10:36:22.999Z</time></trkpt><trkpt lat="44.71583302197258" lon="9.902655671180714"><ele>878.3333333333334</ele><time>2026-03-22T10:36:23.999Z</time></trkpt><trkpt lat="44.715890030652524" lon="9.902748425441956"><ele>875.6666666666667</ele><time>2026-03-22T10:36:24.999Z</time></trkpt><trkpt lat="44.71596799459849" lon="9.902774536522374"><ele>873.0</ele><time>2026-03-22T10:36:26.999Z</time></trkpt><trkpt lat="44.71598339045106" lon="9.902885133166357"><ele>870.3333333333333</ele><time>2026-03-22T10:36:30.999Z</time></trkpt><trkpt lat="44.71601432950845" lon="9.90300174052711"><ele>867.6666666666666</ele><time>2026-03-22T10:36:34Z</time></trkpt><trkpt lat="44.71603555797549" lon="9.903125121953112"><ele>865.0</ele><time>2026-03-22T10:36:36Z</time></trkpt><trkpt lat="44.71605737041636" lon="9.903221830721153"><ele>864.8</ele><time>2026-03-22T10:36:40Z</time></trkpt><trkpt lat="44.71607823908441" lon="9.90332473505534"><ele>864.6</ele><time>2026-03-22T10:36:41Z</time></trkpt><trkpt lat="44.71614593926496" lon="9.903443494774757"><ele>864.4000000000001</ele><time>2026-03-22T10:36:44Z</time></trkpt><trkpt lat="44.716211620779134" lon="9.903460181228388"><ele>864.2</ele><time>2026-03-22T10:36:47Z</time></trkpt><trkpt lat="44.716273249198075" lon="9.903521211293347"><ele>864.0</ele><time>2026-03-22T10:36:49Z</time></trkpt><trkpt lat="44.71638717311146" lon="9.903595719930584"><ele>864.0</ele><time>2026-03-22T10:37:19Z</time></trkpt><trkpt lat="44.716467934266404" lon="9.903690452205819"><ele>864.0000000000001</ele><time>2026-03-22T10:37:21Z</time></trkpt><trkpt lat="44.71652946120559" lon="9.90377508121412"><ele>864.0000000000001</ele><time>2026-03-22T10:37:23Z</time></trkpt><trkpt lat="44.716591566187034" lon="9.903849313497682"><ele>864.0</ele><time>2026-03-22T10:37:25Z</time></trkpt><trkpt lat="44.716667171561774" lon="9.90394493461763"><ele>864.0</ele><time>2026-03-22T10:37:26.999Z</time></trkpt><trkpt lat="44.71676458995793" lon="9.904056662410895"><ele>864.0</ele><time>2026-03-22T10:37:28.999Z</time></trkpt><trkpt lat="44.71684617927591" lon="9.904109273206604"><ele>864.0000000000001</ele><time>2026-03-22T10:37:30.999Z</time></trkpt><trkpt lat="44.71686143945046" lon="9.904206393150252"><ele>864.0000000000001</ele><time>2026-03-22T10:37:31.999Z</time></trkpt><trkpt lat="44.716893410950284" lon="9.904348025532936"><ele>864.0</ele><time>2026-03-22T10:37:33.999Z</time></trkpt><trkpt lat="44.71696830067724" lon="9.904535371754664"><ele>864.0</ele><time>2026-03-22T10:37:35.999Z</time></trkpt><trkpt lat="44.717027419026415" lon="9.904662248921777"><ele>859.6</ele><time>2026-03-22T10:37:37.999Z</time></trkpt><trkpt lat="44.71702420503031" lon="9.904830023246458"><ele>855.2</ele><time>2026-03-22T10:37:39.999Z</time></trkpt><trkpt lat="44.71701209806887" lon="9.904967031960282"><ele>850.8000000000001</ele><time>2026-03-22T10:37:41.999Z</time></trkpt><trkpt lat="44.71697328581476" lon="9.905120283108497"><ele>846.4000000000001</ele><time>2026-03-22T10:37:43.999Z</time></trkpt><trkpt lat="44.71697189188272" lon="9.905272594851038"><ele>842.0</ele><time>2026-03-22T10:37:45.999Z</time></trkpt><trkpt lat="44.71697786880605" lon="9.905377115837675"><ele>841.0000000000001</ele><time>2026-03-22T10:37:46.999Z</time></trkpt><trkpt lat="44.71699447020646" lon="9.905467166016809"><ele>840.0</ele><time>2026-03-22T10:37:47.999Z</time></trkpt><trkpt lat="44.71702468008432" lon="9.905561565626344"><ele>839.0</ele><time>2026-03-22T10:37:48.999Z</time></trkpt><trkpt lat="44.71705014816847" lon="9.90567357204876"><ele>838.0</ele><time>2026-03-22T10:37:49.999Z</time></trkpt><trkpt lat="44.717050790843075" lon="9.905768031520312"><ele>837.0</ele><time>2026-03-22T10:37:50.999Z</time></trkpt><trkpt lat="44.717042198527764" lon="9.905856391189605"><ele>836.0000000000001</ele><time>2026-03-22T10:37:51.999Z</time></trkpt><trkpt lat="44.717037983923426" lon="9.905957510396592"><ele>835.0</ele><time>2026-03-22T10:37:52.999Z</time></trkpt><trkpt lat="44.71700889375887" lon="9.90603995038235"><ele>834.8333333333333</ele><time>2026-03-22T10:37:53.999Z</time></trkpt><trkpt lat="44.71699406479815" lon="9.906126218797978"><ele>834.6666666666666</ele><time>2026-03-22T10:37:54.999Z</time></trkpt><trkpt lat="44.716982801322594" lon="9.906271345102574"><ele>834.5</ele><time>2026-03-22T10:37:56.999Z</time></trkpt><trkpt lat="44.716918458388044" lon="9.906408355874722"><ele>834.3333333333333</ele><time>2026-03-22T10:37:58.999Z</time></trkpt><trkpt lat="44.71685239552233" lon="9.906416167723911"><ele>834.1666666666666</ele><time>2026-03-22T10:38:00.999Z</time></trkpt><trkpt lat="44.716785685356534" lon="9.906479259258907"><ele>834.0</ele><time>2026-03-22T10:38:02.999Z</time></trkpt><trkpt lat="44.716713881139306" lon="9.906466403080836"><ele>834.0</ele><time>2026-03-22T10:38:04.999Z</time></trkpt><trkpt lat="44.716684243569546" lon="9.90635943016785"><ele>834.0</ele><time>2026-03-22T10:38:07.999Z</time></trkpt><trkpt lat="44.716653995829944" lon="9.90620907961739"><ele>834.0</ele><time>2026-03-22T10:38:10.999Z</time></trkpt><trkpt lat="44.71662747887057" lon="9.906121620891422"><ele>834.0</ele><time>2026-03-22T10:38:11.999Z</time></trkpt><trkpt lat="44.71655544052241" lon="9.90606021599204"><ele>834.0</ele><time>2026-03-22T10:38:15.999Z</time></trkpt><trkpt lat="44.716547936200286" lon="9.905884816719116"><ele>834.5</ele><time>2026-03-22T10:38:17.999Z</time></trkpt><trkpt lat="44.716511823114274" lon="9.905649081212621"><ele>835.0</ele><time>2026-03-22T10:38:18.999Z</time></trkpt><trkpt lat="44.71646178252472" lon="9.90549436639193"><ele>835.5</ele><time>2026-03-22T10:38:19.999Z</time></trkpt><trkpt lat="44.716411849223974" lon="9.905346758986846"><ele>836.0</ele><time>2026-03-22T10:38:20.999Z</time></trkpt><trkpt lat="44.71636832789594" lon="9.905206830048556"><ele>836.0</ele><time>2026-03-22T10:38:21.999Z</time></trkpt><trkpt lat="44.716309186042295" lon="9.905086770198352"><ele>836.0</ele><time>2026-03-22T10:38:22.999Z</time></trkpt><trkpt lat="44.716243955238056" lon="9.904992125731424"><ele>836.0</ele><time>2026-03-22T10:38:23.999Z</time></trkpt><trkpt lat="44.71615245088559" lon="9.904922373573607"><ele>836.0</ele><time>2026-03-22T10:38:24.999Z</time></trkpt><trkpt lat="44.71608577292066" lon="9.904873949252039"><ele>836.0</ele><time>2026-03-22T10:38:25.999Z</time></trkpt><trkpt lat="44.71601701529414" lon="9.904826198173849"><ele>834.5999999999999</ele><time>2026-03-22T10:38:26.999Z</time></trkpt><trkpt lat="44.71593687669516" lon="9.904800513704634"><ele>833.2</ele><time>2026-03-22T10:38:27.999Z</time></trkpt><trkpt lat="44.715824645172155" lon="9.904835901930186"><ele>831.8</ele><time>2026-03-22T10:38:28.999Z</time></trkpt><trkpt lat="44.71572914669531" lon="9.90487663917805"><ele>830.4000000000001</ele><time>2026-03-22T10:38:30.999Z</time></trkpt><trkpt lat="44.71560525379104" lon="9.904832912036357"><ele>829.0</ele><time>2026-03-22T10:38:32.999Z</time></trkpt><trkpt lat="44.71553645038847" lon="9.904771983877417"><ele>828.9999999999999</ele><time>2026-03-22T10:38:34.999Z</time></trkpt><trkpt lat="44.715463357407536" lon="9.904821127814971"><ele>829.0</ele><time>2026-03-22T10:38:36.999Z</time></trkpt><trkpt lat="44.71541521902526" lon="9.904939667367197"><ele>829.0</ele><time>2026-03-22T10:38:38.999Z</time></trkpt><trkpt lat="44.71535701368395" lon="9.905000352665182"><ele>829.0</ele><time>2026-03-22T10:38:40Z</time></trkpt><trkpt lat="44.715296122859755" lon="9.905063606581514"><ele>828.9999999999999</ele><time>2026-03-22T10:38:42Z</time></trkpt><trkpt lat="44.71524165104059" lon="9.905126254093526"><ele>829.0</ele><time>2026-03-22T10:38:44Z</time></trkpt><trkpt lat="44.715173208253155" lon="9.905002347892312"><ele>825.4999999999999</ele><time>2026-03-22T10:38:47Z</time></trkpt><trkpt lat="44.7150943346883" lon="9.905017258657413"><ele>822.0</ele><time>2026-03-22T10:38:50Z</time></trkpt><trkpt lat="44.71500251623125" lon="9.904916866056542"><ele>818.5</ele><time>2026-03-22T10:38:53Z</time></trkpt><trkpt lat="44.71493404793431" lon="9.904845657465529"><ele>815.0</ele><time>2026-03-22T10:38:55Z</time></trkpt><trkpt lat="44.714876616644645" lon="9.90477865695436"><ele>811.4999999999999</ele><time>2026-03-22T10:38:59Z</time></trkpt><trkpt lat="44.71480728345645" lon="9.904731046681313"><ele>808.0</ele><time>2026-03-22T10:39:02Z</time></trkpt><trkpt lat="44.71474412848749" lon="9.904771899329043"><ele>807.9999999999999</ele><time>2026-03-22T10:39:04Z</time></trkpt><trkpt lat="44.71467362175896" lon="9.904798392828509"><ele>808.0</ele><time>2026-03-22T10:39:06Z</time></trkpt><trkpt lat="44.71457990605258" lon="9.904840940657003"><ele>808.0</ele><time>2026-03-22T10:39:08Z</time></trkpt><trkpt lat="44.71450209788234" lon="9.904934765897195"><ele>808.0</ele><time>2026-03-22T10:39:10Z</time></trkpt><trkpt lat="44.71443614157525" lon="9.905049133450863"><ele>807.9999999999999</ele><time>2026-03-22T10:39:12Z</time></trkpt><trkpt lat="44.71439039243404" lon="9.90511477452182"><ele>808.0</ele><time>2026-03-22T10:39:14Z</time></trkpt><trkpt lat="44.71434849795505" lon="9.905189087325988"><ele>806.1666666666666</ele><time>2026-03-22T10:39:16Z</time></trkpt><trkpt lat="44.714354798276744" lon="9.90528750853604"><ele>804.3333333333333</ele><time>2026-03-22T10:39:18Z</time></trkpt><trkpt lat="44.71433822319292" lon="9.905380775301746"><ele>802.5</ele><time>2026-03-22T10:39:19Z</time></trkpt><trkpt lat="44.71432877527179" lon="9.905482129647464"><ele>800.6666666666667</ele><time>2026-03-22T10:39:20Z</time></trkpt><trkpt lat="44.714279830425596" lon="9.90554760719246"><ele>798.8333333333334</ele><time>2026-03-22T10:39:23Z</time></trkpt><trkpt lat="44.71422891409255" lon="9.905643473695113"><ele>797.0</ele><time>2026-03-22T10:39:24Z</time></trkpt><trkpt lat="44.71418099058238" lon="9.905765563236459"><ele>797.0000000000001</ele><time>2026-03-22T10:39:25Z</time></trkpt><trkpt lat="44.71417505214626" lon="9.905873061773429"><ele>797.0</ele><time>2026-03-22T10:39:26Z</time></trkpt><trkpt lat="44.71415198293068" lon="9.905972501130842"><ele>797.0</ele><time>2026-03-22T10:39:27Z</time></trkpt><trkpt lat="44.71411875178741" lon="9.906075149916584"><ele>797.0</ele><time>2026-03-22T10:39:28Z</time></trkpt><trkpt lat="44.71408039453523" lon="9.90619094174985"><ele>797.0000000000001</ele><time>2026-03-22T10:39:29Z</time></trkpt><trkpt lat="44.714049153884936" lon="9.906326440846351"><ele>797.0</ele><time>2026-03-22T10:39:30Z</time></trkpt><trkpt lat="44.714008635668996" lon="9.90645314446061"><ele>792.3333333333334</ele><time>2026-03-22T10:39:31Z</time></trkpt><trkpt lat="44.71395544454316" lon="9.90659735426143"><ele>787.6666666666667</ele><time>2026-03-22T10:39:31.999Z</time></trkpt><trkpt lat="44.71387770695377" lon="9.90683231917304"><ele>783.0</ele><time>2026-03-22T10:39:32.999Z</time></trkpt><trkpt lat="44.713778892233705" lon="9.907037401970312"><ele>782.5</ele><time>2026-03-22T10:39:33.999Z</time></trkpt><trkpt lat="44.71371829664221" lon="9.907173337338213"><ele>782.0</ele><time>2026-03-22T10:39:34.999Z</time></trkpt><trkpt lat="44.71363136887864" lon="9.907347072349657"><ele>781.5</ele><time>2026-03-22T10:39:35.999Z</time></trkpt><trkpt lat="44.71351445252991" lon="9.907508289999495"><ele>781.0</ele><time>2026-03-22T10:39:36.999Z</time></trkpt><trkpt lat="44.71345417888719" lon="9.907644880952377"><ele>781.0</ele><time>2026-03-22T10:39:37.999Z</time></trkpt><trkpt lat="44.713404902979164" lon="9.907759056591642"><ele>781.0</ele><time>2026-03-22T10:39:38.999Z</time></trkpt><trkpt lat="44.713344068803984" lon="9.907879541538767"><ele>781.0</ele><time>2026-03-22T10:39:39.999Z</time></trkpt><trkpt lat="44.71324091087442" lon="9.907967354199668"><ele>781.0</ele><time>2026-03-22T10:39:40.999Z</time></trkpt><trkpt lat="44.71315298719327" lon="9.908091969664838"><ele>781.0</ele><time>2026-03-22T10:39:41.999Z</time></trkpt><trkpt lat="44.71306720371704" lon="9.908155310374559"><ele>780.9999999999999</ele><time>2026-03-22T10:39:42.999Z</time></trkpt><trkpt lat="44.71300701180424" lon="9.90825991279884"><ele>781.0</ele><time>2026-03-22T10:39:44.999Z</time></trkpt><trkpt lat="44.71293042594324" lon="9.908225994315329"><ele>781.0</ele><time>2026-03-22T10:39:47.999Z</time></trkpt><trkpt lat="44.71292444586613" lon="9.908124946262125"><ele>781.0</ele><time>2026-03-22T10:39:49.999Z</time></trkpt><trkpt lat="44.71287837714668" lon="9.907998039141049"><ele>780.9999999999999</ele><time>2026-03-22T10:39:51.999Z</time></trkpt><trkpt lat="44.712856131421375" lon="9.907866741845261"><ele>781.0</ele><time>2026-03-22T10:39:53.999Z</time></trkpt><trkpt lat="44.712914122601845" lon="9.907717254375909"><ele>783.8333333333333</ele><time>2026-03-22T10:39:55.999Z</time></trkpt><trkpt lat="44.71292858168055" lon="9.907570549451432"><ele>786.6666666666666</ele><time>2026-03-22T10:39:58.999Z</time></trkpt><trkpt lat="44.71290877078725" lon="9.907485091733927"><ele>789.5</ele><time>2026-03-22T10:39:59.999Z</time></trkpt><trkpt lat="44.71291816654793" lon="9.907310506195568"><ele>792.3333333333333</ele><time>2026-03-22T10:40:02.999Z</time></trkpt><trkpt lat="44.712891714053136" lon="9.907226111325953"><ele>795.1666666666666</ele><time>2026-03-22T10:40:05.999Z</time></trkpt><trkpt lat="44.71286985511253" lon="9.907105791988409"><ele>798.0</ele><time>2026-03-22T10:40:06.999Z</time></trkpt><trkpt lat="44.71287558245952" lon="9.906962822343255"><ele>798.0</ele><time>2026-03-22T10:40:07.999Z</time></trkpt><trkpt lat="44.71289233462371" lon="9.906834153599489"><ele>798.0</ele><time>2026-03-22T10:40:08.999Z</time></trkpt><trkpt lat="44.71290630451753" lon="9.906704610458341"><ele>798.0</ele><time>2026-03-22T10:40:09.999Z</time></trkpt><trkpt lat="44.71291377169793" lon="9.906604963832748"><ele>798.0</ele><time>2026-03-22T10:40:10.999Z</time></trkpt><trkpt lat="44.71293779900655" lon="9.906457879033036"><ele>798.0</ele><time>2026-03-22T10:40:12.999Z</time></trkpt><trkpt lat="44.71292785811639" lon="9.906368538994647"><ele>798.0</ele><time>2026-03-22T10:40:14.999Z</time></trkpt><trkpt lat="44.712873214517984" lon="9.906264327817897"><ele>801.0</ele><time>2026-03-22T10:40:17.999Z</time></trkpt><trkpt lat="44.71284514576545" lon="9.90608543982385"><ele>804.0</ele><time>2026-03-22T10:40:19.999Z</time></trkpt><trkpt lat="44.71281503434055" lon="9.905964514139919"><ele>807.0</ele><time>2026-03-22T10:40:20.999Z</time></trkpt><trkpt lat="44.71278821458621" lon="9.905767317911025"><ele>810.0</ele><time>2026-03-22T10:40:22.999Z</time></trkpt><trkpt lat="44.7128728316341" lon="9.905631729033487"><ele>813.5</ele><time>2026-03-22T10:40:24.999Z</time></trkpt><trkpt lat="44.7129575033415" lon="9.905385265795523"><ele>817.0</ele><time>2026-03-22T10:40:25.999Z</time></trkpt><trkpt lat="44.71303471944245" lon="9.90531343160334"><ele>820.5</ele><time>2026-03-22T10:40:26.999Z</time></trkpt><trkpt lat="44.71309209616592" lon="9.905220267728657"><ele>824.0</ele><time>2026-03-22T10:40:27.999Z</time></trkpt><trkpt lat="44.71313603383623" lon="9.905131332648297"><ele>827.0</ele><time>2026-03-22T10:40:28.999Z</time></trkpt><trkpt lat="44.71323395134944" lon="9.90503720670711"><ele>830.0</ele><time>2026-03-22T10:40:30.999Z</time></trkpt><trkpt lat="44.71327173427611" lon="9.904923683019659"><ele>833.0</ele><time>2026-03-22T10:40:32.999Z</time></trkpt><trkpt lat="44.71328497268273" lon="9.904777106625506"><ele>836.0</ele><time>2026-03-22T10:40:33.999Z</time></trkpt><trkpt lat="44.713318987051274" lon="9.90466828445433"><ele>839.0</ele><time>2026-03-22T10:40:34.999Z</time></trkpt><trkpt lat="44.71329115066644" lon="9.904582478203523"><ele>839.0</ele><time>2026-03-22T10:40:35.999Z</time></trkpt><trkpt lat="44.71328969244906" lon="9.904490098092756"><ele>839.0</ele><time>2026-03-22T10:40:37.999Z</time></trkpt><trkpt lat="44.713339088748874" lon="9.904424776526588"><ele>839.0</ele><time>2026-03-22T10:40:38.999Z</time></trkpt><trkpt lat="44.71344263662654" lon="9.9042731353547"><ele>839.0</ele><time>2026-03-22T10:40:40.999Z</time></trkpt><trkpt lat="44.713529801879254" lon="9.904193389560715"><ele>839.0</ele><time>2026-03-22T10:40:41.999Z</time></trkpt><trkpt lat="44.71359707203059" lon="9.90411971953827"><ele>837.1666666666667</ele><time>2026-03-22T10:40:42.999Z</time></trkpt><trkpt lat="44.71364073689818" lon="9.904031716142464"><ele>835.3333333333334</ele><time>2026-03-22T10:40:43.999Z</time></trkpt><trkpt lat="44.7135869690415" lon="9.903958266690587"><ele>833.5</ele><time>2026-03-22T10:40:44.999Z</time></trkpt><trkpt lat="44.71363887831849" lon="9.903848705409581"><ele>831.6666666666667</ele><time>2026-03-22T10:40:46Z</time></trkpt><trkpt lat="44.71369211178826" lon="9.903725764388891"><ele>829.8333333333334</ele><time>2026-03-22T10:40:47Z</time></trkpt><trkpt lat="44.71371399526549" lon="9.903615848836278"><ele>828.0</ele><time>2026-03-22T10:40:48Z</time></trkpt><trkpt lat="44.713836970597185" lon="9.90356217375217"><ele>828.0</ele><time>2026-03-22T10:40:50Z</time></trkpt><trkpt lat="44.71393318085847" lon="9.903537271920424"><ele>828.0</ele><time>2026-03-22T10:40:51Z</time></trkpt><trkpt lat="44.7139983804653" lon="9.903476785682903"><ele>828.0</ele><time>2026-03-22T10:40:52Z</time></trkpt><trkpt lat="44.71404366322564" lon="9.903360179902894"><ele>828.0</ele><time>2026-03-22T10:40:53Z</time></trkpt><trkpt lat="44.714080395800345" lon="9.903235710514984"><ele>828.0</ele><time>2026-03-22T10:40:54Z</time></trkpt><trkpt lat="44.714031755919244" lon="9.90309801145596"><ele>831.2</ele><time>2026-03-22T10:40:56Z</time></trkpt><trkpt lat="44.71399408517609" lon="9.903000811762201"><ele>834.4</ele><time>2026-03-22T10:40:57Z</time></trkpt><trkpt lat="44.71406304676292" lon="9.902813075196642"><ele>837.6</ele><time>2026-03-22T10:40:59Z</time></trkpt><trkpt lat="44.71406394717207" lon="9.90271706573756"><ele>840.8000000000001</ele><time>2026-03-22T10:41:00Z</time></trkpt><trkpt lat="44.7141348465785" lon="9.902610449297507"><ele>844.0</ele><time>2026-03-22T10:41:02Z</time></trkpt><trkpt lat="44.71417794703738" lon="9.90248075307057"><ele>844.1666666666666</ele><time>2026-03-22T10:41:04Z</time></trkpt><trkpt lat="44.71420145604114" lon="9.902382932618927"><ele>844.3333333333333</ele><time>2026-03-22T10:41:05Z</time></trkpt><trkpt lat="44.71421627728259" lon="9.902281139744494"><ele>844.5</ele><time>2026-03-22T10:41:06Z</time></trkpt><trkpt lat="44.71423866201756" lon="9.902181701182784"><ele>844.6666666666667</ele><time>2026-03-22T10:41:07Z</time></trkpt><trkpt lat="44.714269837403656" lon="9.902066287042317"><ele>844.8333333333334</ele><time>2026-03-22T10:41:08Z</time></trkpt><trkpt lat="44.71418186540428" lon="9.901963789339028"><ele>845.0</ele><time>2026-03-22T10:41:10Z</time></trkpt><trkpt lat="44.71410142786595" lon="9.901850018549922"><ele>845.0</ele><time>2026-03-22T10:41:12Z</time></trkpt><trkpt lat="44.714032633426875" lon="9.90184634507599"><ele>845.0</ele><time>2026-03-22T10:41:15Z</time></trkpt><trkpt lat="44.71403532993687" lon="9.90174023456769"><ele>845.0</ele><time>2026-03-22T10:41:17Z</time></trkpt><trkpt lat="44.714078002146024" lon="9.901594283925268"><ele>845.0</ele><time>2026-03-22T10:41:20Z</time></trkpt><trkpt lat="44.71415046109199" lon="9.901439928130587"><ele>845.0</ele><time>2026-03-22T10:41:21Z</time></trkpt><trkpt lat="44.71425464574572" lon="9.90123691504181"><ele>844.4</ele><time>2026-03-22T10:41:22Z</time></trkpt><trkpt lat="44.71431250837683" lon="9.901113220843794"><ele>843.8</ele><time>2026-03-22T10:41:23Z</time></trkpt><trkpt lat="44.71435852154265" lon="9.90097982909636"><ele>843.2</ele><time>2026-03-22T10:41:24Z</time></trkpt><trkpt lat="44.714389334591345" lon="9.900874266022493"><ele>842.6</ele><time>2026-03-22T10:41:25Z</time></trkpt><trkpt lat="44.714431395521885" lon="9.900797284282632"><ele>842.0</ele><time>2026-03-22T10:41:26Z</time></trkpt><trkpt lat="44.7145238101898" lon="9.900703556142293"><ele>841.4000000000001</ele><time>2026-03-22T10:41:28Z</time></trkpt><trkpt lat="44.71440494785151" lon="9.900575920770423"><ele>840.8000000000001</ele><time>2026-03-22T10:41:30Z</time></trkpt><trkpt lat="44.7143446490926" lon="9.900499669819682"><ele>840.2</ele><time>2026-03-22T10:41:31Z</time></trkpt><trkpt lat="44.71425840818776" lon="9.900473683215438"><ele>839.6</ele><time>2026-03-22T10:41:32Z</time></trkpt><trkpt lat="44.714171201308176" lon="9.900420048658855"><ele>839.0</ele><time>2026-03-22T10:41:33Z</time></trkpt><trkpt lat="44.7140755685601" lon="9.900342798088234"><ele>839.0</ele><time>2026-03-22T10:41:34Z</time></trkpt><trkpt lat="44.713996412432515" lon="9.90028446724012"><ele>839.0</ele><time>2026-03-22T10:41:35Z</time></trkpt><trkpt lat="44.71388015902841" lon="9.90023920439211"><ele>839.0</ele><time>2026-03-22T10:41:36Z</time></trkpt><trkpt lat="44.71379899967919" lon="9.90019115069393"><ele>839.0</ele><time>2026-03-22T10:41:37Z</time></trkpt><trkpt lat="44.71373870535897" lon="9.900160554619992"><ele>839.0</ele><time>2026-03-22T10:41:37.999Z</time></trkpt><trkpt lat="44.71364932370996" lon="9.900146133273605"><ele>836.25</ele><time>2026-03-22T10:41:38.999Z</time></trkpt><trkpt lat="44.71355289368442" lon="9.900083474029213"><ele>833.5</ele><time>2026-03-22T10:41:39.999Z</time></trkpt><trkpt lat="44.713418556882445" lon="9.900018243811788"><ele>830.75</ele><time>2026-03-22T10:41:40.999Z</time></trkpt><trkpt lat="44.71329334763093" lon="9.899955767233536"><ele>828.0</ele><time>2026-03-22T10:41:41.999Z</time></trkpt><trkpt lat="44.7131242176412" lon="9.899895233724665"><ele>831.0</ele><time>2026-03-22T10:41:42.999Z</time></trkpt><trkpt lat="44.71299508622351" lon="9.899840462056789"><ele>834.0</ele><time>2026-03-22T10:41:43.999Z</time></trkpt><trkpt lat="44.71291063869972" lon="9.899817900295485"><ele>837.0</ele><time>2026-03-22T10:41:44.999Z</time></trkpt><trkpt lat="44.712842191887816" lon="9.899734651354178"><ele>840.0</ele><time>2026-03-22T10:41:46.999Z</time></trkpt><trkpt lat="44.71276800139859" lon="9.899699974848879"><ele>843.0</ele><time>2026-03-22T10:41:50.999Z</time></trkpt><trkpt lat="44.71269169705546" lon="9.899654815979094"><ele>843.0</ele><time>2026-03-22T10:41:52.999Z</time></trkpt><trkpt lat="44.71261604016071" lon="9.89961205666621"><ele>843.0</ele><time>2026-03-22T10:41:53.999Z</time></trkpt><trkpt lat="44.71255992833625" lon="9.899558242903112"><ele>843.0</ele><time>2026-03-22T10:41:55.999Z</time></trkpt><trkpt lat="44.712648794347444" lon="9.899630602115197"><ele>843.0</ele><time>2026-03-22T10:42:01.999Z</time></trkpt><trkpt lat="44.712746325563224" lon="9.899663516561274"><ele>850.0</ele><time>2026-03-22T10:42:03.999Z</time></trkpt></trkseg><trkseg><trkpt lat="44.71271868045395" lon="9.899614959013054"><ele>844.1666666666666</ele><time>2026-03-22T11:06:44Z</time></trkpt><trkpt lat="44.71278505856978" lon="9.899668454051856"><ele>845.3333333333333</ele><time>2026-03-22T11:06:52Z</time></trkpt><trkpt lat="44.7128510112773" lon="9.899744744454429"><ele>846.5</ele><time>2026-03-22T11:07:09.999Z</time></trkpt><trkpt lat="44.712959210887774" lon="9.89976202181127"><ele>847.6666666666666</ele><time>2026-03-22T11:07:11.999Z</time></trkpt><trkpt lat="44.713024924132874" lon="9.899745819259874"><ele>848.8333333333333</ele><time>2026-03-22T11:07:12.999Z</time></trkpt><trkpt lat="44.7130897390217" lon="9.899730178394693"><ele>850.0</ele><time>2026-03-22T11:07:13.999Z</time></trkpt><trkpt lat="44.713200696627965" lon="9.899635389270628"><ele>849.9999999999999</ele><time>2026-03-22T11:07:15.999Z</time></trkpt><trkpt lat="44.713284180530366" lon="9.899520374855475"><ele>850.0</ele><time>2026-03-22T11:07:17.999Z</time></trkpt><trkpt lat="44.71334859256195" lon="9.899492659986986"><ele>850.0</ele><time>2026-03-22T11:07:18.999Z</time></trkpt><trkpt lat="44.7134324023365" lon="9.899467907471303"><ele>850.0</ele><time>2026-03-22T11:07:19.999Z</time></trkpt><trkpt lat="44.713506644277764" lon="9.899405057394889"><ele>849.9999999999999</ele><time>2026-03-22T11:07:20.999Z</time></trkpt><trkpt lat="44.7135911642101" lon="9.899353446246527"><ele>850.0</ele><time>2026-03-22T11:07:21.999Z</time></trkpt><trkpt lat="44.71366153968778" lon="9.899313339071336"><ele>851.1666666666666</ele><time>2026-03-22T11:07:22.999Z</time></trkpt><trkpt lat="44.71372577110179" lon="9.899265060627103"><ele>852.3333333333333</ele><time>2026-03-22T11:07:23.999Z</time></trkpt><trkpt lat="44.713800265509356" lon="9.899276623190278"><ele>853.5</ele><time>2026-03-22T11:07:25.999Z</time></trkpt><trkpt lat="44.71388529420995" lon="9.899280182767207"><ele>854.6666666666667</ele><time>2026-03-22T11:07:27.999Z</time></trkpt><trkpt lat="44.71395511323836" lon="9.899325383952586"><ele>855.8333333333334</ele><time>2026-03-22T11:07:30.999Z</time></trkpt><trkpt lat="44.714052529475246" lon="9.899318829537945"><ele>857.0</ele><time>2026-03-22T11:07:32.999Z</time></trkpt><trkpt lat="44.714156616475385" lon="9.899272311627461"><ele>858.8571428571429</ele><time>2026-03-22T11:07:34.999Z</time></trkpt><trkpt lat="44.714223849873896" lon="9.899233154906268"><ele>860.7142857142857</ele><time>2026-03-22T11:07:35.999Z</time></trkpt><trkpt lat="44.71428885547155" lon="9.899203454465345"><ele>862.5714285714287</ele><time>2026-03-22T11:07:36.999Z</time></trkpt><trkpt lat="44.71435639263087" lon="9.899177714354805"><ele>864.4285714285714</ele><time>2026-03-22T11:07:37.999Z</time></trkpt><trkpt lat="44.71443084746878" lon="9.899126974801018"><ele>866.2857142857143</ele><time>2026-03-22T11:07:39.999Z</time></trkpt><trkpt lat="44.714495176745984" lon="9.899157359234563"><ele>868.1428571428572</ele><time>2026-03-22T11:07:40.999Z</time></trkpt><trkpt lat="44.71456135306299" lon="9.89921141809894"><ele>870.0</ele><time>2026-03-22T11:07:41.999Z</time></trkpt><trkpt lat="44.71466487105372" lon="9.899212625219516"><ele>870.0</ele><time>2026-03-22T11:07:43.999Z</time></trkpt><trkpt lat="44.7147390921255" lon="9.89925216096536"><ele>870.0</ele><time>2026-03-22T11:07:46.999Z</time></trkpt><trkpt lat="44.71478916445324" lon="9.899336030520383"><ele>870.0</ele><time>2026-03-22T11:07:48.999Z</time></trkpt><trkpt lat="44.71485306093588" lon="9.899335846486764"><ele>870.0</ele><time>2026-03-22T11:07:51.999Z</time></trkpt><trkpt lat="44.71491251078199" lon="9.899424866141102"><ele>870.0</ele><time>2026-03-22T11:07:54.999Z</time></trkpt><trkpt lat="44.71497553529079" lon="9.89946839246533"><ele>870.0</ele><time>2026-03-22T11:07:56.999Z</time></trkpt><trkpt lat="44.71506171052404" lon="9.899428089944474"><ele>870.0</ele><time>2026-03-22T11:07:58.999Z</time></trkpt><trkpt lat="44.7151518816025" lon="9.89936916652853"><ele>870.0</ele><time>2026-03-22T11:07:59.999Z</time></trkpt><trkpt lat="44.715289140368625" lon="9.899433991067585"><ele>870.0</ele><time>2026-03-22T11:08:01.999Z</time></trkpt><trkpt lat="44.71537789300139" lon="9.899477215799722"><ele>870.0</ele><time>2026-03-22T11:08:02.999Z</time></trkpt><trkpt lat="44.715480121187866" lon="9.899581315522166"><ele>874.0</ele><time>2026-03-22T11:08:03.999Z</time></trkpt><trkpt lat="44.71558037055363" lon="9.899592860312772"><ele>878.0</ele><time>2026-03-22T11:08:05.999Z</time></trkpt><trkpt lat="44.71570501288738" lon="9.899567369456802"><ele>882.0</ele><time>2026-03-22T11:08:06.999Z</time></trkpt><trkpt lat="44.71578000023568" lon="9.899652260717403"><ele>886.0</ele><time>2026-03-22T11:08:08.999Z</time></trkpt><trkpt lat="44.715756690046945" lon="9.899748285251784"><ele>890.0</ele><time>2026-03-22T11:08:12Z</time></trkpt><trkpt lat="44.71573005650032" lon="9.899662349595262"><ele>890.0000000000001</ele><time>2026-03-22T11:08:15Z</time></trkpt><trkpt lat="44.7156636320472" lon="9.899688650199696"><ele>890.0</ele><time>2026-03-22T11:08:17Z</time></trkpt><trkpt lat="44.71555892736826" lon="9.899782835515653"><ele>890.0</ele><time>2026-03-22T11:08:19Z</time></trkpt><trkpt lat="44.715498619100664" lon="9.899849839619517"><ele>890.0</ele><time>2026-03-22T11:08:21Z</time></trkpt><trkpt lat="44.715473698971465" lon="9.899946830310217"><ele>890.0000000000001</ele><time>2026-03-22T11:08:22Z</time></trkpt><trkpt lat="44.715463330520365" lon="9.900053649967681"><ele>890.0</ele><time>2026-03-22T11:08:25Z</time></trkpt><trkpt lat="44.71545168245392" lon="9.900609173311198"><ele>890.8</ele><time>2026-03-22T11:08:27Z</time></trkpt><trkpt lat="44.71547552631573" lon="9.900742431058822"><ele>891.6</ele><time>2026-03-22T11:08:28Z</time></trkpt><trkpt lat="44.715486904586406" lon="9.900887480429677"><ele>892.4000000000001</ele><time>2026-03-22T11:08:29Z</time></trkpt><trkpt lat="44.7155135549896" lon="9.90103407118535"><ele>893.2</ele><time>2026-03-22T11:08:30Z</time></trkpt><trkpt lat="44.7154932407578" lon="9.901189786574085"><ele>894.0</ele><time>2026-03-22T11:08:31Z</time></trkpt><trkpt lat="44.715446863686964" lon="9.90125504026953"><ele>894.0</ele><time>2026-03-22T11:08:32Z</time></trkpt><trkpt lat="44.715427735003146" lon="9.901356936604259"><ele>894.0000000000001</ele><time>2026-03-22T11:08:33Z</time></trkpt><trkpt lat="44.71541991455244" lon="9.9014793280018"><ele>894.0000000000001</ele><time>2026-03-22T11:08:34Z</time></trkpt><trkpt lat="44.715386018501924" lon="9.901602937099684"><ele>894.0</ele><time>2026-03-22T11:08:35Z</time></trkpt><trkpt lat="44.71545766414913" lon="9.901720819867752"><ele>894.0</ele><time>2026-03-22T11:08:37Z</time></trkpt><trkpt lat="44.71553539149549" lon="9.90166275971605"><ele>894.0</ele><time>2026-03-22T11:08:38Z</time></trkpt><trkpt lat="44.715598931671494" lon="9.901638444652056"><ele>894.0</ele><time>2026-03-22T11:08:39Z</time></trkpt><trkpt lat="44.71568255132968" lon="9.901613206937785"><ele>894.0</ele><time>2026-03-22T11:08:40Z</time></trkpt><trkpt lat="44.71577214169622" lon="9.901569359538694"><ele>894.0</ele><time>2026-03-22T11:08:41Z</time></trkpt><trkpt lat="44.715840339687425" lon="9.901532994529893"><ele>894.0</ele><time>2026-03-22T11:08:42Z</time></trkpt><trkpt lat="44.71594314441868" lon="9.901477058601227"><ele>894.0</ele><time>2026-03-22T11:08:44Z</time></trkpt><trkpt lat="44.715998115132095" lon="9.90140398100456"><ele>894.5</ele><time>2026-03-22T11:08:45Z</time></trkpt><trkpt lat="44.71607376081338" lon="9.901327375979987"><ele>895.0</ele><time>2026-03-22T11:08:46Z</time></trkpt><trkpt lat="44.716139612654906" lon="9.901252584549377"><ele>895.5</ele><time>2026-03-22T11:08:47Z</time></trkpt><trkpt lat="44.7162346301982" lon="9.901178944260966"><ele>896.0</ele><time>2026-03-22T11:08:49Z</time></trkpt><trkpt lat="44.71630797165324" lon="9.901171166213446"><ele>896.5</ele><time>2026-03-22T11:08:50Z</time></trkpt><trkpt lat="44.716371483483684" lon="9.90119755716472"><ele>897.0</ele><time>2026-03-22T11:08:53Z</time></trkpt><trkpt lat="44.71639443236381" lon="9.901321572459944"><ele>897.0</ele><time>2026-03-22T11:08:54Z</time></trkpt><trkpt lat="44.716415522342565" lon="9.901440502228365"><ele>897.0</ele><time>2026-03-22T11:08:55Z</time></trkpt><trkpt lat="44.71644224256614" lon="9.90159648926533"><ele>897.0</ele><time>2026-03-22T11:08:57Z</time></trkpt><trkpt lat="44.71649429497886" lon="9.90170072904744"><ele>897.0</ele><time>2026-03-22T11:08:59Z</time></trkpt><trkpt lat="44.71643445734171" lon="9.901787574659677"><ele>897.0</ele><time>2026-03-22T11:09:01Z</time></trkpt><trkpt lat="44.716323921239415" lon="9.901869869261967"><ele>896.4000000000001</ele><time>2026-03-22T11:09:03Z</time></trkpt><trkpt lat="44.7162002813989" lon="9.901816736703864"><ele>895.8000000000001</ele><time>2026-03-22T11:09:04.999Z</time></trkpt><trkpt lat="44.716093018766735" lon="9.901761259125166"><ele>895.2</ele><time>2026-03-22T11:09:06.999Z</time></trkpt><trkpt lat="44.71601274471007" lon="9.901743513597545"><ele>894.6</ele><time>2026-03-22T11:09:07.999Z</time></trkpt><trkpt lat="44.71594349762178" lon="9.901752072161932"><ele>894.0</ele><time>2026-03-22T11:09:08.999Z</time></trkpt><trkpt lat="44.7158176746645" lon="9.901709288248922"><ele>894.0</ele><time>2026-03-22T11:09:10.999Z</time></trkpt><trkpt lat="44.715719994442345" lon="9.90170269947152"><ele>894.0</ele><time>2026-03-22T11:09:12.999Z</time></trkpt><trkpt lat="44.715649489718345" lon="9.901664775637029"><ele>894.0</ele><time>2026-03-22T11:09:14.999Z</time></trkpt><trkpt lat="44.715566467788356" lon="9.90169848355621"><ele>894.0</ele><time>2026-03-22T11:09:17.999Z</time></trkpt><trkpt lat="44.71551943878628" lon="9.901757926326168"><ele>894.0</ele><time>2026-03-22T11:09:21.999Z</time></trkpt><trkpt lat="44.715564616939254" lon="9.901918034196695"><ele>894.0</ele><time>2026-03-22T11:09:24.999Z</time></trkpt><trkpt lat="44.71560118307743" lon="9.90202704980158"><ele>891.4000000000001</ele><time>2026-03-22T11:09:25.999Z</time></trkpt><trkpt lat="44.71566265729564" lon="9.902156039668673"><ele>888.8000000000001</ele><time>2026-03-22T11:09:27.999Z</time></trkpt><trkpt lat="44.71570524122182" lon="9.902285489785509"><ele>886.1999999999999</ele><time>2026-03-22T11:09:29.999Z</time></trkpt><trkpt lat="44.71570592360966" lon="9.902384353907243"><ele>883.5999999999999</ele><time>2026-03-22T11:09:30.999Z</time></trkpt><trkpt lat="44.71576702942426" lon="9.902469387233085"><ele>881.0</ele><time>2026-03-22T11:09:31.999Z</time></trkpt><trkpt lat="44.71584765190686" lon="9.90258416126799"><ele>880.1999999999999</ele><time>2026-03-22T11:09:32.999Z</time></trkpt><trkpt lat="44.71592068901244" lon="9.902739814821386"><ele>879.3999999999999</ele><time>2026-03-22T11:09:33.999Z</time></trkpt><trkpt lat="44.715965559046126" lon="9.902852478141705"><ele>878.6</ele><time>2026-03-22T11:09:34.999Z</time></trkpt><trkpt lat="44.716016045363034" lon="9.902953527879598"><ele>877.8</ele><time>2026-03-22T11:09:36.999Z</time></trkpt><trkpt lat="44.716091445494975" lon="9.903084170982297"><ele>877.0</ele><time>2026-03-22T11:09:38.999Z</time></trkpt><trkpt lat="44.716118859654316" lon="9.903164240344287"><ele>876.9999999999999</ele><time>2026-03-22T11:09:39.999Z</time></trkpt><trkpt lat="44.716153709547854" lon="9.903240822072625"><ele>877.0</ele><time>2026-03-22T11:09:40.999Z</time></trkpt><trkpt lat="44.7162032561015" lon="9.903308230610978"><ele>877.0</ele><time>2026-03-22T11:09:41.999Z</time></trkpt><trkpt lat="44.716253682124595" lon="9.903389175275594"><ele>877.0</ele><time>2026-03-22T11:09:42.999Z</time></trkpt><trkpt lat="44.716304387790736" lon="9.903469320507298"><ele>876.9999999999999</ele><time>2026-03-22T11:09:43.999Z</time></trkpt><trkpt lat="44.71637154477746" lon="9.903581543565512"><ele>877.0</ele><time>2026-03-22T11:09:44.999Z</time></trkpt><trkpt lat="44.71643307696759" lon="9.903634506083886"><ele>874.8333333333333</ele><time>2026-03-22T11:09:45.999Z</time></trkpt><trkpt lat="44.71650423731397" lon="9.903717527824565"><ele>872.6666666666666</ele><time>2026-03-22T11:09:47.999Z</time></trkpt><trkpt lat="44.71658138180774" lon="9.903830847413671"><ele>870.5</ele><time>2026-03-22T11:09:49.999Z</time></trkpt><trkpt lat="44.71665110149194" lon="9.90388371498461"><ele>868.3333333333333</ele><time>2026-03-22T11:09:52.999Z</time></trkpt><trkpt lat="44.71671042078945" lon="9.903933986731236"><ele>866.1666666666666</ele><time>2026-03-22T11:09:54.999Z</time></trkpt><trkpt lat="44.71676408362485" lon="9.90401303026231"><ele>864.0</ele><time>2026-03-22T11:09:56.999Z</time></trkpt><trkpt lat="44.71683060350134" lon="9.904126898221215"><ele>854.5</ele><time>2026-03-22T11:09:58.999Z</time></trkpt><trkpt lat="44.71687203391363" lon="9.904319175299248"><ele>845.0</ele><time>2026-03-22T11:10:00.999Z</time></trkpt><trkpt lat="44.71704742001808" lon="9.9047623927631"><ele>844.4</ele><time>2026-03-22T11:10:02.999Z</time></trkpt><trkpt lat="44.71705529878552" lon="9.904871331799068"><ele>843.8</ele><time>2026-03-22T11:10:03.999Z</time></trkpt><trkpt lat="44.71703487567951" lon="9.90498074456014"><ele>843.2</ele><time>2026-03-22T11:10:04.999Z</time></trkpt><trkpt lat="44.71702812824656" lon="9.90508961291095"><ele>842.6</ele><time>2026-03-22T11:10:06.999Z</time></trkpt><trkpt lat="44.71698321800799" lon="9.905235152190938"><ele>842.0</ele><time>2026-03-22T11:10:08.999Z</time></trkpt><trkpt lat="44.71696518476192" lon="9.905419482759816"><ele>841.0000000000001</ele><time>2026-03-22T11:10:10.999Z</time></trkpt><trkpt lat="44.716969723414834" lon="9.90552279141987"><ele>840.0</ele><time>2026-03-22T11:10:11.999Z</time></trkpt><trkpt lat="44.71698576732884" lon="9.905625467775119"><ele>839.0</ele><time>2026-03-22T11:10:12.999Z</time></trkpt><trkpt lat="44.717006481657236" lon="9.905730776382025"><ele>838.0</ele><time>2026-03-22T11:10:13.999Z</time></trkpt><trkpt lat="44.717031058944556" lon="9.905829633102798"><ele>837.0</ele><time>2026-03-22T11:10:14.999Z</time></trkpt><trkpt lat="44.717051825516954" lon="9.90591773987884"><ele>836.0000000000001</ele><time>2026-03-22T11:10:16Z</time></trkpt><trkpt lat="44.717059347439154" lon="9.90601217729366"><ele>835.0</ele><time>2026-03-22T11:10:17Z</time></trkpt><trkpt lat="44.717058593115155" lon="9.906105000904102"><ele>834.8</ele><time>2026-03-22T11:10:18Z</time></trkpt><trkpt lat="44.717045390699056" lon="9.906193298241405"><ele>834.6</ele><time>2026-03-22T11:10:19Z</time></trkpt><trkpt lat="44.71700671902577" lon="9.906352467365181"><ele>834.4000000000001</ele><time>2026-03-22T11:10:21Z</time></trkpt><trkpt lat="44.71697908991017" lon="9.906490365619046"><ele>834.2</ele><time>2026-03-22T11:10:24Z</time></trkpt><trkpt lat="44.71688942148976" lon="9.906477283859807"><ele>834.0</ele><time>2026-03-22T11:10:25Z</time></trkpt><trkpt lat="44.71677112564888" lon="9.906488106910427"><ele>834.0</ele><time>2026-03-22T11:10:27Z</time></trkpt><trkpt lat="44.716705313079075" lon="9.906550160828823"><ele>834.0</ele><time>2026-03-22T11:10:29Z</time></trkpt><trkpt lat="44.71669435148596" lon="9.906431075107909"><ele>834.0</ele><time>2026-03-22T11:10:31Z</time></trkpt><trkpt lat="44.716673260258474" lon="9.90634358591486"><ele>834.0</ele><time>2026-03-22T11:10:34Z</time></trkpt><trkpt lat="44.71662736568768" lon="9.906250640965325"><ele>834.0</ele><time>2026-03-22T11:10:36Z</time></trkpt><trkpt lat="44.7165924915433" lon="9.906148243182148"><ele>834.0</ele><time>2026-03-22T11:10:40Z</time></trkpt><trkpt lat="44.716559815957986" lon="9.906047057978888"><ele>834.0</ele><time>2026-03-22T11:11:07.999Z</time></trkpt><trkpt lat="44.71653833013849" lon="9.905960764484048"><ele>834.0</ele><time>2026-03-22T11:11:14.999Z</time></trkpt><trkpt lat="44.71653661392817" lon="9.905800713801865"><ele>834.0</ele><time>2026-03-22T11:11:16.999Z</time></trkpt><trkpt lat="44.71650490632292" lon="9.905575696807766"><ele>834.0</ele><time>2026-03-22T11:11:18.999Z</time></trkpt><trkpt lat="44.7164822371085" lon="9.905464347626646"><ele>834.0</ele><time>2026-03-22T11:11:19.999Z</time></trkpt><trkpt lat="44.71646151801835" lon="9.905373377663288"><ele>834.4000000000001</ele><time>2026-03-22T11:11:20.999Z</time></trkpt><trkpt lat="44.716410433064866" lon="9.905247691386954"><ele>834.8</ele><time>2026-03-22T11:11:21.999Z</time></trkpt><trkpt lat="44.71634697217562" lon="9.905117703052037"><ele>835.2</ele><time>2026-03-22T11:11:22.999Z</time></trkpt><trkpt lat="44.716256192297074" lon="9.905006621883027"><ele>835.5999999999999</ele><time>2026-03-22T11:11:24.999Z</time></trkpt><trkpt lat="44.71619869116046" lon="9.904949677692892"><ele>836.0</ele><time>2026-03-22T11:11:25.999Z</time></trkpt><trkpt lat="44.716147427314716" lon="9.904893325554351"><ele>834.8333333333334</ele><time>2026-03-22T11:11:26.999Z</time></trkpt><trkpt lat="44.71603650831443" lon="9.904849129075059"><ele>833.6666666666667</ele><time>2026-03-22T11:11:28.999Z</time></trkpt><trkpt lat="44.715954201927964" lon="9.904882613992543"><ele>832.5</ele><time>2026-03-22T11:11:29.999Z</time></trkpt><trkpt lat="44.715863955046146" lon="9.90488559020589"><ele>831.3333333333333</ele><time>2026-03-22T11:11:31.999Z</time></trkpt><trkpt lat="44.71578218973706" lon="9.90488127661633"><ele>830.1666666666666</ele><time>2026-03-22T11:11:33.999Z</time></trkpt><trkpt lat="44.715719259495465" lon="9.904864812919033"><ele>829.0</ele><time>2026-03-22T11:11:36.999Z</time></trkpt><trkpt lat="44.715631847646335" lon="9.904852723440218"><ele>828.9999999999999</ele><time>2026-03-22T11:11:40.999Z</time></trkpt><trkpt lat="44.71556797759021" lon="9.90489653521644"><ele>829.0</ele><time>2026-03-22T11:11:44.999Z</time></trkpt><trkpt lat="44.715498646466216" lon="9.90493421647857"><ele>829.0</ele><time>2026-03-22T11:11:51.999Z</time></trkpt><trkpt lat="44.71543951117015" lon="9.904997500404923"><ele>829.0</ele><time>2026-03-22T11:11:55.999Z</time></trkpt><trkpt lat="44.71537453031243" lon="9.905077968357405"><ele>828.9999999999999</ele><time>2026-03-22T11:11:58.999Z</time></trkpt><trkpt lat="44.715314516294136" lon="9.905139059770107"><ele>829.0</ele><time>2026-03-22T11:12:01.999Z</time></trkpt><trkpt lat="44.71523286677243" lon="9.905097404278811"><ele>824.8000000000001</ele><time>2026-03-22T11:12:03.999Z</time></trkpt><trkpt lat="44.7151665367956" lon="9.905074211337608"><ele>820.6</ele><time>2026-03-22T11:12:04.999Z</time></trkpt><trkpt lat="44.71512305603381" lon="9.904962308501945"><ele>816.4</ele><time>2026-03-22T11:12:06.999Z</time></trkpt><trkpt lat="44.71503482309181" lon="9.904918252778623"><ele>812.2</ele><time>2026-03-22T11:12:08.999Z</time></trkpt><trkpt lat="44.71491405642014" lon="9.904892157197391"><ele>808.0</ele><time>2026-03-22T11:12:10.999Z</time></trkpt><trkpt lat="44.71485412457185" lon="9.904804215723503"><ele>808.0</ele><time>2026-03-22T11:12:12.999Z</time></trkpt><trkpt lat="44.71479692849888" lon="9.904674609818326"><ele>808.0</ele><time>2026-03-22T11:12:14.999Z</time></trkpt><trkpt lat="44.71471794367432" lon="9.904561513516875"><ele>808.0</ele><time>2026-03-22T11:12:16.999Z</time></trkpt><trkpt lat="44.71462386978204" lon="9.904478771719363"><ele>808.0</ele><time>2026-03-22T11:12:18.999Z</time></trkpt><trkpt lat="44.71454006393678" lon="9.904552229900398"><ele>808.0</ele><time>2026-03-22T11:12:22Z</time></trkpt><trkpt lat="44.7144450115166" lon="9.904597729424975"><ele>808.75</ele><time>2026-03-22T11:12:24Z</time></trkpt><trkpt lat="44.7143644741332" lon="9.904715930591959"><ele>809.5</ele><time>2026-03-22T11:12:26Z</time></trkpt><trkpt lat="44.71428590098368" lon="9.904966636710915"><ele>810.25</ele><time>2026-03-22T11:12:28Z</time></trkpt><trkpt lat="44.71424975325276" lon="9.905100570059808"><ele>811.0</ele><time>2026-03-22T11:12:29Z</time></trkpt><trkpt lat="44.71421473791958" lon="9.90523205080626"><ele>808.6666666666666</ele><time>2026-03-22T11:12:30Z</time></trkpt><trkpt lat="44.714197739788766" lon="9.905318654125283"><ele>806.3333333333333</ele><time>2026-03-22T11:12:31Z</time></trkpt><trkpt lat="44.71415684475588" lon="9.90542546393105"><ele>804.0</ele><time>2026-03-22T11:12:32Z</time></trkpt><trkpt lat="44.71411810565331" lon="9.905559655684879"><ele>801.6666666666667</ele><time>2026-03-22T11:12:33Z</time></trkpt><trkpt lat="44.714103124371704" lon="9.90570587839263"><ele>799.3333333333334</ele><time>2026-03-22T11:12:35Z</time></trkpt><trkpt lat="44.71408526408544" lon="9.905791012892726"><ele>797.0</ele><time>2026-03-22T11:12:36Z</time></trkpt><trkpt lat="44.714061429996" lon="9.905910081776376"><ele>794.2</ele><time>2026-03-22T11:12:38Z</time></trkpt><trkpt lat="44.71403471282065" lon="9.906098735493021"><ele>791.4000000000001</ele><time>2026-03-22T11:12:40Z</time></trkpt><trkpt lat="44.71400447046319" lon="9.906264730262443"><ele>788.5999999999999</ele><time>2026-03-22T11:12:46Z</time></trkpt><trkpt lat="44.713954675747274" lon="9.906390260531717"><ele>785.8</ele><time>2026-03-22T11:12:49Z</time></trkpt><trkpt lat="44.713948645065365" lon="9.906489792478501"><ele>783.0</ele><time>2026-03-22T11:12:50Z</time></trkpt><trkpt lat="44.713891934783554" lon="9.906611996172392"><ele>783.0</ele><time>2026-03-22T11:12:51Z</time></trkpt><trkpt lat="44.71386268082881" lon="9.90669109394536"><ele>783.0</ele><time>2026-03-22T11:12:53Z</time></trkpt><trkpt lat="44.71384772793451" lon="9.90679755913207"><ele>783.0</ele><time>2026-03-22T11:12:55Z</time></trkpt><trkpt lat="44.71376713602242" lon="9.906880881610732"><ele>783.0</ele><time>2026-03-22T11:12:57Z</time></trkpt><trkpt lat="44.71373833848301" lon="9.906966050722657"><ele>783.0</ele><time>2026-03-22T11:12:59Z</time></trkpt><trkpt lat="44.71369485114421" lon="9.907086539919908"><ele>783.0</ele><time>2026-03-22T11:13:00Z</time></trkpt><trkpt lat="44.71319021528895" lon="9.908285640190853"><ele>782.6666666666666</ele><time>2026-03-22T11:13:01Z</time></trkpt><trkpt lat="44.713102039556034" lon="9.90832633427942"><ele>782.3333333333333</ele><time>2026-03-22T11:13:02Z</time></trkpt><trkpt lat="44.7130034382408" lon="9.908359320993364"><ele>782.0</ele><time>2026-03-22T11:13:04Z</time></trkpt><trkpt lat="44.712916982657" lon="9.90835106413373"><ele>781.6666666666666</ele><time>2026-03-22T11:13:07Z</time></trkpt><trkpt lat="44.71289058985433" lon="9.908229498198068"><ele>781.3333333333333</ele><time>2026-03-22T11:13:10Z</time></trkpt><trkpt lat="44.712897149623885" lon="9.908135693495383"><ele>781.0</ele><time>2026-03-22T11:13:11Z</time></trkpt><trkpt lat="44.712898605648164" lon="9.908045048528427"><ele>780.9999999999999</ele><time>2026-03-22T11:13:12Z</time></trkpt><trkpt lat="44.712891517085026" lon="9.9079550697131"><ele>781.0</ele><time>2026-03-22T11:13:13Z</time></trkpt><trkpt lat="44.7128833838388" lon="9.907860566273806"><ele>781.0</ele><time>2026-03-22T11:13:13.999Z</time></trkpt><trkpt lat="44.71288909596215" lon="9.907771720794472"><ele>781.0</ele><time>2026-03-22T11:13:14.999Z</time></trkpt><trkpt lat="44.712950393855984" lon="9.907607709035"><ele>780.9999999999999</ele><time>2026-03-22T11:13:16.999Z</time></trkpt><trkpt lat="44.7129785150523" lon="9.907521297765179"><ele>781.0</ele><time>2026-03-22T11:13:17.999Z</time></trkpt><trkpt lat="44.71297988516152" lon="9.907419731166634"><ele>783.8333333333333</ele><time>2026-03-22T11:13:18.999Z</time></trkpt><trkpt lat="44.71298029513358" lon="9.907311231654745"><ele>786.6666666666666</ele><time>2026-03-22T11:13:19.999Z</time></trkpt><trkpt lat="44.71303589147347" lon="9.907222722282983"><ele>789.5</ele><time>2026-03-22T11:13:20.999Z</time></trkpt><trkpt lat="44.712993291763205" lon="9.907136728788254"><ele>792.3333333333333</ele><time>2026-03-22T11:13:22.999Z</time></trkpt><trkpt lat="44.713047104552565" lon="9.907013329869594"><ele>795.1666666666666</ele><time>2026-03-22T11:13:23.999Z</time></trkpt><trkpt lat="44.71298555043254" lon="9.906911697280693"><ele>798.0</ele><time>2026-03-22T11:13:26.999Z</time></trkpt><trkpt lat="44.71296876198108" lon="9.906824795843045"><ele>801.0</ele><time>2026-03-22T11:13:28.999Z</time></trkpt><trkpt lat="44.71298304291596" lon="9.906693226331969"><ele>804.0</ele><time>2026-03-22T11:13:30.999Z</time></trkpt><trkpt lat="44.71300811343826" lon="9.906606554804863"><ele>807.0</ele><time>2026-03-22T11:13:31.999Z</time></trkpt><trkpt lat="44.71294836419698" lon="9.90653607360232"><ele>810.0</ele><time>2026-03-22T11:13:33.999Z</time></trkpt><trkpt lat="44.71284050302767" lon="9.905939543063244"><ele>812.3333333333334</ele><time>2026-03-22T11:13:36.999Z</time></trkpt><trkpt lat="44.71281957915921" lon="9.905826577186666"><ele>814.6666666666667</ele><time>2026-03-22T11:13:37.999Z</time></trkpt><trkpt lat="44.71281166390065" lon="9.905722854932229"><ele>817.0</ele><time>2026-03-22T11:13:38.999Z</time></trkpt><trkpt lat="44.712754270860934" lon="9.905624363399866"><ele>819.3333333333334</ele><time>2026-03-22T11:13:41.999Z</time></trkpt><trkpt lat="44.71280036919478" lon="9.905545677304115"><ele>821.6666666666667</ele><time>2026-03-22T11:13:44.999Z</time></trkpt><trkpt lat="44.712871232320275" lon="9.905446667822178"><ele>824.0</ele><time>2026-03-22T11:13:45.999Z</time></trkpt><trkpt lat="44.712941428967746" lon="9.90535677257519"><ele>824.0000000000001</ele><time>2026-03-22T11:13:46.999Z</time></trkpt><trkpt lat="44.712999195929115" lon="9.905254406509174"><ele>824.0</ele><time>2026-03-22T11:13:47.999Z</time></trkpt><trkpt lat="44.713055134908224" lon="9.905139033778743"><ele>824.0</ele><time>2026-03-22T11:13:48.999Z</time></trkpt><trkpt lat="44.71310922407199" lon="9.90504776785075"><ele>824.0</ele><time>2026-03-22T11:13:49.999Z</time></trkpt><trkpt lat="44.713167049303486" lon="9.904987830557442"><ele>824.0000000000001</ele><time>2026-03-22T11:13:50.999Z</time></trkpt><trkpt lat="44.71323032724622" lon="9.904935859606393"><ele>824.0</ele><time>2026-03-22T11:13:51.999Z</time></trkpt><trkpt lat="44.7133232557646" lon="9.904818486216737"><ele>826.5000000000001</ele><time>2026-03-22T11:13:53.999Z</time></trkpt><trkpt lat="44.71336384169375" lon="9.904721037458573"><ele>829.0</ele><time>2026-03-22T11:13:54.999Z</time></trkpt><trkpt lat="44.71337417450699" lon="9.90463351327258"><ele>831.5</ele><time>2026-03-22T11:13:55.999Z</time></trkpt><trkpt lat="44.71336208394625" lon="9.90454246114405"><ele>834.0</ele><time>2026-03-22T11:13:56.999Z</time></trkpt><trkpt lat="44.71340717083739" lon="9.904425827436244"><ele>836.5000000000001</ele><time>2026-03-22T11:14:02.999Z</time></trkpt><trkpt lat="44.713440056699895" lon="9.904346947031945"><ele>839.0</ele><time>2026-03-22T11:14:04.999Z</time></trkpt><trkpt lat="44.713466587220616" lon="9.904207276086185"><ele>836.25</ele><time>2026-03-22T11:14:07.999Z</time></trkpt><trkpt lat="44.713594444751415" lon="9.904030004976136"><ele>833.5</ele><time>2026-03-22T11:14:09.999Z</time></trkpt><trkpt lat="44.71364393113566" lon="9.903883052145208"><ele>830.75</ele><time>2026-03-22T11:14:10.999Z</time></trkpt><trkpt lat="44.713656036113086" lon="9.90378207053461"><ele>828.0</ele><time>2026-03-22T11:14:11.999Z</time></trkpt><trkpt lat="44.713746105729605" lon="9.903680691813474"><ele>828.0</ele><time>2026-03-22T11:14:13.999Z</time></trkpt><trkpt lat="44.71383880868263" lon="9.903639859018634"><ele>828.0</ele><time>2026-03-22T11:14:14.999Z</time></trkpt><trkpt lat="44.71395032023822" lon="9.903573075553501"><ele>828.0</ele><time>2026-03-22T11:14:15.999Z</time></trkpt><trkpt lat="44.71401568462174" lon="9.903512734735463"><ele>828.0</ele><time>2026-03-22T11:14:16.999Z</time></trkpt><trkpt lat="44.714052360507736" lon="9.903413610125552"><ele>828.0</ele><time>2026-03-22T11:14:17.999Z</time></trkpt><trkpt lat="44.71410995318762" lon="9.903338045525555"><ele>833.3333333333333</ele><time>2026-03-22T11:14:18.999Z</time></trkpt><trkpt lat="44.71405660067514" lon="9.903155277526544"><ele>838.6666666666666</ele><time>2026-03-22T11:14:20.999Z</time></trkpt><trkpt lat="44.71408841074964" lon="9.902821004894955"><ele>844.0</ele><time>2026-03-22T11:14:25.999Z</time></trkpt><trkpt lat="44.7141285575742" lon="9.902711844636192"><ele>844.0</ele><time>2026-03-22T11:14:26.999Z</time></trkpt><trkpt lat="44.7141874121288" lon="9.902616828724382"><ele>844.0</ele><time>2026-03-22T11:14:28Z</time></trkpt><trkpt lat="44.71422725694026" lon="9.902532749684045"><ele>844.0</ele><time>2026-03-22T11:14:29Z</time></trkpt><trkpt lat="44.71424892475914" lon="9.90243132241692"><ele>844.0</ele><time>2026-03-22T11:14:30Z</time></trkpt><trkpt lat="44.71425421809575" lon="9.902268185778343"><ele>844.0</ele><time>2026-03-22T11:14:32Z</time></trkpt><trkpt lat="44.71429443430366" lon="9.90207139478851"><ele>844.2</ele><time>2026-03-22T11:14:34Z</time></trkpt><trkpt lat="44.71425481919777" lon="9.901997620732146"><ele>844.4000000000001</ele><time>2026-03-22T11:14:35Z</time></trkpt><trkpt lat="44.714193942558246" lon="9.901940336472899"><ele>844.6</ele><time>2026-03-22T11:14:36Z</time></trkpt><trkpt lat="44.71409876637339" lon="9.901833680959408"><ele>844.8</ele><time>2026-03-22T11:14:38Z</time></trkpt><trkpt lat="44.7139921006519" lon="9.901844959320547"><ele>845.0</ele><time>2026-03-22T11:14:40Z</time></trkpt><trkpt lat="44.7140544765707" lon="9.901715314802889"><ele>844.0</ele><time>2026-03-22T11:14:43Z</time></trkpt><trkpt lat="44.71407688648636" lon="9.901609329626586"><ele>843.0</ele><time>2026-03-22T11:14:46Z</time></trkpt><trkpt lat="44.71424176569357" lon="9.901196496751426"><ele>842.0</ele><time>2026-03-22T11:14:47Z</time></trkpt><trkpt lat="44.71427551249876" lon="9.901068114956223"><ele>842.0000000000001</ele><time>2026-03-22T11:14:48Z</time></trkpt><trkpt lat="44.71432857906468" lon="9.900937692038312"><ele>842.0</ele><time>2026-03-22T11:14:49Z</time></trkpt><trkpt lat="44.71435779911271" lon="9.900833062700618"><ele>842.0</ele><time>2026-03-22T11:14:50Z</time></trkpt><trkpt lat="44.714408229741345" lon="9.900777986973033"><ele>842.0</ele><time>2026-03-22T11:14:51Z</time></trkpt><trkpt lat="44.714475874738845" lon="9.90072375695645"><ele>842.0000000000001</ele><time>2026-03-22T11:14:52Z</time></trkpt><trkpt lat="44.71447154465284" lon="9.900601803594569"><ele>842.0</ele><time>2026-03-22T11:14:55Z</time></trkpt><trkpt lat="44.71437347924693" lon="9.900499720627872"><ele>841.5000000000001</ele><time>2026-03-22T11:14:57Z</time></trkpt><trkpt lat="44.714285001206115" lon="9.900442547001107"><ele>841.0</ele><time>2026-03-22T11:14:58Z</time></trkpt><trkpt lat="44.71418443656283" lon="9.900417302089323"><ele>840.5</ele><time>2026-03-22T11:14:59Z</time></trkpt><trkpt lat="44.714115897292295" lon="9.900373077113333"><ele>840.0</ele><time>2026-03-22T11:15:00Z</time></trkpt><trkpt lat="44.714038944168756" lon="9.900325040039306"><ele>839.5000000000001</ele><time>2026-03-22T11:15:01Z</time></trkpt><trkpt lat="44.713963883019645" lon="9.900254986644471"><ele>839.0</ele><time>2026-03-22T11:15:02Z</time></trkpt><trkpt lat="44.71386818759372" lon="9.90022482893274"><ele>839.0</ele><time>2026-03-22T11:15:03Z</time></trkpt><trkpt lat="44.71378113504894" lon="9.900229182497364"><ele>839.0</ele><time>2026-03-22T11:15:04Z</time></trkpt><trkpt lat="44.71369687820923" lon="9.90017834497566"><ele>839.0</ele><time>2026-03-22T11:15:05Z</time></trkpt><trkpt lat="44.71360323810929" lon="9.90011707198013"><ele>839.0</ele><time>2026-03-22T11:15:06Z</time></trkpt><trkpt lat="44.71351712473488" lon="9.900025554893181"><ele>839.0</ele><time>2026-03-22T11:15:07Z</time></trkpt><trkpt lat="44.71336088068255" lon="9.899970313243884"><ele>841.2</ele><time>2026-03-22T11:15:08Z</time></trkpt><trkpt lat="44.71320423733351" lon="9.899911663138678"><ele>843.4000000000001</ele><time>2026-03-22T11:15:09Z</time></trkpt><trkpt lat="44.71309416606811" lon="9.899860449637252"><ele>845.6</ele><time>2026-03-22T11:15:10Z</time></trkpt><trkpt lat="44.71304860131306" lon="9.899796331870466"><ele>847.8</ele><time>2026-03-22T11:15:11Z</time></trkpt><trkpt lat="44.71298206179437" lon="9.899793570893205"><ele>850.0</ele><time>2026-03-22T11:15:12Z</time></trkpt><trkpt lat="44.712920666928056" lon="9.899763306891094"><ele>849.9999999999999</ele><time>2026-03-22T11:15:14Z</time></trkpt><trkpt lat="44.712874372378785" lon="9.899700314678226"><ele>850.0</ele><time>2026-03-22T11:15:17Z</time></trkpt><trkpt lat="44.71279216384215" lon="9.899635428673868"><ele>850.0</ele><time>2026-03-22T11:16:56Z</time></trkpt><trkpt lat="44.712719473289184" lon="9.899613745332019"><ele>850.0</ele><time>2026-03-22T11:17:00Z</time></trkpt><trkpt lat="44.71264845504265" lon="9.899575399527807"><ele>849.9999999999999</ele><time>2026-03-22T11:17:04Z</time></trkpt><trkpt lat="44.712581734386916" lon="9.899504467149509"><ele>850.0</ele><time>2026-03-22T11:17:07Z</time></trkpt><trkpt lat="44.71250105587443" lon="9.899509370387705"><ele>848.6</ele><time>2026-03-22T11:17:10Z</time></trkpt><trkpt lat="44.712437092842684" lon="9.899520562895505"><ele>847.2</ele><time>2026-03-22T11:17:13Z</time></trkpt><trkpt lat="44.712339082435" lon="9.899533376728403"><ele>845.8</ele><time>2026-03-22T11:17:16Z</time></trkpt><trkpt lat="44.712243006411924" lon="9.89961506089657"><ele>844.4</ele><time>2026-03-22T11:17:18Z</time></trkpt><trkpt lat="44.7121757892396" lon="9.89968173590908"><ele>843.0</ele><time>2026-03-22T11:17:19Z</time></trkpt><trkpt lat="44.71207311853338" lon="9.89974507211406"><ele>843.0</ele><time>2026-03-22T11:17:20Z</time></trkpt><trkpt lat="44.71194645333315" lon="9.89982289576715"><ele>843.0</ele><time>2026-03-22T11:17:21Z</time></trkpt><trkpt lat="44.7118615107218" lon="9.89988091042049"><ele>843.0</ele><time>2026-03-22T11:17:22Z</time></trkpt><trkpt lat="44.71176595570861" lon="9.900004427106278"><ele>843.0</ele><time>2026-03-22T11:17:24Z</time></trkpt><trkpt lat="44.71169905288412" lon="9.900054057362539"><ele>843.0</ele><time>2026-03-22T11:17:25Z</time></trkpt><trkpt lat="44.71158083683886" lon="9.900108740929781"><ele>841.6666666666666</ele><time>2026-03-22T11:17:27Z</time></trkpt><trkpt lat="44.711480856759565" lon="9.900174869683763"><ele>840.3333333333333</ele><time>2026-03-22T11:17:28.999Z</time></trkpt><trkpt lat="44.71141282139269" lon="9.900217456139453"><ele>839.0</ele><time>2026-03-22T11:17:29.999Z</time></trkpt><trkpt lat="44.71133986747697" lon="9.90020077622291"><ele>837.6666666666666</ele><time>2026-03-22T11:17:31.999Z</time></trkpt><trkpt lat="44.711405364239006" lon="9.900204428364829"><ele>836.3333333333333</ele><time>2026-03-22T11:17:41.999Z</time></trkpt><trkpt lat="44.71146072789428" lon="9.900152153671923"><ele>835.0</ele><time>2026-03-22T11:17:43.999Z</time></trkpt><trkpt lat="44.71151218649354" lon="9.900098232456191"><ele>836.6</ele><time>2026-03-22T11:17:46.999Z</time></trkpt><trkpt lat="44.71169804384925" lon="9.899967755169618"><ele>838.2</ele><time>2026-03-22T11:17:48.999Z</time></trkpt><trkpt lat="44.71175698840938" lon="9.89989363952376"><ele>839.8</ele><time>2026-03-22T11:17:49.999Z</time></trkpt><trkpt lat="44.711818711179156" lon="9.899860523707158"><ele>841.4</ele><time>2026-03-22T11:17:50.999Z</time></trkpt><trkpt lat="44.711893437706806" lon="9.899843480420657"><ele>843.0</ele><time>2026-03-22T11:17:51.999Z</time></trkpt><trkpt lat="44.711983307730826" lon="9.899789966484393"><ele>843.0</ele><time>2026-03-22T11:17:52.999Z</time></trkpt><trkpt lat="44.71208299459647" lon="9.899708846021326"><ele>843.0</ele><time>2026-03-22T11:17:53.999Z</time></trkpt><trkpt lat="44.71217879835938" lon="9.899657536168743"><ele>843.0</ele><time>2026-03-22T11:17:54.999Z</time></trkpt><trkpt lat="44.7122684670505" lon="9.899634576734723"><ele>843.0</ele><time>2026-03-22T11:17:55.999Z</time></trkpt><trkpt lat="44.71238933425346" lon="9.899637128163018"><ele>843.0</ele><time>2026-03-22T11:17:56.999Z</time></trkpt><trkpt lat="44.71254922654373" lon="9.899647910081722"><ele>843.0</ele><time>2026-03-22T11:17:57.999Z</time></trkpt><trkpt lat="44.71265692191399" lon="9.899657095052325"><ele>843.0</ele><time>2026-03-22T11:17:58.999Z</time></trkpt><trkpt lat="44.71274020450877" lon="9.899656334914537"><ele>843.0</ele><time>2026-03-22T11:17:59.999Z</time></trkpt><trkpt lat="44.712831704012956" lon="9.899686133859886"><ele>843.0</ele><time>2026-03-22T11:18:01.999Z</time></trkpt><trkpt lat="44.71289617956487" lon="9.899691142113127"><ele>843.0</ele><time>2026-03-22T11:23:52.999Z</time></trkpt><trkpt lat="44.71283172856567" lon="9.899687779956809"><ele>843.0</ele><time>2026-03-22T11:28:02Z</time></trkpt><trkpt lat="44.7129269479617" lon="9.899758410934927"><ele>844.4</ele><time>2026-03-22T11:28:57.999Z</time></trkpt><trkpt lat="44.71304295895924" lon="9.899736815471583"><ele>845.8</ele><time>2026-03-22T11:28:59.999Z</time></trkpt><trkpt lat="44.713114124002445" lon="9.899700631858407"><ele>847.2</ele><time>2026-03-22T11:29:01.999Z</time></trkpt><trkpt lat="44.713202118656916" lon="9.899639905316029"><ele>848.6</ele><time>2026-03-22T11:29:03.999Z</time></trkpt><trkpt lat="44.713303523133256" lon="9.899535788511157"><ele>850.0</ele><time>2026-03-22T11:29:05.999Z</time></trkpt><trkpt lat="44.71338251311428" lon="9.899500542415593"><ele>849.9999999999999</ele><time>2026-03-22T11:29:06.999Z</time></trkpt><trkpt lat="44.713467348942764" lon="9.899469123780525"><ele>850.0</ele><time>2026-03-22T11:29:07.999Z</time></trkpt><trkpt lat="44.713543864868015" lon="9.899411857862306"><ele>850.0</ele><time>2026-03-22T11:29:08.999Z</time></trkpt><trkpt lat="44.71361789465588" lon="9.899378350137669"><ele>850.0</ele><time>2026-03-22T11:29:10Z</time></trkpt><trkpt lat="44.71368488753665" lon="9.899331231589237"><ele>849.9999999999999</ele><time>2026-03-22T11:29:11Z</time></trkpt><trkpt lat="44.71375495391848" lon="9.899272672117814"><ele>850.0</ele><time>2026-03-22T11:29:12Z</time></trkpt><trkpt lat="44.713833666163445" lon="9.899282152000273"><ele>851.4</ele><time>2026-03-22T11:29:13Z</time></trkpt><trkpt lat="44.71394222626407" lon="9.89930081204313"><ele>852.8</ele><time>2026-03-22T11:29:15Z</time></trkpt><trkpt lat="44.713976031941115" lon="9.899377570935028"><ele>854.2</ele><time>2026-03-22T11:29:16Z</time></trkpt><trkpt lat="44.714079600991155" lon="9.899347526259467"><ele>855.6</ele><time>2026-03-22T11:29:18Z</time></trkpt><trkpt lat="44.714195089775174" lon="9.899265090140377"><ele>857.0</ele><time>2026-03-22T11:29:20Z</time></trkpt><trkpt lat="44.714323396643856" lon="9.899200384844844"><ele>859.1666666666667</ele><time>2026-03-22T11:29:22Z</time></trkpt><trkpt lat="44.71437998727342" lon="9.899148971293863"><ele>861.3333333333334</ele><time>2026-03-22T11:29:23Z</time></trkpt><trkpt lat="44.71445895749973" lon="9.89913722799902"><ele>863.5</ele><time>2026-03-22T11:29:24Z</time></trkpt><trkpt lat="44.71454124222614" lon="9.899173446463802"><ele>865.6666666666667</ele><time>2026-03-22T11:29:25Z</time></trkpt><trkpt lat="44.71462935481868" lon="9.899236347162532"><ele>867.8333333333334</ele><time>2026-03-22T11:29:26Z</time></trkpt><trkpt lat="44.714718134642034" lon="9.899232649987958"><ele>870.0</ele><time>2026-03-22T11:29:27Z</time></trkpt><trkpt lat="44.71480563238558" lon="9.899239787179585"><ele>870.0</ele><time>2026-03-22T11:29:28Z</time></trkpt><trkpt lat="44.714922157690715" lon="9.899211866579012"><ele>870.0</ele><time>2026-03-22T11:29:29Z</time></trkpt><trkpt lat="44.71499853976845" lon="9.899271532093989"><ele>870.0</ele><time>2026-03-22T11:29:30Z</time></trkpt><trkpt lat="44.715048466418686" lon="9.899416509267732"><ele>870.0</ele><time>2026-03-22T11:29:32Z</time></trkpt><trkpt lat="44.71515885318274" lon="9.899451112381154"><ele>870.0</ele><time>2026-03-22T11:29:34Z</time></trkpt><trkpt lat="44.715231898854405" lon="9.899445235876225"><ele>874.0</ele><time>2026-03-22T11:29:35Z</time></trkpt><trkpt lat="44.715322246428535" lon="9.899507001891747"><ele>878.0</ele><time>2026-03-22T11:29:37Z</time></trkpt><trkpt lat="44.715413937712306" lon="9.899554032924765"><ele>882.0</ele><time>2026-03-22T11:29:39Z</time></trkpt><trkpt lat="44.71547635298854" lon="9.899499446836769"><ele>886.0</ele><time>2026-03-22T11:29:42Z</time></trkpt><trkpt lat="44.71558097742912" lon="9.89951421343577"><ele>890.0</ele><time>2026-03-22T11:29:45Z</time></trkpt><trkpt lat="44.715642366062596" lon="9.89960928492271"><ele>890.0000000000001</ele><time>2026-03-22T11:29:47Z</time></trkpt><trkpt lat="44.71564474901217" lon="9.899720375666343"><ele>890.0</ele><time>2026-03-22T11:29:50Z</time></trkpt><trkpt lat="44.71557999493839" lon="9.899797771623021"><ele>890.0</ele><time>2026-03-22T11:29:52Z</time></trkpt><trkpt lat="44.71552568307152" lon="9.899847516430812"><ele>890.0</ele><time>2026-03-22T11:29:54Z</time></trkpt><trkpt lat="44.71552130606743" lon="9.899937577822651"><ele>890.0000000000001</ele><time>2026-03-22T11:29:55Z</time></trkpt><trkpt lat="44.71549472343106" lon="9.900076648529211"><ele>890.0</ele><time>2026-03-22T11:29:56Z</time></trkpt><trkpt lat="44.715456928718304" lon="9.900154324414789"><ele>891.2</ele><time>2026-03-22T11:29:57Z</time></trkpt><trkpt lat="44.71544620282937" lon="9.90035175442813"><ele>892.4</ele><time>2026-03-22T11:29:59Z</time></trkpt><trkpt lat="44.715469039744114" lon="9.9004441933633"><ele>893.5999999999999</ele><time>2026-03-22T11:30:00Z</time></trkpt><trkpt lat="44.715490344745405" lon="9.90057056386677"><ele>894.8</ele><time>2026-03-22T11:30:01Z</time></trkpt><trkpt lat="44.715490479915466" lon="9.900722362611457"><ele>896.0</ele><time>2026-03-22T11:30:02Z</time></trkpt><trkpt lat="44.7155059772977" lon="9.900883101208782"><ele>895.5999999999999</ele><time>2026-03-22T11:30:03Z</time></trkpt><trkpt lat="44.715512500890306" lon="9.901020790223447"><ele>895.1999999999999</ele><time>2026-03-22T11:30:04Z</time></trkpt><trkpt lat="44.71549258998926" lon="9.90113182694335"><ele>894.8000000000001</ele><time>2026-03-22T11:30:05Z</time></trkpt><trkpt lat="44.71545686845601" lon="9.901251347428847"><ele>894.4000000000001</ele><time>2026-03-22T11:30:06Z</time></trkpt><trkpt lat="44.715417516372014" lon="9.90134447210193"><ele>894.0</ele><time>2026-03-22T11:30:07Z</time></trkpt><trkpt lat="44.71538577976057" lon="9.901548094057299"><ele>894.0</ele><time>2026-03-22T11:30:09Z</time></trkpt><trkpt lat="44.71545161207357" lon="9.901702858870546"><ele>894.0</ele><time>2026-03-22T11:30:10.999Z</time></trkpt><trkpt lat="44.71559746012003" lon="9.901626784680294"><ele>894.0</ele><time>2026-03-22T11:30:12.999Z</time></trkpt><trkpt lat="44.71567588768407" lon="9.901584076125108"><ele>894.0</ele><time>2026-03-22T11:30:13.999Z</time></trkpt><trkpt lat="44.71575823803436" lon="9.90156125983996"><ele>894.0</ele><time>2026-03-22T11:30:14.999Z</time></trkpt><trkpt lat="44.71583385276274" lon="9.90153942692647"><ele>894.0</ele><time>2026-03-22T11:30:15.999Z</time></trkpt><trkpt lat="44.71591269552916" lon="9.901510143812834"><ele>894.0</ele><time>2026-03-22T11:30:16.999Z</time></trkpt><trkpt lat="44.71598990850001" lon="9.901470712131518"><ele>894.0</ele><time>2026-03-22T11:30:17.999Z</time></trkpt><trkpt lat="44.716058785553585" lon="9.901410540193451"><ele>894.0</ele><time>2026-03-22T11:30:18.999Z</time></trkpt><trkpt lat="44.71614114555107" lon="9.901310224178664"><ele>894.0</ele><time>2026-03-22T11:30:19.999Z</time></trkpt><trkpt lat="44.71619806862316" lon="9.901269512962964"><ele>894.75</ele><time>2026-03-22T11:30:20.999Z</time></trkpt><trkpt lat="44.71633825446121" lon="9.901232986890362"><ele>895.5</ele><time>2026-03-22T11:30:22.999Z</time></trkpt><trkpt lat="44.71639654330678" lon="9.901192415541866"><ele>896.25</ele><time>2026-03-22T11:30:23.999Z</time></trkpt><trkpt lat="44.71643634612592" lon="9.901395394412368"><ele>897.0</ele><time>2026-03-22T11:30:27.999Z</time></trkpt><trkpt lat="44.71647200410843" lon="9.901544282619458"><ele>897.0</ele><time>2026-03-22T11:30:29.999Z</time></trkpt><trkpt lat="44.71648049891838" lon="9.90166684033028"><ele>897.0</ele><time>2026-03-22T11:30:31.999Z</time></trkpt><trkpt lat="44.71654471320281" lon="9.901765983553135"><ele>897.0</ele><time>2026-03-22T11:30:33.999Z</time></trkpt><trkpt lat="44.71650373569945" lon="9.901858244884261"><ele>897.0</ele><time>2026-03-22T11:30:34.999Z</time></trkpt><trkpt lat="44.71638152740825" lon="9.901877844859598"><ele>897.0</ele><time>2026-03-22T11:30:36.999Z</time></trkpt><trkpt lat="44.71625206299632" lon="9.901846284385005"><ele>894.6</ele><time>2026-03-22T11:30:39.999Z</time></trkpt><trkpt lat="44.71616199188161" lon="9.901812093918906"><ele>892.2</ele><time>2026-03-22T11:30:42.999Z</time></trkpt><trkpt lat="44.71606434935412" lon="9.90178429963153"><ele>889.8</ele><time>2026-03-22T11:30:45.999Z</time></trkpt><trkpt lat="44.715996849001634" lon="9.901800196277295"><ele>887.4</ele><time>2026-03-22T11:30:47.999Z</time></trkpt><trkpt lat="44.71590104001465" lon="9.901781333187435"><ele>885.0</ele><time>2026-03-22T11:30:48.999Z</time></trkpt><trkpt lat="44.71578980308123" lon="9.901759286223639"><ele>884.2</ele><time>2026-03-22T11:30:49.999Z</time></trkpt><trkpt lat="44.71571692989324" lon="9.901720391577024"><ele>883.4</ele><time>2026-03-22T11:30:50.999Z</time></trkpt><trkpt lat="44.71560900079406" lon="9.901674482367337"><ele>882.5999999999999</ele><time>2026-03-22T11:30:52.999Z</time></trkpt><trkpt lat="44.71556914880612" lon="9.90179827800964"><ele>881.8</ele><time>2026-03-22T11:30:55.999Z</time></trkpt><trkpt lat="44.71559825097203" lon="9.901904266160209"><ele>881.0</ele><time>2026-03-22T11:30:58.999Z</time></trkpt><trkpt lat="44.71563375609164" lon="9.902036754839685"><ele>881.0</ele><time>2026-03-22T11:31:01.999Z</time></trkpt><trkpt lat="44.715687362357215" lon="9.90213325689003"><ele>880.9999999999999</ele><time>2026-03-22T11:31:04.999Z</time></trkpt><trkpt lat="44.71569858276531" lon="9.902254623163056"><ele>880.9999999999999</ele><time>2026-03-22T11:31:06.999Z</time></trkpt><trkpt lat="44.71573604024179" lon="9.902342464527072"><ele>881.0</ele><time>2026-03-22T11:31:07.999Z</time></trkpt><trkpt lat="44.715802513776424" lon="9.902455503049385"><ele>881.0</ele><time>2026-03-22T11:31:09.999Z</time></trkpt><trkpt lat="44.71589510696071" lon="9.902629141655886"><ele>880.1999999999999</ele><time>2026-03-22T11:31:11.999Z</time></trkpt><trkpt lat="44.71592090661735" lon="9.90271671402433"><ele>879.3999999999999</ele><time>2026-03-22T11:31:12.999Z</time></trkpt><trkpt lat="44.71603952496874" lon="9.902871730257974"><ele>878.6</ele><time>2026-03-22T11:31:19Z</time></trkpt><trkpt lat="44.71607786916983" lon="9.902990067555866"><ele>877.8</ele><time>2026-03-22T11:31:23Z</time></trkpt><trkpt lat="44.716109273165216" lon="9.903084423875027"><ele>877.0</ele><time>2026-03-22T11:31:25Z</time></trkpt><trkpt lat="44.71617381624531" lon="9.903156681317283"><ele>876.9999999999999</ele><time>2026-03-22T11:31:26Z</time></trkpt><trkpt lat="44.71622843276986" lon="9.90323909653406"><ele>877.0</ele><time>2026-03-22T11:31:27Z</time></trkpt><trkpt lat="44.71628107410914" lon="9.903348072258355"><ele>877.0</ele><time>2026-03-22T11:31:28Z</time></trkpt><trkpt lat="44.71633641801918" lon="9.903403339317977"><ele>877.0</ele><time>2026-03-22T11:31:29Z</time></trkpt><trkpt lat="44.71637776482679" lon="9.903471482275767"><ele>876.9999999999999</ele><time>2026-03-22T11:31:30Z</time></trkpt><trkpt lat="44.71644337145633" lon="9.903588076923644"><ele>877.0</ele><time>2026-03-22T11:31:32Z</time></trkpt><trkpt lat="44.716491184385646" lon="9.903681043109364"><ele>874.8333333333333</ele><time>2026-03-22T11:31:34Z</time></trkpt><trkpt lat="44.71655926470279" lon="9.903726703922182"><ele>872.6666666666666</ele><time>2026-03-22T11:31:36Z</time></trkpt><trkpt lat="44.71660811947341" lon="9.903782830724072"><ele>870.5</ele><time>2026-03-22T11:31:37Z</time></trkpt><trkpt lat="44.71665485556773" lon="9.903852149845557"><ele>868.3333333333333</ele><time>2026-03-22T11:31:39Z</time></trkpt><trkpt lat="44.71673339583573" lon="9.903910450192674"><ele>866.1666666666666</ele><time>2026-03-22T11:31:45Z</time></trkpt><trkpt lat="44.71679301892237" lon="9.90400652691355"><ele>864.0</ele><time>2026-03-22T11:31:47Z</time></trkpt><trkpt lat="44.71681980548593" lon="9.904108882309913"><ele>864.0</ele><time>2026-03-22T11:31:49Z</time></trkpt><trkpt lat="44.716862877725085" lon="9.904220448041567"><ele>864.0000000000001</ele><time>2026-03-22T11:31:51Z</time></trkpt><trkpt lat="44.7169138317138" lon="9.904313861447084"><ele>864.0000000000001</ele><time>2026-03-22T11:31:53Z</time></trkpt><trkpt lat="44.7169572318865" lon="9.904449593418542"><ele>864.0</ele><time>2026-03-22T11:31:55Z</time></trkpt><trkpt lat="44.717007268815486" lon="9.904560064950736"><ele>864.0</ele><time>2026-03-22T11:31:57Z</time></trkpt><trkpt lat="44.717006760358004" lon="9.904700676835482"><ele>860.3333333333334</ele><time>2026-03-22T11:31:59Z</time></trkpt><trkpt lat="44.717001609830646" lon="9.904812256972514"><ele>856.6666666666667</ele><time>2026-03-22T11:32:02Z</time></trkpt><trkpt lat="44.717003425964435" lon="9.90492411249264"><ele>853.0</ele><time>2026-03-22T11:32:04Z</time></trkpt><trkpt lat="44.717014404032724" lon="9.905081093719195"><ele>849.3333333333334</ele><time>2026-03-22T11:32:06Z</time></trkpt><trkpt lat="44.717025956641145" lon="9.90518904086336"><ele>845.6666666666667</ele><time>2026-03-22T11:32:07Z</time></trkpt><trkpt lat="44.717043650901196" lon="9.905283945967032"><ele>842.0</ele><time>2026-03-22T11:32:09Z</time></trkpt><trkpt lat="44.71707144404846" lon="9.905390523472825"><ele>840.8333333333334</ele><time>2026-03-22T11:32:11Z</time></trkpt><trkpt lat="44.717106132048144" lon="9.905488716774288"><ele>839.6666666666667</ele><time>2026-03-22T11:32:13Z</time></trkpt><trkpt lat="44.717109485874765" lon="9.905632481065421"><ele>838.5</ele><time>2026-03-22T11:32:14.999Z</time></trkpt><trkpt lat="44.71709481803881" lon="9.90573900390278"><ele>837.3333333333333</ele><time>2026-03-22T11:32:15.999Z</time></trkpt><trkpt lat="44.717072216493825" lon="9.905826009396293"><ele>836.1666666666666</ele><time>2026-03-22T11:32:16.999Z</time></trkpt><trkpt lat="44.717051921275825" lon="9.905944446837406"><ele>835.0</ele><time>2026-03-22T11:32:18.999Z</time></trkpt><trkpt lat="44.71705255321935" lon="9.906076744768452"><ele>834.8</ele><time>2026-03-22T11:32:20.999Z</time></trkpt><trkpt lat="44.71703955960003" lon="9.906199223024593"><ele>834.6</ele><time>2026-03-22T11:32:22.999Z</time></trkpt><trkpt lat="44.71700328064242" lon="9.906318528000586"><ele>834.4000000000001</ele><time>2026-03-22T11:32:24.999Z</time></trkpt><trkpt lat="44.7169567211297" lon="9.906410359814574"><ele>834.2</ele><time>2026-03-22T11:32:25.999Z</time></trkpt><trkpt lat="44.716860705312826" lon="9.90645846678038"><ele>834.0</ele><time>2026-03-22T11:32:27.999Z</time></trkpt><trkpt lat="44.71676813902427" lon="9.906520744477925"><ele>834.0</ele><time>2026-03-22T11:32:29.999Z</time></trkpt><trkpt lat="44.71671644036662" lon="9.906425576321691"><ele>834.0</ele><time>2026-03-22T11:32:32.999Z</time></trkpt><trkpt lat="44.7167072642231" lon="9.906322203347033"><ele>834.0</ele><time>2026-03-22T11:32:33.999Z</time></trkpt><trkpt lat="44.71670267407791" lon="9.90621159489731"><ele>834.0</ele><time>2026-03-22T11:32:36.999Z</time></trkpt><trkpt lat="44.71667628450642" lon="9.906121296614472"><ele>834.0</ele><time>2026-03-22T11:32:38.999Z</time></trkpt><trkpt lat="44.71660130186533" lon="9.906053427738913"><ele>834.0</ele><time>2026-03-22T11:32:41.999Z</time></trkpt><trkpt lat="44.71654417720343" lon="9.905931480962"><ele>834.4000000000001</ele><time>2026-03-22T11:32:43.999Z</time></trkpt><trkpt lat="44.716512866837746" lon="9.90584793178363"><ele>834.8</ele><time>2026-03-22T11:32:44.999Z</time></trkpt><trkpt lat="44.716479708560406" lon="9.905676740435974"><ele>835.2</ele><time>2026-03-22T11:32:45.999Z</time></trkpt><trkpt lat="44.71644863108731" lon="9.905530526154323"><ele>835.5999999999999</ele><time>2026-03-22T11:32:46.999Z</time></trkpt><trkpt lat="44.71639166054164" lon="9.905397098710099"><ele>836.0</ele><time>2026-03-22T11:32:47.999Z</time></trkpt><trkpt lat="44.71635222974208" lon="9.905303364192296"><ele>836.0</ele><time>2026-03-22T11:32:48.999Z</time></trkpt><trkpt lat="44.71630577909936" lon="9.905161574183445"><ele>836.0</ele><time>2026-03-22T11:32:49.999Z</time></trkpt><trkpt lat="44.71623978495312" lon="9.905009133332527"><ele>836.0</ele><time>2026-03-22T11:32:50.999Z</time></trkpt><trkpt lat="44.71619361549036" lon="9.904927384674926"><ele>836.0</ele><time>2026-03-22T11:32:51.999Z</time></trkpt><trkpt lat="44.71608966369473" lon="9.904858888716216"><ele>836.0</ele><time>2026-03-22T11:32:53.999Z</time></trkpt><trkpt lat="44.715938208212904" lon="9.904852793740522"><ele>834.8333333333334</ele><time>2026-03-22T11:32:55.999Z</time></trkpt><trkpt lat="44.715848765462596" lon="9.904891297372222"><ele>833.6666666666667</ele><time>2026-03-22T11:32:57.999Z</time></trkpt><trkpt lat="44.71577152686813" lon="9.904909088021066"><ele>832.5</ele><time>2026-03-22T11:32:59.999Z</time></trkpt><trkpt lat="44.71570800636134" lon="9.904863917100585"><ele>831.3333333333333</ele><time>2026-03-22T11:33:01.999Z</time></trkpt><trkpt lat="44.7156089212269" lon="9.904869508886659"><ele>830.1666666666666</ele><time>2026-03-22T11:33:04.999Z</time></trkpt><trkpt lat="44.715523175646524" lon="9.904920753388978"><ele>829.0</ele><time>2026-03-22T11:33:07.999Z</time></trkpt><trkpt lat="44.71544898180895" lon="9.905019737929724"><ele>829.0</ele><time>2026-03-22T11:33:10.999Z</time></trkpt><trkpt lat="44.71537593461398" lon="9.905086442033284"><ele>829.0</ele><time>2026-03-22T11:33:12.999Z</time></trkpt><trkpt lat="44.71531092643214" lon="9.905112340221194"><ele>829.0</ele><time>2026-03-22T11:33:15.999Z</time></trkpt><trkpt lat="44.715248777848" lon="9.905014620379323"><ele>829.0</ele><time>2026-03-22T11:33:17.999Z</time></trkpt><trkpt lat="44.71515950658203" lon="9.904941679821011"><ele>829.0</ele><time>2026-03-22T11:33:19.999Z</time></trkpt><trkpt lat="44.7150617162583" lon="9.90492040217381"><ele>824.8000000000001</ele><time>2026-03-22T11:33:22Z</time></trkpt><trkpt lat="44.714962433112845" lon="9.904886283752028"><ele>820.6</ele><time>2026-03-22T11:33:24Z</time></trkpt><trkpt lat="44.714901332392145" lon="9.904827549766637"><ele>816.4</ele><time>2026-03-22T11:33:26Z</time></trkpt><trkpt lat="44.714814357774216" lon="9.904725586514594"><ele>812.2</ele><time>2026-03-22T11:33:28Z</time></trkpt><trkpt lat="44.71474788245297" lon="9.904644168026362"><ele>808.0</ele><time>2026-03-22T11:33:30Z</time></trkpt><trkpt lat="44.71466994062409" lon="9.904559864662074"><ele>807.9999999999999</ele><time>2026-03-22T11:33:32Z</time></trkpt><trkpt lat="44.71461048450741" lon="9.90451692222188"><ele>808.0</ele><time>2026-03-22T11:33:34Z</time></trkpt><trkpt lat="44.71455989259934" lon="9.904586241206601"><ele>808.0</ele><time>2026-03-22T11:33:36Z</time></trkpt><trkpt lat="44.71443094914926" lon="9.90465313417541"><ele>808.0</ele><time>2026-03-22T11:33:38Z</time></trkpt><trkpt lat="44.71435103313167" lon="9.904700919931365"><ele>807.9999999999999</ele><time>2026-03-22T11:33:39Z</time></trkpt><trkpt lat="44.714330655902785" lon="9.904801546868157"><ele>808.0</ele><time>2026-03-22T11:33:40Z</time></trkpt><trkpt lat="44.71430381259909" lon="9.904905362467172"><ele>808.4999999999999</ele><time>2026-03-22T11:33:41Z</time></trkpt><trkpt lat="44.714289321979855" lon="9.905010847068631"><ele>809.0</ele><time>2026-03-22T11:33:43Z</time></trkpt><trkpt lat="44.71425113482099" lon="9.90510332960431"><ele>809.5</ele><time>2026-03-22T11:33:45Z</time></trkpt><trkpt lat="44.7142332564783" lon="9.9052143515117"><ele>810.0</ele><time>2026-03-22T11:33:46Z</time></trkpt><trkpt lat="44.71421097817659" lon="9.905298153624978"><ele>810.4999999999999</ele><time>2026-03-22T11:33:47Z</time></trkpt><trkpt lat="44.714170597540395" lon="9.90538894583648"><ele>811.0</ele><time>2026-03-22T11:33:48Z</time></trkpt><trkpt lat="44.71412839745838" lon="9.905597266380584"><ele>808.6666666666666</ele><time>2026-03-22T11:33:49Z</time></trkpt><trkpt lat="44.714116148117945" lon="9.905688713268644"><ele>806.3333333333333</ele><time>2026-03-22T11:33:51Z</time></trkpt><trkpt lat="44.71408843928909" lon="9.905875895419252"><ele>804.0</ele><time>2026-03-22T11:33:55Z</time></trkpt><trkpt lat="44.71403328227101" lon="9.905935229281496"><ele>801.6666666666667</ele><time>2026-03-22T11:33:57Z</time></trkpt><trkpt lat="44.71406831549499" lon="9.9060297559137"><ele>799.3333333333334</ele><time>2026-03-22T11:33:59Z</time></trkpt><trkpt lat="44.71402007398693" lon="9.906146969039439"><ele>797.0</ele><time>2026-03-22T11:34:01Z</time></trkpt><trkpt lat="44.71408144318833" lon="9.906203502742535"><ele>793.5</ele><time>2026-03-22T11:34:02Z</time></trkpt><trkpt lat="44.714104803815815" lon="9.906404656977008"><ele>790.0</ele><time>2026-03-22T11:34:04Z</time></trkpt><trkpt lat="44.71406594856143" lon="9.906577190347658"><ele>786.5</ele><time>2026-03-22T11:34:05Z</time></trkpt><trkpt lat="44.71402678169353" lon="9.906717294955445"><ele>783.0</ele><time>2026-03-22T11:34:06Z</time></trkpt><trkpt lat="44.71399438729692" lon="9.906869454478082"><ele>779.5</ele><time>2026-03-22T11:34:07Z</time></trkpt><trkpt lat="44.71395132233943" lon="9.906940482981172"><ele>776.0</ele><time>2026-03-22T11:34:08Z</time></trkpt><trkpt lat="44.713822736265335" lon="9.907059071513325"><ele>772.5</ele><time>2026-03-22T11:34:09Z</time></trkpt><trkpt lat="44.71377825923244" lon="9.907230934444817"><ele>769.0</ele><time>2026-03-22T11:34:10Z</time></trkpt><trkpt lat="44.713695482012724" lon="9.90741613455647"><ele>769.0</ele><time>2026-03-22T11:34:11Z</time></trkpt><trkpt lat="44.71362816254267" lon="9.907432426809724"><ele>769.0</ele><time>2026-03-22T11:34:13Z</time></trkpt><trkpt lat="44.71360099374282" lon="9.907528387515258"><ele>769.0</ele><time>2026-03-22T11:34:14Z</time></trkpt><trkpt lat="44.713542106482585" lon="9.907594571536835"><ele>769.0</ele><time>2026-03-22T11:34:15Z</time></trkpt><trkpt lat="44.71349637885739" lon="9.907666367427225"><ele>769.0</ele><time>2026-03-22T11:34:16Z</time></trkpt><trkpt lat="44.7134354816097" lon="9.907729765036674"><ele>769.0</ele><time>2026-03-22T11:34:17Z</time></trkpt><trkpt lat="44.71337279192582" lon="9.907810115592556"><ele>769.0</ele><time>2026-03-22T11:34:18Z</time></trkpt><trkpt lat="44.71331534113792" lon="9.907882097584094"><ele>770.9999999999999</ele><time>2026-03-22T11:34:19Z</time></trkpt><trkpt lat="44.713261496832985" lon="9.907929882417141"><ele>773.0</ele><time>2026-03-22T11:34:20Z</time></trkpt><trkpt lat="44.71312839276124" lon="9.908075367961985"><ele>775.0</ele><time>2026-03-22T11:34:22Z</time></trkpt><trkpt lat="44.713064457899534" lon="9.90806908460749"><ele>777.0</ele><time>2026-03-22T11:34:24Z</time></trkpt><trkpt lat="44.71300579902181" lon="9.907997338907583"><ele>778.9999999999999</ele><time>2026-03-22T11:34:26.999Z</time></trkpt><trkpt lat="44.713009991392695" lon="9.907891728078873"><ele>781.0</ele><time>2026-03-22T11:34:29.999Z</time></trkpt><trkpt lat="44.712975049882424" lon="9.90778614148453"><ele>781.0</ele><time>2026-03-22T11:34:32.999Z</time></trkpt><trkpt lat="44.71300851882842" lon="9.907688987083944"><ele>781.0</ele><time>2026-03-22T11:34:34.999Z</time></trkpt><trkpt lat="44.71296147000812" lon="9.907595386534794"><ele>781.0</ele><time>2026-03-22T11:34:36.999Z</time></trkpt><trkpt lat="44.712970677668295" lon="9.907467924586006"><ele>781.0</ele><time>2026-03-22T11:34:39.999Z</time></trkpt><trkpt lat="44.713008785140076" lon="9.9071461361473"><ele>784.4</ele><time>2026-03-22T11:34:41.999Z</time></trkpt><trkpt lat="44.71303278589187" lon="9.906999638398291"><ele>787.8</ele><time>2026-03-22T11:34:42.999Z</time></trkpt><trkpt lat="44.71303644365321" lon="9.906858467458605"><ele>791.1999999999999</ele><time>2026-03-22T11:34:43.999Z</time></trkpt><trkpt lat="44.71304843392308" lon="9.90670697267566"><ele>794.5999999999999</ele><time>2026-03-22T11:34:44.999Z</time></trkpt><trkpt lat="44.71302588937191" lon="9.906622618795954"><ele>798.0</ele><time>2026-03-22T11:34:45.999Z</time></trkpt><trkpt lat="44.71296731634376" lon="9.90655153860221"><ele>800.4</ele><time>2026-03-22T11:34:46.999Z</time></trkpt><trkpt lat="44.712913033226705" lon="9.906408238792963"><ele>802.8</ele><time>2026-03-22T11:34:47.999Z</time></trkpt><trkpt lat="44.71288851919677" lon="9.906260580162334"><ele>805.2</ele><time>2026-03-22T11:34:48.999Z</time></trkpt><trkpt lat="44.71286611926873" lon="9.90612947390475"><ele>807.6</ele><time>2026-03-22T11:34:49.999Z</time></trkpt><trkpt lat="44.71287475749005" lon="9.905991334701252"><ele>810.0</ele><time>2026-03-22T11:34:50.999Z</time></trkpt><trkpt lat="44.71279323156812" lon="9.9059094966427"><ele>812.3333333333334</ele><time>2026-03-22T11:34:52.999Z</time></trkpt><trkpt lat="44.71275627289891" lon="9.905810823597673"><ele>814.6666666666667</ele><time>2026-03-22T11:34:53.999Z</time></trkpt><trkpt lat="44.71280358875888" lon="9.905710869071415"><ele>817.0</ele><time>2026-03-22T11:34:55.999Z</time></trkpt><trkpt lat="44.71286850272859" lon="9.905674787038944"><ele>819.3333333333334</ele><time>2026-03-22T11:34:56.999Z</time></trkpt><trkpt lat="44.712917434887785" lon="9.905595130271713"><ele>821.6666666666667</ele><time>2026-03-22T11:34:58.999Z</time></trkpt><trkpt lat="44.712994156457015" lon="9.905497142756827"><ele>824.0</ele><time>2026-03-22T11:34:59.999Z</time></trkpt><trkpt lat="44.71304489392051" lon="9.905394996910482"><ele>824.0</ele><time>2026-03-22T11:35:00.999Z</time></trkpt><trkpt lat="44.71309284214562" lon="9.905268755727112"><ele>824.0</ele><time>2026-03-22T11:35:01.999Z</time></trkpt><trkpt lat="44.71313964983865" lon="9.905184622049367"><ele>824.0</ele><time>2026-03-22T11:35:02.999Z</time></trkpt><trkpt lat="44.71320404208842" lon="9.905134377979866"><ele>824.0</ele><time>2026-03-22T11:35:03.999Z</time></trkpt><trkpt lat="44.71326900039265" lon="9.90506884643868"><ele>824.0</ele><time>2026-03-22T11:35:05.999Z</time></trkpt><trkpt lat="44.71331928661787" lon="9.904909827114222"><ele>826.5000000000001</ele><time>2026-03-22T11:35:07.999Z</time></trkpt><trkpt lat="44.71333864713897" lon="9.90476438657927"><ele>829.0</ele><time>2026-03-22T11:35:08.999Z</time></trkpt><trkpt lat="44.71332271268297" lon="9.90465528973395"><ele>831.5</ele><time>2026-03-22T11:35:10.999Z</time></trkpt><trkpt lat="44.71336609732924" lon="9.90458807994805"><ele>834.0</ele><time>2026-03-22T11:35:11.999Z</time></trkpt><trkpt lat="44.713368362266095" lon="9.904491739052727"><ele>836.5000000000001</ele><time>2026-03-22T11:35:12.999Z</time></trkpt><trkpt lat="44.713420039854164" lon="9.904428810286095"><ele>839.0</ele><time>2026-03-22T11:35:13.999Z</time></trkpt><trkpt lat="44.71348096418315" lon="9.904371836810087"><ele>839.0</ele><time>2026-03-22T11:35:14.999Z</time></trkpt><trkpt lat="44.713536014567964" lon="9.904321555838562"><ele>839.0</ele><time>2026-03-22T11:35:15.999Z</time></trkpt><trkpt lat="44.713590375398915" lon="9.904261586741043"><ele>839.0</ele><time>2026-03-22T11:35:16.999Z</time></trkpt><trkpt lat="44.71360661544207" lon="9.9040877625912"><ele>839.0</ele><time>2026-03-22T11:35:18.999Z</time></trkpt><trkpt lat="44.71365671944798" lon="9.9039110492733"><ele>839.0</ele><time>2026-03-22T11:35:20.999Z</time></trkpt><trkpt lat="44.71371013780459" lon="9.903715948273533"><ele>836.8000000000001</ele><time>2026-03-22T11:35:22.999Z</time></trkpt><trkpt lat="44.71375321873868" lon="9.903629474474346"><ele>834.6</ele><time>2026-03-22T11:35:23.999Z</time></trkpt><trkpt lat="44.713829817970144" lon="9.903587268780301"><ele>832.4</ele><time>2026-03-22T11:35:24.999Z</time></trkpt><trkpt lat="44.713919369379646" lon="9.903587325053007"><ele>830.2</ele><time>2026-03-22T11:35:25.999Z</time></trkpt><trkpt lat="44.714027639365455" lon="9.90354730851319"><ele>828.0</ele><time>2026-03-22T11:35:26.999Z</time></trkpt><trkpt lat="44.71411390067818" lon="9.903437545405309"><ele>831.2</ele><time>2026-03-22T11:35:29Z</time></trkpt><trkpt lat="44.71413613334656" lon="9.903300032711867"><ele>834.4</ele><time>2026-03-22T11:35:30Z</time></trkpt><trkpt lat="44.71411717379524" lon="9.903128551599693"><ele>837.6</ele><time>2026-03-22T11:35:33Z</time></trkpt><trkpt lat="44.71409023302189" lon="9.903010996639562"><ele>840.8000000000001</ele><time>2026-03-22T11:35:35Z</time></trkpt><trkpt lat="44.7141200484408" lon="9.902905107156789"><ele>844.0</ele><time>2026-03-22T11:35:36Z</time></trkpt><trkpt lat="44.714141128189056" lon="9.902797273017178"><ele>844.0</ele><time>2026-03-22T11:35:37Z</time></trkpt><trkpt lat="44.71417446204239" lon="9.902706106627967"><ele>844.0</ele><time>2026-03-22T11:35:39Z</time></trkpt><trkpt lat="44.714248119303775" lon="9.902556565468455"><ele>844.0</ele><time>2026-03-22T11:35:41Z</time></trkpt><trkpt lat="44.71427065170466" lon="9.902462724704495"><ele>844.0</ele><time>2026-03-22T11:35:42Z</time></trkpt><trkpt lat="44.71430119199425" lon="9.902297571229834"><ele>844.0</ele><time>2026-03-22T11:35:44Z</time></trkpt><trkpt lat="44.71431750060066" lon="9.902209687065012"><ele>844.1666666666666</ele><time>2026-03-22T11:35:45Z</time></trkpt><trkpt lat="44.714330774191765" lon="9.90211358233716"><ele>844.3333333333333</ele><time>2026-03-22T11:35:46Z</time></trkpt><trkpt lat="44.7142362717859" lon="9.902021504285672"><ele>844.5</ele><time>2026-03-22T11:35:48Z</time></trkpt><trkpt lat="44.71420015606232" lon="9.901944805021792"><ele>844.6666666666667</ele><time>2026-03-22T11:35:49Z</time></trkpt><trkpt lat="44.71414824266876" lon="9.901891862344575"><ele>844.8333333333334</ele><time>2026-03-22T11:35:50Z</time></trkpt><trkpt lat="44.714051929957286" lon="9.901893984144852"><ele>845.0</ele><time>2026-03-22T11:35:52Z</time></trkpt><trkpt lat="44.714036581500444" lon="9.901807607616648"><ele>844.5000000000001</ele><time>2026-03-22T11:35:54Z</time></trkpt><trkpt lat="44.71407578561512" lon="9.901735870812857"><ele>844.0</ele><time>2026-03-22T11:35:56Z</time></trkpt><trkpt lat="44.714109085674274" lon="9.90165970011597"><ele>843.5</ele><time>2026-03-22T11:35:58Z</time></trkpt><trkpt lat="44.71415903109075" lon="9.901582451171093"><ele>843.0</ele><time>2026-03-22T11:36:00Z</time></trkpt><trkpt lat="44.714145885008435" lon="9.901476022207326"><ele>842.5000000000001</ele><time>2026-03-22T11:36:02Z</time></trkpt><trkpt lat="44.71422443434354" lon="9.901384186417292"><ele>842.0</ele><time>2026-03-22T11:36:05Z</time></trkpt><trkpt lat="44.714159532906756" lon="9.901241542426135"><ele>842.0</ele><time>2026-03-22T11:36:08Z</time></trkpt><trkpt lat="44.714117268932796" lon="9.901151765174362"><ele>842.0</ele><time>2026-03-22T11:36:09Z</time></trkpt><trkpt lat="44.7140868083954" lon="9.901073437208897"><ele>842.0</ele><time>2026-03-22T11:36:10Z</time></trkpt><trkpt lat="44.71403452839029" lon="9.900851486465323"><ele>842.0</ele><time>2026-03-22T11:36:12Z</time></trkpt><trkpt lat="44.713990015586326" lon="9.900774483633338"><ele>842.0</ele><time>2026-03-22T11:36:13Z</time></trkpt><trkpt lat="44.71395390697413" lon="9.900623778460302"><ele>841.4000000000001</ele><time>2026-03-22T11:36:14Z</time></trkpt><trkpt lat="44.71391658349972" lon="9.900463828923657"><ele>840.8000000000001</ele><time>2026-03-22T11:36:15Z</time></trkpt><trkpt lat="44.713865503231496" lon="9.900393119966786"><ele>840.2</ele><time>2026-03-22T11:36:17Z</time></trkpt><trkpt lat="44.71379834579859" lon="9.900311084818092"><ele>839.6</ele><time>2026-03-22T11:36:19Z</time></trkpt><trkpt lat="44.71373269565841" lon="9.900253653944251"><ele>839.0</ele><time>2026-03-22T11:36:20Z</time></trkpt><trkpt lat="44.713640111498876" lon="9.90021532946445"><ele>836.25</ele><time>2026-03-22T11:36:21Z</time></trkpt><trkpt lat="44.71355058675332" lon="9.90014824851877"><ele>833.5</ele><time>2026-03-22T11:36:22Z</time></trkpt><trkpt lat="44.71338557838696" lon="9.900074723690786"><ele>830.75</ele><time>2026-03-22T11:36:23Z</time></trkpt><trkpt lat="44.713241134631865" lon="9.900005097023081"><ele>828.0</ele><time>2026-03-22T11:36:24Z</time></trkpt><trkpt lat="44.713162465507224" lon="9.899975929958492"><ele>831.6666666666666</ele><time>2026-03-22T11:36:25Z</time></trkpt><trkpt lat="44.713062029587086" lon="9.899924693310458"><ele>835.3333333333333</ele><time>2026-03-22T11:36:27Z</time></trkpt><trkpt lat="44.71299718371609" lon="9.899872924995375"><ele>839.0</ele><time>2026-03-22T11:36:28Z</time></trkpt><trkpt lat="44.7129838418363" lon="9.899767237893137"><ele>842.6666666666666</ele><time>2026-03-22T11:36:30.999Z</time></trkpt><trkpt lat="44.71306715834857" lon="9.899764714401663"><ele>846.3333333333333</ele><time>2026-03-22T11:36:33.999Z</time></trkpt><trkpt lat="44.71311911680381" lon="9.89968869654965"><ele>850.0</ele><time>2026-03-22T11:36:35.999Z</time></trkpt><trkpt lat="44.71316701975414" lon="9.899604442029691"><ele>850.0</ele><time>2026-03-22T11:36:37.999Z</time></trkpt><trkpt lat="44.71326153372862" lon="9.899560369637761"><ele>850.0</ele><time>2026-03-22T11:36:38.999Z</time></trkpt><trkpt lat="44.71337062725606" lon="9.899506441956316"><ele>850.0</ele><time>2026-03-22T11:36:39.999Z</time></trkpt><trkpt lat="44.71346475815437" lon="9.899463743160418"><ele>850.0</ele><time>2026-03-22T11:36:40.999Z</time></trkpt><trkpt lat="44.71356238742273" lon="9.899400830972924"><ele>850.0</ele><time>2026-03-22T11:36:41.999Z</time></trkpt><trkpt lat="44.7136559919718" lon="9.899357431061535"><ele>851.1666666666666</ele><time>2026-03-22T11:36:42.999Z</time></trkpt><trkpt lat="44.71376721133023" lon="9.899338215374199"><ele>852.3333333333333</ele><time>2026-03-22T11:36:43.999Z</time></trkpt><trkpt lat="44.71385389792347" lon="9.899365185780413"><ele>853.5</ele><time>2026-03-22T11:36:44.999Z</time></trkpt><trkpt lat="44.71391719237702" lon="9.899357783322394"><ele>854.6666666666667</ele><time>2026-03-22T11:36:45.999Z</time></trkpt><trkpt lat="44.71400393603607" lon="9.899386769582431"><ele>855.8333333333334</ele><time>2026-03-22T11:36:47.999Z</time></trkpt><trkpt lat="44.71406746840527" lon="9.899364133270465"><ele>857.0</ele><time>2026-03-22T11:36:48.999Z</time></trkpt><trkpt lat="44.71415599479009" lon="9.899288523702953"><ele>859.1666666666667</ele><time>2026-03-22T11:36:50.999Z</time></trkpt><trkpt lat="44.71421892046625" lon="9.899247453520728"><ele>861.3333333333334</ele><time>2026-03-22T11:36:51.999Z</time></trkpt><trkpt lat="44.714280900471664" lon="9.899229755856016"><ele>863.5</ele><time>2026-03-22T11:36:52.999Z</time></trkpt><trkpt lat="44.71438737586883" lon="9.899172726602394"><ele>865.6666666666667</ele><time>2026-03-22T11:36:53.999Z</time></trkpt><trkpt lat="44.71447215922391" lon="9.89915985765915"><ele>867.8333333333334</ele><time>2026-03-22T11:36:54.999Z</time></trkpt><trkpt lat="44.71454979652621" lon="9.899192275599768"><ele>870.0</ele><time>2026-03-22T11:36:55.999Z</time></trkpt><trkpt lat="44.714621696812365" lon="9.89923996075863"><ele>870.0</ele><time>2026-03-22T11:36:56.999Z</time></trkpt><trkpt lat="44.71472315555633" lon="9.899266836242072"><ele>870.0</ele><time>2026-03-22T11:36:57.999Z</time></trkpt><trkpt lat="44.71480267688194" lon="9.89925672072124"><ele>870.0</ele><time>2026-03-22T11:36:58.999Z</time></trkpt><trkpt lat="44.714899001930114" lon="9.89923875451265"><ele>870.0</ele><time>2026-03-22T11:36:59.999Z</time></trkpt><trkpt lat="44.714976802361775" lon="9.899303193144409"><ele>870.0</ele><time>2026-03-22T11:37:01.999Z</time></trkpt><trkpt lat="44.71503829858728" lon="9.899417645052687"><ele>870.0</ele><time>2026-03-22T11:37:03.999Z</time></trkpt><trkpt lat="44.715176219778606" lon="9.899442493718428"><ele>870.0</ele><time>2026-03-22T11:37:05.999Z</time></trkpt><trkpt lat="44.715251044161334" lon="9.899446655523057"><ele>870.0</ele><time>2026-03-22T11:37:06.999Z</time></trkpt><trkpt lat="44.71534657747866" lon="9.899574053401851"><ele>870.0</ele><time>2026-03-22T11:37:08.999Z</time></trkpt><trkpt lat="44.71541504614462" lon="9.89967871001969"><ele>870.0</ele><time>2026-03-22T11:37:09.999Z</time></trkpt><trkpt lat="44.71545353708866" lon="9.899812857884138"><ele>874.0</ele><time>2026-03-22T11:37:10.999Z</time></trkpt><trkpt lat="44.71547542762102" lon="9.899965202336098"><ele>878.0</ele><time>2026-03-22T11:37:11.999Z</time></trkpt><trkpt lat="44.71549989554189" lon="9.900071889042835"><ele>882.0</ele><time>2026-03-22T11:37:12.999Z</time></trkpt><trkpt lat="44.715499242773994" lon="9.900196453912919"><ele>886.0</ele><time>2026-03-22T11:37:14.999Z</time></trkpt><trkpt lat="44.71546199441638" lon="9.900354592934393"><ele>890.0</ele><time>2026-03-22T11:37:15.999Z</time></trkpt><trkpt lat="44.71548173288084" lon="9.900467552422484"><ele>890.8</ele><time>2026-03-22T11:37:16.999Z</time></trkpt><trkpt lat="44.71549690450923" lon="9.9005804162136"><ele>891.6</ele><time>2026-03-22T11:37:17.999Z</time></trkpt><trkpt lat="44.7155138737005" lon="9.90069186553215"><ele>892.4000000000001</ele><time>2026-03-22T11:37:18.999Z</time></trkpt><trkpt lat="44.71553724582681" lon="9.900794401980937"><ele>893.2</ele><time>2026-03-22T11:37:19.999Z</time></trkpt><trkpt lat="44.71554618963264" lon="9.900966745153216"><ele>894.0</ele><time>2026-03-22T11:37:20.999Z</time></trkpt><trkpt lat="44.71552626616274" lon="9.901097185256267"><ele>894.0</ele><time>2026-03-22T11:37:21.999Z</time></trkpt><trkpt lat="44.71549550748812" lon="9.901233263625699"><ele>894.0000000000001</ele><time>2026-03-22T11:37:22.999Z</time></trkpt><trkpt lat="44.715449073942324" lon="9.90134740448523"><ele>894.0000000000001</ele><time>2026-03-22T11:37:23.999Z</time></trkpt><trkpt lat="44.71541379838172" lon="9.901517879957096"><ele>894.0</ele><time>2026-03-22T11:37:25.999Z</time></trkpt><trkpt lat="44.71539601598627" lon="9.901626305763978"><ele>894.0</ele><time>2026-03-22T11:37:26.999Z</time></trkpt><trkpt lat="44.71549978467093" lon="9.901679844304201"><ele>894.0</ele><time>2026-03-22T11:37:28.999Z</time></trkpt><trkpt lat="44.71557565261032" lon="9.901668627922849"><ele>894.0</ele><time>2026-03-22T11:37:29.999Z</time></trkpt><trkpt lat="44.715630514450204" lon="9.90162077516649"><ele>894.0</ele><time>2026-03-22T11:37:30.999Z</time></trkpt><trkpt lat="44.71573785497586" lon="9.901573549976789"><ele>894.0</ele><time>2026-03-22T11:37:32.999Z</time></trkpt><trkpt lat="44.71581052362397" lon="9.901544754779422"><ele>894.0</ele><time>2026-03-22T11:37:34Z</time></trkpt><trkpt lat="44.71587931809321" lon="9.901527384306608"><ele>894.0</ele><time>2026-03-22T11:37:35Z</time></trkpt><trkpt lat="44.715958556199546" lon="9.901482013699699"><ele>894.0</ele><time>2026-03-22T11:37:36Z</time></trkpt><trkpt lat="44.71601410296324" lon="9.901436203278218"><ele>894.0</ele><time>2026-03-22T11:37:37Z</time></trkpt><trkpt lat="44.7160791020808" lon="9.901404908789573"><ele>894.0</ele><time>2026-03-22T11:37:38Z</time></trkpt><trkpt lat="44.71614567541253" lon="9.901340332057707"><ele>894.0</ele><time>2026-03-22T11:37:39Z</time></trkpt><trkpt lat="44.71624084262283" lon="9.901249823926133"><ele>894.0</ele><time>2026-03-22T11:37:41Z</time></trkpt><trkpt lat="44.716323159013584" lon="9.9012266639287"><ele>894.0</ele><time>2026-03-22T11:37:42Z</time></trkpt><trkpt lat="44.71638521532836" lon="9.901194152282004"><ele>894.5</ele><time>2026-03-22T11:37:43Z</time></trkpt><trkpt lat="44.71644710103453" lon="9.901263769992587"><ele>895.0</ele><time>2026-03-22T11:37:46Z</time></trkpt><trkpt lat="44.716460533472564" lon="9.901360764635227"><ele>895.5</ele><time>2026-03-22T11:37:48Z</time></trkpt><trkpt lat="44.71648308662479" lon="9.901482683247155"><ele>896.0</ele><time>2026-03-22T11:37:50Z</time></trkpt><trkpt lat="44.716511304432615" lon="9.90162666507852"><ele>896.5</ele><time>2026-03-22T11:37:53Z</time></trkpt><trkpt lat="44.71654418480702" lon="9.901738555809008"><ele>897.0</ele><time>2026-03-22T11:37:55Z</time></trkpt><trkpt lat="44.71650173573061" lon="9.901836447590213"><ele>894.6</ele><time>2026-03-22T11:37:57Z</time></trkpt><trkpt lat="44.71640712060201" lon="9.901847654806197"><ele>892.2</ele><time>2026-03-22T11:38:00Z</time></trkpt><trkpt lat="44.71633909493759" lon="9.901816330063042"><ele>889.8</ele><time>2026-03-22T11:38:02Z</time></trkpt><trkpt lat="44.71623951174197" lon="9.901799863219598"><ele>887.4</ele><time>2026-03-22T11:38:05Z</time></trkpt><trkpt lat="44.716142839148915" lon="9.901815556306197"><ele>885.0</ele><time>2026-03-22T11:38:07Z</time></trkpt><trkpt lat="44.71605676878344" lon="9.901757844427468"><ele>884.3333333333334</ele><time>2026-03-22T11:38:09Z</time></trkpt><trkpt lat="44.71595596809713" lon="9.901769139392364"><ele>883.6666666666667</ele><time>2026-03-22T11:38:11Z</time></trkpt><trkpt lat="44.715885529682375" lon="9.901748690819119"><ele>883.0</ele><time>2026-03-22T11:38:13Z</time></trkpt><trkpt lat="44.715805257307885" lon="9.901737067615388"><ele>882.3333333333334</ele><time>2026-03-22T11:38:15Z</time></trkpt><trkpt lat="44.71572686355601" lon="9.901760076519219"><ele>881.6666666666667</ele><time>2026-03-22T11:38:17Z</time></trkpt><trkpt lat="44.715650196477746" lon="9.901793946410763"><ele>881.0</ele><time>2026-03-22T11:38:19Z</time></trkpt><trkpt lat="44.71563298455911" lon="9.90188877563755"><ele>881.0000000000001</ele><time>2026-03-22T11:38:21Z</time></trkpt><trkpt lat="44.71565694077638" lon="9.90200540911746"><ele>881.0</ele><time>2026-03-22T11:38:24Z</time></trkpt><trkpt lat="44.715676520895876" lon="9.902092207332789"><ele>881.0</ele><time>2026-03-22T11:38:26Z</time></trkpt><trkpt lat="44.71570219898614" lon="9.902208962384528"><ele>881.0</ele><time>2026-03-22T11:38:28Z</time></trkpt><trkpt lat="44.7157249964548" lon="9.902348672694462"><ele>881.0000000000001</ele><time>2026-03-22T11:38:29Z</time></trkpt><trkpt lat="44.71579689500538" lon="9.902462976735606"><ele>881.0</ele><time>2026-03-22T11:38:30Z</time></trkpt><trkpt lat="44.71588280459246" lon="9.902581796890487"><ele>880.3333333333334</ele><time>2026-03-22T11:38:31Z</time></trkpt><trkpt lat="44.71592331681702" lon="9.9026755670297"><ele>879.6666666666667</ele><time>2026-03-22T11:38:32Z</time></trkpt><trkpt lat="44.71597621924106" lon="9.902757368294488"><ele>879.0</ele><time>2026-03-22T11:38:33.999Z</time></trkpt><trkpt lat="44.71604333657794" lon="9.902835873106875"><ele>878.3333333333333</ele><time>2026-03-22T11:38:36.999Z</time></trkpt><trkpt lat="44.716060946983376" lon="9.902927706276063"><ele>877.6666666666666</ele><time>2026-03-22T11:38:39.999Z</time></trkpt><trkpt lat="44.71612545457867" lon="9.903077982837555"><ele>877.0</ele><time>2026-03-22T11:38:41.999Z</time></trkpt><trkpt lat="44.716176031336545" lon="9.903210291373881"><ele>876.9999999999999</ele><time>2026-03-22T11:38:44.999Z</time></trkpt><trkpt lat="44.71621689653446" lon="9.903289600879722"><ele>877.0</ele><time>2026-03-22T11:38:45.999Z</time></trkpt><trkpt lat="44.716274985660434" lon="9.903359722791295"><ele>877.0</ele><time>2026-03-22T11:38:46.999Z</time></trkpt><trkpt lat="44.716336832410384" lon="9.903435859189722"><ele>877.0</ele><time>2026-03-22T11:38:47.999Z</time></trkpt><trkpt lat="44.716398839482416" lon="9.903510534589133"><ele>876.9999999999999</ele><time>2026-03-22T11:38:48.999Z</time></trkpt><trkpt lat="44.71649437618007" lon="9.903643054488482"><ele>877.0</ele><time>2026-03-22T11:38:50.999Z</time></trkpt><trkpt lat="44.71655138654088" lon="9.903728586130054"><ele>874.8333333333333</ele><time>2026-03-22T11:38:52.999Z</time></trkpt><trkpt lat="44.7166268631751" lon="9.903797630821053"><ele>872.6666666666666</ele><time>2026-03-22T11:38:54.999Z</time></trkpt><trkpt lat="44.716691566667805" lon="9.903870256385499"><ele>870.5</ele><time>2026-03-22T11:38:57.999Z</time></trkpt><trkpt lat="44.7167670311192" lon="9.903898151298046"><ele>868.3333333333333</ele><time>2026-03-22T11:38:59.999Z</time></trkpt><trkpt lat="44.71680631484994" lon="9.903967553098656"><ele>866.1666666666666</ele><time>2026-03-22T11:39:00.999Z</time></trkpt><trkpt lat="44.716869773793576" lon="9.904032385463323"><ele>864.0</ele><time>2026-03-22T11:39:01.999Z</time></trkpt><trkpt lat="44.71695451718633" lon="9.904135583986855"><ele>860.0</ele><time>2026-03-22T11:39:03.999Z</time></trkpt><trkpt lat="44.71698602352256" lon="9.904221094903036"><ele>856.0000000000001</ele><time>2026-03-22T11:39:04.999Z</time></trkpt><trkpt lat="44.71697675307584" lon="9.904347339681442"><ele>852.0</ele><time>2026-03-22T11:39:06.999Z</time></trkpt><trkpt lat="44.71704455634986" lon="9.904485253959837"><ele>848.0</ele><time>2026-03-22T11:39:08.999Z</time></trkpt><trkpt lat="44.71709618952666" lon="9.904636936139033"><ele>844.0</ele><time>2026-03-22T11:39:10.999Z</time></trkpt><trkpt lat="44.71710546864513" lon="9.904758077130012"><ele>843.5</ele><time>2026-03-22T11:39:12.999Z</time></trkpt><trkpt lat="44.71709331679232" lon="9.90489557822913"><ele>843.0</ele><time>2026-03-22T11:39:15.999Z</time></trkpt><trkpt lat="44.71706126262849" lon="9.904996407873849"><ele>842.5</ele><time>2026-03-22T11:39:17.999Z</time></trkpt><trkpt lat="44.717071243745394" lon="9.905107575589833"><ele>842.0</ele><time>2026-03-22T11:39:19.999Z</time></trkpt><trkpt lat="44.71699020438391" lon="9.905435761095305"><ele>840.6</ele><time>2026-03-22T11:39:20.999Z</time></trkpt><trkpt lat="44.71700579542568" lon="9.905589621851393"><ele>839.2</ele><time>2026-03-22T11:39:22.999Z</time></trkpt><trkpt lat="44.71702592545933" lon="9.90569633705092"><ele>837.8</ele><time>2026-03-22T11:39:23.999Z</time></trkpt><trkpt lat="44.717070983971986" lon="9.905809239897165"><ele>836.4</ele><time>2026-03-22T11:39:24.999Z</time></trkpt><trkpt lat="44.71708530851977" lon="9.905926661414398"><ele>835.0</ele><time>2026-03-22T11:39:25.999Z</time></trkpt><trkpt lat="44.717051843700226" lon="9.906045519098813"><ele>834.8</ele><time>2026-03-22T11:39:26.999Z</time></trkpt><trkpt lat="44.71702944821633" lon="9.906181887568493"><ele>834.6</ele><time>2026-03-22T11:39:28.999Z</time></trkpt><trkpt lat="44.71708722498705" lon="9.90624876248932"><ele>834.4000000000001</ele><time>2026-03-22T11:39:30.999Z</time></trkpt><trkpt lat="44.71707791236704" lon="9.90640355085578"><ele>834.2</ele><time>2026-03-22T11:39:32.999Z</time></trkpt><trkpt lat="44.71702188984646" lon="9.906534023206184"><ele>834.0</ele><time>2026-03-22T11:39:34.999Z</time></trkpt><trkpt lat="44.71684019361038" lon="9.906546531696238"><ele>834.0</ele><time>2026-03-22T11:39:36.999Z</time></trkpt><trkpt lat="44.71673626541145" lon="9.90656306684801"><ele>834.0</ele><time>2026-03-22T11:39:38.999Z</time></trkpt><trkpt lat="44.71665995699174" lon="9.906581207985981"><ele>834.0</ele><time>2026-03-22T11:39:42Z</time></trkpt><trkpt lat="44.716763550474944" lon="9.906420112328345"><ele>834.0</ele><time>2026-03-22T11:39:43Z</time></trkpt><trkpt lat="44.71676540092502" lon="9.906318924486639"><ele>834.0</ele><time>2026-03-22T11:39:46Z</time></trkpt><trkpt lat="44.7167345216408" lon="9.906179973495616"><ele>834.0</ele><time>2026-03-22T11:39:49Z</time></trkpt><trkpt lat="44.71668593712159" lon="9.906117346952998"><ele>834.0</ele><time>2026-03-22T11:39:51Z</time></trkpt><trkpt lat="44.71661750910972" lon="9.906042769933874"><ele>834.0</ele><time>2026-03-22T11:39:54Z</time></trkpt><trkpt lat="44.716594763169084" lon="9.905958690915192"><ele>834.0</ele><time>2026-03-22T11:39:56Z</time></trkpt><trkpt lat="44.7164518317408" lon="9.90553009987833"><ele>834.4000000000001</ele><time>2026-03-22T11:39:58Z</time></trkpt><trkpt lat="44.71642064409989" lon="9.905382341664792"><ele>834.8</ele><time>2026-03-22T11:39:59Z</time></trkpt><trkpt lat="44.71635443134743" lon="9.905178066341438"><ele>835.2</ele><time>2026-03-22T11:40:00Z</time></trkpt><trkpt lat="44.716292314580315" lon="9.9050757690733"><ele>835.5999999999999</ele><time>2026-03-22T11:40:01Z</time></trkpt><trkpt lat="44.71625270959971" lon="9.905001349130028"><ele>836.0</ele><time>2026-03-22T11:40:02Z</time></trkpt><trkpt lat="44.716117720063615" lon="9.904909755645088"><ele>834.8333333333334</ele><time>2026-03-22T11:40:03Z</time></trkpt><trkpt lat="44.71607153463023" lon="9.904846377120219"><ele>833.6666666666667</ele><time>2026-03-22T11:40:04Z</time></trkpt><trkpt lat="44.71597905366611" lon="9.904848536623613"><ele>832.5</ele><time>2026-03-22T11:40:06Z</time></trkpt><trkpt lat="44.715893139503805" lon="9.904869968369644"><ele>831.3333333333333</ele><time>2026-03-22T11:40:07Z</time></trkpt><trkpt lat="44.7157973426666" lon="9.904865534910618"><ele>830.1666666666666</ele><time>2026-03-22T11:40:08Z</time></trkpt><trkpt lat="44.71572450491696" lon="9.904904921191479"><ele>829.0</ele><time>2026-03-22T11:40:10Z</time></trkpt><trkpt lat="44.715660508502445" lon="9.904927178354754"><ele>829.0</ele><time>2026-03-22T11:40:12Z</time></trkpt><trkpt lat="44.7155652647476" lon="9.904917627097511"><ele>829.0</ele><time>2026-03-22T11:40:14Z</time></trkpt><trkpt lat="44.715451367869235" lon="9.904869499880801"><ele>829.0</ele><time>2026-03-22T11:40:16Z</time></trkpt><trkpt lat="44.71556749211856" lon="9.904890499603052"><ele>829.0</ele><time>2026-03-22T11:40:18Z</time></trkpt><trkpt lat="44.71551609081311" lon="9.904968619211397"><ele>829.0</ele><time>2026-03-22T11:40:21Z</time></trkpt><trkpt lat="44.7154551955818" lon="9.905026261853664"><ele>828.9999999999999</ele><time>2026-03-22T11:40:23Z</time></trkpt><trkpt lat="44.71539747502113" lon="9.905074155323131"><ele>829.0</ele><time>2026-03-22T11:40:26Z</time></trkpt><trkpt lat="44.71532005662139" lon="9.905054743276281"><ele>829.0</ele><time>2026-03-22T11:40:28Z</time></trkpt><trkpt lat="44.715256022869" lon="9.904975001326008"><ele>829.0</ele><time>2026-03-22T11:40:31Z</time></trkpt><trkpt lat="44.7151687432185" lon="9.904997386535255"><ele>828.9999999999999</ele><time>2026-03-22T11:40:34Z</time></trkpt><trkpt lat="44.71508070040878" lon="9.90494673002265"><ele>829.0</ele><time>2026-03-22T11:40:36Z</time></trkpt><trkpt lat="44.715010412976504" lon="9.904909801157205"><ele>824.8000000000001</ele><time>2026-03-22T11:40:37Z</time></trkpt><trkpt lat="44.714931078664634" lon="9.904834801748384"><ele>820.6</ele><time>2026-03-22T11:40:37.999Z</time></trkpt><trkpt lat="44.71486086203006" lon="9.904690545274551"><ele>816.4</ele><time>2026-03-22T11:40:39.999Z</time></trkpt><trkpt lat="44.7147903281645" lon="9.90466779949208"><ele>812.2</ele><time>2026-03-22T11:40:41.999Z</time></trkpt><trkpt lat="44.7147341926023" lon="9.904608272163076"><ele>808.0</ele><time>2026-03-22T11:40:45.999Z</time></trkpt><trkpt lat="44.71464309418802" lon="9.904609578067396"><ele>807.9999999999999</ele><time>2026-03-22T11:40:46.999Z</time></trkpt><trkpt lat="44.71455246680737" lon="9.904634691233388"><ele>808.0</ele><time>2026-03-22T11:40:50.999Z</time></trkpt><trkpt lat="44.714462945689164" lon="9.904731802250605"><ele>808.0</ele><time>2026-03-22T11:40:52.999Z</time></trkpt><trkpt lat="44.714441865581406" lon="9.904818616307384"><ele>808.0</ele><time>2026-03-22T11:40:54.999Z</time></trkpt><trkpt lat="44.714405030365086" lon="9.904917565677952"><ele>807.9999999999999</ele><time>2026-03-22T11:40:56.999Z</time></trkpt><trkpt lat="44.71437938603111" lon="9.905047232492603"><ele>808.0</ele><time>2026-03-22T11:40:58.999Z</time></trkpt><trkpt lat="44.71430177162974" lon="9.905119316739526"><ele>806.1666666666666</ele><time>2026-03-22T11:41:00.999Z</time></trkpt><trkpt lat="44.71432888784427" lon="9.90520387180853"><ele>804.3333333333333</ele><time>2026-03-22T11:41:01.999Z</time></trkpt><trkpt lat="44.714274336373556" lon="9.905326310973384"><ele>802.5</ele><time>2026-03-22T11:41:03.999Z</time></trkpt><trkpt lat="44.71424285267506" lon="9.905437484434612"><ele>800.6666666666667</ele><time>2026-03-22T11:41:05.999Z</time></trkpt><trkpt lat="44.71426229092167" lon="9.905540420600616"><ele>798.8333333333334</ele><time>2026-03-22T11:41:07.999Z</time></trkpt><trkpt lat="44.71427762078635" lon="9.905629522004544"><ele>797.0</ele><time>2026-03-22T11:41:09.999Z</time></trkpt><trkpt lat="44.71418348567639" lon="9.905722268767946"><ele>797.0000000000001</ele><time>2026-03-22T11:41:11.999Z</time></trkpt><trkpt lat="44.71419032012899" lon="9.905827294336566"><ele>797.0</ele><time>2026-03-22T11:41:13.999Z</time></trkpt><trkpt lat="44.71415741966525" lon="9.90592245654558"><ele>797.0</ele><time>2026-03-22T11:41:16.999Z</time></trkpt><trkpt lat="44.71414594020727" lon="9.906114812389546"><ele>797.0</ele><time>2026-03-22T11:41:19.999Z</time></trkpt><trkpt lat="44.7141244602946" lon="9.906216930381119"><ele>797.0000000000001</ele><time>2026-03-22T11:41:22.999Z</time></trkpt><trkpt lat="44.71411451525309" lon="9.90633370844088"><ele>797.0</ele><time>2026-03-22T11:41:25.999Z</time></trkpt><trkpt lat="44.71408479663166" lon="9.906435878190555"><ele>794.6666666666667</ele><time>2026-03-22T11:41:27.999Z</time></trkpt><trkpt lat="44.71403609822823" lon="9.906493052394731"><ele>792.3333333333334</ele><time>2026-03-22T11:41:30.999Z</time></trkpt><trkpt lat="44.71399658427719" lon="9.906572670266641"><ele>790.0</ele><time>2026-03-22T11:41:31.999Z</time></trkpt><trkpt lat="44.71401480285554" lon="9.90666753397734"><ele>787.6666666666667</ele><time>2026-03-22T11:41:36.999Z</time></trkpt><trkpt lat="44.713936620460814" lon="9.906742549749845"><ele>785.3333333333334</ele><time>2026-03-22T11:41:40.999Z</time></trkpt><trkpt lat="44.71385622459837" lon="9.906734508906403"><ele>783.0</ele><time>2026-03-22T11:41:42.999Z</time></trkpt><trkpt lat="44.71378948080037" lon="9.906779375223204"><ele>783.0</ele><time>2026-03-22T11:41:46Z</time></trkpt><trkpt lat="44.713718048044676" lon="9.906785654684628"><ele>783.0</ele><time>2026-03-22T11:41:51Z</time></trkpt><trkpt lat="44.71362583697014" lon="9.906752288552797"><ele>783.0</ele><time>2026-03-22T11:41:54Z</time></trkpt><trkpt lat="44.713585396431554" lon="9.906650133419458"><ele>783.0</ele><time>2026-03-22T11:41:56Z</time></trkpt><trkpt lat="44.71349639135251" lon="9.90665631889466"><ele>783.0</ele><time>2026-03-22T11:41:58Z</time></trkpt><trkpt lat="44.71344340439055" lon="9.906712048586984"><ele>783.0</ele><time>2026-03-22T11:41:59Z</time></trkpt><trkpt lat="44.71332949426498" lon="9.90672591377014"><ele>788.4</ele><time>2026-03-22T11:42:01Z</time></trkpt><trkpt lat="44.713292488189815" lon="9.906630839249353"><ele>793.8</ele><time>2026-03-22T11:42:02Z</time></trkpt><trkpt lat="44.71330057129162" lon="9.906532737560259"><ele>799.2</ele><time>2026-03-22T11:42:03Z</time></trkpt><trkpt lat="44.71327151854018" lon="9.906416720494368"><ele>804.6</ele><time>2026-03-22T11:42:05Z</time></trkpt><trkpt lat="44.71321023871692" lon="9.906348155100533"><ele>810.0</ele><time>2026-03-22T11:42:07Z</time></trkpt><trkpt lat="44.71307854220985" lon="9.90621197003328"><ele>810.0</ele><time>2026-03-22T11:42:09Z</time></trkpt><trkpt lat="44.712904797100435" lon="9.906059838202768"><ele>810.0</ele><time>2026-03-22T11:42:10Z</time></trkpt><trkpt lat="44.71285512472144" lon="9.905943852809589"><ele>810.0</ele><time>2026-03-22T11:42:11Z</time></trkpt><trkpt lat="44.71283075435632" lon="9.90583987900337"><ele>810.0</ele><time>2026-03-22T11:42:12Z</time></trkpt><trkpt lat="44.71280237008097" lon="9.905730566849995"><ele>812.3333333333334</ele><time>2026-03-22T11:42:47.999Z</time></trkpt><trkpt lat="44.71286088506639" lon="9.905666020470635"><ele>814.6666666666667</ele><time>2026-03-22T11:42:50.999Z</time></trkpt><trkpt lat="44.71291946172846" lon="9.905613344371018"><ele>817.0</ele><time>2026-03-22T11:42:51.999Z</time></trkpt><trkpt lat="44.71297384056007" lon="9.90556781791159"><ele>819.3333333333334</ele><time>2026-03-22T11:42:52.999Z</time></trkpt><trkpt lat="44.71304709904768" lon="9.905458680061555"><ele>821.6666666666667</ele><time>2026-03-22T11:42:54.999Z</time></trkpt><trkpt lat="44.71309129380527" lon="9.905289227705648"><ele>824.0</ele><time>2026-03-22T11:42:56.999Z</time></trkpt><trkpt lat="44.71320069470833" lon="9.905184311442506"><ele>824.0000000000001</ele><time>2026-03-22T11:42:58.999Z</time></trkpt><trkpt lat="44.71325931091592" lon="9.905121499009512"><ele>824.0</ele><time>2026-03-22T11:42:59.999Z</time></trkpt><trkpt lat="44.71332884376617" lon="9.905076368872816"><ele>824.0</ele><time>2026-03-22T11:43:00.999Z</time></trkpt><trkpt lat="44.71338237963409" lon="9.904977350374772"><ele>824.0</ele><time>2026-03-22T11:43:02.999Z</time></trkpt><trkpt lat="44.71336773688856" lon="9.904858449515395"><ele>824.0000000000001</ele><time>2026-03-22T11:43:03.999Z</time></trkpt><trkpt lat="44.71330782620892" lon="9.904818459765366"><ele>824.0</ele><time>2026-03-22T11:43:04.999Z</time></trkpt><trkpt lat="44.71325835638199" lon="9.90471423475317"><ele>824.8000000000001</ele><time>2026-03-22T11:43:06.999Z</time></trkpt><trkpt lat="44.71331198055336" lon="9.90460913603197"><ele>825.6</ele><time>2026-03-22T11:43:07.999Z</time></trkpt><trkpt lat="44.713380971531045" lon="9.904475925283045"><ele>826.4</ele><time>2026-03-22T11:43:08.999Z</time></trkpt><trkpt lat="44.713463441610614" lon="9.904399455314904"><ele>827.2</ele><time>2026-03-22T11:43:09.999Z</time></trkpt><trkpt lat="44.71353786434222" lon="9.904362294740865"><ele>828.0</ele><time>2026-03-22T11:43:10.999Z</time></trkpt><trkpt lat="44.71360581724828" lon="9.904203735035471"><ele>828.0</ele><time>2026-03-22T11:43:12.999Z</time></trkpt><trkpt lat="44.713574259182536" lon="9.90412532708882"><ele>828.0</ele><time>2026-03-22T11:43:14.999Z</time></trkpt><trkpt lat="44.71365714383788" lon="9.903943549818221"><ele>828.0</ele><time>2026-03-22T11:43:16.999Z</time></trkpt><trkpt lat="44.71370155435021" lon="9.903843106727036"><ele>828.0</ele><time>2026-03-22T11:43:17.999Z</time></trkpt><trkpt lat="44.713720823233395" lon="9.903733324072203"><ele>828.0</ele><time>2026-03-22T11:43:18.999Z</time></trkpt><trkpt lat="44.71376149812536" lon="9.903633702575274"><ele>828.0</ele><time>2026-03-22T11:43:20.999Z</time></trkpt><trkpt lat="44.71389680062274" lon="9.903571802239982"><ele>828.0</ele><time>2026-03-22T11:43:22.999Z</time></trkpt><trkpt lat="44.713995708752755" lon="9.903431309373765"><ele>828.0</ele><time>2026-03-22T11:43:23.999Z</time></trkpt><trkpt lat="44.71404521886098" lon="9.903324177189981"><ele>828.0</ele><time>2026-03-22T11:43:24.999Z</time></trkpt><trkpt lat="44.71410876335734" lon="9.903210971016195"><ele>830.6666666666666</ele><time>2026-03-22T11:43:25.999Z</time></trkpt><trkpt lat="44.71415765836745" lon="9.903137641114906"><ele>833.3333333333333</ele><time>2026-03-22T11:43:26.999Z</time></trkpt><trkpt lat="44.7140745178012" lon="9.903076626054045"><ele>836.0</ele><time>2026-03-22T11:43:27.999Z</time></trkpt><trkpt lat="44.71402031764678" lon="9.902980985246254"><ele>838.6666666666666</ele><time>2026-03-22T11:43:28.999Z</time></trkpt><trkpt lat="44.71406360311912" lon="9.902908941582988"><ele>841.3333333333333</ele><time>2026-03-22T11:43:29.999Z</time></trkpt><trkpt lat="44.71412671995065" lon="9.902819683286392"><ele>844.0</ele><time>2026-03-22T11:43:30.999Z</time></trkpt><trkpt lat="44.71414316811514" lon="9.902731768777885"><ele>843.9999999999999</ele><time>2026-03-22T11:43:31.999Z</time></trkpt><trkpt lat="44.71417765073102" lon="9.902626884348274"><ele>844.0</ele><time>2026-03-22T11:43:33.999Z</time></trkpt><trkpt lat="44.714237044841546" lon="9.902554126682551"><ele>844.0</ele><time>2026-03-22T11:43:34.999Z</time></trkpt><trkpt lat="44.71427814584568" lon="9.902447676967592"><ele>844.0</ele><time>2026-03-22T11:43:35.999Z</time></trkpt><trkpt lat="44.71426738227749" lon="9.902359753020376"><ele>843.9999999999999</ele><time>2026-03-22T11:43:36.999Z</time></trkpt><trkpt lat="44.71427372876373" lon="9.902194073482535"><ele>844.0</ele><time>2026-03-22T11:43:38.999Z</time></trkpt><trkpt lat="44.714304117931185" lon="9.902097093008551"><ele>844.2</ele><time>2026-03-22T11:43:40.999Z</time></trkpt><trkpt lat="44.71420123287334" lon="9.902013541130563"><ele>844.4000000000001</ele><time>2026-03-22T11:43:42.999Z</time></trkpt><trkpt lat="44.71410828144346" lon="9.901966263487353"><ele>844.6</ele><time>2026-03-22T11:43:43.999Z</time></trkpt><trkpt lat="44.71399894322081" lon="9.901926250500638"><ele>844.8</ele><time>2026-03-22T11:43:44.999Z</time></trkpt><trkpt lat="44.714072364762735" lon="9.901797677037672"><ele>845.0</ele><time>2026-03-22T11:43:48.999Z</time></trkpt><trkpt lat="44.71417401541997" lon="9.901718905441774"><ele>844.4</ele><time>2026-03-22T11:43:49.999Z</time></trkpt><trkpt lat="44.7142889046492" lon="9.901664649730945"><ele>843.8</ele><time>2026-03-22T11:43:50.999Z</time></trkpt><trkpt lat="44.71436066775462" lon="9.901653022723474"><ele>843.2</ele><time>2026-03-22T11:43:52Z</time></trkpt><trkpt lat="44.714341652975456" lon="9.901453564038281"><ele>842.6</ele><time>2026-03-22T11:43:54Z</time></trkpt><trkpt lat="44.714383668974556" lon="9.901316274304898"><ele>842.0</ele><time>2026-03-22T11:43:55Z</time></trkpt><trkpt lat="44.714414609853" lon="9.901204914533581"><ele>845.6666666666667</ele><time>2026-03-22T11:43:56Z</time></trkpt><trkpt lat="44.71441432961447" lon="9.901085299888472"><ele>849.3333333333334</ele><time>2026-03-22T11:43:57Z</time></trkpt><trkpt lat="44.71445383367142" lon="9.900933165989624"><ele>853.0</ele><time>2026-03-22T11:43:58Z</time></trkpt><trkpt lat="44.714505450886136" lon="9.900865579245785"><ele>856.6666666666667</ele><time>2026-03-22T11:43:59Z</time></trkpt><trkpt lat="44.71454162682845" lon="9.900790418210393"><ele>860.3333333333334</ele><time>2026-03-22T11:44:00Z</time></trkpt><trkpt lat="44.714516251656676" lon="9.900666177655847"><ele>864.0</ele><time>2026-03-22T11:44:03Z</time></trkpt><trkpt lat="44.714440933608756" lon="9.900565902768003"><ele>859.0</ele><time>2026-03-22T11:44:04Z</time></trkpt><trkpt lat="44.714358841389966" lon="9.900479258832972"><ele>854.0000000000001</ele><time>2026-03-22T11:44:06Z</time></trkpt><trkpt lat="44.71424017309998" lon="9.900462723794067"><ele>849.0</ele><time>2026-03-22T11:44:08Z</time></trkpt><trkpt lat="44.714172775072456" lon="9.900421326863492"><ele>844.0</ele><time>2026-03-22T11:44:11Z</time></trkpt><trkpt lat="44.71407442731636" lon="9.900406283083809"><ele>839.0</ele><time>2026-03-22T11:44:13Z</time></trkpt><trkpt lat="44.7139915046203" lon="9.900345192435088"><ele>839.0</ele><time>2026-03-22T11:44:15Z</time></trkpt><trkpt lat="44.713925567629644" lon="9.900330221746248"><ele>839.0</ele><time>2026-03-22T11:44:17Z</time></trkpt><trkpt lat="44.71334158396202" lon="9.900044400483475"><ele>841.75</ele><time>2026-03-22T11:44:19Z</time></trkpt><trkpt lat="44.71317158392217" lon="9.899980026808551"><ele>844.5</ele><time>2026-03-22T11:44:20Z</time></trkpt><trkpt lat="44.71304496713773" lon="9.899921348211263"><ele>847.25</ele><time>2026-03-22T11:44:21Z</time></trkpt><trkpt lat="44.71293316034329" lon="9.899812224492681"><ele>850.0</ele><time>2026-03-22T11:44:22Z</time></trkpt><trkpt lat="44.71286395264683" lon="9.89982615000966"><ele>850.0</ele><time>2026-03-22T11:44:23Z</time></trkpt><trkpt lat="44.712824586495955" lon="9.899738987392677"><ele>850.0</ele><time>2026-03-22T11:44:25Z</time></trkpt><trkpt lat="44.71290370414565" lon="9.899770890524493"><ele>850.0</ele><time>2026-03-22T11:50:13Z</time></trkpt><trkpt lat="44.712866919652285" lon="9.89969725555085"><ele>850.0</ele><time>2026-03-22T11:52:09.999Z</time></trkpt><trkpt lat="44.71279667186528" lon="9.899667832374758"><ele>850.0</ele><time>2026-03-22T11:52:16Z</time></trkpt><trkpt lat="44.712740073698264" lon="9.899628006588639"><ele>850.0</ele><time>2026-03-22T11:52:22Z</time></trkpt><trkpt lat="44.712673813855865" lon="9.89956736701498"><ele>850.0</ele><time>2026-03-22T11:52:33Z</time></trkpt><trkpt lat="44.71273310247901" lon="9.899642153701096"><ele>849.9999999999999</ele><time>2026-03-22T11:52:38Z</time></trkpt><trkpt lat="44.71279982557493" lon="9.899648204076824"><ele>850.0</ele><time>2026-03-22T11:52:40Z</time></trkpt><trkpt lat="44.71286877640248" lon="9.899670707969724"><ele>850.0</ele><time>2026-03-22T11:52:43Z</time></trkpt><trkpt lat="44.71283425710092" lon="9.899781576757865"><ele>850.0</ele><time>2026-03-22T11:53:12Z</time></trkpt><trkpt lat="44.712924410202" lon="9.899744584143825"><ele>849.9999999999999</ele><time>2026-03-22T11:53:36.999Z</time></trkpt><trkpt lat="44.712852571729414" lon="9.899755496338596"><ele>850.0</ele><time>2026-03-22T12:15:37Z</time></trkpt><trkpt lat="44.71279458583803" lon="9.899717683177373"><ele>850.0</ele><time>2026-03-22T12:15:57Z</time></trkpt><trkpt lat="44.712855472795184" lon="9.899780299957824"><ele>850.0</ele><time>2026-03-22T12:31:48.999Z</time></trkpt><trkpt lat="44.712927121970175" lon="9.899838465350593"><ele>850.0</ele><time>2026-03-22T12:32:00.999Z</time></trkpt><trkpt lat="44.713059223003626" lon="9.899894149420307"><ele>850.0</ele><time>2026-03-22T12:32:02.999Z</time></trkpt><trkpt lat="44.71313679005368" lon="9.89993651982942"><ele>850.0</ele><time>2026-03-22T12:32:03.999Z</time></trkpt><trkpt lat="44.71324149045051" lon="9.899998994957276"><ele>850.0</ele><time>2026-03-22T12:32:05.999Z</time></trkpt><trkpt lat="44.71331089861906" lon="9.90002572410553"><ele>850.0</ele><time>2026-03-22T12:32:06.999Z</time></trkpt><trkpt lat="44.71342161420458" lon="9.900064296497595"><ele>850.0</ele><time>2026-03-22T12:32:07.999Z</time></trkpt><trkpt lat="44.71351539485264" lon="9.900122805575757"><ele>850.0</ele><time>2026-03-22T12:32:09Z</time></trkpt><trkpt lat="44.71361130302773" lon="9.90015416839841"><ele>850.0</ele><time>2026-03-22T12:32:10Z</time></trkpt><trkpt lat="44.713677989674466" lon="9.900186549598473"><ele>847.8</ele><time>2026-03-22T12:32:11Z</time></trkpt><trkpt lat="44.7137922494903" lon="9.900250944812965"><ele>845.6</ele><time>2026-03-22T12:32:13Z</time></trkpt><trkpt lat="44.713902886817465" lon="9.900265377086997"><ele>843.4000000000001</ele><time>2026-03-22T12:32:15Z</time></trkpt><trkpt lat="44.71399105848179" lon="9.900297227679207"><ele>841.2</ele><time>2026-03-22T12:32:16Z</time></trkpt><trkpt lat="44.71406570435038" lon="9.90036744857559"><ele>839.0</ele><time>2026-03-22T12:32:17Z</time></trkpt><trkpt lat="44.714134079027154" lon="9.900390441819312"><ele>839.0</ele><time>2026-03-22T12:32:18Z</time></trkpt><trkpt lat="44.714256157388704" lon="9.900467347683593"><ele>839.0</ele><time>2026-03-22T12:32:20Z</time></trkpt><trkpt lat="44.714343307069164" lon="9.900513932777192"><ele>839.0</ele><time>2026-03-22T12:32:21Z</time></trkpt><trkpt lat="44.71441714814047" lon="9.900550544015825"><ele>839.0</ele><time>2026-03-22T12:32:22Z</time></trkpt><trkpt lat="44.71447427334885" lon="9.9006205183095"><ele>839.0</ele><time>2026-03-22T12:32:23Z</time></trkpt><trkpt lat="44.71452086456125" lon="9.900721138741169"><ele>839.5000000000001</ele><time>2026-03-22T12:32:24Z</time></trkpt><trkpt lat="44.71449570235003" lon="9.900854580401509"><ele>840.0</ele><time>2026-03-22T12:32:26Z</time></trkpt><trkpt lat="44.71442427380897" lon="9.900919521711328"><ele>840.5</ele><time>2026-03-22T12:32:27Z</time></trkpt><trkpt lat="44.71434704991477" lon="9.900951357501038"><ele>841.0</ele><time>2026-03-22T12:32:28Z</time></trkpt><trkpt lat="44.714325198297026" lon="9.901053227540718"><ele>841.5000000000001</ele><time>2026-03-22T12:32:29Z</time></trkpt><trkpt lat="44.714283474584605" lon="9.901178290328106"><ele>842.0</ele><time>2026-03-22T12:32:30Z</time></trkpt><trkpt lat="44.71424676393887" lon="9.901273022291248"><ele>842.0000000000001</ele><time>2026-03-22T12:32:31Z</time></trkpt><trkpt lat="44.71422372645719" lon="9.901360763336855"><ele>842.0</ele><time>2026-03-22T12:32:32Z</time></trkpt><trkpt lat="44.714155055417656" lon="9.901464982709257"><ele>842.0</ele><time>2026-03-22T12:32:33Z</time></trkpt><trkpt lat="44.71410201928602" lon="9.901574966804978"><ele>842.0</ele><time>2026-03-22T12:32:34Z</time></trkpt><trkpt lat="44.71405467569303" lon="9.901681805693991"><ele>842.0000000000001</ele><time>2026-03-22T12:32:35Z</time></trkpt><trkpt lat="44.71400374578519" lon="9.901763412231281"><ele>842.0</ele><time>2026-03-22T12:32:36Z</time></trkpt><trkpt lat="44.713962966100304" lon="9.901876478642343"><ele>842.5000000000001</ele><time>2026-03-22T12:32:38Z</time></trkpt><trkpt lat="44.714060213983764" lon="9.901897408141977"><ele>843.0</ele><time>2026-03-22T12:32:40Z</time></trkpt><trkpt lat="44.714131136846476" lon="9.901900263722688"><ele>843.5</ele><time>2026-03-22T12:32:41Z</time></trkpt><trkpt lat="44.714213987347044" lon="9.901990603419055"><ele>844.0</ele><time>2026-03-22T12:32:43Z</time></trkpt><trkpt lat="44.71420438281184" lon="9.902119139628303"><ele>844.5000000000001</ele><time>2026-03-22T12:32:46Z</time></trkpt><trkpt lat="44.71415663139198" lon="9.902210262114343"><ele>845.0</ele><time>2026-03-22T12:32:47Z</time></trkpt><trkpt lat="44.71415524177765" lon="9.902357975478523"><ele>845.0</ele><time>2026-03-22T12:32:48Z</time></trkpt><trkpt lat="44.71415963816051" lon="9.902472902745616"><ele>845.0</ele><time>2026-03-22T12:32:49Z</time></trkpt><trkpt lat="44.71415542128125" lon="9.902573574869074"><ele>845.0</ele><time>2026-03-22T12:32:50Z</time></trkpt><trkpt lat="44.71408285780745" lon="9.902697889134268"><ele>845.0</ele><time>2026-03-22T12:32:53Z</time></trkpt><trkpt lat="44.71405817050172" lon="9.902834328487836"><ele>845.0</ele><time>2026-03-22T12:32:55Z</time></trkpt><trkpt lat="44.714049334319924" lon="9.90297035985372"><ele>844.8</ele><time>2026-03-22T12:32:56Z</time></trkpt><trkpt lat="44.71402381954119" lon="9.903070370424173"><ele>844.6</ele><time>2026-03-22T12:32:57Z</time></trkpt><trkpt lat="44.71407484952432" lon="9.903207006614954"><ele>844.4000000000001</ele><time>2026-03-22T12:32:59Z</time></trkpt><trkpt lat="44.714090889428746" lon="9.903327079946555"><ele>844.2</ele><time>2026-03-22T12:33:01Z</time></trkpt><trkpt lat="44.713986957105966" lon="9.903403645703976"><ele>844.0</ele><time>2026-03-22T12:33:04.999Z</time></trkpt><trkpt lat="44.71393577451716" lon="9.903486516521788"><ele>836.0</ele><time>2026-03-22T12:33:06.999Z</time></trkpt><trkpt lat="44.713624757848095" lon="9.903874445879827"><ele>828.0</ele><time>2026-03-22T12:33:09.999Z</time></trkpt><trkpt lat="44.71357775403769" lon="9.903950334463742"><ele>829.8333333333334</ele><time>2026-03-22T12:33:10.999Z</time></trkpt><trkpt lat="44.713570256460905" lon="9.904051558808447"><ele>831.6666666666667</ele><time>2026-03-22T12:33:11.999Z</time></trkpt><trkpt lat="44.713496290785486" lon="9.904100849639343"><ele>833.5</ele><time>2026-03-22T12:33:12.999Z</time></trkpt><trkpt lat="44.71347858365218" lon="9.90419922598779"><ele>835.3333333333334</ele><time>2026-03-22T12:33:13.999Z</time></trkpt><trkpt lat="44.713473447691634" lon="9.90432586087179"><ele>837.1666666666667</ele><time>2026-03-22T12:33:14.999Z</time></trkpt><trkpt lat="44.71341847728657" lon="9.904428951331965"><ele>839.0</ele><time>2026-03-22T12:33:15.999Z</time></trkpt><trkpt lat="44.713310181643664" lon="9.904509790138988"><ele>839.0</ele><time>2026-03-22T12:33:17.999Z</time></trkpt><trkpt lat="44.713260109529635" lon="9.904584828066657"><ele>839.0</ele><time>2026-03-22T12:33:18.999Z</time></trkpt><trkpt lat="44.713223833563596" lon="9.90466770207078"><ele>839.0</ele><time>2026-03-22T12:33:19.999Z</time></trkpt><trkpt lat="44.7132393835971" lon="9.904763565526709"><ele>839.0</ele><time>2026-03-22T12:33:20.999Z</time></trkpt><trkpt lat="44.71326311100199" lon="9.904846783889438"><ele>839.0</ele><time>2026-03-22T12:33:22.999Z</time></trkpt><trkpt lat="44.71326575514609" lon="9.904935970433039"><ele>839.0</ele><time>2026-03-22T12:33:23.999Z</time></trkpt><trkpt lat="44.71321123039298" lon="9.905055367816908"><ele>839.0</ele><time>2026-03-22T12:33:24.999Z</time></trkpt><trkpt lat="44.71316200510786" lon="9.905143191733677"><ele>836.5000000000001</ele><time>2026-03-22T12:33:26.999Z</time></trkpt><trkpt lat="44.713056969064084" lon="9.90522143878591"><ele>834.0</ele><time>2026-03-22T12:33:29.999Z</time></trkpt><trkpt lat="44.712996700966876" lon="9.905300751398737"><ele>831.5</ele><time>2026-03-22T12:33:30.999Z</time></trkpt><trkpt lat="44.712968698573945" lon="9.905396114116886"><ele>829.0</ele><time>2026-03-22T12:33:31.999Z</time></trkpt><trkpt lat="44.712955390981065" lon="9.905488661289416"><ele>826.5000000000001</ele><time>2026-03-22T12:33:32.999Z</time></trkpt><trkpt lat="44.712904534321325" lon="9.905559578617368"><ele>824.0</ele><time>2026-03-22T12:33:33.999Z</time></trkpt><trkpt lat="44.71284302899961" lon="9.90562625316747"><ele>824.0000000000001</ele><time>2026-03-22T12:33:34.999Z</time></trkpt><trkpt lat="44.712782463473886" lon="9.905686670681515"><ele>824.0</ele><time>2026-03-22T12:33:35.999Z</time></trkpt><trkpt lat="44.712750611404836" lon="9.905766589082"><ele>824.0</ele><time>2026-03-22T12:33:37.999Z</time></trkpt><trkpt lat="44.712816317663325" lon="9.905808020218338"><ele>824.0</ele><time>2026-03-22T12:33:40.999Z</time></trkpt><trkpt lat="44.712837517753314" lon="9.905929110154673"><ele>824.0000000000001</ele><time>2026-03-22T12:33:43.999Z</time></trkpt><trkpt lat="44.71292625416689" lon="9.90608167041963"><ele>824.0</ele><time>2026-03-22T12:33:46.999Z</time></trkpt><trkpt lat="44.71295559020552" lon="9.90619445519018"><ele>819.3333333333334</ele><time>2026-03-22T12:33:48.999Z</time></trkpt><trkpt lat="44.71292385316515" lon="9.906620295635298"><ele>814.6666666666667</ele><time>2026-03-22T12:33:51.999Z</time></trkpt><trkpt lat="44.712906228190725" lon="9.90674473656797"><ele>810.0</ele><time>2026-03-22T12:33:52.999Z</time></trkpt><trkpt lat="44.71286576464976" lon="9.906928636615744"><ele>808.0</ele><time>2026-03-22T12:33:54.999Z</time></trkpt><trkpt lat="44.71286514295122" lon="9.907028116161632"><ele>806.0</ele><time>2026-03-22T12:33:55.999Z</time></trkpt><trkpt lat="44.71290478544754" lon="9.90714484212877"><ele>804.0</ele><time>2026-03-22T12:33:57.999Z</time></trkpt><trkpt lat="44.71297382575181" lon="9.907270846602724"><ele>802.0</ele><time>2026-03-22T12:34:00.999Z</time></trkpt><trkpt lat="44.713002900991505" lon="9.907382197961246"><ele>800.0</ele><time>2026-03-22T12:34:01.999Z</time></trkpt><trkpt lat="44.712963683894095" lon="9.907463078208583"><ele>798.0</ele><time>2026-03-22T12:34:02.999Z</time></trkpt><trkpt lat="44.71290962350424" lon="9.907528373556712"><ele>795.1666666666666</ele><time>2026-03-22T12:34:04.999Z</time></trkpt><trkpt lat="44.71293751229196" lon="9.907608414728944"><ele>792.3333333333333</ele><time>2026-03-22T12:34:05.999Z</time></trkpt><trkpt lat="44.71296948558085" lon="9.907715045864245"><ele>789.5</ele><time>2026-03-22T12:34:06.999Z</time></trkpt><trkpt lat="44.71294953391838" lon="9.907830081680645"><ele>786.6666666666666</ele><time>2026-03-22T12:34:07.999Z</time></trkpt><trkpt lat="44.712892842869316" lon="9.907923289198818"><ele>783.8333333333333</ele><time>2026-03-22T12:34:09.999Z</time></trkpt><trkpt lat="44.712841094404375" lon="9.907992924873959"><ele>781.0</ele><time>2026-03-22T12:34:11.999Z</time></trkpt><trkpt lat="44.71282426697162" lon="9.908136310814882"><ele>780.9999999999999</ele><time>2026-03-22T12:34:13.999Z</time></trkpt><trkpt lat="44.712902949759034" lon="9.908026864795541"><ele>781.0</ele><time>2026-03-22T12:34:15Z</time></trkpt><trkpt lat="44.712920828593425" lon="9.908188467334964"><ele>781.0</ele><time>2026-03-22T12:34:17Z</time></trkpt><trkpt lat="44.71289628339929" lon="9.908281382828202"><ele>781.0</ele><time>2026-03-22T12:34:20Z</time></trkpt><trkpt lat="44.71290375068233" lon="9.908380735187809"><ele>780.9999999999999</ele><time>2026-03-22T12:34:22Z</time></trkpt><trkpt lat="44.71283491857046" lon="9.908402628165385"><ele>781.0</ele><time>2026-03-22T12:34:39Z</time></trkpt><trkpt lat="44.7127698378771" lon="9.908438592967416"><ele>777.5999999999999</ele><time>2026-03-22T12:34:43Z</time></trkpt><trkpt lat="44.71267978379584" lon="9.908476753211945"><ele>774.2</ele><time>2026-03-22T12:34:46Z</time></trkpt><trkpt lat="44.712606926565606" lon="9.908517193061567"><ele>770.8</ele><time>2026-03-22T12:34:48Z</time></trkpt><trkpt lat="44.712594815827146" lon="9.908708499024398"><ele>767.4000000000001</ele><time>2026-03-22T12:34:59Z</time></trkpt><trkpt lat="44.71261651605175" lon="9.908830469753223"><ele>764.0</ele><time>2026-03-22T12:35:02Z</time></trkpt><trkpt lat="44.712589208827815" lon="9.908912210171739"><ele>764.0</ele><time>2026-03-22T12:35:04Z</time></trkpt><trkpt lat="44.712520285590685" lon="9.908950032001602"><ele>764.0</ele><time>2026-03-22T12:35:06Z</time></trkpt><trkpt lat="44.712470458673636" lon="9.909012885177223"><ele>764.0</ele><time>2026-03-22T12:35:08Z</time></trkpt><trkpt lat="44.712431363898695" lon="9.909090518261358"><ele>764.0</ele><time>2026-03-22T12:35:10Z</time></trkpt><trkpt lat="44.712389813467496" lon="9.90917889401129"><ele>764.0</ele><time>2026-03-22T12:35:11.999Z</time></trkpt><trkpt lat="44.71233746791827" lon="9.909256512359388"><ele>764.0</ele><time>2026-03-22T12:35:13.999Z</time></trkpt><trkpt lat="44.712255262265614" lon="9.909271946332321"><ele>764.0</ele><time>2026-03-22T12:35:16.999Z</time></trkpt><trkpt lat="44.71218525467605" lon="9.909270792623829"><ele>759.5</ele><time>2026-03-22T12:35:18.999Z</time></trkpt><trkpt lat="44.71213533832731" lon="9.909387058930385"><ele>755.0</ele><time>2026-03-22T12:35:21.999Z</time></trkpt><trkpt lat="44.71215102991795" lon="9.909492286267353"><ele>750.5</ele><time>2026-03-22T12:35:23.999Z</time></trkpt><trkpt lat="44.712155939672925" lon="9.909591382541933"><ele>746.0</ele><time>2026-03-22T12:35:26.999Z</time></trkpt><trkpt lat="44.71213412922242" lon="9.909699328630841"><ele>741.5</ele><time>2026-03-22T12:35:29.999Z</time></trkpt><trkpt lat="44.71209860076693" lon="9.9097843223948"><ele>737.0</ele><time>2026-03-22T12:35:31.999Z</time></trkpt><trkpt lat="44.71204889416292" lon="9.90984177016561"><ele>737.0</ele><time>2026-03-22T12:35:33.999Z</time></trkpt><trkpt lat="44.712002885035254" lon="9.909934272449588"><ele>737.0</ele><time>2026-03-22T12:35:34.999Z</time></trkpt><trkpt lat="44.71193588652893" lon="9.910047123139258"><ele>737.0</ele><time>2026-03-22T12:35:36.999Z</time></trkpt><trkpt lat="44.71184308239198" lon="9.910093810823476"><ele>737.0</ele><time>2026-03-22T12:35:38.999Z</time></trkpt><trkpt lat="44.71176551497516" lon="9.91016063317636"><ele>737.0</ele><time>2026-03-22T12:35:40.999Z</time></trkpt><trkpt lat="44.71168536014846" lon="9.91023145027119"><ele>732.3333333333333</ele><time>2026-03-22T12:35:42.999Z</time></trkpt><trkpt lat="44.71167228577639" lon="9.91032789157125"><ele>727.6666666666666</ele><time>2026-03-22T12:35:44.999Z</time></trkpt><trkpt lat="44.71174897034887" lon="9.91039940199735"><ele>723.0</ele><time>2026-03-22T12:35:47.999Z</time></trkpt><trkpt lat="44.711808039982145" lon="9.910493870897218"><ele>718.3333333333334</ele><time>2026-03-22T12:35:50.999Z</time></trkpt><trkpt lat="44.71178831519874" lon="9.91058180717312"><ele>713.6666666666667</ele><time>2026-03-22T12:35:53.999Z</time></trkpt><trkpt lat="44.711733948904865" lon="9.910646226162822"><ele>709.0</ele><time>2026-03-22T12:35:55.999Z</time></trkpt><trkpt lat="44.711654637378516" lon="9.910694901052937"><ele>709.0</ele><time>2026-03-22T12:35:58.999Z</time></trkpt><trkpt lat="44.71152782644049" lon="9.910762509780222"><ele>709.0</ele><time>2026-03-22T12:36:00.999Z</time></trkpt><trkpt lat="44.71145172345068" lon="9.910832799188835"><ele>709.0</ele><time>2026-03-22T12:36:02.999Z</time></trkpt><trkpt lat="44.711410953186906" lon="9.91092099526121"><ele>709.0</ele><time>2026-03-22T12:36:04.999Z</time></trkpt><trkpt lat="44.71142616976478" lon="9.911021459395004"><ele>709.0</ele><time>2026-03-22T12:36:06.999Z</time></trkpt><trkpt lat="44.71148072255982" lon="9.91108401605279"><ele>709.0</ele><time>2026-03-22T12:36:08.999Z</time></trkpt><trkpt lat="44.711575919031475" lon="9.911080868109424"><ele>707.6666666666667</ele><time>2026-03-22T12:36:10.999Z</time></trkpt><trkpt lat="44.71164372385095" lon="9.911042577137303"><ele>706.3333333333334</ele><time>2026-03-22T12:36:14.999Z</time></trkpt><trkpt lat="44.71173601119887" lon="9.911060678158387"><ele>705.0</ele><time>2026-03-22T12:36:17.999Z</time></trkpt><trkpt lat="44.7117995837803" lon="9.911026324247322"><ele>703.6666666666666</ele><time>2026-03-22T12:36:18.999Z</time></trkpt><trkpt lat="44.711875200323234" lon="9.910971713619317"><ele>702.3333333333333</ele><time>2026-03-22T12:36:19.999Z</time></trkpt><trkpt lat="44.71197500963272" lon="9.910896931851031"><ele>701.0</ele><time>2026-03-22T12:36:21Z</time></trkpt><trkpt lat="44.71205267065356" lon="9.910838521661322"><ele>701.0</ele><time>2026-03-22T12:36:22Z</time></trkpt><trkpt lat="44.71214426338477" lon="9.910788580256687"><ele>701.0</ele><time>2026-03-22T12:36:24Z</time></trkpt><trkpt lat="44.712250373554475" lon="9.910736687499302"><ele>701.0</ele><time>2026-03-22T12:36:26Z</time></trkpt><trkpt lat="44.712345529455305" lon="9.910690529548717"><ele>701.0</ele><time>2026-03-22T12:36:28Z</time></trkpt><trkpt lat="44.712445972982984" lon="9.910673780934406"><ele>701.0</ele><time>2026-03-22T12:36:30Z</time></trkpt><trkpt lat="44.71255144586144" lon="9.910736663268578"><ele>701.0</ele><time>2026-03-22T12:36:34Z</time></trkpt><trkpt lat="44.71264477943948" lon="9.910756504921833"><ele>701.0</ele><time>2026-03-22T12:36:36Z</time></trkpt><trkpt lat="44.71271125161452" lon="9.910728352867304"><ele>701.0</ele><time>2026-03-22T12:36:38Z</time></trkpt><trkpt lat="44.71284472311406" lon="9.9107761764974"><ele>701.0</ele><time>2026-03-22T12:36:41Z</time></trkpt><trkpt lat="44.71291459283614" lon="9.9107652735664"><ele>701.0</ele><time>2026-03-22T12:36:42Z</time></trkpt><trkpt lat="44.71298955739895" lon="9.910729157697643"><ele>699.5</ele><time>2026-03-22T12:36:44Z</time></trkpt><trkpt lat="44.71307005518849" lon="9.910717763810597"><ele>698.0</ele><time>2026-03-22T12:36:50Z</time></trkpt><trkpt lat="44.71313035933107" lon="9.910744838903128"><ele>696.5</ele><time>2026-03-22T12:36:53Z</time></trkpt><trkpt lat="44.713194068223245" lon="9.910763135188429"><ele>695.0</ele><time>2026-03-22T12:36:55Z</time></trkpt><trkpt lat="44.713282753710544" lon="9.910766814991094"><ele>693.5</ele><time>2026-03-22T12:36:57Z</time></trkpt><trkpt lat="44.71335256324182" lon="9.9107878500976"><ele>692.0</ele><time>2026-03-22T12:37:00Z</time></trkpt><trkpt lat="44.71343855605268" lon="9.910847016289948"><ele>688.6666666666666</ele><time>2026-03-22T12:37:04Z</time></trkpt><trkpt lat="44.71348183664241" lon="9.910935734174663"><ele>685.3333333333333</ele><time>2026-03-22T12:37:08Z</time></trkpt><trkpt lat="44.713470765398576" lon="9.911059556085759"><ele>682.0</ele><time>2026-03-22T12:37:10.999Z</time></trkpt><trkpt lat="44.71345991555889" lon="9.911184493429436"><ele>678.6666666666666</ele><time>2026-03-22T12:37:13.999Z</time></trkpt><trkpt lat="44.713378245901936" lon="9.911233971358921"><ele>675.3333333333334</ele><time>2026-03-22T12:37:16.999Z</time></trkpt><trkpt lat="44.71331305091238" lon="9.911277374605156"><ele>672.0</ele><time>2026-03-22T12:37:18.999Z</time></trkpt><trkpt lat="44.71326014720288" lon="9.911345275439967"><ele>672.0</ele><time>2026-03-22T12:37:20.999Z</time></trkpt><trkpt lat="44.713236408010815" lon="9.911476215640125"><ele>672.0</ele><time>2026-03-22T12:37:22.999Z</time></trkpt><trkpt lat="44.713196601494154" lon="9.911556739935422"><ele>672.0</ele><time>2026-03-22T12:37:23.999Z</time></trkpt><trkpt lat="44.71313166027069" lon="9.911669169694441"><ele>672.0</ele><time>2026-03-22T12:37:26.999Z</time></trkpt><trkpt lat="44.71308720217497" lon="9.91174943790043"><ele>672.0</ele><time>2026-03-22T12:37:28.999Z</time></trkpt><trkpt lat="44.71305680960396" lon="9.911829846475099"><ele>672.0</ele><time>2026-03-22T12:37:30.999Z</time></trkpt><trkpt lat="44.713012097273605" lon="9.911906266609671"><ele>672.6666666666666</ele><time>2026-03-22T12:37:32.999Z</time></trkpt><trkpt lat="44.71297775860522" lon="9.912004794883796"><ele>673.3333333333334</ele><time>2026-03-22T12:37:37.999Z</time></trkpt><trkpt lat="44.71304376339144" lon="9.91204497172192"><ele>674.0</ele><time>2026-03-22T12:37:43.999Z</time></trkpt><trkpt lat="44.71310375636634" lon="9.91198052635176"><ele>674.6666666666667</ele><time>2026-03-22T12:37:46.999Z</time></trkpt><trkpt lat="44.7131768142377" lon="9.911981648907243"><ele>675.3333333333334</ele><time>2026-03-22T12:37:48.999Z</time></trkpt><trkpt lat="44.71312188051497" lon="9.91212960077433"><ele>676.0</ele><time>2026-03-22T12:37:50.999Z</time></trkpt><trkpt lat="44.713051902116014" lon="9.912233704741325"><ele>676.0</ele><time>2026-03-22T12:37:51.999Z</time></trkpt><trkpt lat="44.712980785414125" lon="9.912313378275222"><ele>676.0</ele><time>2026-03-22T12:37:52.999Z</time></trkpt><trkpt lat="44.71291471661061" lon="9.912384324705469"><ele>676.0</ele><time>2026-03-22T12:37:53.999Z</time></trkpt><trkpt lat="44.712875740008876" lon="9.912566838346166"><ele>676.0</ele><time>2026-03-22T12:37:55.999Z</time></trkpt><trkpt lat="44.712880953989085" lon="9.912759441710245"><ele>676.0</ele><time>2026-03-22T12:37:57.999Z</time></trkpt><trkpt lat="44.712866339686414" lon="9.912873251886628"><ele>676.4</ele><time>2026-03-22T12:37:58.999Z</time></trkpt><trkpt lat="44.712833837912754" lon="9.912949719357815"><ele>676.8</ele><time>2026-03-22T12:37:59.999Z</time></trkpt><trkpt lat="44.71283239104822" lon="9.913120558841696"><ele>677.1999999999999</ele><time>2026-03-22T12:38:01.999Z</time></trkpt><trkpt lat="44.712855975389864" lon="9.913246028159012"><ele>677.5999999999999</ele><time>2026-03-22T12:38:02.999Z</time></trkpt><trkpt lat="44.712876142069284" lon="9.913384304344204"><ele>678.0</ele><time>2026-03-22T12:38:03.999Z</time></trkpt><trkpt lat="44.712903243273246" lon="9.913499073802999"><ele>674.2</ele><time>2026-03-22T12:38:04.999Z</time></trkpt><trkpt lat="44.71292259320629" lon="9.913586834939368"><ele>670.4</ele><time>2026-03-22T12:38:05.999Z</time></trkpt><trkpt lat="44.71298319885939" lon="9.91372941968627"><ele>666.6</ele><time>2026-03-22T12:38:07.999Z</time></trkpt><trkpt lat="44.713104419330215" lon="9.913734463278406"><ele>662.8000000000001</ele><time>2026-03-22T12:38:09.999Z</time></trkpt><trkpt lat="44.713172140615725" lon="9.913759220803847"><ele>659.0</ele><time>2026-03-22T12:38:10.999Z</time></trkpt><trkpt lat="44.71324707527702" lon="9.913837166393778"><ele>659.0</ele><time>2026-03-22T12:38:11.999Z</time></trkpt><trkpt lat="44.71330992488698" lon="9.913950372043951"><ele>659.0</ele><time>2026-03-22T12:38:12.999Z</time></trkpt><trkpt lat="44.713351742328996" lon="9.914077785124409"><ele>659.0</ele><time>2026-03-22T12:38:13.999Z</time></trkpt><trkpt lat="44.71338603450236" lon="9.91416315711732"><ele>659.0</ele><time>2026-03-22T12:38:14.999Z</time></trkpt><trkpt lat="44.713462009347296" lon="9.914321738407526"><ele>659.0</ele><time>2026-03-22T12:38:16.999Z</time></trkpt><trkpt lat="44.71353293204216" lon="9.914399233118788"><ele>659.0</ele><time>2026-03-22T12:38:18.999Z</time></trkpt><trkpt lat="44.7136017481556" lon="9.914448895511212"><ele>659.0</ele><time>2026-03-22T12:38:19.999Z</time></trkpt><trkpt lat="44.713662182118476" lon="9.91451370460744"><ele>659.0</ele><time>2026-03-22T12:38:20.999Z</time></trkpt><trkpt lat="44.71372493169663" lon="9.91457248638196"><ele>659.0</ele><time>2026-03-22T12:38:21.999Z</time></trkpt><trkpt lat="44.71379294916922" lon="9.914636353218786"><ele>659.0</ele><time>2026-03-22T12:38:22.999Z</time></trkpt><trkpt lat="44.71386613825739" lon="9.914695921195372"><ele>659.0</ele><time>2026-03-22T12:38:23.999Z</time></trkpt><trkpt lat="44.71393132704139" lon="9.914758396093713"><ele>659.0</ele><time>2026-03-22T12:38:24.999Z</time></trkpt><trkpt lat="44.71399981906434" lon="9.914801619586129"><ele>659.0</ele><time>2026-03-22T12:38:25.999Z</time></trkpt><trkpt lat="44.7140584676106" lon="9.914836573046236"><ele>659.0</ele><time>2026-03-22T12:38:27Z</time></trkpt><trkpt lat="44.71408918325998" lon="9.914919555537839"><ele>659.0</ele><time>2026-03-22T12:38:28Z</time></trkpt><trkpt lat="44.714086964344915" lon="9.915061666064355"><ele>659.0</ele><time>2026-03-22T12:38:29Z</time></trkpt><trkpt lat="44.71406840687653" lon="9.915196006318196"><ele>659.0</ele><time>2026-03-22T12:38:30Z</time></trkpt><trkpt lat="44.71407750190249" lon="9.915303944555754"><ele>656.5</ele><time>2026-03-22T12:38:31Z</time></trkpt><trkpt lat="44.71410545834107" lon="9.915405638034516"><ele>654.0</ele><time>2026-03-22T12:38:32Z</time></trkpt><trkpt lat="44.71413728301136" lon="9.915513823263932"><ele>651.5</ele><time>2026-03-22T12:38:33Z</time></trkpt><trkpt lat="44.71417961403553" lon="9.91563647993659"><ele>649.0</ele><time>2026-03-22T12:38:34Z</time></trkpt><trkpt lat="44.71422485037303" lon="9.915738721767475"><ele>646.5</ele><time>2026-03-22T12:38:35Z</time></trkpt><trkpt lat="44.71428202106897" lon="9.915826226431756"><ele>644.0</ele><time>2026-03-22T12:38:36Z</time></trkpt><trkpt lat="44.714336204256455" lon="9.915891610505486"><ele>641.6</ele><time>2026-03-22T12:38:37Z</time></trkpt><trkpt lat="44.71441546287375" lon="9.91598456044889"><ele>639.2</ele><time>2026-03-22T12:38:39Z</time></trkpt><trkpt lat="44.71451509971392" lon="9.915990502986832"><ele>636.8000000000001</ele><time>2026-03-22T12:38:41Z</time></trkpt><trkpt lat="44.714627230466455" lon="9.91601195693203"><ele>634.4000000000001</ele><time>2026-03-22T12:38:43Z</time></trkpt><trkpt lat="44.71470211716766" lon="9.91600333615232"><ele>632.0</ele><time>2026-03-22T12:38:44Z</time></trkpt><trkpt lat="44.71477993412016" lon="9.916002609894385"><ele>632.0</ele><time>2026-03-22T12:38:45Z</time></trkpt><trkpt lat="44.71490742502527" lon="9.916020228985543"><ele>632.0</ele><time>2026-03-22T12:38:47Z</time></trkpt><trkpt lat="44.71496524882442" lon="9.91606079962187"><ele>632.0</ele><time>2026-03-22T12:38:48Z</time></trkpt><trkpt lat="44.71501777296638" lon="9.916136292107801"><ele>632.0</ele><time>2026-03-22T12:38:49Z</time></trkpt><trkpt lat="44.71505445855468" lon="9.916232002111613"><ele>632.0</ele><time>2026-03-22T12:38:50Z</time></trkpt><trkpt lat="44.715143585468766" lon="9.91637101692264"><ele>632.0</ele><time>2026-03-22T12:38:52Z</time></trkpt><trkpt lat="44.7152044697967" lon="9.916459418275766"><ele>632.0</ele><time>2026-03-22T12:38:53Z</time></trkpt><trkpt lat="44.71528026236429" lon="9.916520311232498"><ele>632.0</ele><time>2026-03-22T12:38:54Z</time></trkpt><trkpt lat="44.71534725319211" lon="9.91657568632389"><ele>632.0</ele><time>2026-03-22T12:38:55Z</time></trkpt><trkpt lat="44.7154141858829" lon="9.916675889195607"><ele>632.0</ele><time>2026-03-22T12:38:56Z</time></trkpt><trkpt lat="44.715473027934046" lon="9.916778625480454"><ele>632.0</ele><time>2026-03-22T12:38:57Z</time></trkpt><trkpt lat="44.7155482491886" lon="9.916893684756607"><ele>631.1666666666666</ele><time>2026-03-22T12:38:59Z</time></trkpt><trkpt lat="44.7156345766981" lon="9.916986763687438"><ele>630.3333333333333</ele><time>2026-03-22T12:39:01Z</time></trkpt><trkpt lat="44.71570390590735" lon="9.91703677177354"><ele>629.5</ele><time>2026-03-22T12:39:02Z</time></trkpt><trkpt lat="44.715772244250154" lon="9.917085216581105"><ele>628.6666666666666</ele><time>2026-03-22T12:39:03Z</time></trkpt><trkpt lat="44.715834621968455" lon="9.917118062847859"><ele>627.8333333333334</ele><time>2026-03-22T12:39:04Z</time></trkpt><trkpt lat="44.71589914800923" lon="9.917122672154367"><ele>627.0</ele><time>2026-03-22T12:39:05Z</time></trkpt><trkpt lat="44.71597863474954" lon="9.917124469531513"><ele>627.0</ele><time>2026-03-22T12:39:06Z</time></trkpt><trkpt lat="44.716071171535134" lon="9.917163201639891"><ele>627.0</ele><time>2026-03-22T12:39:07Z</time></trkpt><trkpt lat="44.716169305477464" lon="9.917211823282706"><ele>627.0</ele><time>2026-03-22T12:39:08Z</time></trkpt><trkpt lat="44.71624346826354" lon="9.91725197220209"><ele>627.0</ele><time>2026-03-22T12:39:09Z</time></trkpt><trkpt lat="44.71633074880341" lon="9.917302793831983"><ele>627.0</ele><time>2026-03-22T12:39:10Z</time></trkpt><trkpt lat="44.716409104720526" lon="9.91735448466548"><ele>627.0</ele><time>2026-03-22T12:39:11Z</time></trkpt><trkpt lat="44.71647266276533" lon="9.917405301239182"><ele>627.0</ele><time>2026-03-22T12:39:12Z</time></trkpt><trkpt lat="44.716533358986204" lon="9.917443647508701"><ele>627.0</ele><time>2026-03-22T12:39:13Z</time></trkpt><trkpt lat="44.716604984299316" lon="9.917491532995488"><ele>627.0</ele><time>2026-03-22T12:39:14Z</time></trkpt><trkpt lat="44.71666545187591" lon="9.91752672534136"><ele>627.0</ele><time>2026-03-22T12:39:15Z</time></trkpt><trkpt lat="44.71673160204173" lon="9.917537909199423"><ele>627.0</ele><time>2026-03-22T12:39:16Z</time></trkpt><trkpt lat="44.71679522923169" lon="9.917557630536841"><ele>627.0</ele><time>2026-03-22T12:39:17Z</time></trkpt><trkpt lat="44.71685879816174" lon="9.917571710183479"><ele>620.0</ele><time>2026-03-22T12:39:18Z</time></trkpt><trkpt lat="44.71692960696376" lon="9.917573795392745"><ele>613.0</ele><time>2026-03-22T12:39:19Z</time></trkpt><trkpt lat="44.717006082033556" lon="9.917589828259482"><ele>606.0</ele><time>2026-03-22T12:39:20Z</time></trkpt><trkpt lat="44.71707549823511" lon="9.917589715095716"><ele>599.0</ele><time>2026-03-22T12:39:21Z</time></trkpt><trkpt lat="44.71714585406571" lon="9.917597237576922"><ele>592.0</ele><time>2026-03-22T12:39:22Z</time></trkpt><trkpt lat="44.71720871856415" lon="9.917633336706311"><ele>585.0</ele><time>2026-03-22T12:39:23Z</time></trkpt><trkpt lat="44.71733835391738" lon="9.917660734704727"><ele>585.0</ele><time>2026-03-22T12:39:24.999Z</time></trkpt><trkpt lat="44.717413937274365" lon="9.917674934145092"><ele>585.0</ele><time>2026-03-22T12:39:25.999Z</time></trkpt><trkpt lat="44.71752359701914" lon="9.91767206799586"><ele>585.0</ele><time>2026-03-22T12:39:27.999Z</time></trkpt><trkpt lat="44.717590470035354" lon="9.917679486014231"><ele>585.0</ele><time>2026-03-22T12:39:28.999Z</time></trkpt><trkpt lat="44.71766979511813" lon="9.917682271029612"><ele>585.0</ele><time>2026-03-22T12:39:29.999Z</time></trkpt><trkpt lat="44.71775900423595" lon="9.917670843849391"><ele>585.0</ele><time>2026-03-22T12:39:30.999Z</time></trkpt><trkpt lat="44.717823817072464" lon="9.91766144199201"><ele>585.3333333333334</ele><time>2026-03-22T12:39:31.999Z</time></trkpt><trkpt lat="44.71796824382297" lon="9.917631537085368"><ele>585.6666666666666</ele><time>2026-03-22T12:39:33.999Z</time></trkpt><trkpt lat="44.71803518026228" lon="9.917627643223412"><ele>586.0</ele><time>2026-03-22T12:39:34.999Z</time></trkpt><trkpt lat="44.718097245185604" lon="9.91759879233935"><ele>586.3333333333333</ele><time>2026-03-22T12:39:35.999Z</time></trkpt><trkpt lat="44.71816792488091" lon="9.91759628228733"><ele>586.6666666666666</ele><time>2026-03-22T12:39:36.999Z</time></trkpt><trkpt lat="44.718240155430664" lon="9.917581008519084"><ele>587.0</ele><time>2026-03-22T12:39:37.999Z</time></trkpt><trkpt lat="44.71832365943576" lon="9.917563350879961"><ele>589.6666666666666</ele><time>2026-03-22T12:39:38.999Z</time></trkpt><trkpt lat="44.71839997026149" lon="9.917547214303907"><ele>592.3333333333333</ele><time>2026-03-22T12:39:39.999Z</time></trkpt><trkpt lat="44.718467223997" lon="9.917520892356372"><ele>595.0</ele><time>2026-03-22T12:39:40.999Z</time></trkpt><trkpt lat="44.71855573252743" lon="9.917537539190718"><ele>597.6666666666666</ele><time>2026-03-22T12:39:41.999Z</time></trkpt><trkpt lat="44.718639693374975" lon="9.917509069103632"><ele>600.3333333333334</ele><time>2026-03-22T12:39:42.999Z</time></trkpt><trkpt lat="44.718713412754525" lon="9.917537537017738"><ele>603.0</ele><time>2026-03-22T12:39:43.999Z</time></trkpt><trkpt lat="44.71882067807285" lon="9.917606252289335"><ele>603.5</ele><time>2026-03-22T12:39:45.999Z</time></trkpt><trkpt lat="44.71881168956669" lon="9.917707630222266"><ele>604.0</ele><time>2026-03-22T12:39:46.999Z</time></trkpt><trkpt lat="44.71875437864855" lon="9.917785445594804"><ele>604.5</ele><time>2026-03-22T12:39:47.999Z</time></trkpt><trkpt lat="44.718700826455176" lon="9.917834017483155"><ele>605.0</ele><time>2026-03-22T12:39:48.999Z</time></trkpt><trkpt lat="44.71863058028943" lon="9.917931667792738"><ele>605.5</ele><time>2026-03-22T12:39:49.999Z</time></trkpt><trkpt lat="44.718553878406006" lon="9.91803433561913"><ele>606.0</ele><time>2026-03-22T12:39:50.999Z</time></trkpt><trkpt lat="44.71847781902097" lon="9.918160406378302"><ele>604.2</ele><time>2026-03-22T12:39:51.999Z</time></trkpt><trkpt lat="44.718398770127365" lon="9.918309205723148"><ele>602.4000000000001</ele><time>2026-03-22T12:39:52.999Z</time></trkpt><trkpt lat="44.718339571678364" lon="9.918432510528376"><ele>600.6</ele><time>2026-03-22T12:39:53.999Z</time></trkpt><trkpt lat="44.718288457694676" lon="9.918545838134696"><ele>598.8000000000001</ele><time>2026-03-22T12:39:55.999Z</time></trkpt><trkpt lat="44.7182419001969" lon="9.918640894125103"><ele>597.0</ele><time>2026-03-22T12:39:56.999Z</time></trkpt><trkpt lat="44.718176713621226" lon="9.918763199776107"><ele>597.0</ele><time>2026-03-22T12:39:57.999Z</time></trkpt><trkpt lat="44.71810393761079" lon="9.918823386232908"><ele>597.0</ele><time>2026-03-22T12:39:58.999Z</time></trkpt><trkpt lat="44.718028949552185" lon="9.918901838616344"><ele>597.0</ele><time>2026-03-22T12:39:59.999Z</time></trkpt><trkpt lat="44.71796339395016" lon="9.918994854695496"><ele>597.0</ele><time>2026-03-22T12:40:00.999Z</time></trkpt><trkpt lat="44.71791861388085" lon="9.919068999774677"><ele>597.0</ele><time>2026-03-22T12:40:01.999Z</time></trkpt><trkpt lat="44.71786799215028" lon="9.919166946568442"><ele>597.0</ele><time>2026-03-22T12:40:02.999Z</time></trkpt><trkpt lat="44.717816627721994" lon="9.919280622590296"><ele>597.8000000000001</ele><time>2026-03-22T12:40:03.999Z</time></trkpt><trkpt lat="44.71776511351379" lon="9.919387776050714"><ele>598.6</ele><time>2026-03-22T12:40:04.999Z</time></trkpt><trkpt lat="44.717701688487345" lon="9.91950698612307"><ele>599.4000000000001</ele><time>2026-03-22T12:40:05.999Z</time></trkpt><trkpt lat="44.71764114432384" lon="9.919625868347694"><ele>600.2</ele><time>2026-03-22T12:40:06.999Z</time></trkpt><trkpt lat="44.717588453984504" lon="9.919735464252469"><ele>601.0</ele><time>2026-03-22T12:40:07.999Z</time></trkpt><trkpt lat="44.717546692381546" lon="9.919844373928447"><ele>598.8333333333334</ele><time>2026-03-22T12:40:08.999Z</time></trkpt><trkpt lat="44.71752332699758" lon="9.919953706253763"><ele>596.6666666666667</ele><time>2026-03-22T12:40:09.999Z</time></trkpt><trkpt lat="44.717511452898734" lon="9.920105992709683"><ele>594.5</ele><time>2026-03-22T12:40:11.999Z</time></trkpt><trkpt lat="44.71752585936675" lon="9.920254649292975"><ele>592.3333333333334</ele><time>2026-03-22T12:40:13.999Z</time></trkpt><trkpt lat="44.71755781164175" lon="9.920337366953031"><ele>590.1666666666666</ele><time>2026-03-22T12:40:14.999Z</time></trkpt><trkpt lat="44.71760584312539" lon="9.920405825535024"><ele>588.0</ele><time>2026-03-22T12:40:15.999Z</time></trkpt><trkpt lat="44.71765393985886" lon="9.920476241092356"><ele>587.4</ele><time>2026-03-22T12:40:16.999Z</time></trkpt><trkpt lat="44.717716084005616" lon="9.920536800258132"><ele>586.8</ele><time>2026-03-22T12:40:17.999Z</time></trkpt><trkpt lat="44.717801735312875" lon="9.920611111457386"><ele>586.2</ele><time>2026-03-22T12:40:18.999Z</time></trkpt><trkpt lat="44.71789831636692" lon="9.920663938263555"><ele>585.6</ele><time>2026-03-22T12:40:19.999Z</time></trkpt><trkpt lat="44.71797750352012" lon="9.92072860220306"><ele>585.0</ele><time>2026-03-22T12:40:20.999Z</time></trkpt><trkpt lat="44.71804333432329" lon="9.920838316232357"><ele>582.5</ele><time>2026-03-22T12:40:21.999Z</time></trkpt><trkpt lat="44.718132746732884" lon="9.920965322594666"><ele>580.0</ele><time>2026-03-22T12:40:22.999Z</time></trkpt><trkpt lat="44.71822710793753" lon="9.92110039867706"><ele>577.5</ele><time>2026-03-22T12:40:23.999Z</time></trkpt><trkpt lat="44.718331883053075" lon="9.921250382053527"><ele>575.0</ele><time>2026-03-22T12:40:24.999Z</time></trkpt><trkpt lat="44.718422908649174" lon="9.921385245688317"><ele>575.0</ele><time>2026-03-22T12:40:25.999Z</time></trkpt><trkpt lat="44.71851413779498" lon="9.92148907801149"><ele>575.0</ele><time>2026-03-22T12:40:26.999Z</time></trkpt><trkpt lat="44.71859090434044" lon="9.921601278942932"><ele>575.0</ele><time>2026-03-22T12:40:27.999Z</time></trkpt><trkpt lat="44.718687575301445" lon="9.921709142306996"><ele>575.0</ele><time>2026-03-22T12:40:28.999Z</time></trkpt><trkpt lat="44.71878557804555" lon="9.921813307282454"><ele>577.5</ele><time>2026-03-22T12:40:29.999Z</time></trkpt><trkpt lat="44.71889281332037" lon="9.92191914023012"><ele>580.0</ele><time>2026-03-22T12:40:30.999Z</time></trkpt><trkpt lat="44.7190061414365" lon="9.922023754073285"><ele>582.5</ele><time>2026-03-22T12:40:32Z</time></trkpt><trkpt lat="44.71911751118793" lon="9.922119738474562"><ele>585.0</ele><time>2026-03-22T12:40:33Z</time></trkpt><trkpt lat="44.71921674840529" lon="9.922190012621"><ele>585.0</ele><time>2026-03-22T12:40:34Z</time></trkpt><trkpt lat="44.719317981464016" lon="9.922258984078821"><ele>585.0</ele><time>2026-03-22T12:40:35Z</time></trkpt><trkpt lat="44.71940752208487" lon="9.922370439661226"><ele>585.0</ele><time>2026-03-22T12:40:36Z</time></trkpt><trkpt lat="44.71949383761961" lon="9.922467961083726"><ele>585.0</ele><time>2026-03-22T12:40:37Z</time></trkpt><trkpt lat="44.71958376798767" lon="9.922597330096364"><ele>587.0</ele><time>2026-03-22T12:40:38Z</time></trkpt><trkpt lat="44.719666923008546" lon="9.922741621420046"><ele>589.0</ele><time>2026-03-22T12:40:39Z</time></trkpt><trkpt lat="44.71974314897545" lon="9.922890649626801"><ele>591.0</ele><time>2026-03-22T12:40:40Z</time></trkpt><trkpt lat="44.71981630331946" lon="9.923033624294247"><ele>593.0</ele><time>2026-03-22T12:40:41Z</time></trkpt><trkpt lat="44.71988778969183" lon="9.923174995823498"><ele>593.0</ele><time>2026-03-22T12:40:42Z</time></trkpt><trkpt lat="44.719956827626596" lon="9.923292829221747"><ele>593.0</ele><time>2026-03-22T12:40:43Z</time></trkpt><trkpt lat="44.72001821207717" lon="9.923367302496565"><ele>593.0</ele><time>2026-03-22T12:40:44Z</time></trkpt><trkpt lat="44.720101389452005" lon="9.923397666964927"><ele>593.0</ele><time>2026-03-22T12:40:45Z</time></trkpt><trkpt lat="44.720179058357594" lon="9.92344243573611"><ele>593.0</ele><time>2026-03-22T12:40:46Z</time></trkpt><trkpt lat="44.72027094821791" lon="9.92348920894447"><ele>591.25</ele><time>2026-03-22T12:40:47Z</time></trkpt><trkpt lat="44.720367241398996" lon="9.923536723333338"><ele>589.5</ele><time>2026-03-22T12:40:48Z</time></trkpt><trkpt lat="44.7204786399137" lon="9.92359026768351"><ele>587.75</ele><time>2026-03-22T12:40:49Z</time></trkpt><trkpt lat="44.720590412654566" lon="9.923629682439497"><ele>586.0</ele><time>2026-03-22T12:40:50Z</time></trkpt><trkpt lat="44.72070603552446" lon="9.923675503034536"><ele>586.0</ele><time>2026-03-22T12:40:51Z</time></trkpt><trkpt lat="44.72082907331579" lon="9.923731889752103"><ele>586.0</ele><time>2026-03-22T12:40:52Z</time></trkpt><trkpt lat="44.72096350781128" lon="9.923798650464352"><ele>586.0</ele><time>2026-03-22T12:40:53Z</time></trkpt><trkpt lat="44.72111582255213" lon="9.923871931220067"><ele>586.0</ele><time>2026-03-22T12:40:54Z</time></trkpt><trkpt lat="44.721281959964486" lon="9.923946145657268"><ele>585.25</ele><time>2026-03-22T12:40:55Z</time></trkpt><trkpt lat="44.72142279194069" lon="9.924007149166096"><ele>584.5</ele><time>2026-03-22T12:40:56Z</time></trkpt><trkpt lat="44.72154017160036" lon="9.924061874283147"><ele>583.75</ele><time>2026-03-22T12:40:57Z</time></trkpt><trkpt lat="44.72164661574604" lon="9.924111879148622"><ele>583.0</ele><time>2026-03-22T12:40:58Z</time></trkpt><trkpt lat="44.72175130282601" lon="9.924159115026374"><ele>583.0</ele><time>2026-03-22T12:40:59Z</time></trkpt><trkpt lat="44.72184761024756" lon="9.92421100591564"><ele>583.0</ele><time>2026-03-22T12:41:00Z</time></trkpt><trkpt lat="44.72194845672006" lon="9.92426539960863"><ele>583.0</ele><time>2026-03-22T12:41:01Z</time></trkpt><trkpt lat="44.72203546660056" lon="9.924312528532683"><ele>583.0</ele><time>2026-03-22T12:41:02Z</time></trkpt><trkpt lat="44.72209530764704" lon="9.924409967619717"><ele>583.0</ele><time>2026-03-22T12:41:03Z</time></trkpt><trkpt lat="44.722144153846266" lon="9.924493084346773"><ele>581.8333333333334</ele><time>2026-03-22T12:41:04Z</time></trkpt><trkpt lat="44.72218748500325" lon="9.92458996733353"><ele>580.6666666666667</ele><time>2026-03-22T12:41:05Z</time></trkpt><trkpt lat="44.722234829132006" lon="9.924698777681177"><ele>579.5</ele><time>2026-03-22T12:41:06Z</time></trkpt><trkpt lat="44.722274351485844" lon="9.924797386388823"><ele>578.3333333333334</ele><time>2026-03-22T12:41:07Z</time></trkpt><trkpt lat="44.72230611887736" lon="9.92487924833497"><ele>577.1666666666666</ele><time>2026-03-22T12:41:08Z</time></trkpt><trkpt lat="44.722341638470596" lon="9.924992812220326"><ele>576.0</ele><time>2026-03-22T12:41:10Z</time></trkpt><trkpt lat="44.72227694695183" lon="9.925074014247278"><ele>574.2</ele><time>2026-03-22T12:41:12Z</time></trkpt><trkpt lat="44.72222519504507" lon="9.925135476659786"><ele>572.4000000000001</ele><time>2026-03-22T12:41:13Z</time></trkpt><trkpt lat="44.72217097496536" lon="9.925190031889604"><ele>570.6</ele><time>2026-03-22T12:41:14Z</time></trkpt><trkpt lat="44.722101138750475" lon="9.925326556120416"><ele>568.8000000000001</ele><time>2026-03-22T12:41:16Z</time></trkpt><trkpt lat="44.72213831381919" lon="9.92546624392957"><ele>567.0</ele><time>2026-03-22T12:41:17Z</time></trkpt><trkpt lat="44.722267555561" lon="9.92549524449369"><ele>567.0</ele><time>2026-03-22T12:41:18Z</time></trkpt><trkpt lat="44.722368750574695" lon="9.925433375256834"><ele>567.0</ele><time>2026-03-22T12:41:19Z</time></trkpt><trkpt lat="44.72244000138948" lon="9.925386115767232"><ele>567.0</ele><time>2026-03-22T12:41:20Z</time></trkpt><trkpt lat="44.722537964018656" lon="9.925414790265824"><ele>567.0</ele><time>2026-03-22T12:41:22Z</time></trkpt><trkpt lat="44.72253528593308" lon="9.925576726669393"><ele>567.0</ele><time>2026-03-22T12:41:24Z</time></trkpt><trkpt lat="44.72240758323335" lon="9.925635637529155"><ele>567.0</ele><time>2026-03-22T12:41:25Z</time></trkpt><trkpt lat="44.722346624553694" lon="9.925775202364266"><ele>567.0</ele><time>2026-03-22T12:41:26Z</time></trkpt><trkpt lat="44.722315497667466" lon="9.925907424123432"><ele>567.0</ele><time>2026-03-22T12:41:27Z</time></trkpt><trkpt lat="44.722302249510214" lon="9.925998788559339"><ele>567.0</ele><time>2026-03-22T12:41:28Z</time></trkpt><trkpt lat="44.722300948252865" lon="9.926092546439568"><ele>567.0</ele><time>2026-03-22T12:41:29Z</time></trkpt><trkpt lat="44.722361430953136" lon="9.926210319069675"><ele>565.6666666666666</ele><time>2026-03-22T12:41:30Z</time></trkpt><trkpt lat="44.72242077641559" lon="9.926280490912823"><ele>564.3333333333334</ele><time>2026-03-22T12:41:30.999Z</time></trkpt><trkpt lat="44.722487235485" lon="9.92631539504436"><ele>563.0</ele><time>2026-03-22T12:41:31.999Z</time></trkpt><trkpt lat="44.72255019895139" lon="9.926414578780431"><ele>561.6666666666667</ele><time>2026-03-22T12:41:32.999Z</time></trkpt><trkpt lat="44.722632805766395" lon="9.926503647525543"><ele>560.3333333333334</ele><time>2026-03-22T12:41:33.999Z</time></trkpt><trkpt lat="44.72269278157535" lon="9.926566656200423"><ele>559.0</ele><time>2026-03-22T12:41:34.999Z</time></trkpt><trkpt lat="44.72274002315077" lon="9.92664759122785"><ele>559.0</ele><time>2026-03-22T12:41:36.999Z</time></trkpt><trkpt lat="44.72262921366063" lon="9.92667944929616"><ele>559.0</ele><time>2026-03-22T12:41:37.999Z</time></trkpt><trkpt lat="44.72258614698727" lon="9.926813375086809"><ele>559.0</ele><time>2026-03-22T12:41:38.999Z</time></trkpt><trkpt lat="44.72253456251839" lon="9.926973789036927"><ele>559.0</ele><time>2026-03-22T12:41:39.999Z</time></trkpt><trkpt lat="44.72248906089086" lon="9.927107168119852"><ele>559.0</ele><time>2026-03-22T12:41:40.999Z</time></trkpt><trkpt lat="44.722445858205276" lon="9.92722121374982"><ele>557.6</ele><time>2026-03-22T12:41:41.999Z</time></trkpt><trkpt lat="44.722404588225885" lon="9.927303192649807"><ele>556.2</ele><time>2026-03-22T12:41:42.999Z</time></trkpt><trkpt lat="44.722329062420364" lon="9.927398881381219"><ele>554.8000000000001</ele><time>2026-03-22T12:41:44.999Z</time></trkpt><trkpt lat="44.72237539378738" lon="9.927613852552621"><ele>553.4</ele><time>2026-03-22T12:41:45.999Z</time></trkpt><trkpt lat="44.72238005371913" lon="9.927715981266402"><ele>552.0</ele><time>2026-03-22T12:41:46.999Z</time></trkpt><trkpt lat="44.722371406716825" lon="9.927812199895897"><ele>551.3333333333334</ele><time>2026-03-22T12:41:47.999Z</time></trkpt><trkpt lat="44.72234483536876" lon="9.927893745355197"><ele>550.6666666666666</ele><time>2026-03-22T12:41:48.999Z</time></trkpt><trkpt lat="44.722330079168344" lon="9.928035579784725"><ele>550.0</ele><time>2026-03-22T12:41:50.999Z</time></trkpt><trkpt lat="44.722331453717395" lon="9.928129438195"><ele>549.3333333333333</ele><time>2026-03-22T12:41:51.999Z</time></trkpt><trkpt lat="44.72233725371501" lon="9.928221500231878"><ele>548.6666666666666</ele><time>2026-03-22T12:41:52.999Z</time></trkpt><trkpt lat="44.72233431558052" lon="9.928350699007487"><ele>548.0</ele><time>2026-03-22T12:41:54.999Z</time></trkpt><trkpt lat="44.72236765844864" lon="9.92844776650969"><ele>545.1999999999999</ele><time>2026-03-22T12:41:56.999Z</time></trkpt><trkpt lat="44.72227086326361" lon="9.928553481594424"><ele>542.4</ele><time>2026-03-22T12:41:58.999Z</time></trkpt><trkpt lat="44.72223722102362" lon="9.928664720951572"><ele>539.5999999999999</ele><time>2026-03-22T12:42:00.999Z</time></trkpt><trkpt lat="44.722207646426874" lon="9.928761594307346"><ele>536.8</ele><time>2026-03-22T12:42:02.999Z</time></trkpt><trkpt lat="44.72216553921547" lon="9.928899518592672"><ele>534.0</ele><time>2026-03-22T12:42:04.999Z</time></trkpt><trkpt lat="44.72212497850249" lon="9.92903237725705"><ele>534.0</ele><time>2026-03-22T12:42:06.999Z</time></trkpt><trkpt lat="44.722262135341026" lon="9.929185222846213"><ele>534.0</ele><time>2026-03-22T12:42:07.999Z</time></trkpt><trkpt lat="44.722207268156794" lon="9.929328459033691"><ele>534.0</ele><time>2026-03-22T12:42:09.999Z</time></trkpt><trkpt lat="44.72215940565004" lon="9.92945219706602"><ele>534.0</ele><time>2026-03-22T12:42:11.999Z</time></trkpt><trkpt lat="44.72211234698453" lon="9.929564271202239"><ele>530.0</ele><time>2026-03-22T12:42:13.999Z</time></trkpt><trkpt lat="44.722115843181435" lon="9.92967787552529"><ele>526.0</ele><time>2026-03-22T12:42:15.999Z</time></trkpt><trkpt lat="44.722194030684214" lon="9.929694683580458"><ele>522.0</ele><time>2026-03-22T12:42:17.999Z</time></trkpt><trkpt lat="44.722280055187944" lon="9.929444631633212"><ele>518.0</ele><time>2026-03-22T12:42:20.999Z</time></trkpt><trkpt lat="44.72239068555255" lon="9.92937168032021"><ele>518.0</ele><time>2026-03-22T12:42:21.999Z</time></trkpt><trkpt lat="44.72247294033507" lon="9.929293615686689"><ele>518.0</ele><time>2026-03-22T12:42:22.999Z</time></trkpt><trkpt lat="44.72254672107729" lon="9.92924353392584"><ele>518.0</ele><time>2026-03-22T12:42:23.999Z</time></trkpt><trkpt lat="44.72261215306003" lon="9.92922288873067"><ele>518.0</ele><time>2026-03-22T12:42:24.999Z</time></trkpt><trkpt lat="44.72268207964572" lon="9.929227752100047"><ele>518.0</ele><time>2026-03-22T12:42:25.999Z</time></trkpt><trkpt lat="44.72281896311323" lon="9.929268031232516"><ele>516.5</ele><time>2026-03-22T12:42:27.999Z</time></trkpt><trkpt lat="44.72288750675356" lon="9.929265633354834"><ele>515.0</ele><time>2026-03-22T12:42:28.999Z</time></trkpt><trkpt lat="44.722987552579994" lon="9.929223592802781"><ele>513.5</ele><time>2026-03-22T12:42:30.999Z</time></trkpt><trkpt lat="44.72304661396777" lon="9.929260389022348"><ele>512.0</ele><time>2026-03-22T12:42:31.999Z</time></trkpt><trkpt lat="44.72309966424196" lon="9.929372246826082"><ele>510.49999999999994</ele><time>2026-03-22T12:42:32.999Z</time></trkpt><trkpt lat="44.72311977094727" lon="9.929483437111797"><ele>509.0</ele><time>2026-03-22T12:42:33.999Z</time></trkpt><trkpt lat="44.72314210290121" lon="9.929577017233191"><ele>508.3333333333333</ele><time>2026-03-22T12:42:34.999Z</time></trkpt><trkpt lat="44.7231260599557" lon="9.929711887225608"><ele>507.66666666666663</ele><time>2026-03-22T12:42:35.999Z</time></trkpt><trkpt lat="44.723127775955675" lon="9.929811378315948"><ele>507.0</ele><time>2026-03-22T12:42:36.999Z</time></trkpt><trkpt lat="44.72312741405784" lon="9.929937414100223"><ele>506.33333333333337</ele><time>2026-03-22T12:42:38Z</time></trkpt><trkpt lat="44.72318143366151" lon="9.930031838110098"><ele>505.6666666666667</ele><time>2026-03-22T12:42:39Z</time></trkpt><trkpt lat="44.72322935615046" lon="9.93011274318988"><ele>505.0</ele><time>2026-03-22T12:42:40Z</time></trkpt><trkpt lat="44.723274863163134" lon="9.930193911549786"><ele>504.50000000000006</ele><time>2026-03-22T12:42:41Z</time></trkpt><trkpt lat="44.723310490629935" lon="9.930280593023523"><ele>504.0</ele><time>2026-03-22T12:42:42Z</time></trkpt><trkpt lat="44.72333849524684" lon="9.930405517370842"><ele>503.5</ele><time>2026-03-22T12:42:43Z</time></trkpt><trkpt lat="44.72336380021894" lon="9.930540274264912"><ele>503.0</ele><time>2026-03-22T12:42:44Z</time></trkpt><trkpt lat="44.72340268779305" lon="9.930653862911036"><ele>502.50000000000006</ele><time>2026-03-22T12:42:45Z</time></trkpt><trkpt lat="44.72343324160314" lon="9.93076430594647"><ele>502.0</ele><time>2026-03-22T12:42:46Z</time></trkpt><trkpt lat="44.72347842694449" lon="9.930866649370026"><ele>500.6</ele><time>2026-03-22T12:42:47Z</time></trkpt><trkpt lat="44.72354639984393" lon="9.930982250852399"><ele>499.20000000000005</ele><time>2026-03-22T12:42:48Z</time></trkpt><trkpt lat="44.72361377671215" lon="9.93107423241472"><ele>497.8</ele><time>2026-03-22T12:42:49Z</time></trkpt><trkpt lat="44.723663889853604" lon="9.931171479288603"><ele>496.4</ele><time>2026-03-22T12:42:51Z</time></trkpt><trkpt lat="44.72363485806486" lon="9.931272501055041"><ele>495.0</ele><time>2026-03-22T12:42:53Z</time></trkpt><trkpt lat="44.72352965085811" lon="9.931449816600878"><ele>494.8</ele><time>2026-03-22T12:42:56Z</time></trkpt><trkpt lat="44.72347271811869" lon="9.931587010383524"><ele>494.6</ele><time>2026-03-22T12:42:58Z</time></trkpt><trkpt lat="44.723427645681426" lon="9.931758824211698"><ele>494.4</ele><time>2026-03-22T12:43:00Z</time></trkpt><trkpt lat="44.72340174222725" lon="9.931854226773444"><ele>494.2</ele><time>2026-03-22T12:43:01Z</time></trkpt><trkpt lat="44.723381561711726" lon="9.931981596334683"><ele>494.0</ele><time>2026-03-22T12:43:03Z</time></trkpt><trkpt lat="44.72328293162882" lon="9.932060336963175"><ele>491.2</ele><time>2026-03-22T12:43:05Z</time></trkpt><trkpt lat="44.723212411513344" lon="9.932019238614563"><ele>488.4</ele><time>2026-03-22T12:43:06Z</time></trkpt><trkpt lat="44.72308681773219" lon="9.931886675468114"><ele>485.6</ele><time>2026-03-22T12:43:07Z</time></trkpt><trkpt lat="44.72298931018968" lon="9.931854087296214"><ele>482.8</ele><time>2026-03-22T12:43:08Z</time></trkpt><trkpt lat="44.722895728120925" lon="9.931797942137003"><ele>480.0</ele><time>2026-03-22T12:43:09Z</time></trkpt><trkpt lat="44.722789727862114" lon="9.931744784111507"><ele>479.0</ele><time>2026-03-22T12:43:10Z</time></trkpt><trkpt lat="44.722699882722694" lon="9.93169393188108"><ele>478.0</ele><time>2026-03-22T12:43:11Z</time></trkpt><trkpt lat="44.7226037881757" lon="9.931699613373446"><ele>477.0</ele><time>2026-03-22T12:43:13Z</time></trkpt><trkpt lat="44.72251643186206" lon="9.931741396232145"><ele>476.0</ele><time>2026-03-22T12:43:15Z</time></trkpt><trkpt lat="44.72249298805735" lon="9.931824184137373"><ele>475.0</ele><time>2026-03-22T12:43:16Z</time></trkpt><trkpt lat="44.72248530827726" lon="9.931949888909346"><ele>474.0</ele><time>2026-03-22T12:43:17Z</time></trkpt><trkpt lat="44.722495048311885" lon="9.932077926323048"><ele>474.0</ele><time>2026-03-22T12:43:18Z</time></trkpt><trkpt lat="44.72250682078247" lon="9.932176958409023"><ele>474.0</ele><time>2026-03-22T12:43:19Z</time></trkpt><trkpt lat="44.722502108101246" lon="9.932287915740051"><ele>474.0</ele><time>2026-03-22T12:43:20Z</time></trkpt><trkpt lat="44.722499825473776" lon="9.932407544490832"><ele>474.0</ele><time>2026-03-22T12:43:21Z</time></trkpt><trkpt lat="44.7225089715425" lon="9.932524105629273"><ele>474.0</ele><time>2026-03-22T12:43:22Z</time></trkpt><trkpt lat="44.722517154273206" lon="9.932625936284548"><ele>474.0</ele><time>2026-03-22T12:43:23Z</time></trkpt><trkpt lat="44.72251349869179" lon="9.932743639971635"><ele>471.8333333333333</ele><time>2026-03-22T12:43:24Z</time></trkpt><trkpt lat="44.7225178719428" lon="9.93283974273847"><ele>469.66666666666663</ele><time>2026-03-22T12:43:25Z</time></trkpt><trkpt lat="44.72252519907868" lon="9.932971511189091"><ele>467.5</ele><time>2026-03-22T12:43:26Z</time></trkpt><trkpt lat="44.722530493631204" lon="9.933101289246643"><ele>465.3333333333333</ele><time>2026-03-22T12:43:27Z</time></trkpt><trkpt lat="44.722534853130774" lon="9.933214695702475"><ele>463.16666666666663</ele><time>2026-03-22T12:43:28Z</time></trkpt><trkpt lat="44.722544102433226" lon="9.93331184047711"><ele>461.0</ele><time>2026-03-22T12:43:29Z</time></trkpt><trkpt lat="44.72255001879999" lon="9.933404458953556"><ele>460.16666666666663</ele><time>2026-03-22T12:43:30Z</time></trkpt><trkpt lat="44.722566638820005" lon="9.933512994944111"><ele>459.3333333333333</ele><time>2026-03-22T12:43:31Z</time></trkpt><trkpt lat="44.72257264312196" lon="9.933610048884928"><ele>458.5</ele><time>2026-03-22T12:43:32Z</time></trkpt><trkpt lat="44.72256291861495" lon="9.933716404163414"><ele>457.66666666666663</ele><time>2026-03-22T12:43:32.999Z</time></trkpt><trkpt lat="44.72254187423621" lon="9.933816785228974"><ele>456.8333333333333</ele><time>2026-03-22T12:43:33.999Z</time></trkpt><trkpt lat="44.722519986409054" lon="9.933924234631347"><ele>456.0</ele><time>2026-03-22T12:43:34.999Z</time></trkpt><trkpt lat="44.72248148964479" lon="9.934074338316622"><ele>456.0</ele><time>2026-03-22T12:43:35.999Z</time></trkpt><trkpt lat="44.72245871336248" lon="9.934191048512917"><ele>456.0</ele><time>2026-03-22T12:43:36.999Z</time></trkpt><trkpt lat="44.72243267596126" lon="9.934281164798557"><ele>456.0</ele><time>2026-03-22T12:43:37.999Z</time></trkpt><trkpt lat="44.72240233884271" lon="9.934391189327766"><ele>456.0</ele><time>2026-03-22T12:43:38.999Z</time></trkpt><trkpt lat="44.7223719129871" lon="9.934496293780487"><ele>456.0</ele><time>2026-03-22T12:43:39.999Z</time></trkpt><trkpt lat="44.722341056989954" lon="9.934603153127503"><ele>456.0</ele><time>2026-03-22T12:43:40.999Z</time></trkpt><trkpt lat="44.7223300651609" lon="9.934720756566493"><ele>453.5</ele><time>2026-03-22T12:43:41.999Z</time></trkpt><trkpt lat="44.72227341970303" lon="9.934866983594114"><ele>451.0</ele><time>2026-03-22T12:43:42.999Z</time></trkpt><trkpt lat="44.722268526564335" lon="9.935052725776272"><ele>448.5</ele><time>2026-03-22T12:43:43.999Z</time></trkpt><trkpt lat="44.72226078854756" lon="9.935272174914632"><ele>446.0</ele><time>2026-03-22T12:43:44.999Z</time></trkpt><trkpt lat="44.72225333146241" lon="9.935474738131694"><ele>445.66666666666663</ele><time>2026-03-22T12:43:45.999Z</time></trkpt><trkpt lat="44.72224700036305" lon="9.93564671528867"><ele>445.3333333333333</ele><time>2026-03-22T12:43:46.999Z</time></trkpt><trkpt lat="44.72224243683393" lon="9.935776975435996"><ele>445.0</ele><time>2026-03-22T12:43:47.999Z</time></trkpt><trkpt lat="44.722245902123376" lon="9.935884606535295"><ele>444.66666666666663</ele><time>2026-03-22T12:43:48.999Z</time></trkpt><trkpt lat="44.72225837853705" lon="9.935973484994157"><ele>444.3333333333333</ele><time>2026-03-22T12:43:49.999Z</time></trkpt><trkpt lat="44.72227817117078" lon="9.936072016106154"><ele>444.0</ele><time>2026-03-22T12:43:50.999Z</time></trkpt><trkpt lat="44.722303240409154" lon="9.936153489838643"><ele>444.0</ele><time>2026-03-22T12:43:51.999Z</time></trkpt><trkpt lat="44.722351122705724" lon="9.936264045880042"><ele>444.0</ele><time>2026-03-22T12:43:53.999Z</time></trkpt><trkpt lat="44.72243494536394" lon="9.936349700892192"><ele>444.0</ele><time>2026-03-22T12:43:55.999Z</time></trkpt><trkpt lat="44.722725613575" lon="9.936121176621219"><ele>443.75</ele><time>2026-03-22T12:43:56.999Z</time></trkpt><trkpt lat="44.722860794192016" lon="9.93610477468189"><ele>443.5</ele><time>2026-03-22T12:43:57.999Z</time></trkpt><trkpt lat="44.72300306104989" lon="9.936078492704533"><ele>443.25</ele><time>2026-03-22T12:43:58.999Z</time></trkpt><trkpt lat="44.72311384005462" lon="9.936051475118148"><ele>443.0</ele><time>2026-03-22T12:43:59.999Z</time></trkpt><trkpt lat="44.723209895645375" lon="9.936020831134837"><ele>443.0</ele><time>2026-03-22T12:44:00.999Z</time></trkpt><trkpt lat="44.72330569993652" lon="9.93599588950198"><ele>443.0</ele><time>2026-03-22T12:44:01.999Z</time></trkpt><trkpt lat="44.72342038023909" lon="9.936003795882089"><ele>443.0</ele><time>2026-03-22T12:44:02.999Z</time></trkpt><trkpt lat="44.723553058313" lon="9.936011572364057"><ele>443.0</ele><time>2026-03-22T12:44:03.999Z</time></trkpt><trkpt lat="44.72366713764804" lon="9.936004045258663"><ele>442.2</ele><time>2026-03-22T12:44:04.999Z</time></trkpt><trkpt lat="44.723779656178706" lon="9.935987376435355"><ele>441.4</ele><time>2026-03-22T12:44:05.999Z</time></trkpt><trkpt lat="44.72388657340499" lon="9.935952839891774"><ele>440.59999999999997</ele><time>2026-03-22T12:44:06.999Z</time></trkpt><trkpt lat="44.723985417748146" lon="9.935910535563261"><ele>439.79999999999995</ele><time>2026-03-22T12:44:07.999Z</time></trkpt><trkpt lat="44.72408078772222" lon="9.935894072728946"><ele>439.0</ele><time>2026-03-22T12:44:08.999Z</time></trkpt><trkpt lat="44.724178780710105" lon="9.935931220099805"><ele>439.0</ele><time>2026-03-22T12:44:09.999Z</time></trkpt><trkpt lat="44.72429272625213" lon="9.935993508586696"><ele>439.0</ele><time>2026-03-22T12:44:10.999Z</time></trkpt><trkpt lat="44.724389757668206" lon="9.936041192493295"><ele>439.0</ele><time>2026-03-22T12:44:11.999Z</time></trkpt><trkpt lat="44.72448191398364" lon="9.93603215450728"><ele>439.0</ele><time>2026-03-22T12:44:12.999Z</time></trkpt><trkpt lat="44.72458640229026" lon="9.93597509784127"><ele>439.0</ele><time>2026-03-22T12:44:13.999Z</time></trkpt><trkpt lat="44.724712536255666" lon="9.93589459489837"><ele>438.0</ele><time>2026-03-22T12:44:14.999Z</time></trkpt><trkpt lat="44.72485386905952" lon="9.935815782392345"><ele>437.0</ele><time>2026-03-22T12:44:15.999Z</time></trkpt><trkpt lat="44.72499745489175" lon="9.935728352359101"><ele>436.0</ele><time>2026-03-22T12:44:16.999Z</time></trkpt><trkpt lat="44.72510927178745" lon="9.9356494203067"><ele>435.0</ele><time>2026-03-22T12:44:17.999Z</time></trkpt><trkpt lat="44.72519977034336" lon="9.935575353194478"><ele>434.25</ele><time>2026-03-22T12:44:18.999Z</time></trkpt><trkpt lat="44.72529060042542" lon="9.935488420522367"><ele>433.5</ele><time>2026-03-22T12:44:19.999Z</time></trkpt><trkpt lat="44.72541978474134" lon="9.935381744968698"><ele>432.75</ele><time>2026-03-22T12:44:20.999Z</time></trkpt><trkpt lat="44.72555073417226" lon="9.93527650934125"><ele>432.0</ele><time>2026-03-22T12:44:21.999Z</time></trkpt><trkpt lat="44.7256592492008" lon="9.935193231153747"><ele>432.0</ele><time>2026-03-22T12:44:22.999Z</time></trkpt><trkpt lat="44.725772048878106" lon="9.935143543364845"><ele>432.00000000000006</ele><time>2026-03-22T12:44:23.999Z</time></trkpt><trkpt lat="44.72588451405824" lon="9.93512758116327"><ele>432.00000000000006</ele><time>2026-03-22T12:44:24.999Z</time></trkpt><trkpt lat="44.72599391682578" lon="9.935136527541962"><ele>432.0</ele><time>2026-03-22T12:44:25.999Z</time></trkpt><trkpt lat="44.726094099641884" lon="9.935129112633776"><ele>432.0</ele><time>2026-03-22T12:44:26.999Z</time></trkpt><trkpt lat="44.72619936857093" lon="9.935072415969538"><ele>431.8</ele><time>2026-03-22T12:44:27.999Z</time></trkpt><trkpt lat="44.72630108253415" lon="9.934987282906269"><ele>431.6</ele><time>2026-03-22T12:44:28.999Z</time></trkpt><trkpt lat="44.72638486486952" lon="9.934916337699502"><ele>431.40000000000003</ele><time>2026-03-22T12:44:29.999Z</time></trkpt><trkpt lat="44.726481276411455" lon="9.934881757313455"><ele>431.20000000000005</ele><time>2026-03-22T12:44:30.999Z</time></trkpt><trkpt lat="44.72658618962114" lon="9.934892419214126"><ele>431.0</ele><time>2026-03-22T12:44:31.999Z</time></trkpt><trkpt lat="44.72670293201364" lon="9.934933135682034"><ele>430.99999999999994</ele><time>2026-03-22T12:44:32.999Z</time></trkpt><trkpt lat="44.726804193878294" lon="9.935010585227364"><ele>431.0</ele><time>2026-03-22T12:44:33.999Z</time></trkpt><trkpt lat="44.72689898305107" lon="9.935083428881699"><ele>431.0</ele><time>2026-03-22T12:44:34.999Z</time></trkpt><trkpt lat="44.72698381741928" lon="9.935116744856877"><ele>431.0</ele><time>2026-03-22T12:44:35.999Z</time></trkpt><trkpt lat="44.72705199107263" lon="9.935120997436819"><ele>430.99999999999994</ele><time>2026-03-22T12:44:36.999Z</time></trkpt><trkpt lat="44.7271181899437" lon="9.93511320448263"><ele>431.0</ele><time>2026-03-22T12:44:37.999Z</time></trkpt><trkpt lat="44.72718405533324" lon="9.935132068208791"><ele>431.0</ele><time>2026-03-22T12:44:39.999Z</time></trkpt><trkpt lat="44.72718485351188" lon="9.935228363016977"><ele>431.0</ele><time>2026-03-22T12:44:42.999Z</time></trkpt><trkpt lat="44.72719361851407" lon="9.935391404921669"><ele>431.0</ele><time>2026-03-22T12:44:54Z</time></trkpt><trkpt lat="44.727123045440656" lon="9.935483345037605"><ele>431.0</ele><time>2026-03-22T12:44:55Z</time></trkpt><trkpt lat="44.72712777826111" lon="9.935576755021073"><ele>431.0</ele><time>2026-03-22T12:44:57Z</time></trkpt><trkpt lat="44.72722718890861" lon="9.935653870718378"><ele>431.0</ele><time>2026-03-22T12:45:01Z</time></trkpt><trkpt lat="44.72729367545853" lon="9.9356525733382"><ele>431.0</ele><time>2026-03-22T12:45:02Z</time></trkpt><trkpt lat="44.72736958180934" lon="9.935630932768099"><ele>431.0</ele><time>2026-03-22T12:45:03Z</time></trkpt><trkpt lat="44.727461926850374" lon="9.935588888309846"><ele>431.0</ele><time>2026-03-22T12:45:04Z</time></trkpt><trkpt lat="44.72759229208713" lon="9.935527054379715"><ele>431.0</ele><time>2026-03-22T12:45:05Z</time></trkpt><trkpt lat="44.72772067151301" lon="9.93549147790462"><ele>434.5</ele><time>2026-03-22T12:45:06Z</time></trkpt><trkpt lat="44.727858451757456" lon="9.935437967081342"><ele>438.0</ele><time>2026-03-22T12:45:07Z</time></trkpt><trkpt lat="44.727978147043245" lon="9.935404554342337"><ele>441.5</ele><time>2026-03-22T12:45:08Z</time></trkpt><trkpt lat="44.72808837455016" lon="9.935336137854337"><ele>445.0</ele><time>2026-03-22T12:45:09Z</time></trkpt><trkpt lat="44.72818674368599" lon="9.935253206421127"><ele>445.0</ele><time>2026-03-22T12:45:10Z</time></trkpt><trkpt lat="44.72827493173807" lon="9.93514628905825"><ele>445.0</ele><time>2026-03-22T12:45:11Z</time></trkpt><trkpt lat="44.72835659770651" lon="9.935023397196618"><ele>445.0</ele><time>2026-03-22T12:45:12Z</time></trkpt><trkpt lat="44.7284307109431" lon="9.934880119668781"><ele>445.0</ele><time>2026-03-22T12:45:13Z</time></trkpt><trkpt lat="44.72851106064036" lon="9.934740871329534"><ele>445.0</ele><time>2026-03-22T12:45:14Z</time></trkpt><trkpt lat="44.728591287473094" lon="9.934600149492391"><ele>445.0</ele><time>2026-03-22T12:45:15Z</time></trkpt><trkpt lat="44.72867529582578" lon="9.93445280456827"><ele>445.0</ele><time>2026-03-22T12:45:16Z</time></trkpt><trkpt lat="44.728757243043496" lon="9.934304924298601"><ele>445.0</ele><time>2026-03-22T12:45:17Z</time></trkpt><trkpt lat="44.72884665391647" lon="9.934145936580087"><ele>442.0</ele><time>2026-03-22T12:45:18Z</time></trkpt><trkpt lat="44.72892551006206" lon="9.933994710710541"><ele>439.0</ele><time>2026-03-22T12:45:19Z</time></trkpt><trkpt lat="44.729003695967144" lon="9.933845996494274"><ele>436.0</ele><time>2026-03-22T12:45:20Z</time></trkpt><trkpt lat="44.72907706394324" lon="9.933694816175475"><ele>433.0</ele><time>2026-03-22T12:45:21Z</time></trkpt><trkpt lat="44.72915466103199" lon="9.933554110452835"><ele>433.0</ele><time>2026-03-22T12:45:22Z</time></trkpt><trkpt lat="44.729223871815364" lon="9.933416119317512"><ele>433.0</ele><time>2026-03-22T12:45:23Z</time></trkpt><trkpt lat="44.729300488202185" lon="9.933272524334056"><ele>433.0</ele><time>2026-03-22T12:45:24Z</time></trkpt><trkpt lat="44.72936253872497" lon="9.933135387664255"><ele>433.0</ele><time>2026-03-22T12:45:25Z</time></trkpt><trkpt lat="44.7294605467562" lon="9.932978048617018"><ele>433.0</ele><time>2026-03-22T12:45:26Z</time></trkpt><trkpt lat="44.7295408040385" lon="9.932831933804135"><ele>433.0</ele><time>2026-03-22T12:45:27Z</time></trkpt><trkpt lat="44.72961542378293" lon="9.932680899831215"><ele>433.0</ele><time>2026-03-22T12:45:28Z</time></trkpt><trkpt lat="44.729690895779896" lon="9.932522659200208"><ele>433.0</ele><time>2026-03-22T12:45:29Z</time></trkpt><trkpt lat="44.729781445198746" lon="9.932367485164747"><ele>433.0</ele><time>2026-03-22T12:45:30Z</time></trkpt><trkpt lat="44.7298572664176" lon="9.93221497099336"><ele>433.0</ele><time>2026-03-22T12:45:31Z</time></trkpt><trkpt lat="44.72993450050765" lon="9.93206652283577"><ele>433.0</ele><time>2026-03-22T12:45:32Z</time></trkpt><trkpt lat="44.73001390119599" lon="9.931927318326375"><ele>433.0</ele><time>2026-03-22T12:45:33Z</time></trkpt><trkpt lat="44.73008492810095" lon="9.931788347272338"><ele>432.75</ele><time>2026-03-22T12:45:34Z</time></trkpt><trkpt lat="44.73015354594248" lon="9.931656971428117"><ele>432.5</ele><time>2026-03-22T12:45:35Z</time></trkpt><trkpt lat="44.7302216433447" lon="9.931528158619908"><ele>432.25</ele><time>2026-03-22T12:45:36Z</time></trkpt><trkpt lat="44.730290410858" lon="9.931391806309609"><ele>432.0</ele><time>2026-03-22T12:45:37Z</time></trkpt><trkpt lat="44.730358443513765" lon="9.931248031483959"><ele>432.0</ele><time>2026-03-22T12:45:38Z</time></trkpt><trkpt lat="44.73041968808134" lon="9.93111612800184"><ele>432.00000000000006</ele><time>2026-03-22T12:45:39Z</time></trkpt><trkpt lat="44.7304794905822" lon="9.930988750313125"><ele>432.00000000000006</ele><time>2026-03-22T12:45:40Z</time></trkpt><trkpt lat="44.73052945861631" lon="9.930879785568875"><ele>432.0</ele><time>2026-03-22T12:45:41Z</time></trkpt><trkpt lat="44.730572786466354" lon="9.930777018172291"><ele>432.0</ele><time>2026-03-22T12:45:42Z</time></trkpt><trkpt lat="44.7306119277994" lon="9.930683560302503"><ele>431.3333333333333</ele><time>2026-03-22T12:45:42.999Z</time></trkpt><trkpt lat="44.73064407982883" lon="9.930603138031481"><ele>430.66666666666663</ele><time>2026-03-22T12:45:43.999Z</time></trkpt><trkpt lat="44.73068738095906" lon="9.930506501433454"><ele>430.0</ele><time>2026-03-22T12:45:45.999Z</time></trkpt><trkpt lat="44.73072483439847" lon="9.930416247253408"><ele>429.3333333333333</ele><time>2026-03-22T12:45:47.999Z</time></trkpt><trkpt lat="44.73073798665365" lon="9.93032428072915"><ele>428.66666666666663</ele><time>2026-03-22T12:45:49.999Z</time></trkpt><trkpt lat="44.730592369912436" lon="9.930224982512526"><ele>428.0</ele><time>2026-03-22T12:45:54.999Z</time></trkpt><trkpt lat="44.730562210969666" lon="9.930303704375614"><ele>428.0</ele><time>2026-03-22T12:46:38.999Z</time></trkpt><trkpt lat="44.73063926461018" lon="9.93029105379817"><ele>427.99999999999994</ele><time>2026-03-22T12:59:03.999Z</time></trkpt><trkpt lat="44.730705943860414" lon="9.930358781691586"><ele>427.99999999999994</ele><time>2026-03-22T12:59:28Z</time></trkpt><trkpt lat="44.73071938904947" lon="9.930485142177654"><ele>428.0</ele><time>2026-03-22T12:59:31Z</time></trkpt><trkpt lat="44.730681369292235" lon="9.930560617641573"><ele>428.0</ele><time>2026-03-22T12:59:32Z</time></trkpt><trkpt lat="44.730593640631255" lon="9.930706990536004"><ele>428.0</ele><time>2026-03-22T12:59:34Z</time></trkpt><trkpt lat="44.73054019549312" lon="9.930811667725736"><ele>427.99999999999994</ele><time>2026-03-22T12:59:35Z</time></trkpt><trkpt lat="44.73048268215343" lon="9.930928640595548"><ele>427.99999999999994</ele><time>2026-03-22T12:59:36Z</time></trkpt><trkpt lat="44.73042521987412" lon="9.931052927747592"><ele>428.0</ele><time>2026-03-22T12:59:37Z</time></trkpt><trkpt lat="44.73036706712468" lon="9.931185276390249"><ele>428.0</ele><time>2026-03-22T12:59:38Z</time></trkpt><trkpt lat="44.73024980282229" lon="9.931278669512722"><ele>428.25</ele><time>2026-03-22T12:59:39Z</time></trkpt><trkpt lat="44.730178437840216" lon="9.93141804633611"><ele>428.5</ele><time>2026-03-22T12:59:40Z</time></trkpt><trkpt lat="44.7301098638654" lon="9.93154865355951"><ele>428.75</ele><time>2026-03-22T12:59:41Z</time></trkpt><trkpt lat="44.73003997907179" lon="9.931680752739998"><ele>429.0</ele><time>2026-03-22T12:59:42Z</time></trkpt><trkpt lat="44.72996540674683" lon="9.931820497689376"><ele>430.0</ele><time>2026-03-22T12:59:43Z</time></trkpt><trkpt lat="44.72988493523732" lon="9.931971297472007"><ele>431.0</ele><time>2026-03-22T12:59:44Z</time></trkpt><trkpt lat="44.72980356543402" lon="9.932123780566355"><ele>432.0</ele><time>2026-03-22T12:59:45Z</time></trkpt><trkpt lat="44.72970855355866" lon="9.932301827415396"><ele>433.0</ele><time>2026-03-22T12:59:46Z</time></trkpt><trkpt lat="44.72962127034725" lon="9.932469410715665"><ele>431.6666666666667</ele><time>2026-03-22T12:59:47Z</time></trkpt><trkpt lat="44.729536844210905" lon="9.9326336093469"><ele>430.33333333333337</ele><time>2026-03-22T12:59:48Z</time></trkpt><trkpt lat="44.729444774680374" lon="9.932813257244014"><ele>429.0</ele><time>2026-03-22T12:59:49Z</time></trkpt><trkpt lat="44.72935744343345" lon="9.932983659130667"><ele>429.0</ele><time>2026-03-22T12:59:50Z</time></trkpt><trkpt lat="44.7292594517486" lon="9.933172010240957"><ele>429.0</ele><time>2026-03-22T12:59:51Z</time></trkpt><trkpt lat="44.729165158990234" lon="9.93335376117759"><ele>429.0</ele><time>2026-03-22T12:59:52Z</time></trkpt><trkpt lat="44.72907000091472" lon="9.933539183300958"><ele>430.33333333333337</ele><time>2026-03-22T12:59:53Z</time></trkpt><trkpt lat="44.728971916395246" lon="9.933730952862351"><ele>431.6666666666667</ele><time>2026-03-22T12:59:54Z</time></trkpt><trkpt lat="44.72887225460458" lon="9.933924641765163"><ele>433.0</ele><time>2026-03-22T12:59:55Z</time></trkpt><trkpt lat="44.728773603619565" lon="9.934109304854946"><ele>432.6666666666667</ele><time>2026-03-22T12:59:56Z</time></trkpt><trkpt lat="44.7287063301042" lon="9.934328409814599"><ele>432.33333333333337</ele><time>2026-03-22T12:59:57Z</time></trkpt><trkpt lat="44.72859801636515" lon="9.934517841912413"><ele>432.0</ele><time>2026-03-22T12:59:58Z</time></trkpt><trkpt lat="44.7285007150479" lon="9.934690416771238"><ele>432.0</ele><time>2026-03-22T12:59:59Z</time></trkpt><trkpt lat="44.72841293763523" lon="9.93486635630696"><ele>432.0</ele><time>2026-03-22T13:00:00Z</time></trkpt><trkpt lat="44.728285136940755" lon="9.934971689449474"><ele>432.0</ele><time>2026-03-22T13:00:01Z</time></trkpt><trkpt lat="44.7281873944778" lon="9.935114100920398"><ele>432.0</ele><time>2026-03-22T13:00:02Z</time></trkpt><trkpt lat="44.728088716142814" lon="9.935235796654684"><ele>431.75</ele><time>2026-03-22T13:00:03Z</time></trkpt><trkpt lat="44.72796962286755" lon="9.935335537354678"><ele>431.5</ele><time>2026-03-22T13:00:04Z</time></trkpt><trkpt lat="44.72783820907351" lon="9.935371612936983"><ele>431.25</ele><time>2026-03-22T13:00:05Z</time></trkpt><trkpt lat="44.72770326192145" lon="9.935417568589317"><ele>431.0</ele><time>2026-03-22T13:00:06Z</time></trkpt><trkpt lat="44.72756667246873" lon="9.935463005044625"><ele>431.0</ele><time>2026-03-22T13:00:07Z</time></trkpt><trkpt lat="44.72742282673546" lon="9.935509463289996"><ele>431.0</ele><time>2026-03-22T13:00:08Z</time></trkpt><trkpt lat="44.72727468984108" lon="9.935557307456412"><ele>431.0</ele><time>2026-03-22T13:00:09Z</time></trkpt><trkpt lat="44.727132878938384" lon="9.935603082024333"><ele>431.0</ele><time>2026-03-22T13:00:10Z</time></trkpt><trkpt lat="44.72698890214381" lon="9.93564948305768"><ele>431.25</ele><time>2026-03-22T13:00:11Z</time></trkpt><trkpt lat="44.726839588850524" lon="9.93569760396083"><ele>431.5</ele><time>2026-03-22T13:00:12Z</time></trkpt><trkpt lat="44.726702020567046" lon="9.935741939665638"><ele>431.75</ele><time>2026-03-22T13:00:13Z</time></trkpt><trkpt lat="44.726555977636686" lon="9.935789006560336"><ele>432.0</ele><time>2026-03-22T13:00:14Z</time></trkpt><trkpt lat="44.726412761897976" lon="9.935835773195887"><ele>432.0</ele><time>2026-03-22T13:00:15Z</time></trkpt><trkpt lat="44.72626491263485" lon="9.935882449053064"><ele>432.0</ele><time>2026-03-22T13:00:16Z</time></trkpt><trkpt lat="44.72611637454252" lon="9.935929638593446"><ele>432.0</ele><time>2026-03-22T13:00:17Z</time></trkpt><trkpt lat="44.72597059140471" lon="9.935979338862424"><ele>432.0</ele><time>2026-03-22T13:00:18Z</time></trkpt><trkpt lat="44.7258133899576" lon="9.936029488643614"><ele>432.0</ele><time>2026-03-22T13:00:18.999Z</time></trkpt><trkpt lat="44.7256570295334" lon="9.93607779430778"><ele>432.0</ele><time>2026-03-22T13:00:19.999Z</time></trkpt><trkpt lat="44.72549867344327" lon="9.9361319400793"><ele>432.0</ele><time>2026-03-22T13:00:20.999Z</time></trkpt><trkpt lat="44.72534234717419" lon="9.936201805316566"><ele>432.0</ele><time>2026-03-22T13:00:21.999Z</time></trkpt><trkpt lat="44.725191510765384" lon="9.936283665217172"><ele>432.0</ele><time>2026-03-22T13:00:22.999Z</time></trkpt><trkpt lat="44.7250453462592" lon="9.936375271740054"><ele>433.33333333333337</ele><time>2026-03-22T13:00:23.999Z</time></trkpt><trkpt lat="44.72490089420021" lon="9.93646389165375"><ele>434.6666666666667</ele><time>2026-03-22T13:00:24.999Z</time></trkpt><trkpt lat="44.7247568734692" lon="9.936552420134174"><ele>436.0</ele><time>2026-03-22T13:00:25.999Z</time></trkpt><trkpt lat="44.724631605818225" lon="9.9367046381263"><ele>436.33333333333337</ele><time>2026-03-22T13:00:26.999Z</time></trkpt><trkpt lat="44.72448558767052" lon="9.936791956116041"><ele>436.66666666666663</ele><time>2026-03-22T13:00:27.999Z</time></trkpt><trkpt lat="44.7243405610117" lon="9.936874285570886"><ele>437.0</ele><time>2026-03-22T13:00:28.999Z</time></trkpt><trkpt lat="44.72419378617308" lon="9.936949271295388"><ele>438.66666666666663</ele><time>2026-03-22T13:00:29.999Z</time></trkpt><trkpt lat="44.724034038614825" lon="9.936952530801518"><ele>440.33333333333337</ele><time>2026-03-22T13:00:30.999Z</time></trkpt><trkpt lat="44.72388551099839" lon="9.936993599603207"><ele>442.0</ele><time>2026-03-22T13:00:31.999Z</time></trkpt><trkpt lat="44.72373282544174" lon="9.937022160625501"><ele>442.0</ele><time>2026-03-22T13:00:32.999Z</time></trkpt><trkpt lat="44.72357638378905" lon="9.937045159552993"><ele>442.0</ele><time>2026-03-22T13:00:33.999Z</time></trkpt><trkpt lat="44.72341937255989" lon="9.937068242209298"><ele>442.0</ele><time>2026-03-22T13:00:34.999Z</time></trkpt><trkpt lat="44.723260067693815" lon="9.937091370607906"><ele>444.33333333333337</ele><time>2026-03-22T13:00:35.999Z</time></trkpt><trkpt lat="44.72310121935601" lon="9.937114221879112"><ele>446.66666666666663</ele><time>2026-03-22T13:00:36.999Z</time></trkpt><trkpt lat="44.72294473333068" lon="9.937138041675881"><ele>449.0</ele><time>2026-03-22T13:00:37.999Z</time></trkpt><trkpt lat="44.722789712108565" lon="9.937162053568809"><ele>449.0</ele><time>2026-03-22T13:00:38.999Z</time></trkpt><trkpt lat="44.72263592761706" lon="9.93718592813311"><ele>449.0</ele><time>2026-03-22T13:00:39.999Z</time></trkpt><trkpt lat="44.72248581007685" lon="9.937209233421234"><ele>449.0</ele><time>2026-03-22T13:00:40.999Z</time></trkpt><trkpt lat="44.72235836087209" lon="9.937229019521398"><ele>449.0</ele><time>2026-03-22T13:00:41.999Z</time></trkpt><trkpt lat="44.722241347333714" lon="9.937248400908512"><ele>449.0</ele><time>2026-03-22T13:00:42.999Z</time></trkpt><trkpt lat="44.722138650827546" lon="9.93727293877015"><ele>449.0</ele><time>2026-03-22T13:00:43.999Z</time></trkpt><trkpt lat="44.722048204167265" lon="9.937315740830401"><ele>449.0</ele><time>2026-03-22T13:00:44.999Z</time></trkpt><trkpt lat="44.72198083617702" lon="9.93742105055238"><ele>449.0</ele><time>2026-03-22T13:00:45.999Z</time></trkpt><trkpt lat="44.72196910409134" lon="9.937558428322227"><ele>449.0</ele><time>2026-03-22T13:00:46.999Z</time></trkpt><trkpt lat="44.72198458169256" lon="9.93766869613177"><ele>450.79999999999995</ele><time>2026-03-22T13:00:47.999Z</time></trkpt><trkpt lat="44.72206622606421" lon="9.937748745271698"><ele>452.59999999999997</ele><time>2026-03-22T13:00:48.999Z</time></trkpt><trkpt lat="44.72212740146032" lon="9.937830367883034"><ele>454.4</ele><time>2026-03-22T13:00:49.999Z</time></trkpt><trkpt lat="44.722195237787616" lon="9.937921274559379"><ele>456.2</ele><time>2026-03-22T13:00:50.999Z</time></trkpt><trkpt lat="44.72226761901894" lon="9.938025598831755"><ele>458.0</ele><time>2026-03-22T13:00:51.999Z</time></trkpt><trkpt lat="44.72234380878225" lon="9.938142083462411"><ele>458.0</ele><time>2026-03-22T13:00:52.999Z</time></trkpt><trkpt lat="44.72242985473164" lon="9.938269595497024"><ele>458.0</ele><time>2026-03-22T13:00:53.999Z</time></trkpt><trkpt lat="44.72252476896437" lon="9.938407400700207"><ele>458.0</ele><time>2026-03-22T13:00:54.999Z</time></trkpt><trkpt lat="44.72262798139089" lon="9.938557583432761"><ele>458.0</ele><time>2026-03-22T13:00:55.999Z</time></trkpt><trkpt lat="44.722732250950415" lon="9.938713083537326"><ele>458.0</ele><time>2026-03-22T13:00:56.999Z</time></trkpt><trkpt lat="44.72284483233341" lon="9.938877564361091"><ele>458.0</ele><time>2026-03-22T13:00:57.999Z</time></trkpt><trkpt lat="44.7229626822237" lon="9.939051831836952"><ele>458.0</ele><time>2026-03-22T13:00:58.999Z</time></trkpt><trkpt lat="44.72308509263609" lon="9.93922913426328"><ele>461.3333333333333</ele><time>2026-03-22T13:00:59.999Z</time></trkpt><trkpt lat="44.72320155712755" lon="9.939399068385027"><ele>464.66666666666663</ele><time>2026-03-22T13:01:00.999Z</time></trkpt><trkpt lat="44.72331541566776" lon="9.939562580753469"><ele>468.0</ele><time>2026-03-22T13:01:01.999Z</time></trkpt><trkpt lat="44.72341832024955" lon="9.939708833540443"><ele>468.0</ele><time>2026-03-22T13:01:02.999Z</time></trkpt><trkpt lat="44.723489673326334" lon="9.939860454294854"><ele>467.99999999999994</ele><time>2026-03-22T13:01:03.999Z</time></trkpt><trkpt lat="44.723542939524826" lon="9.939998568722254"><ele>467.99999999999994</ele><time>2026-03-22T13:01:04.999Z</time></trkpt><trkpt lat="44.72355125717303" lon="9.940126059807648"><ele>468.0</ele><time>2026-03-22T13:01:05.999Z</time></trkpt><trkpt lat="44.723511124396616" lon="9.940224757679362"><ele>468.0</ele><time>2026-03-22T13:01:06.999Z</time></trkpt><trkpt lat="44.72345903735166" lon="9.940331847325318"><ele>468.0</ele><time>2026-03-22T13:01:07.999Z</time></trkpt><trkpt lat="44.723383114795155" lon="9.940436014348126"><ele>468.0</ele><time>2026-03-22T13:01:08.999Z</time></trkpt><trkpt lat="44.72328643354189" lon="9.940564384097172"><ele>468.0</ele><time>2026-03-22T13:01:09.999Z</time></trkpt><trkpt lat="44.72318870135161" lon="9.940698557286108"><ele>468.0</ele><time>2026-03-22T13:01:10.999Z</time></trkpt><trkpt lat="44.72309671000452" lon="9.940860149721294"><ele>467.75</ele><time>2026-03-22T13:01:11.999Z</time></trkpt><trkpt lat="44.723025812888515" lon="9.94103546923665"><ele>467.5</ele><time>2026-03-22T13:01:12.999Z</time></trkpt><trkpt lat="44.72298420130174" lon="9.941233684167218"><ele>467.25</ele><time>2026-03-22T13:01:13.999Z</time></trkpt><trkpt lat="44.72295279920171" lon="9.94142289836836"><ele>467.0</ele><time>2026-03-22T13:01:14.999Z</time></trkpt><trkpt lat="44.72291892643604" lon="9.94163550437564"><ele>468.0</ele><time>2026-03-22T13:01:15.999Z</time></trkpt><trkpt lat="44.72288103595575" lon="9.94185310159518"><ele>469.0</ele><time>2026-03-22T13:01:16.999Z</time></trkpt><trkpt lat="44.72283399553819" lon="9.942070692390944"><ele>470.0</ele><time>2026-03-22T13:01:17.999Z</time></trkpt><trkpt lat="44.722788384509975" lon="9.94227525825117"><ele>470.0</ele><time>2026-03-22T13:01:18.999Z</time></trkpt><trkpt lat="44.722742695234636" lon="9.942480175039051"><ele>470.0</ele><time>2026-03-22T13:01:19.999Z</time></trkpt><trkpt lat="44.72269718376717" lon="9.942680511125955"><ele>470.0</ele><time>2026-03-22T13:01:20.999Z</time></trkpt><trkpt lat="44.72265417689093" lon="9.942865308802668"><ele>470.0</ele><time>2026-03-22T13:01:21.999Z</time></trkpt><trkpt lat="44.722615782790655" lon="9.9430451286687"><ele>475.0</ele><time>2026-03-22T13:01:22.999Z</time></trkpt><trkpt lat="44.72257882859184" lon="9.943216723335539"><ele>480.0</ele><time>2026-03-22T13:01:23.999Z</time></trkpt><trkpt lat="44.72254128419475" lon="9.94338768168648"><ele>485.0</ele><time>2026-03-22T13:01:24.999Z</time></trkpt><trkpt lat="44.72250244497201" lon="9.943552469624201"><ele>490.0</ele><time>2026-03-22T13:01:25.999Z</time></trkpt><trkpt lat="44.7224632145509" lon="9.943718574939467"><ele>490.0</ele><time>2026-03-22T13:01:26.999Z</time></trkpt><trkpt lat="44.7224249508722" lon="9.94389017997653"><ele>490.0</ele><time>2026-03-22T13:01:27.999Z</time></trkpt><trkpt lat="44.72238385260348" lon="9.94407668586196"><ele>490.0</ele><time>2026-03-22T13:01:28.999Z</time></trkpt><trkpt lat="44.72234198864188" lon="9.944269054182307"><ele>490.0</ele><time>2026-03-22T13:01:29.999Z</time></trkpt><trkpt lat="44.722297660424246" lon="9.94446036056838"><ele>491.0</ele><time>2026-03-22T13:01:30.999Z</time></trkpt><trkpt lat="44.722248427878185" lon="9.944636362372982"><ele>492.0</ele><time>2026-03-22T13:01:32Z</time></trkpt><trkpt lat="44.722181519504694" lon="9.944784003809257"><ele>493.0</ele><time>2026-03-22T13:01:33Z</time></trkpt><trkpt lat="44.72209985213172" lon="9.944888411434869"><ele>494.0</ele><time>2026-03-22T13:01:34Z</time></trkpt><trkpt lat="44.72199120586652" lon="9.944983289653742"><ele>494.0</ele><time>2026-03-22T13:01:35Z</time></trkpt><trkpt lat="44.72185871044113" lon="9.94507742986308"><ele>494.0</ele><time>2026-03-22T13:01:36Z</time></trkpt><trkpt lat="44.72172931492636" lon="9.945166108973241"><ele>494.0</ele><time>2026-03-22T13:01:37Z</time></trkpt><trkpt lat="44.721618307282206" lon="9.945244083580707"><ele>494.0</ele><time>2026-03-22T13:01:38Z</time></trkpt><trkpt lat="44.72151783706918" lon="9.945320390437205"><ele>494.0</ele><time>2026-03-22T13:01:39Z</time></trkpt><trkpt lat="44.721426830025614" lon="9.945402412229354"><ele>494.0</ele><time>2026-03-22T13:01:40Z</time></trkpt><trkpt lat="44.72135250385027" lon="9.945521521350168"><ele>494.0</ele><time>2026-03-22T13:01:41Z</time></trkpt><trkpt lat="44.721313956325204" lon="9.9456626728457"><ele>494.0</ele><time>2026-03-22T13:01:42Z</time></trkpt><trkpt lat="44.72129641160692" lon="9.945793505257992"><ele>494.0</ele><time>2026-03-22T13:01:43Z</time></trkpt><trkpt lat="44.721314459409456" lon="9.945947270952349"><ele>494.0</ele><time>2026-03-22T13:01:44Z</time></trkpt><trkpt lat="44.72137411808581" lon="9.946085982393036"><ele>494.0</ele><time>2026-03-22T13:01:45Z</time></trkpt><trkpt lat="44.72139828295906" lon="9.9462388476987"><ele>494.0</ele><time>2026-03-22T13:01:46Z</time></trkpt><trkpt lat="44.72143079277467" lon="9.946398501647842"><ele>494.0</ele><time>2026-03-22T13:01:47Z</time></trkpt><trkpt lat="44.72148198149753" lon="9.946559011799517"><ele>494.0</ele><time>2026-03-22T13:01:48Z</time></trkpt><trkpt lat="44.72155327498176" lon="9.946710158923352"><ele>494.0</ele><time>2026-03-22T13:01:49Z</time></trkpt><trkpt lat="44.72161269589365" lon="9.946856771786951"><ele>494.0</ele><time>2026-03-22T13:01:50Z</time></trkpt><trkpt lat="44.72164332729844" lon="9.947025905308358"><ele>494.0</ele><time>2026-03-22T13:01:51Z</time></trkpt><trkpt lat="44.721651264606926" lon="9.94720508334271"><ele>492.5</ele><time>2026-03-22T13:01:52Z</time></trkpt><trkpt lat="44.72166148046315" lon="9.947412813909104"><ele>491.0</ele><time>2026-03-22T13:01:53Z</time></trkpt><trkpt lat="44.721675890019846" lon="9.947628308723495"><ele>489.5</ele><time>2026-03-22T13:01:54Z</time></trkpt><trkpt lat="44.72168650234891" lon="9.947831778748906"><ele>488.0</ele><time>2026-03-22T13:01:55Z</time></trkpt><trkpt lat="44.72170026653984" lon="9.948009300209076"><ele>487.79999999999995</ele><time>2026-03-22T13:01:56Z</time></trkpt><trkpt lat="44.72171869595868" lon="9.948164792907683"><ele>487.59999999999997</ele><time>2026-03-22T13:01:57Z</time></trkpt><trkpt lat="44.72174424417752" lon="9.9483056371872"><ele>487.40000000000003</ele><time>2026-03-22T13:01:58Z</time></trkpt><trkpt lat="44.721780238664614" lon="9.948428321541833"><ele>487.20000000000005</ele><time>2026-03-22T13:01:59Z</time></trkpt><trkpt lat="44.72183499585875" lon="9.948530225888602"><ele>487.0</ele><time>2026-03-22T13:02:00Z</time></trkpt><trkpt lat="44.72189704172916" lon="9.948636498555718"><ele>490.40000000000003</ele><time>2026-03-22T13:02:01Z</time></trkpt><trkpt lat="44.721970735749316" lon="9.94873277904211"><ele>493.80000000000007</ele><time>2026-03-22T13:02:02Z</time></trkpt><trkpt lat="44.722044674959065" lon="9.948843282206743"><ele>497.2</ele><time>2026-03-22T13:02:03Z</time></trkpt><trkpt lat="44.72209193056878" lon="9.948981914191899"><ele>500.6</ele><time>2026-03-22T13:02:04Z</time></trkpt><trkpt lat="44.722131230269426" lon="9.94912530986288"><ele>504.0</ele><time>2026-03-22T13:02:05Z</time></trkpt><trkpt lat="44.722142783818356" lon="9.949280413855409"><ele>504.0</ele><time>2026-03-22T13:02:06Z</time></trkpt><trkpt lat="44.72212052805206" lon="9.949442628317632"><ele>504.0</ele><time>2026-03-22T13:02:07Z</time></trkpt><trkpt lat="44.72208816838123" lon="9.949615228456935"><ele>504.0</ele><time>2026-03-22T13:02:08Z</time></trkpt><trkpt lat="44.722043146275375" lon="9.949790441137809"><ele>504.0</ele><time>2026-03-22T13:02:09Z</time></trkpt><trkpt lat="44.7219836389939" lon="9.94999139080378"><ele>506.25</ele><time>2026-03-22T13:02:10Z</time></trkpt><trkpt lat="44.721910952008685" lon="9.950173772369949"><ele>508.5</ele><time>2026-03-22T13:02:11Z</time></trkpt><trkpt lat="44.721837997610486" lon="9.95031861459754"><ele>510.75</ele><time>2026-03-22T13:02:12Z</time></trkpt><trkpt lat="44.72176436487147" lon="9.950455797447832"><ele>513.0</ele><time>2026-03-22T13:02:13Z</time></trkpt><trkpt lat="44.72170091387437" lon="9.950571719266561"><ele>509.2</ele><time>2026-03-22T13:02:14Z</time></trkpt><trkpt lat="44.72163864005527" lon="9.95068819474426"><ele>505.4</ele><time>2026-03-22T13:02:15Z</time></trkpt><trkpt lat="44.721584193370276" lon="9.950798595767603"><ele>501.59999999999997</ele><time>2026-03-22T13:02:16Z</time></trkpt><trkpt lat="44.72155036495175" lon="9.95088442731387"><ele>497.79999999999995</ele><time>2026-03-22T13:02:17Z</time></trkpt><trkpt lat="44.7215777005029" lon="9.9509992844171"><ele>494.0</ele><time>2026-03-22T13:04:01Z</time></trkpt><trkpt lat="44.72154605699719" lon="9.951179661103785"><ele>494.0</ele><time>2026-03-22T13:04:03Z</time></trkpt><trkpt lat="44.72154316298201" lon="9.951301991508652"><ele>494.0</ele><time>2026-03-22T13:04:04Z</time></trkpt><trkpt lat="44.72153149375212" lon="9.951449533784134"><ele>494.0</ele><time>2026-03-22T13:04:05Z</time></trkpt><trkpt lat="44.72155545067491" lon="9.951614339178176"><ele>494.0</ele><time>2026-03-22T13:04:06Z</time></trkpt><trkpt lat="44.72158442256823" lon="9.951787447336885"><ele>494.0</ele><time>2026-03-22T13:04:07Z</time></trkpt><trkpt lat="44.72162869521049" lon="9.95197122884307"><ele>491.75</ele><time>2026-03-22T13:04:08Z</time></trkpt><trkpt lat="44.721693397755274" lon="9.952129880255939"><ele>489.5</ele><time>2026-03-22T13:04:09Z</time></trkpt><trkpt lat="44.72175443645676" lon="9.952274096692618"><ele>487.25</ele><time>2026-03-22T13:04:10Z</time></trkpt><trkpt lat="44.7218278635396" lon="9.952405342685767"><ele>485.0</ele><time>2026-03-22T13:04:11Z</time></trkpt><trkpt lat="44.72190369420511" lon="9.952537536950052"><ele>483.8</ele><time>2026-03-22T13:04:12Z</time></trkpt><trkpt lat="44.721973273508375" lon="9.952648450027397"><ele>482.6</ele><time>2026-03-22T13:04:13Z</time></trkpt><trkpt lat="44.722046617070234" lon="9.952729762977723"><ele>481.4</ele><time>2026-03-22T13:04:14Z</time></trkpt><trkpt lat="44.72213631349933" lon="9.95277733578145"><ele>480.2</ele><time>2026-03-22T13:04:15Z</time></trkpt><trkpt lat="44.72223498308151" lon="9.952772525808772"><ele>479.0</ele><time>2026-03-22T13:04:16Z</time></trkpt><trkpt lat="44.72234359117462" lon="9.952755507999825"><ele>479.0</ele><time>2026-03-22T13:04:17Z</time></trkpt><trkpt lat="44.722440126291616" lon="9.952718154367771"><ele>479.0</ele><time>2026-03-22T13:04:18Z</time></trkpt><trkpt lat="44.72254885368249" lon="9.9527229301514"><ele>479.0</ele><time>2026-03-22T13:04:19Z</time></trkpt><trkpt lat="44.722656701424526" lon="9.952752295875014"><ele>479.0</ele><time>2026-03-22T13:04:20Z</time></trkpt><trkpt lat="44.72275480433971" lon="9.95281524568934"><ele>479.0</ele><time>2026-03-22T13:04:21Z</time></trkpt><trkpt lat="44.72283364710884" lon="9.952923455783564"><ele>479.5</ele><time>2026-03-22T13:04:22Z</time></trkpt><trkpt lat="44.72289688628507" lon="9.953053642349536"><ele>480.0</ele><time>2026-03-22T13:04:23Z</time></trkpt><trkpt lat="44.72297607718123" lon="9.953204784847285"><ele>480.5</ele><time>2026-03-22T13:04:24Z</time></trkpt><trkpt lat="44.72305886461294" lon="9.95335533589781"><ele>481.0</ele><time>2026-03-22T13:04:24.999Z</time></trkpt><trkpt lat="44.723156966091" lon="9.953495026708113"><ele>481.0</ele><time>2026-03-22T13:04:25.999Z</time></trkpt><trkpt lat="44.72323699064727" lon="9.953618166537838"><ele>481.0</ele><time>2026-03-22T13:04:26.999Z</time></trkpt><trkpt lat="44.72332222273879" lon="9.953712183637892"><ele>481.0</ele><time>2026-03-22T13:04:27.999Z</time></trkpt><trkpt lat="44.72342568490407" lon="9.953796918032568"><ele>481.0</ele><time>2026-03-22T13:04:28.999Z</time></trkpt><trkpt lat="44.723552663838134" lon="9.953843465438151"><ele>485.0</ele><time>2026-03-22T13:04:29.999Z</time></trkpt><trkpt lat="44.723688267887" lon="9.953876102292382"><ele>489.0</ele><time>2026-03-22T13:04:30.999Z</time></trkpt><trkpt lat="44.72382622759961" lon="9.95390732519006"><ele>493.0</ele><time>2026-03-22T13:04:31.999Z</time></trkpt><trkpt lat="44.723967051140335" lon="9.953941892747205"><ele>497.0</ele><time>2026-03-22T13:04:32.999Z</time></trkpt><trkpt lat="44.7241038436566" lon="9.954004892718347"><ele>497.0</ele><time>2026-03-22T13:04:33.999Z</time></trkpt><trkpt lat="44.724226323089724" lon="9.954081395560744"><ele>497.0</ele><time>2026-03-22T13:04:34.999Z</time></trkpt><trkpt lat="44.724338210493315" lon="9.954162837705278"><ele>497.0</ele><time>2026-03-22T13:04:35.999Z</time></trkpt><trkpt lat="44.72444657762492" lon="9.954197317595206"><ele>497.0</ele><time>2026-03-22T13:04:36.999Z</time></trkpt><trkpt lat="44.724563837933935" lon="9.95415309125781"><ele>496.0</ele><time>2026-03-22T13:04:37.999Z</time></trkpt><trkpt lat="44.724693008382594" lon="9.95411385670838"><ele>495.0</ele><time>2026-03-22T13:04:38.999Z</time></trkpt><trkpt lat="44.72482942224025" lon="9.954090876486179"><ele>494.0</ele><time>2026-03-22T13:04:39.999Z</time></trkpt><trkpt lat="44.72496810762248" lon="9.954038191781946"><ele>493.0</ele><time>2026-03-22T13:04:40.999Z</time></trkpt><trkpt lat="44.72509852810759" lon="9.953984478722907"><ele>493.0</ele><time>2026-03-22T13:04:41.999Z</time></trkpt><trkpt lat="44.72523717791673" lon="9.953929634946554"><ele>493.0</ele><time>2026-03-22T13:04:42.999Z</time></trkpt><trkpt lat="44.72538343057545" lon="9.95386552473022"><ele>493.0</ele><time>2026-03-22T13:04:43.999Z</time></trkpt><trkpt lat="44.7255240051434" lon="9.95379961476646"><ele>493.0</ele><time>2026-03-22T13:04:44.999Z</time></trkpt><trkpt lat="44.72566211259429" lon="9.953722134521087"><ele>493.0</ele><time>2026-03-22T13:04:45.999Z</time></trkpt><trkpt lat="44.72579113414368" lon="9.953634622011744"><ele>493.0</ele><time>2026-03-22T13:04:46.999Z</time></trkpt><trkpt lat="44.725912714403805" lon="9.953579017356553"><ele>493.0</ele><time>2026-03-22T13:04:47.999Z</time></trkpt><trkpt lat="44.72601255537276" lon="9.953520510192327"><ele>493.0</ele><time>2026-03-22T13:04:48.999Z</time></trkpt><trkpt lat="44.72612118568344" lon="9.953489463947886"><ele>495.75</ele><time>2026-03-22T13:04:49.999Z</time></trkpt><trkpt lat="44.726242543891715" lon="9.953487695930209"><ele>498.5</ele><time>2026-03-22T13:04:50.999Z</time></trkpt><trkpt lat="44.72637182456212" lon="9.953511733812574"><ele>501.25</ele><time>2026-03-22T13:04:51.999Z</time></trkpt><trkpt lat="44.72650178135347" lon="9.953542991952894"><ele>504.0</ele><time>2026-03-22T13:04:52.999Z</time></trkpt><trkpt lat="44.72662170383474" lon="9.953609323889053"><ele>504.0</ele><time>2026-03-22T13:04:53.999Z</time></trkpt><trkpt lat="44.72672331916596" lon="9.953709650686438"><ele>504.0</ele><time>2026-03-22T13:04:54.999Z</time></trkpt><trkpt lat="44.72678766214734" lon="9.95386086552164"><ele>504.0</ele><time>2026-03-22T13:04:55.999Z</time></trkpt><trkpt lat="44.726836554876805" lon="9.954017202011375"><ele>504.0</ele><time>2026-03-22T13:04:56.999Z</time></trkpt><trkpt lat="44.726873279639754" lon="9.954189941666849"><ele>507.0</ele><time>2026-03-22T13:04:57.999Z</time></trkpt><trkpt lat="44.72689762109098" lon="9.954371950267367"><ele>510.0</ele><time>2026-03-22T13:04:58.999Z</time></trkpt><trkpt lat="44.726922533530214" lon="9.954563061848958"><ele>513.0</ele><time>2026-03-22T13:04:59.999Z</time></trkpt><trkpt lat="44.726937783524995" lon="9.954731981672012"><ele>516.0</ele><time>2026-03-22T13:05:00.999Z</time></trkpt><trkpt lat="44.72692109792712" lon="9.954862993540912"><ele>514.8</ele><time>2026-03-22T13:05:01.999Z</time></trkpt><trkpt lat="44.72687584391958" lon="9.954956537848043"><ele>513.6</ele><time>2026-03-22T13:05:02.999Z</time></trkpt><trkpt lat="44.726804977623544" lon="9.955040953889077"><ele>512.4</ele><time>2026-03-22T13:05:03.999Z</time></trkpt><trkpt lat="44.726700985125134" lon="9.955107096106344"><ele>511.2</ele><time>2026-03-22T13:05:04.999Z</time></trkpt><trkpt lat="44.726580125970656" lon="9.955190112414783"><ele>510.0</ele><time>2026-03-22T13:05:05.999Z</time></trkpt><trkpt lat="44.726481595245055" lon="9.955315011793898"><ele>510.0</ele><time>2026-03-22T13:05:06.999Z</time></trkpt><trkpt lat="44.72640558601857" lon="9.955490283448613"><ele>510.0</ele><time>2026-03-22T13:05:07.999Z</time></trkpt><trkpt lat="44.726336943867516" lon="9.955653250758854"><ele>510.0</ele><time>2026-03-22T13:05:08.999Z</time></trkpt><trkpt lat="44.72627636127194" lon="9.955809979500646"><ele>510.0</ele><time>2026-03-22T13:05:09.999Z</time></trkpt><trkpt lat="44.72624220447906" lon="9.95597456152809"><ele>510.25</ele><time>2026-03-22T13:05:10.999Z</time></trkpt><trkpt lat="44.72623922402991" lon="9.956136263004376"><ele>510.5</ele><time>2026-03-22T13:05:11.999Z</time></trkpt><trkpt lat="44.726269712626525" lon="9.956297032937966"><ele>510.75</ele><time>2026-03-22T13:05:12.999Z</time></trkpt><trkpt lat="44.72637730683481" lon="9.956426455314144"><ele>511.0</ele><time>2026-03-22T13:05:13.999Z</time></trkpt><trkpt lat="44.72639590366682" lon="9.956576532944482"><ele>511.0</ele><time>2026-03-22T13:05:14.999Z</time></trkpt><trkpt lat="44.72637983059272" lon="9.95669910541398"><ele>511.0</ele><time>2026-03-22T13:05:15.999Z</time></trkpt><trkpt lat="44.726333721802156" lon="9.956802227920432"><ele>511.0</ele><time>2026-03-22T13:05:16.999Z</time></trkpt><trkpt lat="44.72626098592013" lon="9.956869413664514"><ele>511.0</ele><time>2026-03-22T13:05:17.999Z</time></trkpt><trkpt lat="44.726156179992806" lon="9.956951914940136"><ele>511.0</ele><time>2026-03-22T13:05:18.999Z</time></trkpt><trkpt lat="44.726026045509" lon="9.95704782181015"><ele>510.0</ele><time>2026-03-22T13:05:19.999Z</time></trkpt><trkpt lat="44.72588240286815" lon="9.957149787114455"><ele>509.0</ele><time>2026-03-22T13:05:20.999Z</time></trkpt><trkpt lat="44.72574218647408" lon="9.95724329035133"><ele>508.0</ele><time>2026-03-22T13:05:21.999Z</time></trkpt><trkpt lat="44.72562104578065" lon="9.957327104428702"><ele>508.0</ele><time>2026-03-22T13:05:22.999Z</time></trkpt><trkpt lat="44.725521857622155" lon="9.957412989452882"><ele>508.0</ele><time>2026-03-22T13:05:23.999Z</time></trkpt><trkpt lat="44.725454753191244" lon="9.95751967626112"><ele>508.0</ele><time>2026-03-22T13:05:24.999Z</time></trkpt><trkpt lat="44.72541451258066" lon="9.957652884109535"><ele>508.0</ele><time>2026-03-22T13:05:25.999Z</time></trkpt><trkpt lat="44.72543795249458" lon="9.957837607580679"><ele>507.5</ele><time>2026-03-22T13:05:26.999Z</time></trkpt><trkpt lat="44.72549315083" lon="9.957974621156888"><ele>507.0</ele><time>2026-03-22T13:05:27.999Z</time></trkpt><trkpt lat="44.72558134625343" lon="9.958094400580446"><ele>506.5</ele><time>2026-03-22T13:05:28.999Z</time></trkpt><trkpt lat="44.725663511142166" lon="9.958222756947887"><ele>506.0</ele><time>2026-03-22T13:05:29.999Z</time></trkpt><trkpt lat="44.7257296331367" lon="9.958386318423914"><ele>503.66666666666663</ele><time>2026-03-22T13:05:30.999Z</time></trkpt><trkpt lat="44.72581427979796" lon="9.958548185848143"><ele>501.33333333333337</ele><time>2026-03-22T13:05:31.999Z</time></trkpt><trkpt lat="44.725901326648945" lon="9.958721942217872"><ele>499.0</ele><time>2026-03-22T13:05:32.999Z</time></trkpt><trkpt lat="44.72599089458944" lon="9.958914520915785"><ele>504.6666666666667</ele><time>2026-03-22T13:05:33.999Z</time></trkpt><trkpt lat="44.72607573523483" lon="9.959122999386484"><ele>510.33333333333337</ele><time>2026-03-22T13:05:34.999Z</time></trkpt><trkpt lat="44.72615822054737" lon="9.959333350444627"><ele>516.0</ele><time>2026-03-22T13:05:35.999Z</time></trkpt><trkpt lat="44.72624231519108" lon="9.959551937637421"><ele>516.0</ele><time>2026-03-22T13:05:36.999Z</time></trkpt><trkpt lat="44.72631810107664" lon="9.959769309617268"><ele>516.0</ele><time>2026-03-22T13:05:37.999Z</time></trkpt><trkpt lat="44.72636728955211" lon="9.95998396700276"><ele>516.0</ele><time>2026-03-22T13:05:38.999Z</time></trkpt><trkpt lat="44.726381101571405" lon="9.960183912230812"><ele>516.3333333333334</ele><time>2026-03-22T13:05:39.999Z</time></trkpt><trkpt lat="44.726377246898615" lon="9.960404692285863"><ele>516.6666666666667</ele><time>2026-03-22T13:05:40.999Z</time></trkpt><trkpt lat="44.72637002756284" lon="9.960627953031851"><ele>517.0</ele><time>2026-03-22T13:05:41.999Z</time></trkpt><trkpt lat="44.72636464798526" lon="9.960836333553214"><ele>516.0</ele><time>2026-03-22T13:05:42.999Z</time></trkpt><trkpt lat="44.7263625536365" lon="9.961025084589279"><ele>515.0</ele><time>2026-03-22T13:05:44Z</time></trkpt><trkpt lat="44.72637577679366" lon="9.961217526796732"><ele>514.0</ele><time>2026-03-22T13:05:45Z</time></trkpt><trkpt lat="44.726406244487656" lon="9.96138581393699"><ele>513.0</ele><time>2026-03-22T13:05:46Z</time></trkpt><trkpt lat="44.72651448151023" lon="9.961518202280386"><ele>513.0</ele><time>2026-03-22T13:05:47Z</time></trkpt><trkpt lat="44.72659769652373" lon="9.961662754635904"><ele>513.0</ele><time>2026-03-22T13:05:48Z</time></trkpt><trkpt lat="44.72667792949781" lon="9.961823769721093"><ele>513.0</ele><time>2026-03-22T13:05:49Z</time></trkpt><trkpt lat="44.726777418091324" lon="9.961988867169334"><ele>513.0</ele><time>2026-03-22T13:05:50Z</time></trkpt><trkpt lat="44.72686460782416" lon="9.962141448490305"><ele>513.0</ele><time>2026-03-22T13:05:51Z</time></trkpt><trkpt lat="44.72692364711925" lon="9.962282298532026"><ele>513.0</ele><time>2026-03-22T13:05:52Z</time></trkpt><trkpt lat="44.72694915296706" lon="9.96242926630032"><ele>513.0</ele><time>2026-03-22T13:05:53Z</time></trkpt><trkpt lat="44.72692003799751" lon="9.962566673250771"><ele>513.0</ele><time>2026-03-22T13:05:54Z</time></trkpt><trkpt lat="44.72688427177438" lon="9.962722788583404"><ele>513.0</ele><time>2026-03-22T13:05:55Z</time></trkpt><trkpt lat="44.72683758005363" lon="9.962891451942165"><ele>513.0</ele><time>2026-03-22T13:05:56Z</time></trkpt><trkpt lat="44.72679191524279" lon="9.963062524676749"><ele>513.0</ele><time>2026-03-22T13:05:57Z</time></trkpt><trkpt lat="44.72675222328973" lon="9.963261614230918"><ele>513.0</ele><time>2026-03-22T13:05:58Z</time></trkpt><trkpt lat="44.72673590540282" lon="9.963450747096022"><ele>513.0</ele><time>2026-03-22T13:05:59Z</time></trkpt><trkpt lat="44.72676190734415" lon="9.963670563469528"><ele>513.0</ele><time>2026-03-22T13:06:00Z</time></trkpt><trkpt lat="44.72678447363491" lon="9.963881665094206"><ele>513.0</ele><time>2026-03-22T13:06:01Z</time></trkpt><trkpt lat="44.72680852160363" lon="9.964106559877614"><ele>513.0</ele><time>2026-03-22T13:06:02Z</time></trkpt><trkpt lat="44.726833171678585" lon="9.964337085520773"><ele>513.5</ele><time>2026-03-22T13:06:03Z</time></trkpt><trkpt lat="44.726854844635476" lon="9.96456601754858"><ele>514.0</ele><time>2026-03-22T13:06:04Z</time></trkpt><trkpt lat="44.72687355552839" lon="9.964768289200435"><ele>514.5</ele><time>2026-03-22T13:06:05Z</time></trkpt><trkpt lat="44.72689107426233" lon="9.964955837820739"><ele>515.0</ele><time>2026-03-22T13:06:06Z</time></trkpt><trkpt lat="44.726913026027404" lon="9.965121309782987"><ele>517.0</ele><time>2026-03-22T13:06:07Z</time></trkpt><trkpt lat="44.726950192047546" lon="9.965264100210788"><ele>519.0</ele><time>2026-03-22T13:06:08Z</time></trkpt><trkpt lat="44.72704233978609" lon="9.965371675037408"><ele>521.0</ele><time>2026-03-22T13:06:09Z</time></trkpt><trkpt lat="44.72712727047511" lon="9.965469790281041"><ele>523.0</ele><time>2026-03-22T13:06:10Z</time></trkpt><trkpt lat="44.727222510094286" lon="9.965546367125565"><ele>525.0</ele><time>2026-03-22T13:06:11Z</time></trkpt><trkpt lat="44.72731491768689" lon="9.965611105590023"><ele>525.0</ele><time>2026-03-22T13:06:12Z</time></trkpt><trkpt lat="44.7274125119931" lon="9.965684605978561"><ele>525.0</ele><time>2026-03-22T13:06:13Z</time></trkpt><trkpt lat="44.72750847366101" lon="9.965762391427731"><ele>525.0</ele><time>2026-03-22T13:06:14Z</time></trkpt><trkpt lat="44.72761272937991" lon="9.965847632775485"><ele>525.0</ele><time>2026-03-22T13:06:15Z</time></trkpt><trkpt lat="44.727721766030406" lon="9.965939031659598"><ele>527.5</ele><time>2026-03-22T13:06:16Z</time></trkpt><trkpt lat="44.727807556413644" lon="9.966063738929611"><ele>530.0</ele><time>2026-03-22T13:06:17Z</time></trkpt><trkpt lat="44.727882622807236" lon="9.966187766846648"><ele>532.5</ele><time>2026-03-22T13:06:18Z</time></trkpt><trkpt lat="44.72794872206115" lon="9.966327473716644"><ele>535.0</ele><time>2026-03-22T13:06:19Z</time></trkpt><trkpt lat="44.72801316647452" lon="9.966468575021386"><ele>535.0</ele><time>2026-03-22T13:06:20Z</time></trkpt><trkpt lat="44.72807966639366" lon="9.966611700930649"><ele>535.0</ele><time>2026-03-22T13:06:21Z</time></trkpt><trkpt lat="44.72815089318529" lon="9.966763257082103"><ele>535.0</ele><time>2026-03-22T13:06:22Z</time></trkpt><trkpt lat="44.72823645780456" lon="9.966945321243571"><ele>535.0</ele><time>2026-03-22T13:06:23Z</time></trkpt><trkpt lat="44.72832688137434" lon="9.967125738984825"><ele>533.3333333333334</ele><time>2026-03-22T13:06:24Z</time></trkpt><trkpt lat="44.72841580230388" lon="9.967311733724195"><ele>531.6666666666666</ele><time>2026-03-22T13:06:25Z</time></trkpt><trkpt lat="44.72848201973658" lon="9.967500722559153"><ele>530.0</ele><time>2026-03-22T13:06:26Z</time></trkpt><trkpt lat="44.72852291577183" lon="9.967701841608573"><ele>529.6666666666666</ele><time>2026-03-22T13:06:26.999Z</time></trkpt><trkpt lat="44.72855074243773" lon="9.967901013368957"><ele>529.3333333333334</ele><time>2026-03-22T13:06:27.999Z</time></trkpt><trkpt lat="44.72857677149855" lon="9.968118058497568"><ele>529.0</ele><time>2026-03-22T13:06:28.999Z</time></trkpt><trkpt lat="44.728599358335906" lon="9.968326744032897"><ele>531.0</ele><time>2026-03-22T13:06:29.999Z</time></trkpt><trkpt lat="44.72856774078337" lon="9.968494186384182"><ele>533.0</ele><time>2026-03-22T13:06:30.999Z</time></trkpt><trkpt lat="44.728521397848596" lon="9.968644507456693"><ele>535.0</ele><time>2026-03-22T13:06:31.999Z</time></trkpt><trkpt lat="44.72846788552564" lon="9.96881188364929"><ele>537.0</ele><time>2026-03-22T13:06:32.999Z</time></trkpt><trkpt lat="44.72840714568046" lon="9.968996534809367"><ele>537.0</ele><time>2026-03-22T13:06:33.999Z</time></trkpt><trkpt lat="44.72834836799144" lon="9.969171806415696"><ele>537.0</ele><time>2026-03-22T13:06:34.999Z</time></trkpt><trkpt lat="44.72830769144952" lon="9.969326276189673"><ele>537.0</ele><time>2026-03-22T13:06:35.999Z</time></trkpt><trkpt lat="44.728306553718085" lon="9.969497081177702"><ele>537.0</ele><time>2026-03-22T13:06:36.999Z</time></trkpt><trkpt lat="44.72835882195488" lon="9.96965493261378"><ele>536.75</ele><time>2026-03-22T13:06:37.999Z</time></trkpt><trkpt lat="44.728434533488254" lon="9.969761968038569"><ele>536.5</ele><time>2026-03-22T13:06:38.999Z</time></trkpt><trkpt lat="44.72851354096197" lon="9.969870308759779"><ele>536.25</ele><time>2026-03-22T13:06:39.999Z</time></trkpt><trkpt lat="44.72861021685896" lon="9.969968270430067"><ele>536.0</ele><time>2026-03-22T13:06:40.999Z</time></trkpt><trkpt lat="44.7287105655804" lon="9.970074750255858"><ele>538.25</ele><time>2026-03-22T13:06:41.999Z</time></trkpt><trkpt lat="44.72881099052399" lon="9.970192645372151"><ele>540.5</ele><time>2026-03-22T13:06:42.999Z</time></trkpt><trkpt lat="44.72886783787797" lon="9.970344840098122"><ele>542.75</ele><time>2026-03-22T13:06:43.999Z</time></trkpt><trkpt lat="44.72888432906748" lon="9.970508907414342"><ele>545.0</ele><time>2026-03-22T13:06:44.999Z</time></trkpt><trkpt lat="44.72893527964577" lon="9.970677518254627"><ele>545.0</ele><time>2026-03-22T13:06:45.999Z</time></trkpt><trkpt lat="44.72901561291863" lon="9.970801666223371"><ele>545.0</ele><time>2026-03-22T13:06:46.999Z</time></trkpt><trkpt lat="44.729087621251345" lon="9.970908558664469"><ele>545.0</ele><time>2026-03-22T13:06:47.999Z</time></trkpt><trkpt lat="44.72919021528802" lon="9.971000587100956"><ele>545.0</ele><time>2026-03-22T13:06:48.999Z</time></trkpt><trkpt lat="44.729322099412315" lon="9.97107886720671"><ele>544.6</ele><time>2026-03-22T13:06:49.999Z</time></trkpt><trkpt lat="44.72944662710105" lon="9.971152916641136"><ele>544.2</ele><time>2026-03-22T13:06:50.999Z</time></trkpt><trkpt lat="44.72954694493453" lon="9.971223355368362"><ele>543.8</ele><time>2026-03-22T13:06:51.999Z</time></trkpt><trkpt lat="44.729629631857534" lon="9.971305961559267"><ele>543.4</ele><time>2026-03-22T13:06:52.999Z</time></trkpt><trkpt lat="44.7296772679795" lon="9.971427636059255"><ele>543.0</ele><time>2026-03-22T13:06:53.999Z</time></trkpt><trkpt lat="44.72968242674447" lon="9.971573241620662"><ele>540.0</ele><time>2026-03-22T13:06:54.999Z</time></trkpt><trkpt lat="44.72967467098728" lon="9.97172020536696"><ele>537.0</ele><time>2026-03-22T13:06:55.999Z</time></trkpt><trkpt lat="44.729649395486895" lon="9.971866545358937"><ele>534.0</ele><time>2026-03-22T13:06:56.999Z</time></trkpt><trkpt lat="44.72962889450567" lon="9.972036247912014"><ele>531.0</ele><time>2026-03-22T13:06:57.999Z</time></trkpt><trkpt lat="44.72960590592786" lon="9.97220806068165"><ele>531.0</ele><time>2026-03-22T13:06:58.999Z</time></trkpt><trkpt lat="44.72957434098236" lon="9.972374293586402"><ele>531.0</ele><time>2026-03-22T13:06:59.999Z</time></trkpt><trkpt lat="44.72953130015612" lon="9.97254745291442"><ele>531.0</ele><time>2026-03-22T13:07:00.999Z</time></trkpt><trkpt lat="44.72948037731119" lon="9.972720205692667"><ele>531.0</ele><time>2026-03-22T13:07:01.999Z</time></trkpt><trkpt lat="44.7294264568367" lon="9.97289152690143"><ele>531.0</ele><time>2026-03-22T13:07:02.999Z</time></trkpt><trkpt lat="44.72937093940145" lon="9.973054956605017"><ele>531.0</ele><time>2026-03-22T13:07:03.999Z</time></trkpt><trkpt lat="44.72930747553355" lon="9.973193356027274"><ele>531.0</ele><time>2026-03-22T13:07:04.999Z</time></trkpt><trkpt lat="44.729223245589026" lon="9.973306629665782"><ele>531.0</ele><time>2026-03-22T13:07:05.999Z</time></trkpt><trkpt lat="44.7291200128412" lon="9.973408869062228"><ele>530.5</ele><time>2026-03-22T13:07:06.999Z</time></trkpt><trkpt lat="44.729025725978445" lon="9.973505304107354"><ele>530.0</ele><time>2026-03-22T13:07:07.999Z</time></trkpt><trkpt lat="44.72896264986032" lon="9.97359618038946"><ele>529.5</ele><time>2026-03-22T13:07:08.999Z</time></trkpt><trkpt lat="44.728915228166436" lon="9.9737269955129"><ele>529.0</ele><time>2026-03-22T13:07:09.999Z</time></trkpt><trkpt lat="44.7289184965588" lon="9.973939996596188"><ele>529.0</ele><time>2026-03-22T13:07:10.999Z</time></trkpt><trkpt lat="44.728918140223406" lon="9.9741101166021"><ele>529.0</ele><time>2026-03-22T13:07:11.999Z</time></trkpt><trkpt lat="44.728897652330126" lon="9.974267230342146"><ele>529.0</ele><time>2026-03-22T13:07:12.999Z</time></trkpt><trkpt lat="44.728841289676886" lon="9.974411450320536"><ele>529.0</ele><time>2026-03-22T13:07:13.999Z</time></trkpt><trkpt lat="44.728758457593145" lon="9.974522308381752"><ele>528.3333333333334</ele><time>2026-03-22T13:07:14.999Z</time></trkpt><trkpt lat="44.72863697059026" lon="9.974683315236758"><ele>527.6666666666666</ele><time>2026-03-22T13:07:15.999Z</time></trkpt><trkpt lat="44.7285420317737" lon="9.974858523897355"><ele>527.0</ele><time>2026-03-22T13:07:16.999Z</time></trkpt><trkpt lat="44.72847181554813" lon="9.975025231738671"><ele>527.0</ele><time>2026-03-22T13:07:17.999Z</time></trkpt><trkpt lat="44.728407961873884" lon="9.975199595796402"><ele>527.0</ele><time>2026-03-22T13:07:18.999Z</time></trkpt><trkpt lat="44.72834444693026" lon="9.9754020910445"><ele>527.0</ele><time>2026-03-22T13:07:19.999Z</time></trkpt><trkpt lat="44.72828947902729" lon="9.975621213670376"><ele>527.0</ele><time>2026-03-22T13:07:20.999Z</time></trkpt><trkpt lat="44.72825773944272" lon="9.975846289435015"><ele>527.0</ele><time>2026-03-22T13:07:21.999Z</time></trkpt><trkpt lat="44.72823386629915" lon="9.976073947662078"><ele>527.0</ele><time>2026-03-22T13:07:22.999Z</time></trkpt><trkpt lat="44.7282205605853" lon="9.976279515057286"><ele>525.75</ele><time>2026-03-22T13:07:23.999Z</time></trkpt><trkpt lat="44.72822974513849" lon="9.976461657559373"><ele>524.5</ele><time>2026-03-22T13:07:24.999Z</time></trkpt><trkpt lat="44.72828106825149" lon="9.976621348506857"><ele>523.25</ele><time>2026-03-22T13:07:25.999Z</time></trkpt><trkpt lat="44.72832657199703" lon="9.976782131281798"><ele>522.0</ele><time>2026-03-22T13:07:26.999Z</time></trkpt><trkpt lat="44.72835809256187" lon="9.97690686526258"><ele>520.6</ele><time>2026-03-22T13:07:27.999Z</time></trkpt><trkpt lat="44.7283658005427" lon="9.977034720746877"><ele>519.2</ele><time>2026-03-22T13:07:28.999Z</time></trkpt><trkpt lat="44.72834486853871" lon="9.977135833380176"><ele>517.8</ele><time>2026-03-22T13:07:29.999Z</time></trkpt><trkpt lat="44.7282884637329" lon="9.977227790937917"><ele>516.4</ele><time>2026-03-22T13:07:30.999Z</time></trkpt><trkpt lat="44.72821319025978" lon="9.977301137327522"><ele>515.0</ele><time>2026-03-22T13:07:31.999Z</time></trkpt><trkpt lat="44.72810157197834" lon="9.977369886777808"><ele>515.0</ele><time>2026-03-22T13:07:32.999Z</time></trkpt><trkpt lat="44.72796692158707" lon="9.977449697209744"><ele>515.0</ele><time>2026-03-22T13:07:33.999Z</time></trkpt><trkpt lat="44.72785856404477" lon="9.977514686879944"><ele>515.0</ele><time>2026-03-22T13:07:34.999Z</time></trkpt><trkpt lat="44.72776030730538" lon="9.977563156300429"><ele>515.0</ele><time>2026-03-22T13:07:35.999Z</time></trkpt><trkpt lat="44.72766767640112" lon="9.97758991264395"><ele>514.0</ele><time>2026-03-22T13:07:36.999Z</time></trkpt><trkpt lat="44.727568037339545" lon="9.97756459234849"><ele>513.0</ele><time>2026-03-22T13:07:37.999Z</time></trkpt><trkpt lat="44.727465783267434" lon="9.977473073921582"><ele>512.0</ele><time>2026-03-22T13:07:38.999Z</time></trkpt><trkpt lat="44.727347750217895" lon="9.977363293696117"><ele>511.0</ele><time>2026-03-22T13:07:39.999Z</time></trkpt><trkpt lat="44.72723568853129" lon="9.977302710467034"><ele>511.0</ele><time>2026-03-22T13:07:40.999Z</time></trkpt><trkpt lat="44.72713724247686" lon="9.977251374022218"><ele>511.0</ele><time>2026-03-22T13:07:41.999Z</time></trkpt><trkpt lat="44.72703075035786" lon="9.977193722096667"><ele>511.0</ele><time>2026-03-22T13:07:42.999Z</time></trkpt><trkpt lat="44.72690172893146" lon="9.9771646673174"><ele>511.0</ele><time>2026-03-22T13:07:43.999Z</time></trkpt><trkpt lat="44.726755694290176" lon="9.977132795655304"><ele>508.75</ele><time>2026-03-22T13:07:44.999Z</time></trkpt><trkpt lat="44.72661189375365" lon="9.977115298000175"><ele>506.5</ele><time>2026-03-22T13:07:45.999Z</time></trkpt><trkpt lat="44.726486302707606" lon="9.977118180491365"><ele>504.25</ele><time>2026-03-22T13:07:46.999Z</time></trkpt><trkpt lat="44.72636506450419" lon="9.977135598685823"><ele>502.0</ele><time>2026-03-22T13:07:47.999Z</time></trkpt><trkpt lat="44.72626415729493" lon="9.97715302003582"><ele>502.0</ele><time>2026-03-22T13:07:48.999Z</time></trkpt><trkpt lat="44.72616608667994" lon="9.977163215513135"><ele>502.0</ele><time>2026-03-22T13:07:50Z</time></trkpt><trkpt lat="44.7260712152907" lon="9.977158227160439"><ele>502.0</ele><time>2026-03-22T13:07:51Z</time></trkpt><trkpt lat="44.72595318368142" lon="9.97711323356916"><ele>502.0</ele><time>2026-03-22T13:07:52Z</time></trkpt><trkpt lat="44.725821059780145" lon="9.97699405477714"><ele>501.75</ele><time>2026-03-22T13:07:53Z</time></trkpt><trkpt lat="44.72571276801448" lon="9.976886571183638"><ele>501.5</ele><time>2026-03-22T13:07:54Z</time></trkpt><trkpt lat="44.72562401535825" lon="9.976773723704044"><ele>501.25</ele><time>2026-03-22T13:07:55Z</time></trkpt><trkpt lat="44.725537488575924" lon="9.97668703591341"><ele>501.0</ele><time>2026-03-22T13:07:56Z</time></trkpt><trkpt lat="44.72545466655231" lon="9.976619350380854"><ele>501.0</ele><time>2026-03-22T13:07:57Z</time></trkpt><trkpt lat="44.72538144785245" lon="9.976553397408127"><ele>501.0</ele><time>2026-03-22T13:07:58Z</time></trkpt><trkpt lat="44.725302175062716" lon="9.976537670908327"><ele>501.0</ele><time>2026-03-22T13:07:59Z</time></trkpt><trkpt lat="44.72521807061212" lon="9.97656318868617"><ele>501.0</ele><time>2026-03-22T13:08:00Z</time></trkpt><trkpt lat="44.725144878940945" lon="9.976634029319055"><ele>501.0</ele><time>2026-03-22T13:08:01Z</time></trkpt><trkpt lat="44.72508853550466" lon="9.976713722828375"><ele>501.0</ele><time>2026-03-22T13:08:02Z</time></trkpt><trkpt lat="44.72506572536783" lon="9.976869748930849"><ele>498.4</ele><time>2026-03-22T13:08:03Z</time></trkpt><trkpt lat="44.72504640597451" lon="9.976979645131596"><ele>495.8</ele><time>2026-03-22T13:08:04Z</time></trkpt><trkpt lat="44.72502486505302" lon="9.977092190397999"><ele>493.19999999999993</ele><time>2026-03-22T13:08:05Z</time></trkpt><trkpt lat="44.72499994095915" lon="9.977222411791729"><ele>490.59999999999997</ele><time>2026-03-22T13:08:06Z</time></trkpt><trkpt lat="44.72496927027404" lon="9.977390560264434"><ele>488.0</ele><time>2026-03-22T13:08:07Z</time></trkpt><trkpt lat="44.72493192568565" lon="9.977596131422196"><ele>487.5</ele><time>2026-03-22T13:08:08Z</time></trkpt><trkpt lat="44.7248916025622" lon="9.97779207861171"><ele>487.0</ele><time>2026-03-22T13:08:09Z</time></trkpt><trkpt lat="44.72484339875668" lon="9.977954275098769"><ele>486.5</ele><time>2026-03-22T13:08:10Z</time></trkpt><trkpt lat="44.72478514331819" lon="9.978082791960054"><ele>486.0</ele><time>2026-03-22T13:08:11Z</time></trkpt><trkpt lat="44.724719242226755" lon="9.978193403547662"><ele>486.0</ele><time>2026-03-22T13:08:12Z</time></trkpt><trkpt lat="44.72463333935736" lon="9.978306071777915"><ele>486.0</ele><time>2026-03-22T13:08:13Z</time></trkpt><trkpt lat="44.72452540292939" lon="9.978434258710928"><ele>486.0</ele><time>2026-03-22T13:08:14Z</time></trkpt><trkpt lat="44.72440304580462" lon="9.978574659036283"><ele>486.0</ele><time>2026-03-22T13:08:15Z</time></trkpt><trkpt lat="44.72427309868682" lon="9.978726200541493"><ele>483.75</ele><time>2026-03-22T13:08:16Z</time></trkpt><trkpt lat="44.72415216673659" lon="9.978881941716853"><ele>481.5</ele><time>2026-03-22T13:08:17Z</time></trkpt><trkpt lat="44.72405690653894" lon="9.979016928745281"><ele>479.25</ele><time>2026-03-22T13:08:18Z</time></trkpt><trkpt lat="44.72398095810281" lon="9.979127086511431"><ele>477.0</ele><time>2026-03-22T13:08:19Z</time></trkpt><trkpt lat="44.723920512198305" lon="9.979216301496965"><ele>475.75</ele><time>2026-03-22T13:08:20Z</time></trkpt><trkpt lat="44.723850601717885" lon="9.97931936784106"><ele>474.5</ele><time>2026-03-22T13:08:22Z</time></trkpt><trkpt lat="44.72399306082412" lon="9.979570301631465"><ele>473.25</ele><time>2026-03-22T13:08:24Z</time></trkpt><trkpt lat="44.7240668819762" lon="9.979675943341908"><ele>472.0</ele><time>2026-03-22T13:08:25Z</time></trkpt><trkpt lat="44.72414964753767" lon="9.97982545966253"><ele>472.0</ele><time>2026-03-22T13:08:26Z</time></trkpt><trkpt lat="44.72423660941046" lon="9.980006655998986"><ele>472.0</ele><time>2026-03-22T13:08:27Z</time></trkpt><trkpt lat="44.72432088460918" lon="9.980190217829445"><ele>472.0</ele><time>2026-03-22T13:08:28Z</time></trkpt><trkpt lat="44.7244131740961" lon="9.980370541340923"><ele>471.33333333333337</ele><time>2026-03-22T13:08:29Z</time></trkpt><trkpt lat="44.72451475855162" lon="9.980553008777498"><ele>470.66666666666663</ele><time>2026-03-22T13:08:30Z</time></trkpt><trkpt lat="44.72461766869479" lon="9.980746230676152"><ele>470.0</ele><time>2026-03-22T13:08:31Z</time></trkpt><trkpt lat="44.72472321136932" lon="9.980935618825821"><ele>468.5</ele><time>2026-03-22T13:08:32Z</time></trkpt><trkpt lat="44.72481624033522" lon="9.981102909229"><ele>467.0</ele><time>2026-03-22T13:08:33Z</time></trkpt><trkpt lat="44.72490545674516" lon="9.981244360950122"><ele>465.5</ele><time>2026-03-22T13:08:34Z</time></trkpt><trkpt lat="44.724988718126724" lon="9.98138945208679"><ele>464.0</ele><time>2026-03-22T13:08:35Z</time></trkpt><trkpt lat="44.72506172508095" lon="9.981531165886025"><ele>464.0</ele><time>2026-03-22T13:08:36Z</time></trkpt><trkpt lat="44.725115687437174" lon="9.981645209448438"><ele>464.0</ele><time>2026-03-22T13:08:37Z</time></trkpt><trkpt lat="44.725142346890706" lon="9.981726092462376"><ele>464.0</ele><time>2026-03-22T13:08:38Z</time></trkpt><trkpt lat="44.72513961041452" lon="9.981825647346595"><ele>464.0</ele><time>2026-03-22T13:08:39Z</time></trkpt><trkpt lat="44.72511735129103" lon="9.981957723086897"><ele>464.0</ele><time>2026-03-22T13:08:40Z</time></trkpt><trkpt lat="44.725068738087934" lon="9.9821424434281"><ele>462.75</ele><time>2026-03-22T13:08:41Z</time></trkpt><trkpt lat="44.725017828032165" lon="9.982320662616184"><ele>461.5</ele><time>2026-03-22T13:08:42Z</time></trkpt><trkpt lat="44.72499088756948" lon="9.982487940176586"><ele>460.25</ele><time>2026-03-22T13:08:43Z</time></trkpt><trkpt lat="44.72496128233107" lon="9.982638709686885"><ele>459.0</ele><time>2026-03-22T13:08:44Z</time></trkpt><trkpt lat="44.72493419981407" lon="9.982772508764027"><ele>458.2</ele><time>2026-03-22T13:08:44.999Z</time></trkpt><trkpt lat="44.724926659177335" lon="9.982904735563375"><ele>457.4</ele><time>2026-03-22T13:08:45.999Z</time></trkpt><trkpt lat="44.724945959712066" lon="9.983061770873583"><ele>456.6</ele><time>2026-03-22T13:08:46.999Z</time></trkpt><trkpt lat="44.72498018458931" lon="9.98324489824847"><ele>455.8</ele><time>2026-03-22T13:08:47.999Z</time></trkpt><trkpt lat="44.725011132246074" lon="9.983387781331043"><ele>455.0</ele><time>2026-03-22T13:08:48.999Z</time></trkpt><trkpt lat="44.72506561388148" lon="9.98351243372015"><ele>453.75</ele><time>2026-03-22T13:08:49.999Z</time></trkpt><trkpt lat="44.72515922109738" lon="9.983652974297765"><ele>452.5</ele><time>2026-03-22T13:08:50.999Z</time></trkpt><trkpt lat="44.72526766051138" lon="9.983799367093356"><ele>451.25</ele><time>2026-03-22T13:08:51.999Z</time></trkpt><trkpt lat="44.72536079136471" lon="9.983928303925664"><ele>450.0</ele><time>2026-03-22T13:08:52.999Z</time></trkpt><trkpt lat="44.72543035093352" lon="9.984043152831154"><ele>450.0</ele><time>2026-03-22T13:08:53.999Z</time></trkpt><trkpt lat="44.72547064540993" lon="9.984144156665439"><ele>450.0</ele><time>2026-03-22T13:08:54.999Z</time></trkpt><trkpt lat="44.72550266098354" lon="9.98426374810016"><ele>450.0</ele><time>2026-03-22T13:08:55.999Z</time></trkpt><trkpt lat="44.72552079794714" lon="9.984399871004598"><ele>450.0</ele><time>2026-03-22T13:08:56.999Z</time></trkpt><trkpt lat="44.72551832589451" lon="9.984517063574296"><ele>450.0</ele><time>2026-03-22T13:08:57.999Z</time></trkpt><trkpt lat="44.725486333428535" lon="9.984635527773138"><ele>450.0</ele><time>2026-03-22T13:08:58.999Z</time></trkpt><trkpt lat="44.72543001726808" lon="9.984755181927321"><ele>450.0</ele><time>2026-03-22T13:08:59.999Z</time></trkpt><trkpt lat="44.72537013877151" lon="9.984850577239"><ele>450.0</ele><time>2026-03-22T13:09:00.999Z</time></trkpt><trkpt lat="44.72532469444419" lon="9.984946753242667"><ele>450.0</ele><time>2026-03-22T13:09:01.999Z</time></trkpt><trkpt lat="44.725300043160054" lon="9.985049188745538"><ele>450.0</ele><time>2026-03-22T13:09:02.999Z</time></trkpt><trkpt lat="44.7252858996812" lon="9.98514212388987"><ele>450.0</ele><time>2026-03-22T13:09:03.999Z</time></trkpt><trkpt lat="44.725278577447774" lon="9.985267076508778"><ele>450.0</ele><time>2026-03-22T13:09:04.999Z</time></trkpt><trkpt lat="44.72527314151502" lon="9.98542871871348"><ele>451.0</ele><time>2026-03-22T13:09:05.999Z</time></trkpt><trkpt lat="44.72526157803601" lon="9.985609997817031"><ele>452.0</ele><time>2026-03-22T13:09:06.999Z</time></trkpt><trkpt lat="44.725252290060766" lon="9.98581707977784"><ele>453.0</ele><time>2026-03-22T13:09:07.999Z</time></trkpt><trkpt lat="44.72524192984795" lon="9.986008396048344"><ele>454.0</ele><time>2026-03-22T13:09:08.999Z</time></trkpt><trkpt lat="44.7252432372488" lon="9.986155584785234"><ele>454.0</ele><time>2026-03-22T13:09:09.999Z</time></trkpt><trkpt lat="44.725256800567045" lon="9.986272406287188"><ele>454.00000000000006</ele><time>2026-03-22T13:09:10.999Z</time></trkpt><trkpt lat="44.725278485539796" lon="9.9863719061077"><ele>454.0</ele><time>2026-03-22T13:09:11.999Z</time></trkpt><trkpt lat="44.72531655112817" lon="9.986469834783762"><ele>454.0</ele><time>2026-03-22T13:09:12.999Z</time></trkpt><trkpt lat="44.72534222788147" lon="9.986561988548114"><ele>454.00000000000006</ele><time>2026-03-22T13:09:13.999Z</time></trkpt><trkpt lat="44.72533251814945" lon="9.986658905520276"><ele>454.0</ele><time>2026-03-22T13:09:14.999Z</time></trkpt><trkpt lat="44.72529652673641" lon="9.98673408167817"><ele>454.0</ele><time>2026-03-22T13:09:15.999Z</time></trkpt><trkpt lat="44.725255933455664" lon="9.986831421396257"><ele>454.83333333333337</ele><time>2026-03-22T13:09:16.999Z</time></trkpt><trkpt lat="44.72521944184862" lon="9.986957496102955"><ele>455.6666666666667</ele><time>2026-03-22T13:09:17.999Z</time></trkpt><trkpt lat="44.725175222523305" lon="9.98705801889179"><ele>456.5</ele><time>2026-03-22T13:09:18.999Z</time></trkpt><trkpt lat="44.72513137935269" lon="9.98716528456774"><ele>457.33333333333337</ele><time>2026-03-22T13:09:19.999Z</time></trkpt><trkpt lat="44.72510160336611" lon="9.987282972524076"><ele>458.1666666666667</ele><time>2026-03-22T13:09:20.999Z</time></trkpt><trkpt lat="44.725091252738416" lon="9.987409006010486"><ele>459.0</ele><time>2026-03-22T13:09:21.999Z</time></trkpt><trkpt lat="44.725085527268035" lon="9.987512776316905"><ele>457.5</ele><time>2026-03-22T13:09:22.999Z</time></trkpt><trkpt lat="44.725098193298294" lon="9.987624414237633"><ele>456.0</ele><time>2026-03-22T13:09:24.999Z</time></trkpt><trkpt lat="44.725176228699" lon="9.987685973956252"><ele>454.5</ele><time>2026-03-22T13:09:26.999Z</time></trkpt><trkpt lat="44.7252475896406" lon="9.987680295318336"><ele>453.0</ele><time>2026-03-22T13:09:29.999Z</time></trkpt><trkpt lat="44.72539874140662" lon="9.987911197431526"><ele>453.0</ele><time>2026-03-22T13:09:33.999Z</time></trkpt><trkpt lat="44.72543839388827" lon="9.988033716837236"><ele>452.99999999999994</ele><time>2026-03-22T13:09:34.999Z</time></trkpt><trkpt lat="44.725484751871754" lon="9.988112522795777"><ele>452.99999999999994</ele><time>2026-03-22T13:09:35.999Z</time></trkpt><trkpt lat="44.7255560129825" lon="9.988216932267393"><ele>453.0</ele><time>2026-03-22T13:09:36.999Z</time></trkpt><trkpt lat="44.725614382560735" lon="9.988351832202913"><ele>453.0</ele><time>2026-03-22T13:09:37.999Z</time></trkpt><trkpt lat="44.72569455061445" lon="9.988475018662621"><ele>453.2</ele><time>2026-03-22T13:09:38.999Z</time></trkpt><trkpt lat="44.72571573677479" lon="9.988597288384133"><ele>453.4</ele><time>2026-03-22T13:09:39.999Z</time></trkpt><trkpt lat="44.72574245297132" lon="9.988708435491873"><ele>453.59999999999997</ele><time>2026-03-22T13:09:40.999Z</time></trkpt><trkpt lat="44.725712490037225" lon="9.988807291111845"><ele>453.79999999999995</ele><time>2026-03-22T13:09:41.999Z</time></trkpt><trkpt lat="44.7257605942941" lon="9.989033303912823"><ele>454.0</ele><time>2026-03-22T13:09:43.999Z</time></trkpt><trkpt lat="44.725792528555985" lon="9.989165040217179"><ele>453.6666666666667</ele><time>2026-03-22T13:09:44.999Z</time></trkpt><trkpt lat="44.72582840717771" lon="9.989267325546807"><ele>453.33333333333337</ele><time>2026-03-22T13:09:45.999Z</time></trkpt><trkpt lat="44.725852062124645" lon="9.989358100275421"><ele>453.0</ele><time>2026-03-22T13:09:46.999Z</time></trkpt><trkpt lat="44.725887853003236" lon="9.989473774345736"><ele>452.66666666666663</ele><time>2026-03-22T13:09:47.999Z</time></trkpt><trkpt lat="44.72594193731575" lon="9.98953446903674"><ele>452.3333333333333</ele><time>2026-03-22T13:09:48.999Z</time></trkpt><trkpt lat="44.726065568000365" lon="9.989598861512116"><ele>452.0</ele><time>2026-03-22T13:09:50.999Z</time></trkpt><trkpt lat="44.7261543521091" lon="9.989703271795724"><ele>453.25</ele><time>2026-03-22T13:09:51.999Z</time></trkpt><trkpt lat="44.7262364334013" lon="9.989805137779356"><ele>454.5</ele><time>2026-03-22T13:09:52.999Z</time></trkpt><trkpt lat="44.72631026633479" lon="9.989938862474263"><ele>455.75</ele><time>2026-03-22T13:09:53.999Z</time></trkpt><trkpt lat="44.72637282606485" lon="9.990119742599894"><ele>457.0</ele><time>2026-03-22T13:09:54.999Z</time></trkpt><trkpt lat="44.72642829807002" lon="9.99024481438993"><ele>457.8</ele><time>2026-03-22T13:09:56Z</time></trkpt><trkpt lat="44.72651413402076" lon="9.990377625554034"><ele>458.6</ele><time>2026-03-22T13:09:57Z</time></trkpt><trkpt lat="44.72659541667018" lon="9.99050288057446"><ele>459.40000000000003</ele><time>2026-03-22T13:09:58Z</time></trkpt><trkpt lat="44.72663073285027" lon="9.990590729758662"><ele>460.20000000000005</ele><time>2026-03-22T13:09:59Z</time></trkpt><trkpt lat="44.72664326562042" lon="9.99069590641632"><ele>461.0</ele><time>2026-03-22T13:10:00Z</time></trkpt><trkpt lat="44.726643357190845" lon="9.990820527438096"><ele>460.66666666666663</ele><time>2026-03-22T13:10:01Z</time></trkpt><trkpt lat="44.7266453945726" lon="9.990914191319828"><ele>460.3333333333333</ele><time>2026-03-22T13:10:02Z</time></trkpt><trkpt lat="44.72667750194533" lon="9.991016902759682"><ele>460.0</ele><time>2026-03-22T13:10:03Z</time></trkpt><trkpt lat="44.72673462361579" lon="9.991124620447133"><ele>459.66666666666663</ele><time>2026-03-22T13:10:04Z</time></trkpt><trkpt lat="44.72680198312217" lon="9.99124224232081"><ele>459.3333333333333</ele><time>2026-03-22T13:10:05Z</time></trkpt><trkpt lat="44.72684781291144" lon="9.991344128413186"><ele>459.0</ele><time>2026-03-22T13:10:06Z</time></trkpt><trkpt lat="44.72689434738664" lon="9.991457509130894"><ele>459.2</ele><time>2026-03-22T13:10:07Z</time></trkpt><trkpt lat="44.72692712284703" lon="9.99155392368182"><ele>459.4</ele><time>2026-03-22T13:10:08Z</time></trkpt><trkpt lat="44.72692547136142" lon="9.991660467977594"><ele>459.6</ele><time>2026-03-22T13:10:09Z</time></trkpt><trkpt lat="44.72690875245874" lon="9.991796711612944"><ele>459.8</ele><time>2026-03-22T13:10:10Z</time></trkpt><trkpt lat="44.72686821705777" lon="9.991939478464143"><ele>460.0</ele><time>2026-03-22T13:10:11Z</time></trkpt><trkpt lat="44.72684182690031" lon="9.992066528812822"><ele>461.0</ele><time>2026-03-22T13:10:12Z</time></trkpt><trkpt lat="44.72685349535476" lon="9.992196076913478"><ele>462.0</ele><time>2026-03-22T13:10:13Z</time></trkpt><trkpt lat="44.72687058229974" lon="9.992353313416487"><ele>463.0</ele><time>2026-03-22T13:10:14Z</time></trkpt><trkpt lat="44.72688465613653" lon="9.992521350668135"><ele>464.0</ele><time>2026-03-22T13:10:15Z</time></trkpt><trkpt lat="44.72690701988777" lon="9.992660655034042"><ele>465.0</ele><time>2026-03-22T13:10:16Z</time></trkpt><trkpt lat="44.726968426267135" lon="9.992768871644241"><ele>466.75</ele><time>2026-03-22T13:10:17Z</time></trkpt><trkpt lat="44.7270455738821" lon="9.992916194836976"><ele>468.5</ele><time>2026-03-22T13:10:18Z</time></trkpt><trkpt lat="44.727123703621785" lon="9.99307325395583"><ele>470.25</ele><time>2026-03-22T13:10:19Z</time></trkpt><trkpt lat="44.72717768326083" lon="9.993223109059828"><ele>472.0</ele><time>2026-03-22T13:10:20Z</time></trkpt><trkpt lat="44.72722802927074" lon="9.99337714471667"><ele>473.8</ele><time>2026-03-22T13:10:21Z</time></trkpt><trkpt lat="44.72728344637091" lon="9.993519301141323"><ele>475.6</ele><time>2026-03-22T13:10:22Z</time></trkpt><trkpt lat="44.727304400881955" lon="9.993651068115964"><ele>477.40000000000003</ele><time>2026-03-22T13:10:23Z</time></trkpt><trkpt lat="44.727306407212694" lon="9.993776641095756"><ele>479.20000000000005</ele><time>2026-03-22T13:10:24Z</time></trkpt><trkpt lat="44.72729803876726" lon="9.993929881057088"><ele>481.0</ele><time>2026-03-22T13:10:25Z</time></trkpt><trkpt lat="44.72727599791637" lon="9.99410325593314"><ele>481.6</ele><time>2026-03-22T13:10:26Z</time></trkpt><trkpt lat="44.72725781388256" lon="9.99429166938058"><ele>482.20000000000005</ele><time>2026-03-22T13:10:27Z</time></trkpt><trkpt lat="44.72724983367436" lon="9.99444069097633"><ele>482.79999999999995</ele><time>2026-03-22T13:10:28Z</time></trkpt><trkpt lat="44.72724854901747" lon="9.994585730165513"><ele>483.4</ele><time>2026-03-22T13:10:29Z</time></trkpt><trkpt lat="44.727255672950754" lon="9.994729075274487"><ele>484.0</ele><time>2026-03-22T13:10:30Z</time></trkpt><trkpt lat="44.72724182157877" lon="9.994822081853181"><ele>484.00000000000006</ele><time>2026-03-22T13:10:31Z</time></trkpt><trkpt lat="44.727193367552815" lon="9.994915262274697"><ele>484.0</ele><time>2026-03-22T13:10:32Z</time></trkpt><trkpt lat="44.72716081820547" lon="9.994991849165363"><ele>484.0</ele><time>2026-03-22T13:10:33Z</time></trkpt><trkpt lat="44.72715854297931" lon="9.995145632583869"><ele>484.0</ele><time>2026-03-22T13:10:35Z</time></trkpt><trkpt lat="44.727194512023196" lon="9.995259311613987"><ele>484.00000000000006</ele><time>2026-03-22T13:10:36Z</time></trkpt><trkpt lat="44.727242514301025" lon="9.995372533194105"><ele>484.0</ele><time>2026-03-22T13:10:37Z</time></trkpt><trkpt lat="44.72730086739692" lon="9.995485671955818"><ele>487.0</ele><time>2026-03-22T13:10:38Z</time></trkpt><trkpt lat="44.72732900142442" lon="9.995587832431271"><ele>490.0</ele><time>2026-03-22T13:10:39Z</time></trkpt><trkpt lat="44.7273273288027" lon="9.995703661277483"><ele>493.0</ele><time>2026-03-22T13:10:40Z</time></trkpt><trkpt lat="44.72729605381076" lon="9.99582413257582"><ele>496.0</ele><time>2026-03-22T13:10:41Z</time></trkpt><trkpt lat="44.72725922889341" lon="9.995965530151334"><ele>499.0</ele><time>2026-03-22T13:10:42Z</time></trkpt><trkpt lat="44.727230121468864" lon="9.996095507742876"><ele>500.50000000000006</ele><time>2026-03-22T13:10:43Z</time></trkpt><trkpt lat="44.72721177809676" lon="9.996199895313078"><ele>502.0</ele><time>2026-03-22T13:10:44Z</time></trkpt><trkpt lat="44.72718904034939" lon="9.996315461614595"><ele>503.5</ele><time>2026-03-22T13:10:45Z</time></trkpt><trkpt lat="44.72713949855493" lon="9.996436475603085"><ele>505.0</ele><time>2026-03-22T13:10:46Z</time></trkpt><trkpt lat="44.72708906530373" lon="9.996546767241053"><ele>506.50000000000006</ele><time>2026-03-22T13:10:47Z</time></trkpt><trkpt lat="44.72705333575173" lon="9.99663566789224"><ele>508.0</ele><time>2026-03-22T13:10:48Z</time></trkpt><trkpt lat="44.72700254368039" lon="9.996737715947711"><ele>508.00000000000006</ele><time>2026-03-22T13:10:49Z</time></trkpt><trkpt lat="44.72694120660856" lon="9.996828604176814"><ele>508.0</ele><time>2026-03-22T13:10:50Z</time></trkpt><trkpt lat="44.72688326528055" lon="9.996906416803693"><ele>508.0</ele><time>2026-03-22T13:10:51Z</time></trkpt><trkpt lat="44.726837026811744" lon="9.99699542624082"><ele>508.0</ele><time>2026-03-22T13:10:52Z</time></trkpt><trkpt lat="44.726794488494434" lon="9.997103139630914"><ele>508.00000000000006</ele><time>2026-03-22T13:10:53Z</time></trkpt><trkpt lat="44.72675433362554" lon="9.997234497147959"><ele>508.0</ele><time>2026-03-22T13:10:54Z</time></trkpt><trkpt lat="44.72669092401117" lon="9.997351367750193"><ele>506.2</ele><time>2026-03-22T13:10:55Z</time></trkpt><trkpt lat="44.726617001528815" lon="9.997437857473113"><ele>504.4</ele><time>2026-03-22T13:10:56Z</time></trkpt><trkpt lat="44.72654762182575" lon="9.997510959798555"><ele>502.59999999999997</ele><time>2026-03-22T13:10:57Z</time></trkpt><trkpt lat="44.726485310095605" lon="9.997581900196204"><ele>500.79999999999995</ele><time>2026-03-22T13:10:57.999Z</time></trkpt><trkpt lat="44.7264356234399" lon="9.997645572788466"><ele>499.0</ele><time>2026-03-22T13:10:58.999Z</time></trkpt><trkpt lat="44.7263246187089" lon="9.997751836512103"><ele>497.33333333333337</ele><time>2026-03-22T13:11:00.999Z</time></trkpt><trkpt lat="44.72627242009807" lon="9.99780832897657"><ele>495.6666666666667</ele><time>2026-03-22T13:11:01.999Z</time></trkpt><trkpt lat="44.72620783764207" lon="9.997902046998798"><ele>494.0</ele><time>2026-03-22T13:11:03.999Z</time></trkpt><trkpt lat="44.72612318801275" lon="9.998039857875565"><ele>492.33333333333337</ele><time>2026-03-22T13:11:05.999Z</time></trkpt><trkpt lat="44.72607207793484" lon="9.998117021819326"><ele>490.6666666666667</ele><time>2026-03-22T13:11:06.999Z</time></trkpt><trkpt lat="44.72602219672903" lon="9.998196342393914"><ele>489.0</ele><time>2026-03-22T13:11:07.999Z</time></trkpt><trkpt lat="44.7259562267459" lon="9.998307296030713"><ele>488.0</ele><time>2026-03-22T13:11:08.999Z</time></trkpt><trkpt lat="44.72587693329989" lon="9.998417121820792"><ele>487.0</ele><time>2026-03-22T13:11:09.999Z</time></trkpt><trkpt lat="44.72578564736815" lon="9.99851371597663"><ele>486.0</ele><time>2026-03-22T13:11:10.999Z</time></trkpt><trkpt lat="44.72569740026038" lon="9.998594785259892"><ele>485.0</ele><time>2026-03-22T13:11:11.999Z</time></trkpt><trkpt lat="44.725638616946725" lon="9.998657832397264"><ele>484.0</ele><time>2026-03-22T13:11:12.999Z</time></trkpt><trkpt lat="44.725579861207535" lon="9.998710248256167"><ele>484.0</ele><time>2026-03-22T13:11:13.999Z</time></trkpt><trkpt lat="44.72550988020836" lon="9.998809757132136"><ele>484.0</ele><time>2026-03-22T13:11:14.999Z</time></trkpt><trkpt lat="44.72543882883921" lon="9.998928313113128"><ele>484.0</ele><time>2026-03-22T13:11:15.999Z</time></trkpt><trkpt lat="44.72539670560288" lon="9.999022237986228"><ele>484.0</ele><time>2026-03-22T13:11:16.999Z</time></trkpt><trkpt lat="44.72538236271182" lon="9.999195764299804"><ele>484.0</ele><time>2026-03-22T13:11:18.999Z</time></trkpt><trkpt lat="44.72539163962155" lon="9.999325031227748"><ele>483.2</ele><time>2026-03-22T13:11:19.999Z</time></trkpt><trkpt lat="44.72538631340895" lon="9.999464218383583"><ele>482.4</ele><time>2026-03-22T13:11:20.999Z</time></trkpt><trkpt lat="44.725383270790324" lon="9.999553115601126"><ele>481.6</ele><time>2026-03-22T13:11:21.999Z</time></trkpt><trkpt lat="44.725415993360855" lon="9.999732453322075"><ele>480.8</ele><time>2026-03-22T13:11:23.999Z</time></trkpt><trkpt lat="44.7254272453822" lon="9.999854093859796"><ele>480.0</ele><time>2026-03-22T13:11:24.999Z</time></trkpt><trkpt lat="44.7254163534805" lon="9.999965186985817"><ele>480.0</ele><time>2026-03-22T13:11:25.999Z</time></trkpt><trkpt lat="44.725400327334576" lon="10.00008732188065"><ele>480.0</ele><time>2026-03-22T13:11:26.999Z</time></trkpt><trkpt lat="44.72538840313317" lon="10.00021366532454"><ele>480.0</ele><time>2026-03-22T13:11:27.999Z</time></trkpt><trkpt lat="44.725372233361135" lon="10.000325605355284"><ele>480.0</ele><time>2026-03-22T13:11:28.999Z</time></trkpt><trkpt lat="44.72535880643545" lon="10.000431481032786"><ele>480.0</ele><time>2026-03-22T13:11:29.999Z</time></trkpt><trkpt lat="44.72534956741653" lon="10.000554827075378"><ele>480.0</ele><time>2026-03-22T13:11:30.999Z</time></trkpt><trkpt lat="44.72534981695634" lon="10.00068698347971"><ele>479.4</ele><time>2026-03-22T13:11:31.999Z</time></trkpt><trkpt lat="44.72536082026174" lon="10.000833144514237"><ele>478.8</ele><time>2026-03-22T13:11:32.999Z</time></trkpt><trkpt lat="44.725379474665246" lon="10.000987657348176"><ele>478.20000000000005</ele><time>2026-03-22T13:11:33.999Z</time></trkpt><trkpt lat="44.72539702170488" lon="10.001109851177082"><ele>477.6</ele><time>2026-03-22T13:11:34.999Z</time></trkpt><trkpt lat="44.725393526948885" lon="10.001222497893842"><ele>477.0</ele><time>2026-03-22T13:11:35.999Z</time></trkpt><trkpt lat="44.72536161926666" lon="10.001323884258673"><ele>477.0</ele><time>2026-03-22T13:11:36.999Z</time></trkpt><trkpt lat="44.7253167932097" lon="10.001417883148518"><ele>477.0</ele><time>2026-03-22T13:11:37.999Z</time></trkpt><trkpt lat="44.72527639384036" lon="10.001498658679393"><ele>477.0</ele><time>2026-03-22T13:11:38.999Z</time></trkpt><trkpt lat="44.72521560849294" lon="10.001645440711899"><ele>477.0</ele><time>2026-03-22T13:11:40.999Z</time></trkpt><trkpt lat="44.7252021319206" lon="10.00174679157165"><ele>477.0</ele><time>2026-03-22T13:11:41.999Z</time></trkpt><trkpt lat="44.72520024587022" lon="10.001872868773214"><ele>477.0</ele><time>2026-03-22T13:11:42.999Z</time></trkpt><trkpt lat="44.72519714186098" lon="10.002006312636157"><ele>476.40000000000003</ele><time>2026-03-22T13:11:43.999Z</time></trkpt><trkpt lat="44.725194579906095" lon="10.002141399005364"><ele>475.80000000000007</ele><time>2026-03-22T13:11:44.999Z</time></trkpt><trkpt lat="44.72519261444944" lon="10.002300755812522"><ele>475.2</ele><time>2026-03-22T13:11:45.999Z</time></trkpt><trkpt lat="44.7251778537702" lon="10.002452305629237"><ele>474.6</ele><time>2026-03-22T13:11:46.999Z</time></trkpt><trkpt lat="44.72516109337211" lon="10.002606791783776"><ele>474.0</ele><time>2026-03-22T13:11:47.999Z</time></trkpt><trkpt lat="44.7251611640688" lon="10.002780133019273"><ele>472.0</ele><time>2026-03-22T13:11:48.999Z</time></trkpt><trkpt lat="44.725168047409184" lon="10.002965442097219"><ele>470.0</ele><time>2026-03-22T13:11:49.999Z</time></trkpt><trkpt lat="44.72517503407454" lon="10.003151238339973"><ele>468.0</ele><time>2026-03-22T13:11:50.999Z</time></trkpt><trkpt lat="44.72517783741077" lon="10.003295902025592"><ele>466.0</ele><time>2026-03-22T13:11:51.999Z</time></trkpt><trkpt lat="44.72518649916545" lon="10.003415911474384"><ele>466.0</ele><time>2026-03-22T13:11:52.999Z</time></trkpt><trkpt lat="44.725204448033885" lon="10.00356558372528"><ele>466.0</ele><time>2026-03-22T13:11:53.999Z</time></trkpt><trkpt lat="44.72522687994396" lon="10.003735065897772"><ele>466.0</ele><time>2026-03-22T13:11:54.999Z</time></trkpt><trkpt lat="44.725244299267686" lon="10.003881585694943"><ele>466.0</ele><time>2026-03-22T13:11:55.999Z</time></trkpt><trkpt lat="44.72526053090191" lon="10.004010457647244"><ele>466.0</ele><time>2026-03-22T13:11:56.999Z</time></trkpt><trkpt lat="44.72524957942674" lon="10.004163704165235"><ele>466.20000000000005</ele><time>2026-03-22T13:11:57.999Z</time></trkpt><trkpt lat="44.725229536079304" lon="10.004336310400026"><ele>466.40000000000003</ele><time>2026-03-22T13:11:58.999Z</time></trkpt><trkpt lat="44.725214741890596" lon="10.004496390108544"><ele>466.6</ele><time>2026-03-22T13:11:59.999Z</time></trkpt><trkpt lat="44.725191324378684" lon="10.004637005128808"><ele>466.8</ele><time>2026-03-22T13:12:00.999Z</time></trkpt><trkpt lat="44.72516356103291" lon="10.004770626439944"><ele>467.0</ele><time>2026-03-22T13:12:02Z</time></trkpt><trkpt lat="44.72513837443721" lon="10.004922552202512"><ele>467.6</ele><time>2026-03-22T13:12:03Z</time></trkpt><trkpt lat="44.72511475601919" lon="10.005090189774675"><ele>468.20000000000005</ele><time>2026-03-22T13:12:04Z</time></trkpt><trkpt lat="44.72508763923049" lon="10.005264216374101"><ele>468.8</ele><time>2026-03-22T13:12:05Z</time></trkpt><trkpt lat="44.72507290696606" lon="10.005411741103128"><ele>469.4</ele><time>2026-03-22T13:12:06Z</time></trkpt><trkpt lat="44.72505669379795" lon="10.005540462551131"><ele>470.0</ele><time>2026-03-22T13:12:07Z</time></trkpt><trkpt lat="44.72501210109453" lon="10.005654110330452"><ele>470.0</ele><time>2026-03-22T13:12:08Z</time></trkpt><trkpt lat="44.724950520880896" lon="10.005758063574689"><ele>470.0</ele><time>2026-03-22T13:12:09Z</time></trkpt><trkpt lat="44.724883158317795" lon="10.005876662927625"><ele>470.0</ele><time>2026-03-22T13:12:10Z</time></trkpt><trkpt lat="44.724823829756254" lon="10.006003039011564"><ele>470.0</ele><time>2026-03-22T13:12:11Z</time></trkpt><trkpt lat="44.724746373242766" lon="10.006130185262728"><ele>470.0</ele><time>2026-03-22T13:12:12Z</time></trkpt><trkpt lat="44.72464711863078" lon="10.00625601971638"><ele>470.2</ele><time>2026-03-22T13:12:13Z</time></trkpt><trkpt lat="44.72455762493946" lon="10.006376906632136"><ele>470.4</ele><time>2026-03-22T13:12:14Z</time></trkpt><trkpt lat="44.72446847556319" lon="10.006463798763917"><ele>470.6</ele><time>2026-03-22T13:12:15Z</time></trkpt><trkpt lat="44.724392527442994" lon="10.00653558533548"><ele>470.8</ele><time>2026-03-22T13:12:16Z</time></trkpt><trkpt lat="44.72432555197775" lon="10.006620366017023"><ele>471.0</ele><time>2026-03-22T13:12:17Z</time></trkpt><trkpt lat="44.724255868348045" lon="10.006742184235462"><ele>471.5</ele><time>2026-03-22T13:12:18Z</time></trkpt><trkpt lat="44.72416748441104" lon="10.006890719252604"><ele>472.0</ele><time>2026-03-22T13:12:19Z</time></trkpt><trkpt lat="44.72406532525118" lon="10.007051358597204"><ele>472.5</ele><time>2026-03-22T13:12:20Z</time></trkpt><trkpt lat="44.723979704423776" lon="10.0071836691282"><ele>473.0</ele><time>2026-03-22T13:12:21Z</time></trkpt><trkpt lat="44.72390141172399" lon="10.007328175668091"><ele>473.0</ele><time>2026-03-22T13:12:22Z</time></trkpt><trkpt lat="44.72381806426457" lon="10.007479619748747"><ele>472.99999999999994</ele><time>2026-03-22T13:12:23Z</time></trkpt><trkpt lat="44.72374621633302" lon="10.007608840787558"><ele>472.99999999999994</ele><time>2026-03-22T13:12:24Z</time></trkpt><trkpt lat="44.72369272217986" lon="10.007711439850883"><ele>473.0</ele><time>2026-03-22T13:12:25Z</time></trkpt><trkpt lat="44.723647804765505" lon="10.007808236463779"><ele>473.0</ele><time>2026-03-22T13:12:26Z</time></trkpt><trkpt lat="44.72360407386066" lon="10.007922815504408"><ele>474.0</ele><time>2026-03-22T13:12:27Z</time></trkpt><trkpt lat="44.723562145405346" lon="10.008069861071016"><ele>474.99999999999994</ele><time>2026-03-22T13:12:28Z</time></trkpt><trkpt lat="44.72352972648638" lon="10.008225866483558"><ele>475.99999999999994</ele><time>2026-03-22T13:12:29Z</time></trkpt><trkpt lat="44.72349827196038" lon="10.008371247727275"><ele>477.0</ele><time>2026-03-22T13:12:30Z</time></trkpt><trkpt lat="44.72347681517146" lon="10.008517396492381"><ele>478.0</ele><time>2026-03-22T13:12:31Z</time></trkpt><trkpt lat="44.72346117453886" lon="10.008678543523867"><ele>478.0</ele><time>2026-03-22T13:12:32Z</time></trkpt><trkpt lat="44.72343602084104" lon="10.008834803999365"><ele>477.99999999999994</ele><time>2026-03-22T13:12:33Z</time></trkpt><trkpt lat="44.72340307281236" lon="10.008950713557285"><ele>477.99999999999994</ele><time>2026-03-22T13:12:34Z</time></trkpt><trkpt lat="44.723413385246495" lon="10.008801555420082"><ele>478.0</ele><time>2026-03-22T13:13:02.999Z</time></trkpt><trkpt lat="44.72336112811114" lon="10.008937442307547"><ele>478.0</ele><time>2026-03-22T13:13:11.999Z</time></trkpt><trkpt lat="44.723286822989444" lon="10.009082642673771"><ele>477.59999999999997</ele><time>2026-03-22T13:13:13.999Z</time></trkpt><trkpt lat="44.72324217954328" lon="10.009187381252179"><ele>477.19999999999993</ele><time>2026-03-22T13:13:14.999Z</time></trkpt><trkpt lat="44.723208799327296" lon="10.009317502302432"><ele>476.8</ele><time>2026-03-22T13:13:15.999Z</time></trkpt><trkpt lat="44.72317965124368" lon="10.009465209777224"><ele>476.4</ele><time>2026-03-22T13:13:16.999Z</time></trkpt><trkpt lat="44.72315474482402" lon="10.009588092613567"><ele>476.0</ele><time>2026-03-22T13:13:17.999Z</time></trkpt><trkpt lat="44.7231099019612" lon="10.00967557724297"><ele>475.99999999999994</ele><time>2026-03-22T13:13:18.999Z</time></trkpt><trkpt lat="44.723074868953724" lon="10.009763297211828"><ele>476.0</ele><time>2026-03-22T13:13:19.999Z</time></trkpt><trkpt lat="44.723044603904356" lon="10.009862103289816"><ele>476.0</ele><time>2026-03-22T13:13:20.999Z</time></trkpt><trkpt lat="44.72304391299669" lon="10.00997354435386"><ele>476.0</ele><time>2026-03-22T13:13:21.999Z</time></trkpt><trkpt lat="44.72305013390574" lon="10.010123226657754"><ele>475.99999999999994</ele><time>2026-03-22T13:13:22.999Z</time></trkpt><trkpt lat="44.723046038855735" lon="10.010270565083422"><ele>476.0</ele><time>2026-03-22T13:13:23.999Z</time></trkpt><trkpt lat="44.723027953899276" lon="10.010386698270798"><ele>476.0</ele><time>2026-03-22T13:13:24.999Z</time></trkpt><trkpt lat="44.72298202087724" lon="10.01049991362528"><ele>476.0</ele><time>2026-03-22T13:13:25.999Z</time></trkpt><trkpt lat="44.72292727453607" lon="10.0106153925234"><ele>476.0</ele><time>2026-03-22T13:13:26.999Z</time></trkpt><trkpt lat="44.72288090094362" lon="10.010694826335666"><ele>476.0</ele><time>2026-03-22T13:13:27.999Z</time></trkpt><trkpt lat="44.722831370406645" lon="10.010785462113912"><ele>476.0</ele><time>2026-03-22T13:13:28.999Z</time></trkpt><trkpt lat="44.72276619699454" lon="10.010899532195333"><ele>477.99999999999994</ele><time>2026-03-22T13:13:29.999Z</time></trkpt><trkpt lat="44.72271579504102" lon="10.011035172453695"><ele>480.0</ele><time>2026-03-22T13:13:30.999Z</time></trkpt><trkpt lat="44.72267916660356" lon="10.011132926547404"><ele>482.0</ele><time>2026-03-22T13:13:31.999Z</time></trkpt><trkpt lat="44.72262240654823" lon="10.0112463812297"><ele>484.0</ele><time>2026-03-22T13:13:33.999Z</time></trkpt><trkpt lat="44.72255600261786" lon="10.01131511612448"><ele>485.99999999999994</ele><time>2026-03-22T13:13:35.999Z</time></trkpt><trkpt lat="44.722537952355594" lon="10.011426217980942"><ele>488.0</ele><time>2026-03-22T13:13:37.999Z</time></trkpt><trkpt lat="44.722517174627626" lon="10.011527306210228"><ele>487.99999999999994</ele><time>2026-03-22T13:13:41.999Z</time></trkpt><trkpt lat="44.722499554527985" lon="10.01162785546711"><ele>488.0</ele><time>2026-03-22T13:13:45.999Z</time></trkpt><trkpt lat="44.72247854659784" lon="10.011723262481398"><ele>488.0</ele><time>2026-03-22T13:13:46.999Z</time></trkpt><trkpt lat="44.72247294394922" lon="10.011846708761963"><ele>488.0</ele><time>2026-03-22T13:13:47.999Z</time></trkpt><trkpt lat="44.722469265527614" lon="10.011996627316343"><ele>487.99999999999994</ele><time>2026-03-22T13:13:48.999Z</time></trkpt><trkpt lat="44.72246276750645" lon="10.012133164019085"><ele>488.0</ele><time>2026-03-22T13:13:49.999Z</time></trkpt><trkpt lat="44.722461352009525" lon="10.012250599553976"><ele>488.49999999999994</ele><time>2026-03-22T13:13:50.999Z</time></trkpt><trkpt lat="44.72246116570421" lon="10.012382134446446"><ele>489.0</ele><time>2026-03-22T13:13:51.999Z</time></trkpt><trkpt lat="44.72248492793924" lon="10.01252773438654"><ele>489.5</ele><time>2026-03-22T13:13:52.999Z</time></trkpt><trkpt lat="44.722496211170956" lon="10.012643665194721"><ele>490.0</ele><time>2026-03-22T13:13:53.999Z</time></trkpt><trkpt lat="44.722499714775985" lon="10.012733647536153"><ele>490.49999999999994</ele><time>2026-03-22T13:13:54.999Z</time></trkpt><trkpt lat="44.72247642123079" lon="10.012848074763083"><ele>491.0</ele><time>2026-03-22T13:13:56.999Z</time></trkpt><trkpt lat="44.722424953393734" lon="10.01294793475099"><ele>492.0</ele><time>2026-03-22T13:14:06.999Z</time></trkpt><trkpt lat="44.722358906531326" lon="10.013056854902329"><ele>493.0</ele><time>2026-03-22T13:14:09Z</time></trkpt><trkpt lat="44.72230776681414" lon="10.013139443452427"><ele>494.0</ele><time>2026-03-22T13:14:10Z</time></trkpt><trkpt lat="44.722213776102144" lon="10.013160333360135"><ele>495.0</ele><time>2026-03-22T13:14:13Z</time></trkpt><trkpt lat="44.72212687134477" lon="10.013222271487304"><ele>496.0</ele><time>2026-03-22T13:14:15Z</time></trkpt><trkpt lat="44.72201837250245" lon="10.01324256792078"><ele>496.20000000000005</ele><time>2026-03-22T13:14:17Z</time></trkpt><trkpt lat="44.72188640659102" lon="10.013240174023634"><ele>496.40000000000003</ele><time>2026-03-22T13:14:19Z</time></trkpt><trkpt lat="44.721819672203026" lon="10.013226365972063"><ele>496.6</ele><time>2026-03-22T13:14:20Z</time></trkpt><trkpt lat="44.72170503692073" lon="10.013303078962265"><ele>496.8</ele><time>2026-03-22T13:14:22Z</time></trkpt><trkpt lat="44.72160516659163" lon="10.013386163232154"><ele>497.0</ele><time>2026-03-22T13:14:24Z</time></trkpt><trkpt lat="44.72154915058452" lon="10.013438071457932"><ele>496.99999999999994</ele><time>2026-03-22T13:14:25Z</time></trkpt><trkpt lat="44.721480771758166" lon="10.013444381127407"><ele>497.0</ele><time>2026-03-22T13:14:26Z</time></trkpt><trkpt lat="44.72138564334214" lon="10.013439540172689"><ele>497.0</ele><time>2026-03-22T13:14:27Z</time></trkpt><trkpt lat="44.72128496379855" lon="10.013443286289181"><ele>497.0</ele><time>2026-03-22T13:14:28Z</time></trkpt><trkpt lat="44.72120772430993" lon="10.013479156790348"><ele>496.99999999999994</ele><time>2026-03-22T13:14:29Z</time></trkpt><trkpt lat="44.72113575703864" lon="10.01355132161281"><ele>497.0</ele><time>2026-03-22T13:14:30Z</time></trkpt><trkpt lat="44.72106825131598" lon="10.013635623587733"><ele>495.8333333333333</ele><time>2026-03-22T13:14:31Z</time></trkpt><trkpt lat="44.72102803500256" lon="10.013715406235214"><ele>494.66666666666663</ele><time>2026-03-22T13:14:32Z</time></trkpt><trkpt lat="44.72099166975816" lon="10.01384286311595"><ele>493.5</ele><time>2026-03-22T13:14:34Z</time></trkpt><trkpt lat="44.7209489165258" lon="10.013914906670697"><ele>492.33333333333337</ele><time>2026-03-22T13:14:35Z</time></trkpt><trkpt lat="44.720892701915" lon="10.014008545744298"><ele>491.1666666666667</ele><time>2026-03-22T13:14:36Z</time></trkpt><trkpt lat="44.72084076904756" lon="10.014092077959981"><ele>490.0</ele><time>2026-03-22T13:14:37Z</time></trkpt><trkpt lat="44.72078496699969" lon="10.014177666338588"><ele>490.0</ele><time>2026-03-22T13:14:38Z</time></trkpt><trkpt lat="44.72072843150978" lon="10.014269839169359"><ele>490.0</ele><time>2026-03-22T13:14:39Z</time></trkpt><trkpt lat="44.72066952595181" lon="10.014366303590725"><ele>490.0</ele><time>2026-03-22T13:14:40Z</time></trkpt><trkpt lat="44.72060804506007" lon="10.014463934104404"><ele>490.0</ele><time>2026-03-22T13:14:41Z</time></trkpt><trkpt lat="44.72055149750445" lon="10.01456852424207"><ele>490.0</ele><time>2026-03-22T13:14:42Z</time></trkpt><trkpt lat="44.7204824781417" lon="10.01467634886989"><ele>490.00000000000006</ele><time>2026-03-22T13:14:43Z</time></trkpt><trkpt lat="44.72041724176973" lon="10.014772649024215"><ele>490.0</ele><time>2026-03-22T13:14:44Z</time></trkpt><trkpt lat="44.72036041348473" lon="10.0148494783019"><ele>490.0</ele><time>2026-03-22T13:14:45Z</time></trkpt><trkpt lat="44.72030085618852" lon="10.014921095157977"><ele>490.0</ele><time>2026-03-22T13:14:46Z</time></trkpt><trkpt lat="44.720236037032166" lon="10.014969954362815"><ele>490.00000000000006</ele><time>2026-03-22T13:14:47Z</time></trkpt><trkpt lat="44.720166415526016" lon="10.015018836469814"><ele>490.0</ele><time>2026-03-22T13:14:48Z</time></trkpt><trkpt lat="44.72009597753598" lon="10.015081444739176"><ele>489.00000000000006</ele><time>2026-03-22T13:14:49Z</time></trkpt><trkpt lat="44.720026982917794" lon="10.015150233214467"><ele>488.0</ele><time>2026-03-22T13:14:50Z</time></trkpt><trkpt lat="44.71995040876437" lon="10.015211952666755"><ele>487.0</ele><time>2026-03-22T13:14:51Z</time></trkpt><trkpt lat="44.719868072591474" lon="10.015354908162225"><ele>486.0</ele><time>2026-03-22T13:14:53Z</time></trkpt><trkpt lat="44.71982923166751" lon="10.01545362167578"><ele>485.00000000000006</ele><time>2026-03-22T13:14:54Z</time></trkpt><trkpt lat="44.71978962147481" lon="10.015526312892023"><ele>484.0</ele><time>2026-03-22T13:14:55Z</time></trkpt><trkpt lat="44.71972090947628" lon="10.015654983827748"><ele>484.0</ele><time>2026-03-22T13:14:57Z</time></trkpt><trkpt lat="44.71967240428475" lon="10.015740256226168"><ele>484.0</ele><time>2026-03-22T13:14:58Z</time></trkpt><trkpt lat="44.7196174593779" lon="10.015789731033472"><ele>484.0</ele><time>2026-03-22T13:14:59Z</time></trkpt><trkpt lat="44.719513424024115" lon="10.015911935501812"><ele>484.0</ele><time>2026-03-22T13:15:01Z</time></trkpt><trkpt lat="44.71944903997166" lon="10.015987139671248"><ele>484.0</ele><time>2026-03-22T13:15:02Z</time></trkpt><trkpt lat="44.71936101604549" lon="10.016075889199271"><ele>483.6</ele><time>2026-03-22T13:15:04Z</time></trkpt><trkpt lat="44.71929887355532" lon="10.01617974891691"><ele>483.2</ele><time>2026-03-22T13:15:04.999Z</time></trkpt><trkpt lat="44.71922399818829" lon="10.016262322517544"><ele>482.80000000000007</ele><time>2026-03-22T13:15:05.999Z</time></trkpt><trkpt lat="44.71914289162001" lon="10.016365090342584"><ele>482.40000000000003</ele><time>2026-03-22T13:15:06.999Z</time></trkpt><trkpt lat="44.7190694002646" lon="10.01644496565581"><ele>482.0</ele><time>2026-03-22T13:15:07.999Z</time></trkpt><trkpt lat="44.71896557784129" lon="10.016528105182262"><ele>481.99999999999994</ele><time>2026-03-22T13:15:08.999Z</time></trkpt><trkpt lat="44.7188784365461" lon="10.016621804079199"><ele>482.0</ele><time>2026-03-22T13:15:09.999Z</time></trkpt><trkpt lat="44.718800622105704" lon="10.016724394032252"><ele>482.0</ele><time>2026-03-22T13:15:10.999Z</time></trkpt><trkpt lat="44.71874489814671" lon="10.016801009727237"><ele>482.0</ele><time>2026-03-22T13:15:11.999Z</time></trkpt><trkpt lat="44.718679188379916" lon="10.016859323472614"><ele>481.99999999999994</ele><time>2026-03-22T13:15:12.999Z</time></trkpt><trkpt lat="44.718608408052" lon="10.016894868545636"><ele>482.0</ele><time>2026-03-22T13:15:13.999Z</time></trkpt><trkpt lat="44.718530234662964" lon="10.016910910824476"><ele>482.66666666666663</ele><time>2026-03-22T13:15:15.999Z</time></trkpt><trkpt lat="44.718476351043655" lon="10.016975198421989"><ele>483.3333333333333</ele><time>2026-03-22T13:15:17.999Z</time></trkpt><trkpt lat="44.71841292549661" lon="10.017038773265606"><ele>484.0</ele><time>2026-03-22T13:15:19.999Z</time></trkpt><trkpt lat="44.71834517559112" lon="10.017132565943687"><ele>484.66666666666663</ele><time>2026-03-22T13:15:21.999Z</time></trkpt><trkpt lat="44.718298730845795" lon="10.017200442592248"><ele>485.3333333333333</ele><time>2026-03-22T13:15:22.999Z</time></trkpt><trkpt lat="44.71821967825923" lon="10.017283467399698"><ele>486.0</ele><time>2026-03-22T13:15:23.999Z</time></trkpt><trkpt lat="44.71814144245127" lon="10.017374245429282"><ele>486.0</ele><time>2026-03-22T13:15:24.999Z</time></trkpt><trkpt lat="44.718066561655654" lon="10.017460398054466"><ele>486.0</ele><time>2026-03-22T13:15:25.999Z</time></trkpt><trkpt lat="44.71801292845237" lon="10.017540996458228"><ele>486.0</ele><time>2026-03-22T13:15:26.999Z</time></trkpt><trkpt lat="44.717950549672565" lon="10.017629651062864"><ele>486.0</ele><time>2026-03-22T13:15:27.999Z</time></trkpt><trkpt lat="44.71787979228701" lon="10.01770038200685"><ele>486.0</ele><time>2026-03-22T13:15:28.999Z</time></trkpt><trkpt lat="44.71781261204089" lon="10.017751538239324"><ele>486.0</ele><time>2026-03-22T13:15:29.999Z</time></trkpt><trkpt lat="44.717756821201334" lon="10.017805799942122"><ele>486.6666666666667</ele><time>2026-03-22T13:15:30.999Z</time></trkpt><trkpt lat="44.717701017202145" lon="10.017877120542249"><ele>487.33333333333337</ele><time>2026-03-22T13:15:31.999Z</time></trkpt><trkpt lat="44.71764173316883" lon="10.01795891107107"><ele>488.0</ele><time>2026-03-22T13:15:32.999Z</time></trkpt><trkpt lat="44.71758645042082" lon="10.01806245320057"><ele>488.6666666666667</ele><time>2026-03-22T13:15:33.999Z</time></trkpt><trkpt lat="44.71753947630173" lon="10.018172029148891"><ele>489.33333333333337</ele><time>2026-03-22T13:15:34.999Z</time></trkpt><trkpt lat="44.71749219119125" lon="10.01826250759867"><ele>490.0</ele><time>2026-03-22T13:15:35.999Z</time></trkpt><trkpt lat="44.7174595106046" lon="10.018356300389677"><ele>491.50000000000006</ele><time>2026-03-22T13:15:36.999Z</time></trkpt><trkpt lat="44.71742249047612" lon="10.018451529346889"><ele>493.0</ele><time>2026-03-22T13:15:37.999Z</time></trkpt><trkpt lat="44.71739264188094" lon="10.018540171710836"><ele>494.5</ele><time>2026-03-22T13:15:38.999Z</time></trkpt><trkpt lat="44.71736613376663" lon="10.018643458058518"><ele>496.0</ele><time>2026-03-22T13:15:39.999Z</time></trkpt><trkpt lat="44.717315279168794" lon="10.018751459319965"><ele>497.50000000000006</ele><time>2026-03-22T13:15:40.999Z</time></trkpt><trkpt lat="44.71726136056341" lon="10.01883626043354"><ele>499.0</ele><time>2026-03-22T13:15:41.999Z</time></trkpt><trkpt lat="44.717181704300145" lon="10.018935274258844"><ele>499.00000000000006</ele><time>2026-03-22T13:15:43.999Z</time></trkpt><trkpt lat="44.71711412134062" lon="10.018958568989111"><ele>499.0</ele><time>2026-03-22T13:15:44.999Z</time></trkpt><trkpt lat="44.717027958030435" lon="10.018977815998486"><ele>499.0</ele><time>2026-03-22T13:15:45.999Z</time></trkpt><trkpt lat="44.7169386001158" lon="10.018981380793635"><ele>499.0</ele><time>2026-03-22T13:15:46.999Z</time></trkpt><trkpt lat="44.71684807734902" lon="10.018981853490466"><ele>499.00000000000006</ele><time>2026-03-22T13:15:47.999Z</time></trkpt><trkpt lat="44.71675893137679" lon="10.018968463016854"><ele>499.0</ele><time>2026-03-22T13:15:48.999Z</time></trkpt><trkpt lat="44.71667416911182" lon="10.018972117356817"><ele>498.1666666666667</ele><time>2026-03-22T13:15:49.999Z</time></trkpt><trkpt lat="44.71660379765745" lon="10.018979273181408"><ele>497.33333333333337</ele><time>2026-03-22T13:15:50.999Z</time></trkpt><trkpt lat="44.716543730066334" lon="10.018947623172199"><ele>496.5</ele><time>2026-03-22T13:15:51.999Z</time></trkpt><trkpt lat="44.7164736789435" lon="10.0189292925576"><ele>495.66666666666663</ele><time>2026-03-22T13:15:52.999Z</time></trkpt><trkpt lat="44.716393922721544" lon="10.018929545676379"><ele>494.8333333333333</ele><time>2026-03-22T13:15:53.999Z</time></trkpt><trkpt lat="44.716298239473744" lon="10.01890127335771"><ele>494.0</ele><time>2026-03-22T13:15:54.999Z</time></trkpt><trkpt lat="44.71621197536624" lon="10.01888166434066"><ele>493.99999999999994</ele><time>2026-03-22T13:15:55.999Z</time></trkpt><trkpt lat="44.71614335071949" lon="10.018896834752468"><ele>494.0</ele><time>2026-03-22T13:15:56.999Z</time></trkpt><trkpt lat="44.716085920448165" lon="10.01900730981219"><ele>494.0</ele><time>2026-03-22T13:15:58.999Z</time></trkpt><trkpt lat="44.71603351344401" lon="10.019065197269228"><ele>494.0</ele><time>2026-03-22T13:15:59.999Z</time></trkpt><trkpt lat="44.71597688953627" lon="10.019128957177426"><ele>493.99999999999994</ele><time>2026-03-22T13:16:00.999Z</time></trkpt><trkpt lat="44.71590732129003" lon="10.019172552054192"><ele>494.0</ele><time>2026-03-22T13:16:01.999Z</time></trkpt><trkpt lat="44.715796529333396" lon="10.019185987776517"><ele>495.0</ele><time>2026-03-22T13:16:03.999Z</time></trkpt><trkpt lat="44.715695526838914" lon="10.019226195926553"><ele>496.0</ele><time>2026-03-22T13:16:05.999Z</time></trkpt><trkpt lat="44.715621464149734" lon="10.019250546582054"><ele>497.0</ele><time>2026-03-22T13:16:06.999Z</time></trkpt><trkpt lat="44.71553910146163" lon="10.019280574221046"><ele>498.0</ele><time>2026-03-22T13:16:07.999Z</time></trkpt><trkpt lat="44.71545445013339" lon="10.019321025790891"><ele>499.0</ele><time>2026-03-22T13:16:08.999Z</time></trkpt><trkpt lat="44.71534122265024" lon="10.019379666436734"><ele>499.5</ele><time>2026-03-22T13:16:09.999Z</time></trkpt><trkpt lat="44.71522645122426" lon="10.019461908174593"><ele>500.0</ele><time>2026-03-22T13:16:10.999Z</time></trkpt><trkpt lat="44.71515265472054" lon="10.019513675765847"><ele>500.5</ele><time>2026-03-22T13:16:11.999Z</time></trkpt><trkpt lat="44.715032887861646" lon="10.019507317595053"><ele>501.0</ele><time>2026-03-22T13:16:14Z</time></trkpt><trkpt lat="44.71489405293923" lon="10.019469650210702"><ele>501.0</ele><time>2026-03-22T13:16:16Z</time></trkpt><trkpt lat="44.71479542299193" lon="10.01949107201347"><ele>501.0</ele><time>2026-03-22T13:16:17Z</time></trkpt><trkpt lat="44.71469423568831" lon="10.01950700621461"><ele>501.0</ele><time>2026-03-22T13:16:18Z</time></trkpt><trkpt lat="44.714602896012146" lon="10.019500987087891"><ele>501.0</ele><time>2026-03-22T13:16:19Z</time></trkpt><trkpt lat="44.71450768666529" lon="10.019500121322464"><ele>501.0</ele><time>2026-03-22T13:16:20Z</time></trkpt><trkpt lat="44.714412814982964" lon="10.019504303738003"><ele>503.0</ele><time>2026-03-22T13:16:21Z</time></trkpt><trkpt lat="44.71431476964624" lon="10.01951341566357"><ele>505.0</ele><time>2026-03-22T13:16:22Z</time></trkpt><trkpt lat="44.71420823703635" lon="10.019521912030878"><ele>507.0</ele><time>2026-03-22T13:16:23Z</time></trkpt><trkpt lat="44.71410909952801" lon="10.019514506169417"><ele>509.0</ele><time>2026-03-22T13:16:24Z</time></trkpt><trkpt lat="44.71399653595902" lon="10.019525590529668"><ele>511.0</ele><time>2026-03-22T13:16:25Z</time></trkpt><trkpt lat="44.71387885511653" lon="10.019534548173343"><ele>511.0</ele><time>2026-03-22T13:16:26Z</time></trkpt><trkpt lat="44.71379098387205" lon="10.019543860817889"><ele>511.0</ele><time>2026-03-22T13:16:27Z</time></trkpt><trkpt lat="44.713720295641245" lon="10.01954446247296"><ele>511.0</ele><time>2026-03-22T13:16:28Z</time></trkpt><trkpt lat="44.71363532963608" lon="10.0195478824159"><ele>511.0</ele><time>2026-03-22T13:16:29Z</time></trkpt><trkpt lat="44.71353225638079" lon="10.019558177657643"><ele>511.0</ele><time>2026-03-22T13:16:30Z</time></trkpt><trkpt lat="44.71342172888143" lon="10.019567665290912"><ele>515.4</ele><time>2026-03-22T13:16:31Z</time></trkpt><trkpt lat="44.71330943371987" lon="10.019613699234846"><ele>519.8</ele><time>2026-03-22T13:16:32Z</time></trkpt><trkpt lat="44.713197784502846" lon="10.019649821380627"><ele>524.1999999999999</ele><time>2026-03-22T13:16:33Z</time></trkpt><trkpt lat="44.713106665009846" lon="10.019654572082242"><ele>528.6</ele><time>2026-03-22T13:16:34Z</time></trkpt><trkpt lat="44.71303814478942" lon="10.019650611154216"><ele>533.0</ele><time>2026-03-22T13:16:35Z</time></trkpt><trkpt lat="44.71296806268349" lon="10.01963533781562"><ele>533.0</ele><time>2026-03-22T13:16:36Z</time></trkpt><trkpt lat="44.71290274012763" lon="10.01960166221392"><ele>533.0</ele><time>2026-03-22T13:16:37Z</time></trkpt><trkpt lat="44.712827886771294" lon="10.019505034583142"><ele>533.0</ele><time>2026-03-22T13:16:39Z</time></trkpt><trkpt lat="44.71277727063719" lon="10.019443581700717"><ele>533.0</ele><time>2026-03-22T13:16:40Z</time></trkpt><trkpt lat="44.71271350314112" lon="10.019402736371527"><ele>533.0</ele><time>2026-03-22T13:16:41Z</time></trkpt><trkpt lat="44.71264318150176" lon="10.019386005872596"><ele>533.0</ele><time>2026-03-22T13:16:42Z</time></trkpt><trkpt lat="44.712556127740534" lon="10.019366018800534"><ele>534.6</ele><time>2026-03-22T13:16:43Z</time></trkpt><trkpt lat="44.712472494333184" lon="10.019348720916755"><ele>536.1999999999999</ele><time>2026-03-22T13:16:45Z</time></trkpt><trkpt lat="44.712402169875624" lon="10.019448441799417"><ele>537.8</ele><time>2026-03-22T13:16:49Z</time></trkpt><trkpt lat="44.7123390176582" lon="10.019561282285888"><ele>539.4</ele><time>2026-03-22T13:16:51Z</time></trkpt><trkpt lat="44.712294233059026" lon="10.019662776498238"><ele>541.0</ele><time>2026-03-22T13:16:53Z</time></trkpt><trkpt lat="44.71222993192889" lon="10.019786200811179"><ele>541.0</ele><time>2026-03-22T13:16:55Z</time></trkpt><trkpt lat="44.712182494718235" lon="10.019864016420275"><ele>541.0</ele><time>2026-03-22T13:16:56Z</time></trkpt><trkpt lat="44.71214415617115" lon="10.019963159774793"><ele>541.0</ele><time>2026-03-22T13:16:58Z</time></trkpt><trkpt lat="44.712098656570696" lon="10.020037626576032"><ele>541.0</ele><time>2026-03-22T13:17:01Z</time></trkpt><trkpt lat="44.712047601587884" lon="10.020134606011636"><ele>541.0</ele><time>2026-03-22T13:17:04Z</time></trkpt><trkpt lat="44.71204978268727" lon="10.020253216043303"><ele>541.0</ele><time>2026-03-22T13:17:07Z</time></trkpt><trkpt lat="44.7120169419214" lon="10.020342465502202"><ele>532.0</ele><time>2026-03-22T13:17:08.999Z</time></trkpt><trkpt lat="44.71181313708379" lon="10.02053021401605"><ele>523.0</ele><time>2026-03-22T13:17:11.999Z</time></trkpt><trkpt lat="44.71173366053472" lon="10.02065212396018"><ele>514.0</ele><time>2026-03-22T13:17:13.999Z</time></trkpt><trkpt lat="44.71162793800444" lon="10.020801225748704"><ele>513.0</ele><time>2026-03-22T13:17:15.999Z</time></trkpt><trkpt lat="44.71149374811766" lon="10.020872347876663"><ele>512.0</ele><time>2026-03-22T13:17:17.999Z</time></trkpt><trkpt lat="44.71141693535203" lon="10.020994231072578"><ele>511.0</ele><time>2026-03-22T13:17:19.999Z</time></trkpt><trkpt lat="44.711377325533554" lon="10.021103478448005"><ele>510.0</ele><time>2026-03-22T13:17:20.999Z</time></trkpt><trkpt lat="44.71133279027343" lon="10.021182476990356"><ele>509.0</ele><time>2026-03-22T13:17:21.999Z</time></trkpt><trkpt lat="44.71124987520577" lon="10.02125174520441"><ele>509.0</ele><time>2026-03-22T13:17:23.999Z</time></trkpt><trkpt lat="44.711214791669406" lon="10.021423146136922"><ele>509.0</ele><time>2026-03-22T13:17:25.999Z</time></trkpt><trkpt lat="44.71119656742185" lon="10.021509273931839"><ele>509.0</ele><time>2026-03-22T13:17:26.999Z</time></trkpt><trkpt lat="44.7111599598436" lon="10.021634061364217"><ele>509.0</ele><time>2026-03-22T13:17:28.999Z</time></trkpt><trkpt lat="44.711100442582186" lon="10.021768322306093"><ele>509.0</ele><time>2026-03-22T13:17:30.999Z</time></trkpt><trkpt lat="44.71099064611174" lon="10.021815716851437"><ele>507.0</ele><time>2026-03-22T13:17:32.999Z</time></trkpt><trkpt lat="44.710924796322836" lon="10.02186262645107"><ele>505.0</ele><time>2026-03-22T13:17:34.999Z</time></trkpt><trkpt lat="44.71089509167262" lon="10.022023169051234"><ele>503.0</ele><time>2026-03-22T13:17:36.999Z</time></trkpt><trkpt lat="44.71085052386533" lon="10.022163707481202"><ele>501.0</ele><time>2026-03-22T13:17:38.999Z</time></trkpt><trkpt lat="44.71079242376514" lon="10.02224283744597"><ele>499.0</ele><time>2026-03-22T13:17:40.999Z</time></trkpt><trkpt lat="44.71073623202488" lon="10.022372775807835"><ele>499.00000000000006</ele><time>2026-03-22T13:17:42.999Z</time></trkpt><trkpt lat="44.710704987101046" lon="10.02247031613161"><ele>499.0</ele><time>2026-03-22T13:17:43.999Z</time></trkpt><trkpt lat="44.71068482571416" lon="10.022566003589018"><ele>499.0</ele><time>2026-03-22T13:17:44.999Z</time></trkpt><trkpt lat="44.71068212917436" lon="10.022718311200697"><ele>499.0</ele><time>2026-03-22T13:17:46.999Z</time></trkpt><trkpt lat="44.71066042279405" lon="10.022813441093666"><ele>499.00000000000006</ele><time>2026-03-22T13:17:48.999Z</time></trkpt><trkpt lat="44.7106318453659" lon="10.022905467461364"><ele>499.0</ele><time>2026-03-22T13:17:51.999Z</time></trkpt><trkpt lat="44.71061476492522" lon="10.023005197539197"><ele>498.1666666666667</ele><time>2026-03-22T13:17:55.999Z</time></trkpt><trkpt lat="44.7106541153066" lon="10.023100086007165"><ele>497.33333333333337</ele><time>2026-03-22T13:17:58.999Z</time></trkpt><trkpt lat="44.71070138293332" lon="10.023188274129982"><ele>496.5</ele><time>2026-03-22T13:18:02.999Z</time></trkpt><trkpt lat="44.71072293535635" lon="10.023301188654777"><ele>495.66666666666663</ele><time>2026-03-22T13:18:06.999Z</time></trkpt><trkpt lat="44.710733856720374" lon="10.023400988869188"><ele>494.8333333333333</ele><time>2026-03-22T13:18:09.999Z</time></trkpt><trkpt lat="44.71076842949826" lon="10.023482417993817"><ele>494.0</ele><time>2026-03-22T13:18:12.999Z</time></trkpt><trkpt lat="44.710778755256094" lon="10.023594066645146"><ele>491.8333333333333</ele><time>2026-03-22T13:18:14.999Z</time></trkpt><trkpt lat="44.71075912880105" lon="10.02372246568427"><ele>489.66666666666663</ele><time>2026-03-22T13:18:17.999Z</time></trkpt><trkpt lat="44.7107425143391" lon="10.023816008062132"><ele>487.5</ele><time>2026-03-22T13:18:20Z</time></trkpt><trkpt lat="44.71069771023221" lon="10.023920256568486"><ele>485.33333333333337</ele><time>2026-03-22T13:18:23Z</time></trkpt><trkpt lat="44.71064502684041" lon="10.024018571835498"><ele>483.1666666666667</ele><time>2026-03-22T13:18:25Z</time></trkpt><trkpt lat="44.7105851416127" lon="10.024137216264313"><ele>481.0</ele><time>2026-03-22T13:18:27Z</time></trkpt><trkpt lat="44.71055613437895" lon="10.024216958420526"><ele>477.8</ele><time>2026-03-22T13:18:28Z</time></trkpt><trkpt lat="44.710535843290145" lon="10.024302196841438"><ele>474.6</ele><time>2026-03-22T13:18:29Z</time></trkpt><trkpt lat="44.710495160661154" lon="10.02442559736718"><ele>471.4</ele><time>2026-03-22T13:18:31Z</time></trkpt><trkpt lat="44.710495275527336" lon="10.024580587612732"><ele>468.2</ele><time>2026-03-22T13:18:33Z</time></trkpt><trkpt lat="44.7105238945826" lon="10.024667701125535"><ele>465.0</ele><time>2026-03-22T13:18:34Z</time></trkpt><trkpt lat="44.710537262312926" lon="10.024832218997801"><ele>465.0</ele><time>2026-03-22T13:18:36Z</time></trkpt><trkpt lat="44.71052247817928" lon="10.024926422609635"><ele>465.0</ele><time>2026-03-22T13:18:37Z</time></trkpt><trkpt lat="44.710499279770346" lon="10.02505697425836"><ele>465.0</ele><time>2026-03-22T13:18:38Z</time></trkpt><trkpt lat="44.71049323591443" lon="10.025194071653996"><ele>465.0</ele><time>2026-03-22T13:18:39Z</time></trkpt><trkpt lat="44.71048732056467" lon="10.025311183552137"><ele>465.0</ele><time>2026-03-22T13:18:40Z</time></trkpt><trkpt lat="44.710462443558406" lon="10.025472635760597"><ele>462.6</ele><time>2026-03-22T13:18:42Z</time></trkpt><trkpt lat="44.710438402031464" lon="10.025563900122588"><ele>460.2</ele><time>2026-03-22T13:18:43Z</time></trkpt><trkpt lat="44.710367575035605" lon="10.025706526290701"><ele>457.79999999999995</ele><time>2026-03-22T13:18:45Z</time></trkpt><trkpt lat="44.710336642607935" lon="10.02583806697586"><ele>455.4</ele><time>2026-03-22T13:18:46Z</time></trkpt><trkpt lat="44.71033801118888" lon="10.025985818457551"><ele>453.0</ele><time>2026-03-22T13:18:47Z</time></trkpt><trkpt lat="44.710350850305176" lon="10.026101529375977"><ele>451.6666666666667</ele><time>2026-03-22T13:18:48Z</time></trkpt><trkpt lat="44.7103710307849" lon="10.026204794916882"><ele>450.33333333333337</ele><time>2026-03-22T13:18:49Z</time></trkpt><trkpt lat="44.71037698449936" lon="10.026305708713075"><ele>449.0</ele><time>2026-03-22T13:18:50Z</time></trkpt><trkpt lat="44.710385374945844" lon="10.026393584025769"><ele>447.6666666666667</ele><time>2026-03-22T13:18:51Z</time></trkpt><trkpt lat="44.71040146690302" lon="10.026593396920715"><ele>446.33333333333337</ele><time>2026-03-22T13:18:53Z</time></trkpt><trkpt lat="44.710415014605694" lon="10.026707419920518"><ele>445.0</ele><time>2026-03-22T13:18:54Z</time></trkpt><trkpt lat="44.71043358525218" lon="10.02679361950512"><ele>445.0</ele><time>2026-03-22T13:18:56Z</time></trkpt><trkpt lat="44.71048532619117" lon="10.02685543468131"><ele>445.0</ele><time>2026-03-22T13:19:04Z</time></trkpt><trkpt lat="44.710522434150235" lon="10.026949756792988"><ele>445.0</ele><time>2026-03-22T13:19:09Z</time></trkpt><trkpt lat="44.71056220714796" lon="10.027125778669394"><ele>445.0</ele><time>2026-03-22T13:19:13Z</time></trkpt><trkpt lat="44.7105850633989" lon="10.027208771788176"><ele>445.0</ele><time>2026-03-22T13:19:14.999Z</time></trkpt><trkpt lat="44.71061740104491" lon="10.027481394496403"><ele>445.0</ele><time>2026-03-22T13:19:15.999Z</time></trkpt><trkpt lat="44.71059921550336" lon="10.027588675144782"><ele>445.0</ele><time>2026-03-22T13:19:16.999Z</time></trkpt><trkpt lat="44.71051884854508" lon="10.02770688363702"><ele>445.0</ele><time>2026-03-22T13:19:17.999Z</time></trkpt><trkpt lat="44.71049258666233" lon="10.02782260419283"><ele>445.0</ele><time>2026-03-22T13:19:18.999Z</time></trkpt><trkpt lat="44.7104574865597" lon="10.027918829173078"><ele>445.0</ele><time>2026-03-22T13:19:19.999Z</time></trkpt><trkpt lat="44.71044704654315" lon="10.028047940382466"><ele>445.00000000000006</ele><time>2026-03-22T13:19:20.999Z</time></trkpt><trkpt lat="44.71044162981207" lon="10.028147086016693"><ele>445.0</ele><time>2026-03-22T13:19:21.999Z</time></trkpt><trkpt lat="44.7103820609312" lon="10.028311495418492"><ele>445.0</ele><time>2026-03-22T13:19:23.999Z</time></trkpt><trkpt lat="44.71036449074785" lon="10.02841728052993"><ele>445.0</ele><time>2026-03-22T13:19:24.999Z</time></trkpt><trkpt lat="44.710328148747664" lon="10.02851594273995"><ele>445.00000000000006</ele><time>2026-03-22T13:19:25.999Z</time></trkpt><trkpt lat="44.710312626267225" lon="10.028628837663105"><ele>445.0</ele><time>2026-03-22T13:19:26.999Z</time></trkpt><trkpt lat="44.71027117326703" lon="10.028700267050409"><ele>447.00000000000006</ele><time>2026-03-22T13:19:27.999Z</time></trkpt><trkpt lat="44.710233400336946" lon="10.028802939174914"><ele>449.0</ele><time>2026-03-22T13:19:28.999Z</time></trkpt><trkpt lat="44.71016889560056" lon="10.028867710298378"><ele>451.0</ele><time>2026-03-22T13:19:29.999Z</time></trkpt><trkpt lat="44.71009312813336" lon="10.028900560006308"><ele>453.0</ele><time>2026-03-22T13:19:30.999Z</time></trkpt><trkpt lat="44.71001133385687" lon="10.028899732636908"><ele>455.00000000000006</ele><time>2026-03-22T13:19:31.999Z</time></trkpt><trkpt lat="44.7099866539308" lon="10.028992918360107"><ele>457.0</ele><time>2026-03-22T13:19:32.999Z</time></trkpt><trkpt lat="44.70989171811466" lon="10.029026511035017"><ele>457.00000000000006</ele><time>2026-03-22T13:19:34.999Z</time></trkpt><trkpt lat="44.70978380941441" lon="10.028985406606544"><ele>457.0</ele><time>2026-03-22T13:19:36.999Z</time></trkpt><trkpt lat="44.7097139705157" lon="10.029056933836042"><ele>457.0</ele><time>2026-03-22T13:19:38.999Z</time></trkpt><trkpt lat="44.709635478522564" lon="10.029074655761212"><ele>457.0</ele><time>2026-03-22T13:19:39.999Z</time></trkpt><trkpt lat="44.709581512904705" lon="10.029121618996658"><ele>457.00000000000006</ele><time>2026-03-22T13:19:40.999Z</time></trkpt><trkpt lat="44.70953513906501" lon="10.029201763074788"><ele>457.0</ele><time>2026-03-22T13:19:41.999Z</time></trkpt><trkpt lat="44.70948938187778" lon="10.02928855020829"><ele>457.00000000000006</ele><time>2026-03-22T13:19:42.999Z</time></trkpt><trkpt lat="44.7094452284895" lon="10.029385886319666"><ele>457.0</ele><time>2026-03-22T13:19:43.999Z</time></trkpt><trkpt lat="44.709410661180364" lon="10.02947547185453"><ele>457.0</ele><time>2026-03-22T13:19:44.999Z</time></trkpt><trkpt lat="44.70936080044546" lon="10.029579576171015"><ele>457.0</ele><time>2026-03-22T13:19:45.999Z</time></trkpt><trkpt lat="44.709301748432694" lon="10.029684731945506"><ele>457.00000000000006</ele><time>2026-03-22T13:19:46.999Z</time></trkpt><trkpt lat="44.709236291136406" lon="10.029774650247706"><ele>457.0</ele><time>2026-03-22T13:19:47.999Z</time></trkpt><trkpt lat="44.709179996860854" lon="10.029854875223537"><ele>457.00000000000006</ele><time>2026-03-22T13:19:48.999Z</time></trkpt><trkpt lat="44.70912979167852" lon="10.02992641777947"><ele>457.0</ele><time>2026-03-22T13:19:49.999Z</time></trkpt><trkpt lat="44.709076659183545" lon="10.030000633049688"><ele>457.0</ele><time>2026-03-22T13:19:50.999Z</time></trkpt><trkpt lat="44.709018462514756" lon="10.030097546650667"><ele>457.0</ele><time>2026-03-22T13:19:51.999Z</time></trkpt><trkpt lat="44.708969515197694" lon="10.030187671186797"><ele>457.00000000000006</ele><time>2026-03-22T13:19:52.999Z</time></trkpt><trkpt lat="44.708929110468716" lon="10.030265783831586"><ele>457.0</ele><time>2026-03-22T13:19:53.999Z</time></trkpt><trkpt lat="44.70886819287235" lon="10.03035949889928"><ele>456.6</ele><time>2026-03-22T13:19:54.999Z</time></trkpt><trkpt lat="44.70880021194086" lon="10.03048611490904"><ele>456.20000000000005</ele><time>2026-03-22T13:19:55.999Z</time></trkpt><trkpt lat="44.70875739616026" lon="10.030612421464477"><ele>455.8</ele><time>2026-03-22T13:19:56.999Z</time></trkpt><trkpt lat="44.708709803469624" lon="10.030752601502611"><ele>455.4</ele><time>2026-03-22T13:19:57.999Z</time></trkpt><trkpt lat="44.7086609067431" lon="10.03087661326187"><ele>455.0</ele><time>2026-03-22T13:19:58.999Z</time></trkpt><trkpt lat="44.7086152036357" lon="10.03101360722707"><ele>453.2</ele><time>2026-03-22T13:19:59.999Z</time></trkpt><trkpt lat="44.70856793721806" lon="10.031164145086798"><ele>451.4</ele><time>2026-03-22T13:20:00.999Z</time></trkpt><trkpt lat="44.708515812111926" lon="10.031290789330274"><ele>449.6</ele><time>2026-03-22T13:20:01.999Z</time></trkpt><trkpt lat="44.708449902611356" lon="10.031409905080093"><ele>447.8</ele><time>2026-03-22T13:20:02.999Z</time></trkpt><trkpt lat="44.708396443843476" lon="10.03150939500964"><ele>446.0</ele><time>2026-03-22T13:20:03.999Z</time></trkpt><trkpt lat="44.708357891336" lon="10.031602542929683"><ele>447.0</ele><time>2026-03-22T13:20:04.999Z</time></trkpt><trkpt lat="44.7083304482065" lon="10.031723336170861"><ele>448.0</ele><time>2026-03-22T13:20:05.999Z</time></trkpt><trkpt lat="44.708306824544856" lon="10.031858407826851"><ele>449.0</ele><time>2026-03-22T13:20:06.999Z</time></trkpt><trkpt lat="44.7082839177657" lon="10.031998791795878"><ele>450.0</ele><time>2026-03-22T13:20:07.999Z</time></trkpt><trkpt lat="44.70824182522116" lon="10.032151698656122"><ele>451.0</ele><time>2026-03-22T13:20:08.999Z</time></trkpt><trkpt lat="44.70819121704446" lon="10.032319788219201"><ele>451.0</ele><time>2026-03-22T13:20:09.999Z</time></trkpt><trkpt lat="44.708147120555296" lon="10.032456448426444"><ele>451.0</ele><time>2026-03-22T13:20:10.999Z</time></trkpt><trkpt lat="44.70810448110469" lon="10.032559766743638"><ele>451.0</ele><time>2026-03-22T13:20:11.999Z</time></trkpt><trkpt lat="44.70807508059073" lon="10.032670360978107"><ele>451.0</ele><time>2026-03-22T13:20:12.999Z</time></trkpt><trkpt lat="44.70803769221876" lon="10.032797212310241"><ele>451.0</ele><time>2026-03-22T13:20:13.999Z</time></trkpt><trkpt lat="44.708014772539315" lon="10.032956470227681"><ele>450.0</ele><time>2026-03-22T13:20:14.999Z</time></trkpt><trkpt lat="44.70799070831919" lon="10.033141179227997"><ele>449.0</ele><time>2026-03-22T13:20:15.999Z</time></trkpt><trkpt lat="44.70796581667194" lon="10.033304274577574"><ele>448.0</ele><time>2026-03-22T13:20:16.999Z</time></trkpt><trkpt lat="44.70795460685328" lon="10.03343453436041"><ele>447.0</ele><time>2026-03-22T13:20:17.999Z</time></trkpt><trkpt lat="44.707955771224675" lon="10.033545309282687"><ele>446.0</ele><time>2026-03-22T13:20:18.999Z</time></trkpt><trkpt lat="44.70794358736923" lon="10.033639764178046"><ele>445.20000000000005</ele><time>2026-03-22T13:20:19.999Z</time></trkpt><trkpt lat="44.70792040215391" lon="10.033758200595292"><ele>444.40000000000003</ele><time>2026-03-22T13:20:20.999Z</time></trkpt><trkpt lat="44.70789434910749" lon="10.033876907253568"><ele>443.6</ele><time>2026-03-22T13:20:21.999Z</time></trkpt><trkpt lat="44.70787377343969" lon="10.033966549854473"><ele>442.8</ele><time>2026-03-22T13:20:22.999Z</time></trkpt><trkpt lat="44.707777994088126" lon="10.034059072401313"><ele>442.0</ele><time>2026-03-22T13:20:24.999Z</time></trkpt><trkpt lat="44.70769644330285" lon="10.034159724714845"><ele>441.20000000000005</ele><time>2026-03-22T13:20:27Z</time></trkpt><trkpt lat="44.70760972212463" lon="10.034289987222957"><ele>440.40000000000003</ele><time>2026-03-22T13:20:29Z</time></trkpt><trkpt lat="44.707533401811084" lon="10.034417379663827"><ele>439.59999999999997</ele><time>2026-03-22T13:20:31Z</time></trkpt><trkpt lat="44.707461903469365" lon="10.034525457570929"><ele>438.79999999999995</ele><time>2026-03-22T13:20:33Z</time></trkpt><trkpt lat="44.70740693010424" lon="10.034622493664028"><ele>438.0</ele><time>2026-03-22T13:20:35Z</time></trkpt><trkpt lat="44.707352620771836" lon="10.034686670145906"><ele>438.0</ele><time>2026-03-22T13:20:37Z</time></trkpt><trkpt lat="44.70728408665594" lon="10.03474005745496"><ele>438.0</ele><time>2026-03-22T13:20:40Z</time></trkpt><trkpt lat="44.70721891530379" lon="10.034791256725216"><ele>438.0</ele><time>2026-03-22T13:20:43Z</time></trkpt><trkpt lat="44.70714897786613" lon="10.034873442379896"><ele>438.0</ele><time>2026-03-22T13:20:45Z</time></trkpt><trkpt lat="44.70709982082744" lon="10.034948302183945"><ele>438.0</ele><time>2026-03-22T13:20:46Z</time></trkpt><trkpt lat="44.7070407346038" lon="10.03503858665315"><ele>438.0</ele><time>2026-03-22T13:20:47Z</time></trkpt><trkpt lat="44.706976567836605" lon="10.035126911853967"><ele>435.1666666666667</ele><time>2026-03-22T13:20:48Z</time></trkpt><trkpt lat="44.706909598969155" lon="10.035204578487265"><ele>432.33333333333337</ele><time>2026-03-22T13:20:49Z</time></trkpt><trkpt lat="44.70684129815372" lon="10.035274228641978"><ele>429.5</ele><time>2026-03-22T13:20:50Z</time></trkpt><trkpt lat="44.70677184538962" lon="10.035353791749642"><ele>426.6666666666667</ele><time>2026-03-22T13:20:51Z</time></trkpt><trkpt lat="44.706710866779304" lon="10.035451645590895"><ele>423.83333333333337</ele><time>2026-03-22T13:20:52Z</time></trkpt><trkpt lat="44.7066617828542" lon="10.035549983572093"><ele>421.0</ele><time>2026-03-22T13:20:53Z</time></trkpt><trkpt lat="44.70661873116564" lon="10.035635719337636"><ele>421.00000000000006</ele><time>2026-03-22T13:20:54Z</time></trkpt><trkpt lat="44.70657701651181" lon="10.035724990584866"><ele>421.0</ele><time>2026-03-22T13:20:55Z</time></trkpt><trkpt lat="44.70652956237549" lon="10.035812884272817"><ele>421.0</ele><time>2026-03-22T13:20:56Z</time></trkpt><trkpt lat="44.706479321750734" lon="10.03591218778106"><ele>421.0</ele><time>2026-03-22T13:20:57Z</time></trkpt><trkpt lat="44.706430033276106" lon="10.03603058040692"><ele>421.00000000000006</ele><time>2026-03-22T13:20:58Z</time></trkpt><trkpt lat="44.70638985545225" lon="10.036141848171784"><ele>421.0</ele><time>2026-03-22T13:20:59Z</time></trkpt><trkpt lat="44.70634872528368" lon="10.036241603480066"><ele>420.33333333333337</ele><time>2026-03-22T13:21:00Z</time></trkpt><trkpt lat="44.70629836631701" lon="10.03635068254348"><ele>419.6666666666667</ele><time>2026-03-22T13:21:01Z</time></trkpt><trkpt lat="44.70623831218491" lon="10.036473009521577"><ele>419.0</ele><time>2026-03-22T13:21:02Z</time></trkpt><trkpt lat="44.706174004932336" lon="10.036568141397975"><ele>418.33333333333337</ele><time>2026-03-22T13:21:03Z</time></trkpt><trkpt lat="44.70611341603805" lon="10.036652334674471"><ele>417.6666666666667</ele><time>2026-03-22T13:21:04Z</time></trkpt><trkpt lat="44.70607076936896" lon="10.03672865677878"><ele>417.0</ele><time>2026-03-22T13:21:05Z</time></trkpt><trkpt lat="44.70604503507705" lon="10.036822653561526"><ele>415.6</ele><time>2026-03-22T13:21:06Z</time></trkpt><trkpt lat="44.70601624680611" lon="10.036937612046158"><ele>414.20000000000005</ele><time>2026-03-22T13:21:07Z</time></trkpt><trkpt lat="44.70600097421121" lon="10.037081569271201"><ele>412.8</ele><time>2026-03-22T13:21:08Z</time></trkpt><trkpt lat="44.705984186940114" lon="10.037241811292096"><ele>411.4</ele><time>2026-03-22T13:21:09Z</time></trkpt><trkpt lat="44.70596593682357" lon="10.037399293107324"><ele>410.0</ele><time>2026-03-22T13:21:10Z</time></trkpt><trkpt lat="44.70594719790344" lon="10.037541560008242"><ele>410.0</ele><time>2026-03-22T13:21:11Z</time></trkpt><trkpt lat="44.705924473577895" lon="10.037689547797791"><ele>410.0</ele><time>2026-03-22T13:21:12Z</time></trkpt><trkpt lat="44.705894622671146" lon="10.037845092988483"><ele>410.0</ele><time>2026-03-22T13:21:13Z</time></trkpt><trkpt lat="44.70585894443091" lon="10.037992338138288"><ele>410.0</ele><time>2026-03-22T13:21:14Z</time></trkpt><trkpt lat="44.705805651328575" lon="10.038128264044449"><ele>410.0</ele><time>2026-03-22T13:21:15Z</time></trkpt><trkpt lat="44.705740228365286" lon="10.038247975965874"><ele>409.6</ele><time>2026-03-22T13:21:16Z</time></trkpt><trkpt lat="44.70567418251202" lon="10.038367622653306"><ele>409.2</ele><time>2026-03-22T13:21:17Z</time></trkpt><trkpt lat="44.70562282161183" lon="10.038477127536352"><ele>408.79999999999995</ele><time>2026-03-22T13:21:18Z</time></trkpt><trkpt lat="44.705593096030626" lon="10.038615226746519"><ele>408.4</ele><time>2026-03-22T13:21:19Z</time></trkpt><trkpt lat="44.70556403460099" lon="10.03878084026045"><ele>408.0</ele><time>2026-03-22T13:21:19.999Z</time></trkpt><trkpt lat="44.705526087652956" lon="10.038995414598162"><ele>408.4</ele><time>2026-03-22T13:21:20.999Z</time></trkpt><trkpt lat="44.705493403100114" lon="10.039162671315362"><ele>408.79999999999995</ele><time>2026-03-22T13:21:21.999Z</time></trkpt><trkpt lat="44.705478293631316" lon="10.03929218946519"><ele>409.2</ele><time>2026-03-22T13:21:22.999Z</time></trkpt><trkpt lat="44.705478426700545" lon="10.039420324717344"><ele>409.6</ele><time>2026-03-22T13:21:23.999Z</time></trkpt><trkpt lat="44.705488314496584" lon="10.039538645125605"><ele>410.0</ele><time>2026-03-22T13:21:24.999Z</time></trkpt><trkpt lat="44.705460569829654" lon="10.03969037054902"><ele>410.0</ele><time>2026-03-22T13:21:26.999Z</time></trkpt><trkpt lat="44.70540974102504" lon="10.039784245475605"><ele>410.0</ele><time>2026-03-22T13:21:27.999Z</time></trkpt><trkpt lat="44.70533175860399" lon="10.039893883767009"><ele>410.0</ele><time>2026-03-22T13:21:28.999Z</time></trkpt><trkpt lat="44.70522994556457" lon="10.040014671819234"><ele>410.0</ele><time>2026-03-22T13:21:29.999Z</time></trkpt><trkpt lat="44.70512763194897" lon="10.040137579237031"><ele>413.0</ele><time>2026-03-22T13:21:30.999Z</time></trkpt><trkpt lat="44.70503442942705" lon="10.040227312071014"><ele>416.0</ele><time>2026-03-22T13:21:31.999Z</time></trkpt><trkpt lat="44.704960545871884" lon="10.04030347436316"><ele>419.0</ele><time>2026-03-22T13:21:32.999Z</time></trkpt><trkpt lat="44.70490220368409" lon="10.040431072393558"><ele>422.0</ele><time>2026-03-22T13:21:33.999Z</time></trkpt><trkpt lat="44.70483442820457" lon="10.040550036877123"><ele>425.0</ele><time>2026-03-22T13:21:34.999Z</time></trkpt><trkpt lat="44.70474846552286" lon="10.040632075263627"><ele>424.99999999999994</ele><time>2026-03-22T13:21:35.999Z</time></trkpt><trkpt lat="44.704682421643085" lon="10.040682370501981"><ele>425.0</ele><time>2026-03-22T13:21:36.999Z</time></trkpt><trkpt lat="44.70461929437082" lon="10.04071019347035"><ele>425.0</ele><time>2026-03-22T13:21:37.999Z</time></trkpt><trkpt lat="44.704551449872845" lon="10.040733588443576"><ele>425.0</ele><time>2026-03-22T13:21:38.999Z</time></trkpt><trkpt lat="44.704485162960005" lon="10.040790460583299"><ele>424.99999999999994</ele><time>2026-03-22T13:21:39.999Z</time></trkpt><trkpt lat="44.70443673805875" lon="10.040884971432085"><ele>425.0</ele><time>2026-03-22T13:21:40.999Z</time></trkpt><trkpt lat="44.704378945455794" lon="10.04099444349752"><ele>425.8</ele><time>2026-03-22T13:21:41.999Z</time></trkpt><trkpt lat="44.70433094795606" lon="10.041115108759099"><ele>426.6</ele><time>2026-03-22T13:21:42.999Z</time></trkpt><trkpt lat="44.70428080140359" lon="10.041221011438317"><ele>427.4</ele><time>2026-03-22T13:21:43.999Z</time></trkpt><trkpt lat="44.704228545706854" lon="10.041327408819985"><ele>428.2</ele><time>2026-03-22T13:21:44.999Z</time></trkpt><trkpt lat="44.70417332388914" lon="10.041436053651392"><ele>429.0</ele><time>2026-03-22T13:21:45.999Z</time></trkpt><trkpt lat="44.704119877035765" lon="10.041545849470365"><ele>430.0</ele><time>2026-03-22T13:21:46.999Z</time></trkpt><trkpt lat="44.704074783849286" lon="10.041646178638755"><ele>431.0</ele><time>2026-03-22T13:21:47.999Z</time></trkpt><trkpt lat="44.7040235594626" lon="10.04174704537174"><ele>432.0</ele><time>2026-03-22T13:21:48.999Z</time></trkpt><trkpt lat="44.703964317290605" lon="10.04184471154188"><ele>433.0</ele><time>2026-03-22T13:21:49.999Z</time></trkpt><trkpt lat="44.70391673531202" lon="10.041927402090796"><ele>434.0</ele><time>2026-03-22T13:21:50.999Z</time></trkpt><trkpt lat="44.70387209493077" lon="10.042002038643808"><ele>435.0</ele><time>2026-03-22T13:21:51.999Z</time></trkpt><trkpt lat="44.70383231520657" lon="10.042079810981328"><ele>435.0</ele><time>2026-03-22T13:21:52.999Z</time></trkpt><trkpt lat="44.703798367804815" lon="10.042167371255433"><ele>435.0</ele><time>2026-03-22T13:21:53.999Z</time></trkpt><trkpt lat="44.70376539359814" lon="10.042255301132094"><ele>435.0</ele><time>2026-03-22T13:21:54.999Z</time></trkpt><trkpt lat="44.703695891347245" lon="10.04237888557645"><ele>435.0</ele><time>2026-03-22T13:21:56.999Z</time></trkpt><trkpt lat="44.703615017355716" lon="10.042462278726585"><ele>435.0</ele><time>2026-03-22T13:21:58.999Z</time></trkpt><trkpt lat="44.70349220587413" lon="10.042505283397954"><ele>433.0</ele><time>2026-03-22T13:22:00.999Z</time></trkpt><trkpt lat="44.70339607390424" lon="10.04254961692662"><ele>431.0</ele><time>2026-03-22T13:22:02.999Z</time></trkpt><trkpt lat="44.70332150747415" lon="10.042632449454352"><ele>429.0</ele><time>2026-03-22T13:22:04.999Z</time></trkpt><trkpt lat="44.703244015086185" lon="10.042683874961327"><ele>427.0</ele><time>2026-03-22T13:22:06.999Z</time></trkpt><trkpt lat="44.70319270586516" lon="10.042749826552651"><ele>425.0</ele><time>2026-03-22T13:22:08.999Z</time></trkpt><trkpt lat="44.70312145761697" lon="10.04280644987327"><ele>423.0</ele><time>2026-03-22T13:22:10.999Z</time></trkpt><trkpt lat="44.70306243087992" lon="10.042878904538632"><ele>423.0</ele><time>2026-03-22T13:22:12.999Z</time></trkpt><trkpt lat="44.7030311057816" lon="10.043005081856018"><ele>423.0</ele><time>2026-03-22T13:22:15.999Z</time></trkpt><trkpt lat="44.702988329986376" lon="10.043072450849026"><ele>423.0</ele><time>2026-03-22T13:22:17.999Z</time></trkpt><trkpt lat="44.70298107611232" lon="10.043209498036004"><ele>423.0</ele><time>2026-03-22T13:22:20.999Z</time></trkpt><trkpt lat="44.70298518928387" lon="10.04330109152349"><ele>423.0</ele><time>2026-03-22T13:22:22.999Z</time></trkpt><trkpt lat="44.703049991963056" lon="10.043426461123223"><ele>423.0</ele><time>2026-03-22T13:22:24.999Z</time></trkpt><trkpt lat="44.70301824282696" lon="10.043625177424016"><ele>423.2</ele><time>2026-03-22T13:22:25.999Z</time></trkpt><trkpt lat="44.70311129252801" lon="10.043784824071711"><ele>423.4</ele><time>2026-03-22T13:22:26.999Z</time></trkpt><trkpt lat="44.70313730216891" lon="10.043891041953096"><ele>423.59999999999997</ele><time>2026-03-22T13:22:27.999Z</time></trkpt><trkpt lat="44.70316435575079" lon="10.043997984647905"><ele>423.79999999999995</ele><time>2026-03-22T13:22:28.999Z</time></trkpt><trkpt lat="44.70318348936052" lon="10.044109194786529"><ele>424.0</ele><time>2026-03-22T13:22:29.999Z</time></trkpt><trkpt lat="44.703225828476725" lon="10.0442550915431"><ele>423.42857142857144</ele><time>2026-03-22T13:22:32Z</time></trkpt><trkpt lat="44.703274612132" lon="10.044316287508645"><ele>422.85714285714283</ele><time>2026-03-22T13:22:33Z</time></trkpt><trkpt lat="44.70332749369" lon="10.044400818040709"><ele>422.2857142857143</ele><time>2026-03-22T13:22:34Z</time></trkpt><trkpt lat="44.70338114346432" lon="10.044470384529157"><ele>421.7142857142857</ele><time>2026-03-22T13:22:35Z</time></trkpt><trkpt lat="44.703440121528814" lon="10.044542403306368"><ele>421.1428571428571</ele><time>2026-03-22T13:22:36Z</time></trkpt><trkpt lat="44.70346848344817" lon="10.044641030919182"><ele>420.57142857142856</ele><time>2026-03-22T13:22:37Z</time></trkpt><trkpt lat="44.703494392036035" lon="10.044736872636175"><ele>420.0</ele><time>2026-03-22T13:22:38Z</time></trkpt><trkpt lat="44.70351053908808" lon="10.044875731128146"><ele>419.8</ele><time>2026-03-22T13:22:39Z</time></trkpt><trkpt lat="44.70345744914124" lon="10.045022150116933"><ele>419.6</ele><time>2026-03-22T13:22:41Z</time></trkpt><trkpt lat="44.70341816830698" lon="10.045144517310206"><ele>419.4</ele><time>2026-03-22T13:22:42Z</time></trkpt><trkpt lat="44.70338756610619" lon="10.045296248626357"><ele>419.2</ele><time>2026-03-22T13:22:43Z</time></trkpt><trkpt lat="44.703386457983555" lon="10.045400657384516"><ele>419.0</ele><time>2026-03-22T13:22:44Z</time></trkpt><trkpt lat="44.703442971413736" lon="10.045467555593167"><ele>419.0</ele><time>2026-03-22T13:22:45Z</time></trkpt><trkpt lat="44.703427652857584" lon="10.04565324054648"><ele>419.0</ele><time>2026-03-22T13:22:47Z</time></trkpt><trkpt lat="44.70346328526784" lon="10.045790938427764"><ele>419.0</ele><time>2026-03-22T13:22:49Z</time></trkpt><trkpt lat="44.70349563498143" lon="10.045872850305281"><ele>419.0</ele><time>2026-03-22T13:22:52Z</time></trkpt><trkpt lat="44.703552154073826" lon="10.046047648692417"><ele>419.0</ele><time>2026-03-22T13:22:54Z</time></trkpt><trkpt lat="44.70360156581186" lon="10.04615653240549"><ele>422.8333333333333</ele><time>2026-03-22T13:22:56Z</time></trkpt><trkpt lat="44.70363163565477" lon="10.046242672629909"><ele>426.66666666666663</ele><time>2026-03-22T13:22:59Z</time></trkpt><trkpt lat="44.70369947239251" lon="10.046280092660014"><ele>430.5</ele><time>2026-03-22T13:23:00Z</time></trkpt><trkpt lat="44.70374435820855" lon="10.046435404165008"><ele>434.33333333333337</ele><time>2026-03-22T13:23:02Z</time></trkpt><trkpt lat="44.70374169469706" lon="10.046559950393208"><ele>438.1666666666667</ele><time>2026-03-22T13:23:03Z</time></trkpt><trkpt lat="44.70372871443774" lon="10.0466669231519"><ele>442.0</ele><time>2026-03-22T13:23:04Z</time></trkpt><trkpt lat="44.70370173514598" lon="10.046790523532646"><ele>442.0</ele><time>2026-03-22T13:23:06Z</time></trkpt><trkpt lat="44.703595329029284" lon="10.046822805667205"><ele>442.00000000000006</ele><time>2026-03-22T13:23:07Z</time></trkpt><trkpt lat="44.703582502006526" lon="10.04691343874384"><ele>442.00000000000006</ele><time>2026-03-22T13:23:08Z</time></trkpt><trkpt lat="44.70357034445439" lon="10.0470475041205"><ele>442.0</ele><time>2026-03-22T13:23:09Z</time></trkpt><trkpt lat="44.70359816333275" lon="10.04719282024906"><ele>442.0</ele><time>2026-03-22T13:23:10Z</time></trkpt><trkpt lat="44.70361823568444" lon="10.047295098688933"><ele>442.00000000000006</ele><time>2026-03-22T13:23:11Z</time></trkpt><trkpt lat="44.703646416217374" lon="10.047393765678702"><ele>442.0</ele><time>2026-03-22T13:23:12Z</time></trkpt><trkpt lat="44.703694523766366" lon="10.047484964980182"><ele>442.0</ele><time>2026-03-22T13:23:13Z</time></trkpt><trkpt lat="44.703741539861035" lon="10.047558251612074"><ele>442.0</ele><time>2026-03-22T13:23:14Z</time></trkpt><trkpt lat="44.70377611099952" lon="10.047655778631867"><ele>442.00000000000006</ele><time>2026-03-22T13:23:15Z</time></trkpt><trkpt lat="44.703783410394394" lon="10.047745773965504"><ele>442.0</ele><time>2026-03-22T13:23:16Z</time></trkpt><trkpt lat="44.70375977233643" lon="10.0479224599062"><ele>439.50000000000006</ele><time>2026-03-22T13:23:18Z</time></trkpt><trkpt lat="44.70374646343815" lon="10.048011489177501"><ele>437.0</ele><time>2026-03-22T13:23:19Z</time></trkpt><trkpt lat="44.70372514794836" lon="10.048131315420298"><ele>434.5</ele><time>2026-03-22T13:23:20Z</time></trkpt><trkpt lat="44.703707757658925" lon="10.048271101867583"><ele>432.0</ele><time>2026-03-22T13:23:21Z</time></trkpt><trkpt lat="44.70369274049071" lon="10.048386743321858"><ele>429.50000000000006</ele><time>2026-03-22T13:23:22Z</time></trkpt><trkpt lat="44.703673967488974" lon="10.048489593415427"><ele>427.0</ele><time>2026-03-22T13:23:22.999Z</time></trkpt><trkpt lat="44.70364841554082" lon="10.048603230200927"><ele>424.75</ele><time>2026-03-22T13:23:23.999Z</time></trkpt><trkpt lat="44.70361250405535" lon="10.048750013594313"><ele>422.5</ele><time>2026-03-22T13:23:24.999Z</time></trkpt><trkpt lat="44.7035678009425" lon="10.04890946150019"><ele>420.25</ele><time>2026-03-22T13:23:25.999Z</time></trkpt><trkpt lat="44.70352589253863" lon="10.049054565644601"><ele>418.0</ele><time>2026-03-22T13:23:26.999Z</time></trkpt><trkpt lat="44.70349486669126" lon="10.04920261639341"><ele>418.0</ele><time>2026-03-22T13:23:27.999Z</time></trkpt><trkpt lat="44.70348776766784" lon="10.049395590540843"><ele>418.0</ele><time>2026-03-22T13:23:28.999Z</time></trkpt><trkpt lat="44.70348154557933" lon="10.049586744645874"><ele>418.0</ele><time>2026-03-22T13:23:29.999Z</time></trkpt><trkpt lat="44.70347296332405" lon="10.049778912708032"><ele>418.0</ele><time>2026-03-22T13:23:30.999Z</time></trkpt><trkpt lat="44.703458301729846" lon="10.049965391295167"><ele>418.59999999999997</ele><time>2026-03-22T13:23:31.999Z</time></trkpt><trkpt lat="44.70343920752379" lon="10.050082344973081"><ele>419.2</ele><time>2026-03-22T13:23:32.999Z</time></trkpt><trkpt lat="44.703394989632265" lon="10.050225956250271"><ele>419.8</ele><time>2026-03-22T13:23:34.999Z</time></trkpt><trkpt lat="44.703348804272714" lon="10.050346692996795"><ele>420.4</ele><time>2026-03-22T13:23:35.999Z</time></trkpt><trkpt lat="44.70330247374224" lon="10.050443262679046"><ele>421.0</ele><time>2026-03-22T13:23:36.999Z</time></trkpt><trkpt lat="44.70335943541752" lon="10.050662229990046"><ele>420.4</ele><time>2026-03-22T13:23:37.999Z</time></trkpt><trkpt lat="44.703279336381485" lon="10.050793909443637"><ele>419.8</ele><time>2026-03-22T13:23:38.999Z</time></trkpt><trkpt lat="44.70321816201807" lon="10.05090259616896"><ele>419.2</ele><time>2026-03-22T13:23:39.999Z</time></trkpt><trkpt lat="44.70316750353277" lon="10.051010018456335"><ele>418.59999999999997</ele><time>2026-03-22T13:23:40.999Z</time></trkpt><trkpt lat="44.703110705212914" lon="10.051140021090303"><ele>418.0</ele><time>2026-03-22T13:23:41.999Z</time></trkpt><trkpt lat="44.703067662733424" lon="10.05129868242881"><ele>418.0</ele><time>2026-03-22T13:23:42.999Z</time></trkpt><trkpt lat="44.703033177929704" lon="10.051434914300698"><ele>418.0</ele><time>2026-03-22T13:23:43.999Z</time></trkpt><trkpt lat="44.7030039051807" lon="10.051536075256836"><ele>418.0</ele><time>2026-03-22T13:23:44.999Z</time></trkpt><trkpt lat="44.70293067162079" lon="10.051680509715721"><ele>418.0</ele><time>2026-03-22T13:23:46.999Z</time></trkpt><trkpt lat="44.70289581068062" lon="10.05179798299248"><ele>418.0</ele><time>2026-03-22T13:23:47.999Z</time></trkpt><trkpt lat="44.70286523360996" lon="10.051925682680867"><ele>418.1666666666667</ele><time>2026-03-22T13:23:48.999Z</time></trkpt><trkpt lat="44.70283089150225" lon="10.05201897337512"><ele>418.33333333333337</ele><time>2026-03-22T13:23:49.999Z</time></trkpt><trkpt lat="44.70275706827879" lon="10.052126017931421"><ele>418.5</ele><time>2026-03-22T13:23:51.999Z</time></trkpt><trkpt lat="44.70269163213905" lon="10.052239872406027"><ele>418.66666666666663</ele><time>2026-03-22T13:23:53.999Z</time></trkpt><trkpt lat="44.70266437935958" lon="10.052339761685618"><ele>418.8333333333333</ele><time>2026-03-22T13:23:54.999Z</time></trkpt><trkpt lat="44.70263959541205" lon="10.052439129257083"><ele>419.0</ele><time>2026-03-22T13:23:55.999Z</time></trkpt><trkpt lat="44.702573085622156" lon="10.0525030051828"><ele>420.66666666666663</ele><time>2026-03-22T13:23:56.999Z</time></trkpt><trkpt lat="44.702486890245815" lon="10.052531571548352"><ele>422.3333333333333</ele><time>2026-03-22T13:23:57.999Z</time></trkpt><trkpt lat="44.70240765316282" lon="10.052528263517994"><ele>424.0</ele><time>2026-03-22T13:23:58.999Z</time></trkpt><trkpt lat="44.702336250877366" lon="10.052542551078334"><ele>425.66666666666663</ele><time>2026-03-22T13:23:59.999Z</time></trkpt><trkpt lat="44.70226187666226" lon="10.052582828769737"><ele>427.3333333333333</ele><time>2026-03-22T13:24:00.999Z</time></trkpt><trkpt lat="44.702196014798346" lon="10.052635582340583"><ele>429.0</ele><time>2026-03-22T13:24:01.999Z</time></trkpt><trkpt lat="44.70213969662417" lon="10.05269053949494"><ele>429.0</ele><time>2026-03-22T13:24:02.999Z</time></trkpt><trkpt lat="44.70209159936537" lon="10.052761978998284"><ele>429.0</ele><time>2026-03-22T13:24:03.999Z</time></trkpt><trkpt lat="44.70205305117009" lon="10.052833947919886"><ele>429.0</ele><time>2026-03-22T13:24:04.999Z</time></trkpt><trkpt lat="44.70200075080761" lon="10.052997773936397"><ele>429.0</ele><time>2026-03-22T13:24:06.999Z</time></trkpt><trkpt lat="44.70196936618972" lon="10.053090303967329"><ele>429.0</ele><time>2026-03-22T13:24:07.999Z</time></trkpt><trkpt lat="44.70190714279527" lon="10.053193942155188"><ele>429.0</ele><time>2026-03-22T13:24:08.999Z</time></trkpt><trkpt lat="44.70185727427871" lon="10.053280417855127"><ele>429.6</ele><time>2026-03-22T13:24:09.999Z</time></trkpt><trkpt lat="44.70181884958083" lon="10.053420659540837"><ele>430.2</ele><time>2026-03-22T13:24:11.999Z</time></trkpt><trkpt lat="44.70182382264231" lon="10.053612611088939"><ele>430.80000000000007</ele><time>2026-03-22T13:24:13.999Z</time></trkpt><trkpt lat="44.70183667514152" lon="10.053745740517067"><ele>431.40000000000003</ele><time>2026-03-22T13:24:14.999Z</time></trkpt><trkpt lat="44.70184433763785" lon="10.05389074133825"><ele>432.0</ele><time>2026-03-22T13:24:15.999Z</time></trkpt><trkpt lat="44.70185510179314" lon="10.054024641124654"><ele>432.20000000000005</ele><time>2026-03-22T13:24:16.999Z</time></trkpt><trkpt lat="44.70183723546168" lon="10.054201266050592"><ele>432.40000000000003</ele><time>2026-03-22T13:24:17.999Z</time></trkpt><trkpt lat="44.701819845435345" lon="10.054345006542468"><ele>432.59999999999997</ele><time>2026-03-22T13:24:18.999Z</time></trkpt><trkpt lat="44.701808622212646" lon="10.054453400442469"><ele>432.79999999999995</ele><time>2026-03-22T13:24:19.999Z</time></trkpt><trkpt lat="44.70179687047504" lon="10.054558979061623"><ele>433.0</ele><time>2026-03-22T13:24:20.999Z</time></trkpt><trkpt lat="44.7017769170876" lon="10.054661090021487"><ele>433.0</ele><time>2026-03-22T13:24:21.999Z</time></trkpt><trkpt lat="44.70175342479704" lon="10.054758378629872"><ele>432.99999999999994</ele><time>2026-03-22T13:24:22.999Z</time></trkpt><trkpt lat="44.70173368578944" lon="10.054931440598589"><ele>432.99999999999994</ele><time>2026-03-22T13:24:24.999Z</time></trkpt><trkpt lat="44.701737209956" lon="10.055073548316821"><ele>433.0</ele><time>2026-03-22T13:24:26.999Z</time></trkpt><trkpt lat="44.70174816041743" lon="10.055201708093087"><ele>433.0</ele><time>2026-03-22T13:24:28.999Z</time></trkpt><trkpt lat="44.70173923764239" lon="10.055345239824495"><ele>432.50000000000006</ele><time>2026-03-22T13:24:30.999Z</time></trkpt><trkpt lat="44.70169827860746" lon="10.055416923747206"><ele>432.0</ele><time>2026-03-22T13:24:33.999Z</time></trkpt><trkpt lat="44.701691986163404" lon="10.055526734796084"><ele>431.5</ele><time>2026-03-22T13:24:35.999Z</time></trkpt><trkpt lat="44.701625472873296" lon="10.055572100922282"><ele>431.0</ele><time>2026-03-22T13:24:38Z</time></trkpt><trkpt lat="44.701673557751015" lon="10.055693171870603"><ele>430.50000000000006</ele><time>2026-03-22T13:24:40Z</time></trkpt><trkpt lat="44.70174428138441" lon="10.055660580151704"><ele>430.0</ele><time>2026-03-22T13:24:45Z</time></trkpt><trkpt lat="44.701837305051" lon="10.055631677712169"><ele>430.00000000000006</ele><time>2026-03-22T13:24:46Z</time></trkpt><trkpt lat="44.70190483137971" lon="10.055607813701014"><ele>430.0</ele><time>2026-03-22T13:24:47Z</time></trkpt><trkpt lat="44.70196691890471" lon="10.05557028332962"><ele>430.0</ele><time>2026-03-22T13:24:49Z</time></trkpt><trkpt lat="44.70203552787247" lon="10.055528142359014"><ele>430.0</ele><time>2026-03-22T13:24:51Z</time></trkpt><trkpt lat="44.702078276893374" lon="10.05566309858562"><ele>430.00000000000006</ele><time>2026-03-22T13:24:54Z</time></trkpt><trkpt lat="44.70211635940557" lon="10.055761510040233"><ele>430.0</ele><time>2026-03-22T13:24:56Z</time></trkpt><trkpt lat="44.70210010339888" lon="10.055890450960485"><ele>424.8</ele><time>2026-03-22T13:24:59Z</time></trkpt><trkpt lat="44.70209614806365" lon="10.05604546588429"><ele>419.6</ele><time>2026-03-22T13:25:01Z</time></trkpt><trkpt lat="44.70207502083356" lon="10.056197815640864"><ele>414.4</ele><time>2026-03-22T13:25:03Z</time></trkpt><trkpt lat="44.70211823163185" lon="10.056319228338785"><ele>409.2</ele><time>2026-03-22T13:25:05Z</time></trkpt><trkpt lat="44.702137996770354" lon="10.056420210669682"><ele>404.0</ele><time>2026-03-22T13:25:06Z</time></trkpt><trkpt lat="44.70214676848931" lon="10.056520247115326"><ele>402.2</ele><time>2026-03-22T13:25:07Z</time></trkpt><trkpt lat="44.702163071077216" lon="10.056635247694704"><ele>400.4</ele><time>2026-03-22T13:25:08Z</time></trkpt><trkpt lat="44.70219043714102" lon="10.056760603771465"><ele>398.6</ele><time>2026-03-22T13:25:09Z</time></trkpt><trkpt lat="44.702227475948696" lon="10.056909126839928"><ele>396.8</ele><time>2026-03-22T13:25:10Z</time></trkpt><trkpt lat="44.70225185870138" lon="10.057050440579937"><ele>395.0</ele><time>2026-03-22T13:25:11Z</time></trkpt><trkpt lat="44.70226230535169" lon="10.057177037265761"><ele>395.0</ele><time>2026-03-22T13:25:12Z</time></trkpt><trkpt lat="44.702277974060564" lon="10.057347545357747"><ele>395.0</ele><time>2026-03-22T13:25:13Z</time></trkpt><trkpt lat="44.702295778044515" lon="10.057503458916484"><ele>395.0</ele><time>2026-03-22T13:25:14Z</time></trkpt><trkpt lat="44.70231526687496" lon="10.057663157983194"><ele>395.0</ele><time>2026-03-22T13:25:15Z</time></trkpt><trkpt lat="44.70232777537265" lon="10.057810570196478"><ele>394.25</ele><time>2026-03-22T13:25:16Z</time></trkpt><trkpt lat="44.70235050943474" lon="10.05796436548487"><ele>393.5</ele><time>2026-03-22T13:25:17Z</time></trkpt><trkpt lat="44.70237645232848" lon="10.058136680200105"><ele>392.75</ele><time>2026-03-22T13:25:18Z</time></trkpt><trkpt lat="44.70239949721205" lon="10.058306528298932"><ele>392.0</ele><time>2026-03-22T13:25:19Z</time></trkpt><trkpt lat="44.70243163696196" lon="10.058458034487643"><ele>390.20000000000005</ele><time>2026-03-22T13:25:20Z</time></trkpt><trkpt lat="44.702440245291015" lon="10.058596037013599"><ele>388.4</ele><time>2026-03-22T13:25:21Z</time></trkpt><trkpt lat="44.70245100127046" lon="10.0587404476418"><ele>386.6</ele><time>2026-03-22T13:25:22Z</time></trkpt><trkpt lat="44.702447800591735" lon="10.05887761711303"><ele>384.79999999999995</ele><time>2026-03-22T13:25:23Z</time></trkpt><trkpt lat="44.70243755029032" lon="10.059011681225432"><ele>383.0</ele><time>2026-03-22T13:25:24Z</time></trkpt><trkpt lat="44.70242617743857" lon="10.059127040266846"><ele>382.59999999999997</ele><time>2026-03-22T13:25:25Z</time></trkpt><trkpt lat="44.70243156545856" lon="10.059246443895786"><ele>382.2</ele><time>2026-03-22T13:25:26Z</time></trkpt><trkpt lat="44.702458360911784" lon="10.05938964405522"><ele>381.8</ele><time>2026-03-22T13:25:27Z</time></trkpt><trkpt lat="44.70249129402654" lon="10.059544771410971"><ele>381.4</ele><time>2026-03-22T13:25:28Z</time></trkpt><trkpt lat="44.70249755392188" lon="10.059703020151364"><ele>381.0</ele><time>2026-03-22T13:25:29Z</time></trkpt><trkpt lat="44.702496343454115" lon="10.059891044458304"><ele>380.75</ele><time>2026-03-22T13:25:30Z</time></trkpt><trkpt lat="44.70249061811914" lon="10.060058530676107"><ele>380.5</ele><time>2026-03-22T13:25:30.999Z</time></trkpt><trkpt lat="44.702486869242726" lon="10.060215194879182"><ele>380.25</ele><time>2026-03-22T13:25:31.999Z</time></trkpt><trkpt lat="44.70248180057071" lon="10.060377440918304"><ele>380.0</ele><time>2026-03-22T13:25:32.999Z</time></trkpt><trkpt lat="44.70247518592022" lon="10.060525441532457"><ele>380.0</ele><time>2026-03-22T13:25:33.999Z</time></trkpt><trkpt lat="44.70247350470328" lon="10.06065851206678"><ele>380.0</ele><time>2026-03-22T13:25:34.999Z</time></trkpt><trkpt lat="44.70247791170243" lon="10.060783823522842"><ele>380.0</ele><time>2026-03-22T13:25:35.999Z</time></trkpt><trkpt lat="44.702490441018355" lon="10.060923212623855"><ele>380.0</ele><time>2026-03-22T13:25:36.999Z</time></trkpt><trkpt lat="44.7025119566518" lon="10.061069377260347"><ele>380.0</ele><time>2026-03-22T13:25:37.999Z</time></trkpt><trkpt lat="44.70251652463529" lon="10.061189468979881"><ele>379.6</ele><time>2026-03-22T13:25:38.999Z</time></trkpt><trkpt lat="44.702526552248514" lon="10.061293316603372"><ele>379.2</ele><time>2026-03-22T13:25:39.999Z</time></trkpt><trkpt lat="44.702527568181225" lon="10.061415050669495"><ele>378.79999999999995</ele><time>2026-03-22T13:25:40.999Z</time></trkpt><trkpt lat="44.702512741674596" lon="10.061557893490216"><ele>378.4</ele><time>2026-03-22T13:25:41.999Z</time></trkpt><trkpt lat="44.70248629483105" lon="10.061694982208927"><ele>378.0</ele><time>2026-03-22T13:25:42.999Z</time></trkpt><trkpt lat="44.702461000027334" lon="10.061827585102225"><ele>376.2</ele><time>2026-03-22T13:25:43.999Z</time></trkpt><trkpt lat="44.702457993095386" lon="10.061955416935374"><ele>374.4</ele><time>2026-03-22T13:25:44.999Z</time></trkpt><trkpt lat="44.70247094931422" lon="10.062095932955637"><ele>372.59999999999997</ele><time>2026-03-22T13:25:45.999Z</time></trkpt><trkpt lat="44.70247700991709" lon="10.062255350656262"><ele>370.79999999999995</ele><time>2026-03-22T13:25:46.999Z</time></trkpt><trkpt lat="44.70247514317341" lon="10.062424324978803"><ele>369.0</ele><time>2026-03-22T13:25:47.999Z</time></trkpt><trkpt lat="44.70246952399849" lon="10.062568631852406"><ele>368.79999999999995</ele><time>2026-03-22T13:25:48.999Z</time></trkpt><trkpt lat="44.7024686097469" lon="10.062688842074344"><ele>368.59999999999997</ele><time>2026-03-22T13:25:49.999Z</time></trkpt><trkpt lat="44.70246739583524" lon="10.06282308195167"><ele>368.4</ele><time>2026-03-22T13:25:50.999Z</time></trkpt><trkpt lat="44.70246158256946" lon="10.062955127425896"><ele>368.2</ele><time>2026-03-22T13:25:51.999Z</time></trkpt><trkpt lat="44.70245560575349" lon="10.06310587813575"><ele>368.0</ele><time>2026-03-22T13:25:52.999Z</time></trkpt><trkpt lat="44.70245223552534" lon="10.063252697803318"><ele>367.79999999999995</ele><time>2026-03-22T13:25:53.999Z</time></trkpt><trkpt lat="44.702441378037825" lon="10.06338253255022"><ele>367.6</ele><time>2026-03-22T13:25:54.999Z</time></trkpt><trkpt lat="44.70243529715623" lon="10.063508635712308"><ele>367.4</ele><time>2026-03-22T13:25:55.999Z</time></trkpt><trkpt lat="44.70242276005493" lon="10.063642039998207"><ele>367.20000000000005</ele><time>2026-03-22T13:25:56.999Z</time></trkpt><trkpt lat="44.70240678982164" lon="10.06376864947668"><ele>367.0</ele><time>2026-03-22T13:25:57.999Z</time></trkpt><trkpt lat="44.70240303044715" lon="10.063895958526267"><ele>367.0</ele><time>2026-03-22T13:25:58.999Z</time></trkpt><trkpt lat="44.702408141650736" lon="10.064039149111345"><ele>367.0</ele><time>2026-03-22T13:25:59.999Z</time></trkpt><trkpt lat="44.7024094983895" lon="10.064182716352308"><ele>367.0</ele><time>2026-03-22T13:26:00.999Z</time></trkpt><trkpt lat="44.70240730896508" lon="10.064329638764312"><ele>367.0</ele><time>2026-03-22T13:26:01.999Z</time></trkpt><trkpt lat="44.702407235793515" lon="10.064462453118857"><ele>367.0</ele><time>2026-03-22T13:26:02.999Z</time></trkpt><trkpt lat="44.70241539526087" lon="10.064595045073649"><ele>365.8</ele><time>2026-03-22T13:26:03.999Z</time></trkpt><trkpt lat="44.70241935916136" lon="10.064723208511069"><ele>364.6</ele><time>2026-03-22T13:26:04.999Z</time></trkpt><trkpt lat="44.70241458857377" lon="10.064850297479873"><ele>363.40000000000003</ele><time>2026-03-22T13:26:05.999Z</time></trkpt><trkpt lat="44.70241055085968" lon="10.064985590033606"><ele>362.20000000000005</ele><time>2026-03-22T13:26:06.999Z</time></trkpt><trkpt lat="44.70242777308454" lon="10.065117586985858"><ele>361.0</ele><time>2026-03-22T13:26:07.999Z</time></trkpt><trkpt lat="44.70245556450554" lon="10.065241385343898"><ele>360.66666666666663</ele><time>2026-03-22T13:26:08.999Z</time></trkpt><trkpt lat="44.70247751917601" lon="10.065355339169976"><ele>360.3333333333333</ele><time>2026-03-22T13:26:09.999Z</time></trkpt><trkpt lat="44.702495986224676" lon="10.065469844502639"><ele>360.0</ele><time>2026-03-22T13:26:10.999Z</time></trkpt><trkpt lat="44.70252102412858" lon="10.06555881285845"><ele>359.6666666666667</ele><time>2026-03-22T13:26:11.999Z</time></trkpt><trkpt lat="44.70254992989437" lon="10.065680305525525"><ele>359.33333333333337</ele><time>2026-03-22T13:26:12.999Z</time></trkpt><trkpt lat="44.702556763967166" lon="10.065800955628019"><ele>359.0</ele><time>2026-03-22T13:26:13.999Z</time></trkpt><trkpt lat="44.702557247655676" lon="10.06592313240252"><ele>358.83333333333337</ele><time>2026-03-22T13:26:14.999Z</time></trkpt><trkpt lat="44.70256312074875" lon="10.066024326183218"><ele>358.6666666666667</ele><time>2026-03-22T13:26:15.999Z</time></trkpt><trkpt lat="44.7025678189302" lon="10.066117319947034"><ele>358.5</ele><time>2026-03-22T13:26:16.999Z</time></trkpt><trkpt lat="44.702581254518044" lon="10.066291754695417"><ele>358.3333333333333</ele><time>2026-03-22T13:26:18.999Z</time></trkpt><trkpt lat="44.70257784097139" lon="10.06638031057758"><ele>358.16666666666663</ele><time>2026-03-22T13:26:19.999Z</time></trkpt><trkpt lat="44.70258845711612" lon="10.066467951017586"><ele>358.0</ele><time>2026-03-22T13:26:20.999Z</time></trkpt><trkpt lat="44.70258918145164" lon="10.06657963332022"><ele>358.3333333333333</ele><time>2026-03-22T13:26:21.999Z</time></trkpt><trkpt lat="44.70259628806222" lon="10.066690463216537"><ele>358.66666666666663</ele><time>2026-03-22T13:26:22.999Z</time></trkpt><trkpt lat="44.70260781944557" lon="10.066811829705886"><ele>359.0</ele><time>2026-03-22T13:26:23.999Z</time></trkpt><trkpt lat="44.70263620546891" lon="10.066932665349075"><ele>359.3333333333333</ele><time>2026-03-22T13:26:24.999Z</time></trkpt><trkpt lat="44.70267813829562" lon="10.067045377124899"><ele>359.6666666666667</ele><time>2026-03-22T13:26:25.999Z</time></trkpt><trkpt lat="44.70271717205726" lon="10.06713770172675"><ele>360.0</ele><time>2026-03-22T13:26:26.999Z</time></trkpt><trkpt lat="44.70273849383875" lon="10.06723904257096"><ele>360.0</ele><time>2026-03-22T13:26:27.999Z</time></trkpt><trkpt lat="44.70274718013262" lon="10.0673556571674"><ele>360.0</ele><time>2026-03-22T13:26:28.999Z</time></trkpt><trkpt lat="44.702757022896904" lon="10.06745843898783"><ele>360.0</ele><time>2026-03-22T13:26:29.999Z</time></trkpt><trkpt lat="44.70277442717223" lon="10.067564015129632"><ele>360.0</ele><time>2026-03-22T13:26:30.999Z</time></trkpt><trkpt lat="44.70280232793304" lon="10.067684770154884"><ele>360.0</ele><time>2026-03-22T13:26:31.999Z</time></trkpt><trkpt lat="44.702830889182486" lon="10.067810690921425"><ele>360.0</ele><time>2026-03-22T13:26:32.999Z</time></trkpt><trkpt lat="44.70285315598854" lon="10.067946992389983"><ele>360.3333333333333</ele><time>2026-03-22T13:26:33.999Z</time></trkpt><trkpt lat="44.70286333844875" lon="10.068091501952695"><ele>360.6666666666667</ele><time>2026-03-22T13:26:34.999Z</time></trkpt><trkpt lat="44.70286012676418" lon="10.068220415830352"><ele>361.0</ele><time>2026-03-22T13:26:35.999Z</time></trkpt><trkpt lat="44.70286902316209" lon="10.06831008445725"><ele>361.33333333333337</ele><time>2026-03-22T13:26:36.999Z</time></trkpt><trkpt lat="44.70291012279931" lon="10.068381903528282"><ele>361.6666666666667</ele><time>2026-03-22T13:26:37.999Z</time></trkpt><trkpt lat="44.702975743198046" lon="10.068454316977943"><ele>362.0</ele><time>2026-03-22T13:26:38.999Z</time></trkpt><trkpt lat="44.703057589898286" lon="10.06853165070047"><ele>362.0</ele><time>2026-03-22T13:26:39.999Z</time></trkpt><trkpt lat="44.70313962385697" lon="10.068591945642392"><ele>362.0</ele><time>2026-03-22T13:26:40.999Z</time></trkpt><trkpt lat="44.70319547219302" lon="10.068651692602682"><ele>362.0</ele><time>2026-03-22T13:26:41.999Z</time></trkpt><trkpt lat="44.703249438339625" lon="10.068718125116478"><ele>362.0</ele><time>2026-03-22T13:26:42.999Z</time></trkpt><trkpt lat="44.70330437768667" lon="10.06877295242521"><ele>362.0</ele><time>2026-03-22T13:26:44Z</time></trkpt><trkpt lat="44.70336264955834" lon="10.068812641855954"><ele>362.0</ele><time>2026-03-22T13:26:45Z</time></trkpt><trkpt lat="44.70343528430507" lon="10.068965796586859"><ele>362.0</ele><time>2026-03-22T13:26:47Z</time></trkpt><trkpt lat="44.70346064678356" lon="10.069071149485342"><ele>362.0</ele><time>2026-03-22T13:26:48Z</time></trkpt><trkpt lat="44.7034754494895" lon="10.069179104684531"><ele>362.0</ele><time>2026-03-22T13:26:49Z</time></trkpt><trkpt lat="44.70348572155906" lon="10.069270065453642"><ele>362.0</ele><time>2026-03-22T13:26:50Z</time></trkpt><trkpt lat="44.70350901977386" lon="10.069363672020533"><ele>362.0</ele><time>2026-03-22T13:26:51Z</time></trkpt><trkpt lat="44.70354288892482" lon="10.069483264407118"><ele>362.0</ele><time>2026-03-22T13:26:52Z</time></trkpt><trkpt lat="44.70357628477058" lon="10.06961993349419"><ele>360.5</ele><time>2026-03-22T13:26:53Z</time></trkpt><trkpt lat="44.703602609220994" lon="10.069725307260327"><ele>359.0</ele><time>2026-03-22T13:26:54Z</time></trkpt><trkpt lat="44.703636853755235" lon="10.06980227990573"><ele>357.5</ele><time>2026-03-22T13:26:55Z</time></trkpt><trkpt lat="44.70369539378379" lon="10.06995091368257"><ele>356.0</ele><time>2026-03-22T13:26:57Z</time></trkpt><trkpt lat="44.70372891156324" lon="10.07005752003806"><ele>354.5</ele><time>2026-03-22T13:26:58Z</time></trkpt><trkpt lat="44.70375216629811" lon="10.070155270015222"><ele>353.0</ele><time>2026-03-22T13:26:59Z</time></trkpt><trkpt lat="44.70377094745411" lon="10.070247907899153"><ele>353.0</ele><time>2026-03-22T13:27:00Z</time></trkpt><trkpt lat="44.70378068539134" lon="10.070336710859149"><ele>353.0</ele><time>2026-03-22T13:27:01Z</time></trkpt><trkpt lat="44.70377705711505" lon="10.07049757188404"><ele>353.0</ele><time>2026-03-22T13:27:03Z</time></trkpt><trkpt lat="44.70377154815086" lon="10.07066248214821"><ele>353.0</ele><time>2026-03-22T13:27:05Z</time></trkpt><trkpt lat="44.70377991286511" lon="10.07079487406129"><ele>353.0</ele><time>2026-03-22T13:27:07Z</time></trkpt><trkpt lat="44.70376732016874" lon="10.070921038376733"><ele>353.0</ele><time>2026-03-22T13:27:09Z</time></trkpt><trkpt lat="44.70375112015768" lon="10.071015972123915"><ele>353.0</ele><time>2026-03-22T13:27:11Z</time></trkpt><trkpt lat="44.703706569590864" lon="10.070952811304075"><ele>353.0</ele><time>2026-03-22T13:27:47.999Z</time></trkpt><trkpt lat="44.70376792926729" lon="10.070991930908098"><ele>353.0</ele><time>2026-03-22T13:30:49.998Z</time></trkpt><trkpt lat="44.70384350703217" lon="10.070969442306051"><ele>353.0</ele><time>2026-03-22T13:30:50.998Z</time></trkpt><trkpt lat="44.703922775306886" lon="10.070929771678443"><ele>353.0</ele><time>2026-03-22T13:30:52.998Z</time></trkpt><trkpt lat="44.70396066912767" lon="10.070851895944536"><ele>353.0</ele><time>2026-03-22T13:30:54.998Z</time></trkpt><trkpt lat="44.704047343962586" lon="10.070842205719655"><ele>353.0</ele><time>2026-03-22T13:30:55.999Z</time></trkpt><trkpt lat="44.70413448722038" lon="10.070869854968306"><ele>353.0</ele><time>2026-03-22T13:30:56.999Z</time></trkpt><trkpt lat="44.70423572567737" lon="10.070850243083125"><ele>353.0</ele><time>2026-03-22T13:30:58.999Z</time></trkpt><trkpt lat="44.70428391062988" lon="10.070784921126918"><ele>353.0</ele><time>2026-03-22T13:30:59.999Z</time></trkpt><trkpt lat="44.70440011096485" lon="10.070818281329013"><ele>353.0</ele><time>2026-03-22T13:31:01.999Z</time></trkpt><trkpt lat="44.70443336121084" lon="10.070903664793668"><ele>353.0</ele><time>2026-03-22T13:31:02.999Z</time></trkpt><trkpt lat="44.70452063601093" lon="10.070982379085201"><ele>349.2</ele><time>2026-03-22T13:31:04.999Z</time></trkpt><trkpt lat="44.704588994468324" lon="10.071029031505708"><ele>345.4</ele><time>2026-03-22T13:31:06.999Z</time></trkpt><trkpt lat="44.70464664079485" lon="10.071074943257061"><ele>341.59999999999997</ele><time>2026-03-22T13:31:09.999Z</time></trkpt><trkpt lat="44.70473947711488" lon="10.071107923255331"><ele>337.79999999999995</ele><time>2026-03-22T13:31:12.999Z</time></trkpt><trkpt lat="44.704836318353024" lon="10.071099305438214"><ele>334.0</ele><time>2026-03-22T13:31:14.999Z</time></trkpt><trkpt lat="44.704936033828055" lon="10.070981784845566"><ele>334.0</ele><time>2026-03-22T13:31:16.999Z</time></trkpt><trkpt lat="44.705009910840424" lon="10.070907945528784"><ele>334.0</ele><time>2026-03-22T13:31:17.999Z</time></trkpt><trkpt lat="44.70507654870451" lon="10.070854792133437"><ele>334.0</ele><time>2026-03-22T13:31:18.999Z</time></trkpt><trkpt lat="44.70513429071147" lon="10.070815554764923"><ele>334.0</ele><time>2026-03-22T13:31:19.999Z</time></trkpt><trkpt lat="44.70525323005488" lon="10.070806660743035"><ele>334.0</ele><time>2026-03-22T13:31:21.999Z</time></trkpt><trkpt lat="44.70532871126651" lon="10.070798096036198"><ele>334.0</ele><time>2026-03-22T13:31:22.999Z</time></trkpt><trkpt lat="44.70544830551172" lon="10.07071061935495"><ele>332.79999999999995</ele><time>2026-03-22T13:31:24.999Z</time></trkpt><trkpt lat="44.70550690156313" lon="10.070634388140054"><ele>331.59999999999997</ele><time>2026-03-22T13:31:25.999Z</time></trkpt><trkpt lat="44.70555551083202" lon="10.070559146939742"><ele>330.4</ele><time>2026-03-22T13:31:26.999Z</time></trkpt><trkpt lat="44.70562527253124" lon="10.0704290930144"><ele>329.2</ele><time>2026-03-22T13:31:28.999Z</time></trkpt><trkpt lat="44.705710094161795" lon="10.07033449944711"><ele>328.0</ele><time>2026-03-22T13:31:30.999Z</time></trkpt><trkpt lat="44.70581471526228" lon="10.07036778463917"><ele>328.0</ele><time>2026-03-22T13:31:32.999Z</time></trkpt><trkpt lat="44.705863553797975" lon="10.070430512834156"><ele>328.0</ele><time>2026-03-22T13:31:33.999Z</time></trkpt><trkpt lat="44.705893535898966" lon="10.070516084726576"><ele>328.0</ele><time>2026-03-22T13:31:34.999Z</time></trkpt><trkpt lat="44.70590353175075" lon="10.07061450720151"><ele>328.0</ele><time>2026-03-22T13:31:35.999Z</time></trkpt><trkpt lat="44.70591836452254" lon="10.070729657920067"><ele>328.0</ele><time>2026-03-22T13:31:36.999Z</time></trkpt><trkpt lat="44.705950676393506" lon="10.070856318544608"><ele>328.0</ele><time>2026-03-22T13:31:37.999Z</time></trkpt><trkpt lat="44.70600076185478" lon="10.070994542514807"><ele>327.16666666666663</ele><time>2026-03-22T13:31:38.999Z</time></trkpt><trkpt lat="44.706040365536495" lon="10.071104054476642"><ele>326.3333333333333</ele><time>2026-03-22T13:31:39.999Z</time></trkpt><trkpt lat="44.70607179967186" lon="10.071203502673095"><ele>325.5</ele><time>2026-03-22T13:31:40.999Z</time></trkpt><trkpt lat="44.70608666937493" lon="10.07130835460101"><ele>324.6666666666667</ele><time>2026-03-22T13:31:41.999Z</time></trkpt><trkpt lat="44.70610356918374" lon="10.071429008820918"><ele>323.83333333333337</ele><time>2026-03-22T13:31:42.999Z</time></trkpt><trkpt lat="44.70615082634852" lon="10.071542926306183"><ele>323.0</ele><time>2026-03-22T13:31:43.999Z</time></trkpt><trkpt lat="44.706207763381656" lon="10.071653300475056"><ele>325.2</ele><time>2026-03-22T13:31:44.999Z</time></trkpt><trkpt lat="44.706261029199084" lon="10.07177758803796"><ele>327.4</ele><time>2026-03-22T13:31:45.999Z</time></trkpt><trkpt lat="44.70631678978278" lon="10.071934952746341"><ele>329.59999999999997</ele><time>2026-03-22T13:31:46.999Z</time></trkpt><trkpt lat="44.7063682358516" lon="10.072066763848174"><ele>331.79999999999995</ele><time>2026-03-22T13:31:47.999Z</time></trkpt><trkpt lat="44.70640427539119" lon="10.072180705064913"><ele>334.0</ele><time>2026-03-22T13:31:48.999Z</time></trkpt><trkpt lat="44.70644236314426" lon="10.072278848005762"><ele>334.0</ele><time>2026-03-22T13:31:49.999Z</time></trkpt><trkpt lat="44.70649840536767" lon="10.072352426449525"><ele>334.0</ele><time>2026-03-22T13:31:50.999Z</time></trkpt><trkpt lat="44.70655719099242" lon="10.072400177735235"><ele>334.0</ele><time>2026-03-22T13:31:51.999Z</time></trkpt><trkpt lat="44.70662543726697" lon="10.072448593302514"><ele>334.0</ele><time>2026-03-22T13:31:52.999Z</time></trkpt><trkpt lat="44.7066933778686" lon="10.072501964658668"><ele>334.0</ele><time>2026-03-22T13:31:53.999Z</time></trkpt><trkpt lat="44.706752187601325" lon="10.072549208930724"><ele>334.0</ele><time>2026-03-22T13:31:54.999Z</time></trkpt><trkpt lat="44.70685395533254" lon="10.072597200172721"><ele>334.0</ele><time>2026-03-22T13:31:56.999Z</time></trkpt><trkpt lat="44.706944040328196" lon="10.072691285943511"><ele>334.0</ele><time>2026-03-22T13:31:58.999Z</time></trkpt><trkpt lat="44.707017653291445" lon="10.072738289323794"><ele>334.0</ele><time>2026-03-22T13:31:59.999Z</time></trkpt><trkpt lat="44.707096110718105" lon="10.072778873757237"><ele>334.0</ele><time>2026-03-22T13:32:00.999Z</time></trkpt><trkpt lat="44.707172369652156" lon="10.072841323713211"><ele>334.0</ele><time>2026-03-22T13:32:01.999Z</time></trkpt><trkpt lat="44.7072302657837" lon="10.072888287072765"><ele>334.0</ele><time>2026-03-22T13:32:02.999Z</time></trkpt><trkpt lat="44.707287218981264" lon="10.07294590308535"><ele>334.0</ele><time>2026-03-22T13:32:03.999Z</time></trkpt><trkpt lat="44.70733722528713" lon="10.073008051231945"><ele>334.0</ele><time>2026-03-22T13:32:04.999Z</time></trkpt><trkpt lat="44.707402890461175" lon="10.073030012704479"><ele>334.0</ele><time>2026-03-22T13:32:05.999Z</time></trkpt><trkpt lat="44.707503109994555" lon="10.073049005050752"><ele>334.0</ele><time>2026-03-22T13:32:07.999Z</time></trkpt><trkpt lat="44.70763682837459" lon="10.073150354740429"><ele>334.0</ele><time>2026-03-22T13:32:09.999Z</time></trkpt><trkpt lat="44.7077227142358" lon="10.07318578571436"><ele>333.79999999999995</ele><time>2026-03-22T13:32:10.999Z</time></trkpt><trkpt lat="44.70782975845634" lon="10.073194266426459"><ele>333.59999999999997</ele><time>2026-03-22T13:32:11.999Z</time></trkpt><trkpt lat="44.7079398266553" lon="10.073202200423342"><ele>333.4</ele><time>2026-03-22T13:32:12.999Z</time></trkpt><trkpt lat="44.708010852904295" lon="10.07323552144116"><ele>333.2</ele><time>2026-03-22T13:32:13.999Z</time></trkpt><trkpt lat="44.70811536150093" lon="10.073316355487782"><ele>333.0</ele><time>2026-03-22T13:32:15.999Z</time></trkpt><trkpt lat="44.70819424097891" lon="10.073365754874834"><ele>333.0</ele><time>2026-03-22T13:32:16.999Z</time></trkpt><trkpt lat="44.70827772284074" lon="10.07339225419712"><ele>333.0</ele><time>2026-03-22T13:32:17.999Z</time></trkpt><trkpt lat="44.70835578987737" lon="10.073413772672152"><ele>333.0</ele><time>2026-03-22T13:32:18.999Z</time></trkpt><trkpt lat="44.708435542867186" lon="10.073439748884809"><ele>333.0</ele><time>2026-03-22T13:32:19.999Z</time></trkpt><trkpt lat="44.708499452863975" lon="10.073514700412174"><ele>333.0</ele><time>2026-03-22T13:32:20.999Z</time></trkpt><trkpt lat="44.70857058498744" lon="10.073620030744411"><ele>333.0</ele><time>2026-03-22T13:32:21.999Z</time></trkpt><trkpt lat="44.70864528539622" lon="10.073708600449564"><ele>330.0</ele><time>2026-03-22T13:32:22.999Z</time></trkpt><trkpt lat="44.708715670074824" lon="10.073773333032543"><ele>327.0</ele><time>2026-03-22T13:32:23.999Z</time></trkpt><trkpt lat="44.70877150080632" lon="10.073817930459434"><ele>324.0</ele><time>2026-03-22T13:32:24.999Z</time></trkpt><trkpt lat="44.70882430895072" lon="10.073897208097955"><ele>321.0</ele><time>2026-03-22T13:32:25.999Z</time></trkpt><trkpt lat="44.70886083863219" lon="10.074005738449287"><ele>318.0</ele><time>2026-03-22T13:32:26.999Z</time></trkpt><trkpt lat="44.7089191721755" lon="10.074114351262196"><ele>315.0</ele><time>2026-03-22T13:32:27.999Z</time></trkpt><trkpt lat="44.70899237705573" lon="10.074210261371633"><ele>315.0</ele><time>2026-03-22T13:32:28.999Z</time></trkpt><trkpt lat="44.70908207241729" lon="10.074318134782674"><ele>315.0</ele><time>2026-03-22T13:32:29.999Z</time></trkpt><trkpt lat="44.70916893206567" lon="10.074417185020451"><ele>315.0</ele><time>2026-03-22T13:32:30.999Z</time></trkpt><trkpt lat="44.70925122549744" lon="10.074535535170773"><ele>315.0</ele><time>2026-03-22T13:32:31.999Z</time></trkpt><trkpt lat="44.709326797227426" lon="10.07468743443201"><ele>315.0</ele><time>2026-03-22T13:32:32.999Z</time></trkpt><trkpt lat="44.70938897299953" lon="10.074807728954713"><ele>315.0</ele><time>2026-03-22T13:32:33.999Z</time></trkpt><trkpt lat="44.70947283592941" lon="10.074899541324768"><ele>315.0</ele><time>2026-03-22T13:32:34.999Z</time></trkpt><trkpt lat="44.709571344569866" lon="10.074979087700939"><ele>315.0</ele><time>2026-03-22T13:32:35.999Z</time></trkpt><trkpt lat="44.70967492798937" lon="10.075064885420472"><ele>315.0</ele><time>2026-03-22T13:32:36.999Z</time></trkpt><trkpt lat="44.70975011432204" lon="10.075128765049794"><ele>315.25</ele><time>2026-03-22T13:32:37.999Z</time></trkpt><trkpt lat="44.7098937960578" lon="10.075169900989415"><ele>315.5</ele><time>2026-03-22T13:32:39.999Z</time></trkpt><trkpt lat="44.70999770563175" lon="10.075204554391386"><ele>315.75</ele><time>2026-03-22T13:32:40.999Z</time></trkpt><trkpt lat="44.71010050396321" lon="10.075244523593561"><ele>316.0</ele><time>2026-03-22T13:32:41.999Z</time></trkpt><trkpt lat="44.71019530085564" lon="10.075288781542673"><ele>319.25</ele><time>2026-03-22T13:32:42.999Z</time></trkpt><trkpt lat="44.71028549935086" lon="10.075359443666898"><ele>322.5</ele><time>2026-03-22T13:32:43.999Z</time></trkpt><trkpt lat="44.71039601126674" lon="10.075406844219144"><ele>325.75</ele><time>2026-03-22T13:32:44.999Z</time></trkpt><trkpt lat="44.71052054751553" lon="10.075464729702242"><ele>329.0</ele><time>2026-03-22T13:32:45.999Z</time></trkpt><trkpt lat="44.71063250615409" lon="10.075541912413971"><ele>329.0</ele><time>2026-03-22T13:32:46.999Z</time></trkpt><trkpt lat="44.71071070641757" lon="10.075627294705603"><ele>329.0</ele><time>2026-03-22T13:32:47.999Z</time></trkpt><trkpt lat="44.7107917695473" lon="10.075722349769789"><ele>329.0</ele><time>2026-03-22T13:32:48.999Z</time></trkpt><trkpt lat="44.710869649993484" lon="10.075776336463806"><ele>329.0</ele><time>2026-03-22T13:32:49.999Z</time></trkpt><trkpt lat="44.71096682124989" lon="10.075797515202787"><ele>329.0</ele><time>2026-03-22T13:32:50.999Z</time></trkpt><trkpt lat="44.711075685773125" lon="10.075788541512821"><ele>332.79999999999995</ele><time>2026-03-22T13:32:51.999Z</time></trkpt><trkpt lat="44.711168778415825" lon="10.075770437684929"><ele>336.59999999999997</ele><time>2026-03-22T13:32:52.999Z</time></trkpt><trkpt lat="44.71123898659057" lon="10.075764234676146"><ele>340.4</ele><time>2026-03-22T13:32:53.999Z</time></trkpt><trkpt lat="44.711256960030475" lon="10.075866652969692"><ele>344.2</ele><time>2026-03-22T13:32:56.999Z</time></trkpt><trkpt lat="44.71121633730718" lon="10.076081977559195"><ele>348.0</ele><time>2026-03-22T13:32:58.999Z</time></trkpt><trkpt lat="44.711210220322386" lon="10.076237748387403"><ele>348.0</ele><time>2026-03-22T13:32:59.999Z</time></trkpt><trkpt lat="44.71120233586449" lon="10.07636428045766"><ele>348.0</ele><time>2026-03-22T13:33:00.999Z</time></trkpt><trkpt lat="44.71119207504912" lon="10.076491450111007"><ele>348.0</ele><time>2026-03-22T13:33:02Z</time></trkpt><trkpt lat="44.711180642363665" lon="10.076612529543544"><ele>348.0</ele><time>2026-03-22T13:33:03Z</time></trkpt><trkpt lat="44.71116724776615" lon="10.076725984772185"><ele>348.0</ele><time>2026-03-22T13:33:04Z</time></trkpt><trkpt lat="44.711154958731555" lon="10.076831523150691"><ele>348.0</ele><time>2026-03-22T13:33:05Z</time></trkpt><trkpt lat="44.71116044892085" lon="10.07693501598268"><ele>345.1666666666667</ele><time>2026-03-22T13:33:06Z</time></trkpt><trkpt lat="44.71114415467847" lon="10.077031049565166"><ele>342.3333333333333</ele><time>2026-03-22T13:33:07Z</time></trkpt><trkpt lat="44.71112382563694" lon="10.077127953450894"><ele>339.5</ele><time>2026-03-22T13:33:08Z</time></trkpt><trkpt lat="44.71109220750677" lon="10.077299736954144"><ele>336.66666666666663</ele><time>2026-03-22T13:33:10Z</time></trkpt><trkpt lat="44.711091915878676" lon="10.07739405689354"><ele>333.8333333333333</ele><time>2026-03-22T13:33:11Z</time></trkpt><trkpt lat="44.71110647025305" lon="10.077497247517735"><ele>331.0</ele><time>2026-03-22T13:33:12Z</time></trkpt><trkpt lat="44.711121445762764" lon="10.07758936704695"><ele>326.6</ele><time>2026-03-22T13:33:13Z</time></trkpt><trkpt lat="44.71114054853805" lon="10.077680015084878"><ele>322.20000000000005</ele><time>2026-03-22T13:33:14Z</time></trkpt><trkpt lat="44.71116293579021" lon="10.077772528677759"><ele>317.79999999999995</ele><time>2026-03-22T13:33:15Z</time></trkpt><trkpt lat="44.71118038015326" lon="10.077879284630539"><ele>313.4</ele><time>2026-03-22T13:33:16Z</time></trkpt><trkpt lat="44.711158324160344" lon="10.078041446239846"><ele>309.0</ele><time>2026-03-22T13:33:18Z</time></trkpt><trkpt lat="44.71109035032269" lon="10.078206884407253"><ele>308.59999999999997</ele><time>2026-03-22T13:33:20Z</time></trkpt><trkpt lat="44.71105661280899" lon="10.07829141820938"><ele>308.2</ele><time>2026-03-22T13:33:21Z</time></trkpt><trkpt lat="44.71103140934682" lon="10.07837612009278"><ele>307.79999999999995</ele><time>2026-03-22T13:33:22Z</time></trkpt><trkpt lat="44.7110172322598" lon="10.078473169434409"><ele>307.4</ele><time>2026-03-22T13:33:23Z</time></trkpt><trkpt lat="44.7110405416681" lon="10.07864949831889"><ele>307.0</ele><time>2026-03-22T13:33:25Z</time></trkpt><trkpt lat="44.711093571405726" lon="10.078828276920131"><ele>305.57142857142856</ele><time>2026-03-22T13:33:27Z</time></trkpt><trkpt lat="44.711121731746644" lon="10.078929411044756"><ele>304.1428571428571</ele><time>2026-03-22T13:33:28Z</time></trkpt><trkpt lat="44.711140153141955" lon="10.079029178491362"><ele>302.7142857142857</ele><time>2026-03-22T13:33:29Z</time></trkpt><trkpt lat="44.711147534357586" lon="10.079132691912093"><ele>301.2857142857143</ele><time>2026-03-22T13:33:30Z</time></trkpt><trkpt lat="44.711148173329" lon="10.079232732053237"><ele>299.8571428571429</ele><time>2026-03-22T13:33:31Z</time></trkpt><trkpt lat="44.71115369399676" lon="10.079337699478659"><ele>298.42857142857144</ele><time>2026-03-22T13:33:32Z</time></trkpt><trkpt lat="44.71114632907291" lon="10.079429889349816"><ele>297.0</ele><time>2026-03-22T13:33:33Z</time></trkpt><trkpt lat="44.71114019294606" lon="10.079541784722117"><ele>296.8571428571429</ele><time>2026-03-22T13:33:34Z</time></trkpt><trkpt lat="44.71112044667923" lon="10.07964421121573"><ele>296.7142857142857</ele><time>2026-03-22T13:33:35Z</time></trkpt><trkpt lat="44.7110911598077" lon="10.079738849717032"><ele>296.57142857142856</ele><time>2026-03-22T13:33:36Z</time></trkpt><trkpt lat="44.711051221496135" lon="10.079815419072968"><ele>296.42857142857144</ele><time>2026-03-22T13:33:37Z</time></trkpt><trkpt lat="44.71100347854406" lon="10.079886399637173"><ele>296.2857142857143</ele><time>2026-03-22T13:33:38Z</time></trkpt><trkpt lat="44.71095773000108" lon="10.079959339778634"><ele>296.14285714285717</ele><time>2026-03-22T13:33:39Z</time></trkpt><trkpt lat="44.710924880420066" lon="10.080042095273315"><ele>296.0</ele><time>2026-03-22T13:33:40Z</time></trkpt><trkpt lat="44.71091260515046" lon="10.080131197283938"><ele>294.2857142857143</ele><time>2026-03-22T13:33:41Z</time></trkpt><trkpt lat="44.710911592913675" lon="10.080223067681958"><ele>292.57142857142856</ele><time>2026-03-22T13:33:42Z</time></trkpt><trkpt lat="44.71091810572439" lon="10.080317099518055"><ele>290.85714285714283</ele><time>2026-03-22T13:33:43Z</time></trkpt><trkpt lat="44.71093312546459" lon="10.080411968136776"><ele>289.1428571428571</ele><time>2026-03-22T13:33:44Z</time></trkpt><trkpt lat="44.710963400256134" lon="10.080517933040825"><ele>287.4285714285714</ele><time>2026-03-22T13:33:45Z</time></trkpt><trkpt lat="44.71099932267739" lon="10.080619242687337"><ele>285.7142857142857</ele><time>2026-03-22T13:33:46Z</time></trkpt><trkpt lat="44.71102555636062" lon="10.08072049030225"><ele>284.0</ele><time>2026-03-22T13:33:47Z</time></trkpt><trkpt lat="44.71104388528825" lon="10.080829461494657"><ele>283.1666666666667</ele><time>2026-03-22T13:33:48Z</time></trkpt><trkpt lat="44.71105830075165" lon="10.080944616141565"><ele>282.33333333333337</ele><time>2026-03-22T13:33:49Z</time></trkpt><trkpt lat="44.7110687309717" lon="10.081067933833925"><ele>281.5</ele><time>2026-03-22T13:33:50Z</time></trkpt><trkpt lat="44.71107673401429" lon="10.081188884766576"><ele>280.6666666666667</ele><time>2026-03-22T13:33:51Z</time></trkpt><trkpt lat="44.71106875418235" lon="10.081307056621911"><ele>279.8333333333333</ele><time>2026-03-22T13:33:52Z</time></trkpt><trkpt lat="44.71105827039933" lon="10.081418672486034"><ele>279.0</ele><time>2026-03-22T13:33:53Z</time></trkpt><trkpt lat="44.711048121393226" lon="10.081538646450378"><ele>277.5</ele><time>2026-03-22T13:33:54Z</time></trkpt><trkpt lat="44.711042369107695" lon="10.081669966446151"><ele>276.0</ele><time>2026-03-22T13:33:55Z</time></trkpt><trkpt lat="44.71103329994413" lon="10.081802905291914"><ele>274.5</ele><time>2026-03-22T13:33:56Z</time></trkpt><trkpt lat="44.71102621570462" lon="10.08193104400105"><ele>273.0</ele><time>2026-03-22T13:33:57Z</time></trkpt><trkpt lat="44.71102343537043" lon="10.082051705700005"><ele>271.5</ele><time>2026-03-22T13:33:58Z</time></trkpt><trkpt lat="44.71101729961141" lon="10.082155246010398"><ele>270.0</ele><time>2026-03-22T13:33:59Z</time></trkpt><trkpt lat="44.711025503728244" lon="10.08226849506609"><ele>270.0</ele><time>2026-03-22T13:34:00Z</time></trkpt><trkpt lat="44.71103186147966" lon="10.082401826013527"><ele>270.0</ele><time>2026-03-22T13:34:01Z</time></trkpt><trkpt lat="44.71100417366738" lon="10.08251542301842"><ele>270.0</ele><time>2026-03-22T13:34:02Z</time></trkpt><trkpt lat="44.71095450905875" lon="10.082636705532499"><ele>270.0</ele><time>2026-03-22T13:34:03Z</time></trkpt><trkpt lat="44.71090278791556" lon="10.0827786734363"><ele>270.0</ele><time>2026-03-22T13:34:04Z</time></trkpt><trkpt lat="44.71085246236199" lon="10.082966140317714"><ele>269.0</ele><time>2026-03-22T13:34:05Z</time></trkpt><trkpt lat="44.710803568164664" lon="10.083171441241863"><ele>268.0</ele><time>2026-03-22T13:34:06Z</time></trkpt><trkpt lat="44.710764013194094" lon="10.083364881489576"><ele>267.0</ele><time>2026-03-22T13:34:07Z</time></trkpt><trkpt lat="44.710730059329" lon="10.083524504130693"><ele>266.0</ele><time>2026-03-22T13:34:08Z</time></trkpt><trkpt lat="44.710685767266924" lon="10.083647571572493"><ele>265.0</ele><time>2026-03-22T13:34:09Z</time></trkpt><trkpt lat="44.710611217520864" lon="10.083800797077512"><ele>264.0</ele><time>2026-03-22T13:34:10Z</time></trkpt><trkpt lat="44.71054776702022" lon="10.08397521521822"><ele>263.0</ele><time>2026-03-22T13:34:11Z</time></trkpt><trkpt lat="44.71051199012408" lon="10.084113233725722"><ele>262.0</ele><time>2026-03-22T13:34:12Z</time></trkpt><trkpt lat="44.71050289637388" lon="10.08421851477377"><ele>261.8</ele><time>2026-03-22T13:34:13Z</time></trkpt><trkpt lat="44.71051241563878" lon="10.084315288626556"><ele>261.6</ele><time>2026-03-22T13:34:14Z</time></trkpt><trkpt lat="44.71054491328127" lon="10.084438660081453"><ele>261.40000000000003</ele><time>2026-03-22T13:34:15Z</time></trkpt><trkpt lat="44.71059571798894" lon="10.084578327933452"><ele>261.2</ele><time>2026-03-22T13:34:16Z</time></trkpt><trkpt lat="44.71065554046905" lon="10.084701638631723"><ele>261.0</ele><time>2026-03-22T13:34:17Z</time></trkpt><trkpt lat="44.710707000230805" lon="10.084830364271298"><ele>260.8</ele><time>2026-03-22T13:34:18Z</time></trkpt><trkpt lat="44.71074567212465" lon="10.0849981223699"><ele>260.6</ele><time>2026-03-22T13:34:19Z</time></trkpt><trkpt lat="44.710778551186955" lon="10.08515991214758"><ele>260.4</ele><time>2026-03-22T13:34:20Z</time></trkpt><trkpt lat="44.71079293572406" lon="10.085286235705468"><ele>260.2</ele><time>2026-03-22T13:34:21Z</time></trkpt><trkpt lat="44.71079297194263" lon="10.085414131882613"><ele>260.0</ele><time>2026-03-22T13:34:22Z</time></trkpt><trkpt lat="44.71077175546638" lon="10.085551818295523"><ele>260.0</ele><time>2026-03-22T13:34:23Z</time></trkpt><trkpt lat="44.710732054054105" lon="10.08567735130561"><ele>260.0</ele><time>2026-03-22T13:34:24Z</time></trkpt><trkpt lat="44.71067032932419" lon="10.085778407083165"><ele>260.0</ele><time>2026-03-22T13:34:25Z</time></trkpt><trkpt lat="44.710586161544036" lon="10.08587599061748"><ele>260.0</ele><time>2026-03-22T13:34:26Z</time></trkpt><trkpt lat="44.71049564977842" lon="10.085980873354796"><ele>260.0</ele><time>2026-03-22T13:34:27Z</time></trkpt><trkpt lat="44.71041063489172" lon="10.08608817072147"><ele>259.5</ele><time>2026-03-22T13:34:28Z</time></trkpt><trkpt lat="44.71032891778616" lon="10.086217160219592"><ele>259.0</ele><time>2026-03-22T13:34:29Z</time></trkpt><trkpt lat="44.710250525000305" lon="10.086340014616175"><ele>258.5</ele><time>2026-03-22T13:34:30Z</time></trkpt><trkpt lat="44.7101443572987" lon="10.086459249276947"><ele>258.0</ele><time>2026-03-22T13:34:31Z</time></trkpt><trkpt lat="44.71003953985813" lon="10.08656282783103"><ele>257.8</ele><time>2026-03-22T13:34:32Z</time></trkpt><trkpt lat="44.70995513867224" lon="10.086654092371806"><ele>257.6</ele><time>2026-03-22T13:34:33Z</time></trkpt><trkpt lat="44.709885828801774" lon="10.08674470757622"><ele>257.4</ele><time>2026-03-22T13:34:34Z</time></trkpt><trkpt lat="44.70985126225015" lon="10.086840466256989"><ele>257.2</ele><time>2026-03-22T13:34:34.999Z</time></trkpt><trkpt lat="44.70982496885114" lon="10.086973691869563"><ele>257.0</ele><time>2026-03-22T13:34:35.999Z</time></trkpt><trkpt lat="44.70978895077041" lon="10.087124435318835"><ele>257.0</ele><time>2026-03-22T13:34:36.999Z</time></trkpt><trkpt lat="44.7097575194797" lon="10.087233138015867"><ele>257.0</ele><time>2026-03-22T13:34:37.999Z</time></trkpt><trkpt lat="44.70972812190821" lon="10.087366052162368"><ele>257.0</ele><time>2026-03-22T13:34:38.999Z</time></trkpt><trkpt lat="44.709685940607216" lon="10.087518111257191"><ele>257.0</ele><time>2026-03-22T13:34:39.999Z</time></trkpt><trkpt lat="44.709613784495076" lon="10.087673069476207"><ele>257.0</ele><time>2026-03-22T13:34:40.999Z</time></trkpt><trkpt lat="44.709532026884986" lon="10.087826725116592"><ele>256.75</ele><time>2026-03-22T13:34:41.999Z</time></trkpt><trkpt lat="44.709449999993524" lon="10.08797043677955"><ele>256.5</ele><time>2026-03-22T13:34:42.999Z</time></trkpt><trkpt lat="44.70937031106641" lon="10.088106927829589"><ele>256.25</ele><time>2026-03-22T13:34:43.999Z</time></trkpt><trkpt lat="44.709295008621694" lon="10.088245619798174"><ele>256.0</ele><time>2026-03-22T13:34:44.999Z</time></trkpt><trkpt lat="44.709222228981126" lon="10.088396971715891"><ele>255.49999999999997</ele><time>2026-03-22T13:34:45.999Z</time></trkpt><trkpt lat="44.709159231232455" lon="10.0885279378803"><ele>255.0</ele><time>2026-03-22T13:34:46.999Z</time></trkpt><trkpt lat="44.70909847209049" lon="10.088629633174454"><ele>254.5</ele><time>2026-03-22T13:34:47.999Z</time></trkpt><trkpt lat="44.70904348546064" lon="10.088704509423346"><ele>254.0</ele><time>2026-03-22T13:34:48.999Z</time></trkpt><trkpt lat="44.70897493488901" lon="10.088768482822692"><ele>253.49999999999997</ele><time>2026-03-22T13:34:49.999Z</time></trkpt><trkpt lat="44.708917650775625" lon="10.08883575498425"><ele>253.0</ele><time>2026-03-22T13:34:50.999Z</time></trkpt><trkpt lat="44.708868939451314" lon="10.088896393452083"><ele>252.99999999999997</ele><time>2026-03-22T13:34:51.999Z</time></trkpt><trkpt lat="44.70876470785419" lon="10.088939299576818"><ele>253.0</ele><time>2026-03-22T13:34:53.999Z</time></trkpt><trkpt lat="44.70868252085599" lon="10.088924348475262"><ele>253.0</ele><time>2026-03-22T13:34:55.999Z</time></trkpt><trkpt lat="44.708616374524404" lon="10.088913809654075"><ele>253.0</ele><time>2026-03-22T13:34:57.999Z</time></trkpt><trkpt lat="44.708536496804655" lon="10.088892192423215"><ele>252.99999999999997</ele><time>2026-03-22T13:35:11.001Z</time></trkpt><trkpt lat="44.708469988602666" lon="10.088904654116158"><ele>253.0</ele><time>2026-03-22T13:35:13.001Z</time></trkpt><trkpt lat="44.708385879932614" lon="10.088936073071467"><ele>251.66666666666666</ele><time>2026-03-22T13:35:16Z</time></trkpt><trkpt lat="44.7083133677233" lon="10.08896557746122"><ele>250.33333333333331</ele><time>2026-03-22T13:35:18Z</time></trkpt><trkpt lat="44.708246507935264" lon="10.089022837856797"><ele>249.0</ele><time>2026-03-22T13:35:20Z</time></trkpt><trkpt lat="44.70818030736872" lon="10.0890866888622"><ele>247.66666666666669</ele><time>2026-03-22T13:35:22Z</time></trkpt><trkpt lat="44.70808920725145" lon="10.089151913854804"><ele>246.33333333333334</ele><time>2026-03-22T13:35:24Z</time></trkpt><trkpt lat="44.70800076002431" lon="10.089188712845834"><ele>245.0</ele><time>2026-03-22T13:35:26Z</time></trkpt><trkpt lat="44.70791898162038" lon="10.089186962941568"><ele>245.00000000000003</ele><time>2026-03-22T13:35:28Z</time></trkpt><trkpt lat="44.70782540141295" lon="10.089177439828555"><ele>245.0</ele><time>2026-03-22T13:35:30Z</time></trkpt><trkpt lat="44.70774128881049" lon="10.089214095642204"><ele>245.0</ele><time>2026-03-22T13:35:32Z</time></trkpt><trkpt lat="44.707676609235584" lon="10.089285480949169"><ele>245.0</ele><time>2026-03-22T13:35:34Z</time></trkpt><trkpt lat="44.70760358234916" lon="10.089339492507463"><ele>245.00000000000003</ele><time>2026-03-22T13:35:36Z</time></trkpt><trkpt lat="44.70752737575737" lon="10.089398064786305"><ele>245.0</ele><time>2026-03-22T13:35:38Z</time></trkpt><trkpt lat="44.70744956993899" lon="10.089442389595696"><ele>240.0</ele><time>2026-03-22T13:35:40Z</time></trkpt><trkpt lat="44.707360715349665" lon="10.089512931466466"><ele>235.0</ele><time>2026-03-22T13:35:42Z</time></trkpt><trkpt lat="44.70726667340583" lon="10.089601369301405"><ele>230.0</ele><time>2026-03-22T13:35:44Z</time></trkpt><trkpt lat="44.70718073321151" lon="10.089664628846528"><ele>225.0</ele><time>2026-03-22T13:35:46Z</time></trkpt><trkpt lat="44.707073662061596" lon="10.089678961926047"><ele>220.0</ele><time>2026-03-22T13:35:48Z</time></trkpt><trkpt lat="44.707010646917716" lon="10.08966811139153"><ele>219.99999999999997</ele><time>2026-03-22T13:35:49Z</time></trkpt><trkpt lat="44.706945515771245" lon="10.089624372217813"><ele>220.0</ele><time>2026-03-22T13:35:50Z</time></trkpt><trkpt lat="44.70685960347472" lon="10.089594810037505"><ele>220.0</ele><time>2026-03-22T13:35:52Z</time></trkpt><trkpt lat="44.70677177273482" lon="10.08954122924135"><ele>220.0</ele><time>2026-03-22T13:35:54Z</time></trkpt><trkpt lat="44.70672471319563" lon="10.08945416938285"><ele>219.99999999999997</ele><time>2026-03-22T13:35:56Z</time></trkpt><trkpt lat="44.70671450724672" lon="10.089356010660978"><ele>220.0</ele><time>2026-03-22T13:35:58Z</time></trkpt><trkpt lat="44.7066899697613" lon="10.089243095678983"><ele>215.66666666666666</ele><time>2026-03-22T13:36:00Z</time></trkpt><trkpt lat="44.706663173730675" lon="10.089120686659406"><ele>211.33333333333331</ele><time>2026-03-22T13:36:02Z</time></trkpt><trkpt lat="44.70663827627776" lon="10.089009926310652"><ele>207.0</ele><time>2026-03-22T13:36:04Z</time></trkpt><trkpt lat="44.706574251311984" lon="10.08888177432776"><ele>202.66666666666669</ele><time>2026-03-22T13:36:06Z</time></trkpt><trkpt lat="44.70653963221354" lon="10.088794547895514"><ele>198.33333333333334</ele><time>2026-03-22T13:36:07Z</time></trkpt><trkpt lat="44.70649903634342" lon="10.088713745442053"><ele>194.0</ele><time>2026-03-22T13:36:08Z</time></trkpt><trkpt lat="44.70648670654271" lon="10.088577773831974"><ele>192.83333333333334</ele><time>2026-03-22T13:36:10Z</time></trkpt><trkpt lat="44.70650454528478" lon="10.088451920837471"><ele>191.66666666666669</ele><time>2026-03-22T13:36:12Z</time></trkpt><trkpt lat="44.706427801952614" lon="10.088337099862814"><ele>190.5</ele><time>2026-03-22T13:36:14Z</time></trkpt><trkpt lat="44.70637079182033" lon="10.088295766397273"><ele>189.33333333333334</ele><time>2026-03-22T13:36:15Z</time></trkpt><trkpt lat="44.706300698414445" lon="10.08833228469278"><ele>188.16666666666669</ele><time>2026-03-22T13:36:17Z</time></trkpt><trkpt lat="44.70626506679278" lon="10.088412025368003"><ele>187.0</ele><time>2026-03-22T13:36:18Z</time></trkpt><trkpt lat="44.70620222155445" lon="10.088498546717632"><ele>187.0</ele><time>2026-03-22T13:36:19Z</time></trkpt><trkpt lat="44.706161993504416" lon="10.088571614849805"><ele>187.0</ele><time>2026-03-22T13:36:20Z</time></trkpt><trkpt lat="44.70607263703163" lon="10.088683106480127"><ele>187.0</ele><time>2026-03-22T13:36:22Z</time></trkpt><trkpt lat="44.70600360366868" lon="10.088714755500087"><ele>187.0</ele><time>2026-03-22T13:36:24Z</time></trkpt><trkpt lat="44.705938465113626" lon="10.088652918871349"><ele>187.0</ele><time>2026-03-22T13:36:25Z</time></trkpt><trkpt lat="44.70585853622038" lon="10.08863124288193"><ele>187.0</ele><time>2026-03-22T13:36:26Z</time></trkpt><trkpt lat="44.705775568997275" lon="10.08863931716592"><ele>184.42857142857142</ele><time>2026-03-22T13:36:27Z</time></trkpt><trkpt lat="44.705709669603046" lon="10.088648452142062"><ele>181.85714285714286</ele><time>2026-03-22T13:36:28Z</time></trkpt><trkpt lat="44.70564401171236" lon="10.08867372804481"><ele>179.28571428571428</ele><time>2026-03-22T13:36:29Z</time></trkpt><trkpt lat="44.70558685758767" lon="10.088723790186508"><ele>176.71428571428572</ele><time>2026-03-22T13:36:30Z</time></trkpt><trkpt lat="44.70552947702892" lon="10.088794954960655"><ele>174.14285714285714</ele><time>2026-03-22T13:36:31Z</time></trkpt><trkpt lat="44.70547547941244" lon="10.08887230119894"><ele>171.57142857142858</ele><time>2026-03-22T13:36:32Z</time></trkpt><trkpt lat="44.70542202716791" lon="10.088962517123422"><ele>169.0</ele><time>2026-03-22T13:36:33Z</time></trkpt><trkpt lat="44.70537472337602" lon="10.089033864703037"><ele>168.39999999999998</ele><time>2026-03-22T13:36:34Z</time></trkpt><trkpt lat="44.705290077760196" lon="10.089121855812202"><ele>167.8</ele><time>2026-03-22T13:36:35Z</time></trkpt><trkpt lat="44.70520167734032" lon="10.089189562628784"><ele>167.2</ele><time>2026-03-22T13:36:36Z</time></trkpt><trkpt lat="44.70512588888023" lon="10.089244784856295"><ele>166.60000000000002</ele><time>2026-03-22T13:36:37Z</time></trkpt><trkpt lat="44.705049365095185" lon="10.089289089072627"><ele>166.0</ele><time>2026-03-22T13:36:38Z</time></trkpt><trkpt lat="44.704967566006275" lon="10.089340930631868"><ele>166.0</ele><time>2026-03-22T13:36:39Z</time></trkpt><trkpt lat="44.70487905335951" lon="10.089390221723521"><ele>166.0</ele><time>2026-03-22T13:36:40Z</time></trkpt><trkpt lat="44.70479365246381" lon="10.089454492481961"><ele>166.0</ele><time>2026-03-22T13:36:41Z</time></trkpt><trkpt lat="44.704700153116896" lon="10.089520009633285"><ele>166.0</ele><time>2026-03-22T13:36:42Z</time></trkpt><trkpt lat="44.704615485511454" lon="10.089589555471342"><ele>166.0</ele><time>2026-03-22T13:36:43Z</time></trkpt><trkpt lat="44.70453427729428" lon="10.089662253760487"><ele>166.0</ele><time>2026-03-22T13:36:44Z</time></trkpt><trkpt lat="44.704453155009716" lon="10.089718952763212"><ele>166.0</ele><time>2026-03-22T13:36:45Z</time></trkpt><trkpt lat="44.704376384182396" lon="10.089754208766724"><ele>166.0</ele><time>2026-03-22T13:36:46Z</time></trkpt><trkpt lat="44.70430678187691" lon="10.089791164027867"><ele>166.0</ele><time>2026-03-22T13:36:47Z</time></trkpt><trkpt lat="44.70423999233693" lon="10.089832270773963"><ele>166.0</ele><time>2026-03-22T13:36:48Z</time></trkpt><trkpt lat="44.70416875918363" lon="10.089845689238311"><ele>166.0</ele><time>2026-03-22T13:36:49Z</time></trkpt><trkpt lat="44.704088083016075" lon="10.08981813678096"><ele>165.5</ele><time>2026-03-22T13:36:50Z</time></trkpt><trkpt lat="44.70400589841549" lon="10.08976995502199"><ele>165.0</ele><time>2026-03-22T13:36:51Z</time></trkpt><trkpt lat="44.70392341446975" lon="10.089740773638471"><ele>164.5</ele><time>2026-03-22T13:36:52Z</time></trkpt><trkpt lat="44.70384932266833" lon="10.08972249798113"><ele>164.0</ele><time>2026-03-22T13:36:53Z</time></trkpt><trkpt lat="44.703777817601164" lon="10.089710636030139"><ele>163.5</ele><time>2026-03-22T13:36:54Z</time></trkpt><trkpt lat="44.70371053350151" lon="10.089714131804861"><ele>163.0</ele><time>2026-03-22T13:36:55Z</time></trkpt><trkpt lat="44.7036377656541" lon="10.089719135253771"><ele>162.16666666666669</ele><time>2026-03-22T13:36:56Z</time></trkpt><trkpt lat="44.7035594915552" lon="10.089716042588943"><ele>161.33333333333334</ele><time>2026-03-22T13:36:57Z</time></trkpt><trkpt lat="44.7034822161537" lon="10.089712581795089"><ele>160.5</ele><time>2026-03-22T13:36:58Z</time></trkpt><trkpt lat="44.70341139838343" lon="10.089742215781678"><ele>159.66666666666666</ele><time>2026-03-22T13:36:59Z</time></trkpt><trkpt lat="44.7033475642072" lon="10.089776006499246"><ele>158.83333333333331</ele><time>2026-03-22T13:37:00Z</time></trkpt><trkpt lat="44.70324497117184" lon="10.089887836442053"><ele>158.0</ele><time>2026-03-22T13:37:02Z</time></trkpt><trkpt lat="44.70321158781016" lon="10.08996947539873"><ele>158.0</ele><time>2026-03-22T13:37:03Z</time></trkpt><trkpt lat="44.70316197759787" lon="10.09005079138191"><ele>158.0</ele><time>2026-03-22T13:37:04Z</time></trkpt><trkpt lat="44.703026596888805" lon="10.090163117595768"><ele>158.0</ele><time>2026-03-22T13:37:06Z</time></trkpt><trkpt lat="44.70294532699218" lon="10.090221465312574"><ele>158.0</ele><time>2026-03-22T13:37:06.999Z</time></trkpt><trkpt lat="44.70287568217354" lon="10.09024971647022"><ele>158.0</ele><time>2026-03-22T13:37:07.999Z</time></trkpt><trkpt lat="44.7027714242563" lon="10.090285317412695"><ele>157.8</ele><time>2026-03-22T13:37:09.999Z</time></trkpt><trkpt lat="44.70271231627073" lon="10.090324224228867"><ele>157.60000000000002</ele><time>2026-03-22T13:37:10.999Z</time></trkpt><trkpt lat="44.70260917911967" lon="10.090467125362846"><ele>157.39999999999998</ele><time>2026-03-22T13:37:12.999Z</time></trkpt><trkpt lat="44.702574942850795" lon="10.090555116941903"><ele>157.2</ele><time>2026-03-22T13:37:14.001Z</time></trkpt><trkpt lat="44.70252963945221" lon="10.090684353975393"><ele>157.0</ele><time>2026-03-22T13:37:15.001Z</time></trkpt><trkpt lat="44.70248009457833" lon="10.090814013184078"><ele>157.0</ele><time>2026-03-22T13:37:16.001Z</time></trkpt><trkpt lat="44.70244051933836" lon="10.09097371364167"><ele>157.0</ele><time>2026-03-22T13:37:17.001Z</time></trkpt><trkpt lat="44.7023991807691" lon="10.091098179583943"><ele>157.0</ele><time>2026-03-22T13:37:18.001Z</time></trkpt><trkpt lat="44.70235714248305" lon="10.09124803416712"><ele>157.0</ele><time>2026-03-22T13:37:19.001Z</time></trkpt><trkpt lat="44.702326523572346" lon="10.091412942422382"><ele>157.0</ele><time>2026-03-22T13:37:20.001Z</time></trkpt><trkpt lat="44.702289828466874" lon="10.091531654644076"><ele>157.0</ele><time>2026-03-22T13:37:21.001Z</time></trkpt><trkpt lat="44.702232375792356" lon="10.091633450505412"><ele>157.0</ele><time>2026-03-22T13:37:22.001Z</time></trkpt><trkpt lat="44.70216915124925" lon="10.091723632197171"><ele>157.0</ele><time>2026-03-22T13:37:23.001Z</time></trkpt><trkpt lat="44.70211563044633" lon="10.091788107501735"><ele>157.0</ele><time>2026-03-22T13:37:24.001Z</time></trkpt><trkpt lat="44.702022917992025" lon="10.091967175038473"><ele>156.5</ele><time>2026-03-22T13:37:26.001Z</time></trkpt><trkpt lat="44.7019569433799" lon="10.092053448647073"><ele>156.0</ele><time>2026-03-22T13:37:27.001Z</time></trkpt><trkpt lat="44.70189907644273" lon="10.092136205522989"><ele>155.5</ele><time>2026-03-22T13:37:28.001Z</time></trkpt><trkpt lat="44.70184587559756" lon="10.092215903040504"><ele>155.0</ele><time>2026-03-22T13:37:29.001Z</time></trkpt><trkpt lat="44.70179247396697" lon="10.092282737545512"><ele>154.5</ele><time>2026-03-22T13:37:30.001Z</time></trkpt><trkpt lat="44.701715332442035" lon="10.092375896077384"><ele>154.0</ele><time>2026-03-22T13:37:32Z</time></trkpt><trkpt lat="44.70162864447845" lon="10.092339905962252"><ele>153.2</ele><time>2026-03-22T13:37:34Z</time></trkpt><trkpt lat="44.70157015541599" lon="10.092264208779191"><ele>152.4</ele><time>2026-03-22T13:37:35Z</time></trkpt><trkpt lat="44.70149257696524" lon="10.092175373995746"><ele>151.6</ele><time>2026-03-22T13:37:36Z</time></trkpt><trkpt lat="44.7014104056924" lon="10.092090523426116"><ele>150.8</ele><time>2026-03-22T13:37:37Z</time></trkpt><trkpt lat="44.7013355702676" lon="10.092018647390903"><ele>150.0</ele><time>2026-03-22T13:37:38Z</time></trkpt><trkpt lat="44.70126871617961" lon="10.091947373772062"><ele>149.99999999999997</ele><time>2026-03-22T13:37:39Z</time></trkpt><trkpt lat="44.701206269071236" lon="10.091890336558848"><ele>150.0</ele><time>2026-03-22T13:37:40Z</time></trkpt><trkpt lat="44.701150608476" lon="10.091833776704373"><ele>150.0</ele><time>2026-03-22T13:37:41Z</time></trkpt><trkpt lat="44.70109877338126" lon="10.091781364330757"><ele>150.0</ele><time>2026-03-22T13:37:42Z</time></trkpt><trkpt lat="44.701045569447686" lon="10.091731859722467"><ele>150.0</ele><time>2026-03-22T13:37:43Z</time></trkpt><trkpt lat="44.7009870393023" lon="10.091682367001466"><ele>149.99999999999997</ele><time>2026-03-22T13:37:44Z</time></trkpt><trkpt lat="44.700932952202756" lon="10.091630315720177"><ele>150.0</ele><time>2026-03-22T13:37:45Z</time></trkpt><trkpt lat="44.70087922004384" lon="10.091574846388914"><ele>151.2</ele><time>2026-03-22T13:37:46Z</time></trkpt><trkpt lat="44.70080680523172" lon="10.091453614163424"><ele>152.4</ele><time>2026-03-22T13:37:48Z</time></trkpt><trkpt lat="44.70077436033192" lon="10.091279758925426"><ele>153.6</ele><time>2026-03-22T13:37:50Z</time></trkpt><trkpt lat="44.7007603260004" lon="10.091188268217639"><ele>154.8</ele><time>2026-03-22T13:37:51Z</time></trkpt><trkpt lat="44.70073650577662" lon="10.091103866212075"><ele>156.0</ele><time>2026-03-22T13:37:52Z</time></trkpt><trkpt lat="44.70066667773964" lon="10.090985060273201"><ele>156.0</ele><time>2026-03-22T13:37:54Z</time></trkpt><trkpt lat="44.70058192732794" lon="10.090889420571688"><ele>156.0</ele><time>2026-03-22T13:37:56Z</time></trkpt><trkpt lat="44.70050563402015" lon="10.090780956434681"><ele>156.0</ele><time>2026-03-22T13:37:58Z</time></trkpt><trkpt lat="44.700463674940266" lon="10.090708788580004"><ele>156.0</ele><time>2026-03-22T13:37:59Z</time></trkpt><trkpt lat="44.70041141476472" lon="10.09062164169261"><ele>156.0</ele><time>2026-03-22T13:38:00Z</time></trkpt><trkpt lat="44.70035128598557" lon="10.090509189939654"><ele>156.0</ele><time>2026-03-22T13:38:01Z</time></trkpt><trkpt lat="44.700287822838625" lon="10.090358263660823"><ele>156.0</ele><time>2026-03-22T13:38:02Z</time></trkpt><trkpt lat="44.700239226845426" lon="10.090174287820831"><ele>156.0</ele><time>2026-03-22T13:38:03Z</time></trkpt><trkpt lat="44.700190091358046" lon="10.089963365387897"><ele>156.0</ele><time>2026-03-22T13:38:04Z</time></trkpt><trkpt lat="44.700140593109914" lon="10.089760862879496"><ele>158.0</ele><time>2026-03-22T13:38:05Z</time></trkpt><trkpt lat="44.70009260012498" lon="10.089579886747476"><ele>160.0</ele><time>2026-03-22T13:38:06Z</time></trkpt><trkpt lat="44.700042659535555" lon="10.08939879502336"><ele>162.0</ele><time>2026-03-22T13:38:07Z</time></trkpt><trkpt lat="44.69998772311841" lon="10.08918965148244"><ele>164.0</ele><time>2026-03-22T13:38:08Z</time></trkpt><trkpt lat="44.69992353806881" lon="10.088955595615703"><ele>165.33333333333331</ele><time>2026-03-22T13:38:09Z</time></trkpt><trkpt lat="44.69985215113447" lon="10.088702960514262"><ele>166.66666666666666</ele><time>2026-03-22T13:38:10Z</time></trkpt><trkpt lat="44.69978470777342" lon="10.088441085862046"><ele>168.0</ele><time>2026-03-22T13:38:11Z</time></trkpt><trkpt lat="44.69970990265216" lon="10.088165311770464"><ele>169.0</ele><time>2026-03-22T13:38:12Z</time></trkpt><trkpt lat="44.69964091609942" lon="10.087926386714688"><ele>170.0</ele><time>2026-03-22T13:38:13Z</time></trkpt><trkpt lat="44.69956155166165" lon="10.087700008159166"><ele>171.0</ele><time>2026-03-22T13:38:14Z</time></trkpt><trkpt lat="44.69948410727255" lon="10.08751796298512"><ele>171.0</ele><time>2026-03-22T13:38:15Z</time></trkpt><trkpt lat="44.69939450008069" lon="10.087334410536995"><ele>171.0</ele><time>2026-03-22T13:38:16Z</time></trkpt><trkpt lat="44.699299589746346" lon="10.087191524810278"><ele>171.0</ele><time>2026-03-22T13:38:17Z</time></trkpt><trkpt lat="44.699200081754924" lon="10.087069689928018"><ele>171.0</ele><time>2026-03-22T13:38:18Z</time></trkpt><trkpt lat="44.69910638243785" lon="10.086961361857057"><ele>171.0</ele><time>2026-03-22T13:38:19Z</time></trkpt><trkpt lat="44.6990314503735" lon="10.086883623777762"><ele>171.0</ele><time>2026-03-22T13:38:20Z</time></trkpt><trkpt lat="44.698965435149134" lon="10.086810772228624"><ele>171.0</ele><time>2026-03-22T13:38:21Z</time></trkpt><trkpt lat="44.698918132719456" lon="10.086739513806192"><ele>171.0</ele><time>2026-03-22T13:38:22Z</time></trkpt><trkpt lat="44.698867546843175" lon="10.08663240855134"><ele>171.0</ele><time>2026-03-22T13:38:24Z</time></trkpt><trkpt lat="44.69901110871406" lon="10.08650341226808"><ele>171.20000000000002</ele><time>2026-03-22T13:38:26Z</time></trkpt><trkpt lat="44.699090382842485" lon="10.086453712404214"><ele>171.4</ele><time>2026-03-22T13:38:27Z</time></trkpt><trkpt lat="44.69917317517692" lon="10.086392918239143"><ele>171.6</ele><time>2026-03-22T13:38:28Z</time></trkpt><trkpt lat="44.69926607995827" lon="10.086358550322341"><ele>171.8</ele><time>2026-03-22T13:38:29Z</time></trkpt><trkpt lat="44.699356900544856" lon="10.086298905773031"><ele>172.0</ele><time>2026-03-22T13:38:30Z</time></trkpt><trkpt lat="44.69944290949343" lon="10.08621404100435"><ele>172.0</ele><time>2026-03-22T13:38:31Z</time></trkpt><trkpt lat="44.699542397839465" lon="10.086160814152922"><ele>172.0</ele><time>2026-03-22T13:38:32Z</time></trkpt><trkpt lat="44.699652812274486" lon="10.086089124235475"><ele>172.0</ele><time>2026-03-22T13:38:33Z</time></trkpt><trkpt lat="44.69976690799785" lon="10.085998191233653"><ele>172.0</ele><time>2026-03-22T13:38:34Z</time></trkpt><trkpt lat="44.69989579677655" lon="10.085908057567844"><ele>172.0</ele><time>2026-03-22T13:38:35Z</time></trkpt><trkpt lat="44.700031254690565" lon="10.085813947992683"><ele>172.0</ele><time>2026-03-22T13:38:36Z</time></trkpt><trkpt lat="44.70017360691392" lon="10.0857069251346"><ele>172.0</ele><time>2026-03-22T13:38:37Z</time></trkpt><trkpt lat="44.70028913066716" lon="10.085602522532922"><ele>172.75</ele><time>2026-03-22T13:38:38Z</time></trkpt><trkpt lat="44.700406943855434" lon="10.085501494060184"><ele>173.5</ele><time>2026-03-22T13:38:39Z</time></trkpt><trkpt lat="44.70052683743518" lon="10.085412478079945"><ele>174.25</ele><time>2026-03-22T13:38:40Z</time></trkpt><trkpt lat="44.7006367564035" lon="10.085353143560067"><ele>175.0</ele><time>2026-03-22T13:38:41Z</time></trkpt><trkpt lat="44.70075014574778" lon="10.08532595616923"><ele>175.0</ele><time>2026-03-22T13:38:42Z</time></trkpt><trkpt lat="44.70086353956504" lon="10.085321081238689"><ele>175.0</ele><time>2026-03-22T13:38:43Z</time></trkpt><trkpt lat="44.70096059512061" lon="10.08532091162815"><ele>175.0</ele><time>2026-03-22T13:38:44Z</time></trkpt><trkpt lat="44.70104296922055" lon="10.085323690173118"><ele>175.0</ele><time>2026-03-22T13:38:45Z</time></trkpt><trkpt lat="44.70113211130099" lon="10.085336775475206"><ele>175.0</ele><time>2026-03-22T13:38:47Z</time></trkpt><trkpt lat="44.701065313558075" lon="10.085091066675101"><ele>175.0</ele><time>2026-03-22T13:38:51Z</time></trkpt><trkpt lat="44.70097415716549" lon="10.085006260998775"><ele>175.0</ele><time>2026-03-22T13:38:52.999Z</time></trkpt><trkpt lat="44.70086772442504" lon="10.084959132924197"><ele>175.0</ele><time>2026-03-22T13:38:54.999Z</time></trkpt><trkpt lat="44.70073993409834" lon="10.084926391556051"><ele>175.0</ele><time>2026-03-22T13:38:56.999Z</time></trkpt><trkpt lat="44.70063581995747" lon="10.08489658148412"><ele>175.16666666666669</ele><time>2026-03-22T13:38:58.999Z</time></trkpt><trkpt lat="44.70054520334327" lon="10.084879068112967"><ele>175.33333333333334</ele><time>2026-03-22T13:39:00.999Z</time></trkpt><trkpt lat="44.700477100746106" lon="10.084843502292019"><ele>175.5</ele><time>2026-03-22T13:39:02.999Z</time></trkpt><trkpt lat="44.70053761373177" lon="10.084892577216111"><ele>175.66666666666666</ele><time>2026-03-22T13:39:36Z</time></trkpt><trkpt lat="44.70061391618986" lon="10.084882010778315"><ele>175.83333333333331</ele><time>2026-03-22T13:39:37Z</time></trkpt><trkpt lat="44.700682649515336" lon="10.084888005505604"><ele>176.0</ele><time>2026-03-22T13:39:38Z</time></trkpt><trkpt lat="44.700761448639994" lon="10.08489674956948"><ele>176.0</ele><time>2026-03-22T13:39:39Z</time></trkpt><trkpt lat="44.700840950794884" lon="10.084922250200574"><ele>176.0</ele><time>2026-03-22T13:39:40Z</time></trkpt><trkpt lat="44.70092972870879" lon="10.084959029824558"><ele>176.0</ele><time>2026-03-22T13:39:41Z</time></trkpt><trkpt lat="44.70101911594822" lon="10.08500840649701"><ele>176.0</ele><time>2026-03-22T13:39:42Z</time></trkpt><trkpt lat="44.70109339270053" lon="10.085086647960242"><ele>176.0</ele><time>2026-03-22T13:39:43Z</time></trkpt><trkpt lat="44.701145282452714" lon="10.085152261408602"><ele>176.0</ele><time>2026-03-22T13:39:44Z</time></trkpt><trkpt lat="44.70115222513375" lon="10.085281299690685"><ele>175.8</ele><time>2026-03-22T13:39:46Z</time></trkpt><trkpt lat="44.70107466386636" lon="10.085339120667156"><ele>175.60000000000002</ele><time>2026-03-22T13:39:48Z</time></trkpt><trkpt lat="44.700987969936435" lon="10.085331904958402"><ele>175.4</ele><time>2026-03-22T13:39:49Z</time></trkpt><trkpt lat="44.700856019911434" lon="10.085313321671721"><ele>175.2</ele><time>2026-03-22T13:39:50Z</time></trkpt><trkpt lat="44.70072958842269" lon="10.085314740907124"><ele>175.0</ele><time>2026-03-22T13:39:51Z</time></trkpt><trkpt lat="44.700618756117855" lon="10.08533525378208"><ele>175.0</ele><time>2026-03-22T13:39:52Z</time></trkpt><trkpt lat="44.70050845387408" lon="10.085385248934447"><ele>175.0</ele><time>2026-03-22T13:39:53Z</time></trkpt><trkpt lat="44.70040883454277" lon="10.085464353375755"><ele>175.0</ele><time>2026-03-22T13:39:54Z</time></trkpt><trkpt lat="44.70031958084107" lon="10.085558604158232"><ele>175.0</ele><time>2026-03-22T13:39:55Z</time></trkpt><trkpt lat="44.70022549095953" lon="10.08564130414942"><ele>174.5</ele><time>2026-03-22T13:39:56Z</time></trkpt><trkpt lat="44.70013189124616" lon="10.085720362757526"><ele>174.0</ele><time>2026-03-22T13:39:57Z</time></trkpt><trkpt lat="44.70004743021436" lon="10.085788175886325"><ele>173.5</ele><time>2026-03-22T13:39:58Z</time></trkpt><trkpt lat="44.6999781803661" lon="10.085841705498481"><ele>173.0</ele><time>2026-03-22T13:39:59Z</time></trkpt><trkpt lat="44.699908765144706" lon="10.085885419913733"><ele>172.5</ele><time>2026-03-22T13:40:00Z</time></trkpt><trkpt lat="44.699835260345466" lon="10.085942621877694"><ele>172.0</ele><time>2026-03-22T13:40:01Z</time></trkpt><trkpt lat="44.69975403754168" lon="10.086006911811483"><ele>172.0</ele><time>2026-03-22T13:40:02Z</time></trkpt><trkpt lat="44.699680542772036" lon="10.086064374164646"><ele>172.0</ele><time>2026-03-22T13:40:03Z</time></trkpt><trkpt lat="44.699603155557085" lon="10.086114725411562"><ele>172.0</ele><time>2026-03-22T13:40:04Z</time></trkpt><trkpt lat="44.69952607332064" lon="10.086162679487861"><ele>172.0</ele><time>2026-03-22T13:40:05Z</time></trkpt><trkpt lat="44.69944026104976" lon="10.08622673812172"><ele>172.0</ele><time>2026-03-22T13:40:06Z</time></trkpt><trkpt lat="44.6993584221458" lon="10.086272449240852"><ele>172.0</ele><time>2026-03-22T13:40:07Z</time></trkpt><trkpt lat="44.69927928423078" lon="10.08634130276528"><ele>171.83333333333334</ele><time>2026-03-22T13:40:08Z</time></trkpt><trkpt lat="44.69919158357193" lon="10.086404639355377"><ele>171.66666666666669</ele><time>2026-03-22T13:40:09Z</time></trkpt><trkpt lat="44.69910400377835" lon="10.086449165995369"><ele>171.5</ele><time>2026-03-22T13:40:10Z</time></trkpt><trkpt lat="44.69902825341341" lon="10.086490025102094"><ele>171.33333333333334</ele><time>2026-03-22T13:40:11Z</time></trkpt><trkpt lat="44.69895396377165" lon="10.086526839516283"><ele>171.16666666666666</ele><time>2026-03-22T13:40:12Z</time></trkpt><trkpt lat="44.698862884460226" lon="10.086551136351568"><ele>171.0</ele><time>2026-03-22T13:40:13Z</time></trkpt><trkpt lat="44.69874083389871" lon="10.086609861992256"><ele>171.0</ele><time>2026-03-22T13:40:14Z</time></trkpt><trkpt lat="44.69861487026708" lon="10.086640592263848"><ele>171.0</ele><time>2026-03-22T13:40:15Z</time></trkpt><trkpt lat="44.6984904459291" lon="10.086590758456833"><ele>171.0</ele><time>2026-03-22T13:40:16Z</time></trkpt><trkpt lat="44.69833521248898" lon="10.086562764380536"><ele>171.0</ele><time>2026-03-22T13:40:17Z</time></trkpt><trkpt lat="44.69818571833931" lon="10.08651660193631"><ele>168.75</ele><time>2026-03-22T13:40:18Z</time></trkpt><trkpt lat="44.698065766578885" lon="10.08649867745102"><ele>166.5</ele><time>2026-03-22T13:40:19Z</time></trkpt><trkpt lat="44.697946498428564" lon="10.086469309982288"><ele>164.25</ele><time>2026-03-22T13:40:20Z</time></trkpt><trkpt lat="44.69782983122865" lon="10.086438884121943"><ele>162.0</ele><time>2026-03-22T13:40:21Z</time></trkpt><trkpt lat="44.69770352915978" lon="10.086421986645707"><ele>161.25</ele><time>2026-03-22T13:40:22Z</time></trkpt><trkpt lat="44.69758506230018" lon="10.08640247184784"><ele>160.5</ele><time>2026-03-22T13:40:23Z</time></trkpt><trkpt lat="44.697461480058294" lon="10.086412952004046"><ele>159.75</ele><time>2026-03-22T13:40:24Z</time></trkpt><trkpt lat="44.697347213763905" lon="10.086464825890374"><ele>159.0</ele><time>2026-03-22T13:40:25Z</time></trkpt><trkpt lat="44.69721922804622" lon="10.086498072041628"><ele>159.0</ele><time>2026-03-22T13:40:26Z</time></trkpt><trkpt lat="44.69710948613534" lon="10.086538458993875"><ele>159.0</ele><time>2026-03-22T13:40:27Z</time></trkpt><trkpt lat="44.69699177882245" lon="10.086588643124067"><ele>159.0</ele><time>2026-03-22T13:40:28Z</time></trkpt><trkpt lat="44.69690473142787" lon="10.086686254800112"><ele>159.0</ele><time>2026-03-22T13:40:29Z</time></trkpt><trkpt lat="44.6968142319272" lon="10.086745528030628"><ele>159.0</ele><time>2026-03-22T13:40:30Z</time></trkpt><trkpt lat="44.69673329884883" lon="10.08679053884091"><ele>158.5</ele><time>2026-03-22T13:40:31Z</time></trkpt><trkpt lat="44.69664012318381" lon="10.086819439977617"><ele>158.0</ele><time>2026-03-22T13:40:32Z</time></trkpt><trkpt lat="44.69655919048567" lon="10.086823307344096"><ele>157.5</ele><time>2026-03-22T13:40:33Z</time></trkpt><trkpt lat="44.6964844474481" lon="10.086828073206185"><ele>157.0</ele><time>2026-03-22T13:40:34Z</time></trkpt><trkpt lat="44.69641816087863" lon="10.086844833087792"><ele>156.5</ele><time>2026-03-22T13:40:35Z</time></trkpt><trkpt lat="44.69632368585371" lon="10.08692237433155"><ele>156.0</ele><time>2026-03-22T13:40:37Z</time></trkpt><trkpt lat="44.69619514277577" lon="10.086873638993904"><ele>156.0</ele><time>2026-03-22T13:40:43.999Z</time></trkpt><trkpt lat="44.6961008363333" lon="10.086761829893751"><ele>156.0</ele><time>2026-03-22T13:40:44.999Z</time></trkpt><trkpt lat="44.695978808359804" lon="10.08663904009202"><ele>156.0</ele><time>2026-03-22T13:40:45.999Z</time></trkpt><trkpt lat="44.695838740122966" lon="10.086495456567645"><ele>156.0</ele><time>2026-03-22T13:40:46.999Z</time></trkpt><trkpt lat="44.6956705577116" lon="10.086315644111325"><ele>156.66666666666666</ele><time>2026-03-22T13:40:47.999Z</time></trkpt><trkpt lat="44.69549368874871" lon="10.08613696447857"><ele>157.33333333333331</ele><time>2026-03-22T13:40:48.999Z</time></trkpt><trkpt lat="44.69530682485688" lon="10.085961798456543"><ele>158.0</ele><time>2026-03-22T13:40:49.999Z</time></trkpt><trkpt lat="44.69514999299907" lon="10.08579710007133"><ele>157.66666666666666</ele><time>2026-03-22T13:40:50.999Z</time></trkpt><trkpt lat="44.695004828602926" lon="10.08565539233136"><ele>157.33333333333334</ele><time>2026-03-22T13:40:51.999Z</time></trkpt><trkpt lat="44.69487198189567" lon="10.08553716967901"><ele>157.0</ele><time>2026-03-22T13:40:52.999Z</time></trkpt><trkpt lat="44.694714772849146" lon="10.085428563111204"><ele>157.0</ele><time>2026-03-22T13:40:53.999Z</time></trkpt><trkpt lat="44.69455535709669" lon="10.085348872589968"><ele>157.0</ele><time>2026-03-22T13:40:54.999Z</time></trkpt><trkpt lat="44.694387541963096" lon="10.085289029405878"><ele>157.0</ele><time>2026-03-22T13:40:55.999Z</time></trkpt><trkpt lat="44.69420982417693" lon="10.085231235002416"><ele>155.66666666666669</ele><time>2026-03-22T13:40:56.999Z</time></trkpt><trkpt lat="44.69403378943576" lon="10.085160481101225"><ele>154.33333333333334</ele><time>2026-03-22T13:40:57.999Z</time></trkpt><trkpt lat="44.69386136982308" lon="10.085097485841313"><ele>153.0</ele><time>2026-03-22T13:40:58.999Z</time></trkpt><trkpt lat="44.69370917083809" lon="10.085032380609032"><ele>152.25</ele><time>2026-03-22T13:40:59.999Z</time></trkpt><trkpt lat="44.693578758311816" lon="10.084980187388155"><ele>151.5</ele><time>2026-03-22T13:41:00.999Z</time></trkpt><trkpt lat="44.69344762561" lon="10.084922365088234"><ele>150.75</ele><time>2026-03-22T13:41:01.999Z</time></trkpt><trkpt lat="44.69333431339611" lon="10.084868386405994"><ele>150.0</ele><time>2026-03-22T13:41:02.999Z</time></trkpt><trkpt lat="44.69324458507655" lon="10.084808380082102"><ele>151.5</ele><time>2026-03-22T13:41:03.999Z</time></trkpt><trkpt lat="44.69317822008669" lon="10.084742300538213"><ele>153.0</ele><time>2026-03-22T13:41:04.999Z</time></trkpt><trkpt lat="44.69310956694957" lon="10.084714944618021"><ele>154.5</ele><time>2026-03-22T13:41:05.999Z</time></trkpt><trkpt lat="44.69311289611322" lon="10.084397098141109"><ele>156.0</ele><time>2026-03-22T13:41:06.999Z</time></trkpt><trkpt lat="44.693110145606525" lon="10.084199140846351"><ele>158.0</ele><time>2026-03-22T13:41:07.999Z</time></trkpt><trkpt lat="44.693101270995044" lon="10.083977034381356"><ele>160.0</ele><time>2026-03-22T13:41:08.999Z</time></trkpt><trkpt lat="44.69308684075879" lon="10.083760765713519"><ele>162.0</ele><time>2026-03-22T13:41:09.999Z</time></trkpt><trkpt lat="44.693070210108274" lon="10.083557663611304"><ele>162.0</ele><time>2026-03-22T13:41:10.999Z</time></trkpt><trkpt lat="44.6930324614813" lon="10.083387124847793"><ele>162.0</ele><time>2026-03-22T13:41:11.999Z</time></trkpt><trkpt lat="44.69297657346853" lon="10.083250329280807"><ele>162.0</ele><time>2026-03-22T13:41:12.999Z</time></trkpt><trkpt lat="44.69289777910167" lon="10.083129255117091"><ele>162.0</ele><time>2026-03-22T13:41:13.999Z</time></trkpt><trkpt lat="44.692794767102576" lon="10.083029590557702"><ele>163.25</ele><time>2026-03-22T13:41:14.999Z</time></trkpt><trkpt lat="44.692667088036686" lon="10.082946202394274"><ele>164.5</ele><time>2026-03-22T13:41:15.999Z</time></trkpt><trkpt lat="44.69254148045177" lon="10.08286275529334"><ele>165.75</ele><time>2026-03-22T13:41:16.999Z</time></trkpt><trkpt lat="44.6924416814277" lon="10.082783451229547"><ele>167.0</ele><time>2026-03-22T13:41:17.999Z</time></trkpt><trkpt lat="44.692350577159" lon="10.0827117308024"><ele>167.0</ele><time>2026-03-22T13:41:18.999Z</time></trkpt><trkpt lat="44.69228545459478" lon="10.082643304638045"><ele>167.0</ele><time>2026-03-22T13:41:19.999Z</time></trkpt><trkpt lat="44.69222130985232" lon="10.082553146035538"><ele>167.0</ele><time>2026-03-22T13:41:21.999Z</time></trkpt><trkpt lat="44.69217930607758" lon="10.082641807610404"><ele>167.0</ele><time>2026-03-22T13:42:06Z</time></trkpt><trkpt lat="44.69210420800319" lon="10.08269540033063"><ele>167.0</ele><time>2026-03-22T13:42:14Z</time></trkpt><trkpt lat="44.69205848385759" lon="10.082778188628922"><ele>167.0</ele><time>2026-03-22T13:42:16Z</time></trkpt><trkpt lat="44.6920662974402" lon="10.082868918128293"><ele>167.0</ele><time>2026-03-22T13:42:58.999Z</time></trkpt><trkpt lat="44.69211677110975" lon="10.082784525142008"><ele>167.0</ele><time>2026-03-22T13:43:09.999Z</time></trkpt><trkpt lat="44.69206969765333" lon="10.082843589513118"><ele>167.0</ele><time>2026-03-22T13:43:48Z</time></trkpt><trkpt lat="44.692083899611745" lon="10.082932628390092"><ele>167.0</ele><time>2026-03-22T13:43:54Z</time></trkpt><trkpt lat="44.692097801888565" lon="10.083019818984045"><ele>167.0</ele><time>2026-03-22T13:43:58Z</time></trkpt><trkpt lat="44.692090342926306" lon="10.082823481283198"><ele>167.0</ele><time>2026-03-22T13:44:10Z</time></trkpt><trkpt lat="44.692132948008336" lon="10.083240587273691"><ele>167.0</ele><time>2026-03-22T13:44:20Z</time></trkpt><trkpt lat="44.69211538500628" lon="10.083108096120611"><ele>167.0</ele><time>2026-03-22T13:44:26Z</time></trkpt><trkpt lat="44.692093944238195" lon="10.082845724207237"><ele>167.0</ele><time>2026-03-22T13:44:43Z</time></trkpt><trkpt lat="44.692132948008336" lon="10.083240587273691"><ele>167.0</ele><time>2026-03-22T13:44:53.999Z</time></trkpt><trkpt lat="44.69210005671509" lon="10.082918404920468"><ele>167.0</ele><time>2026-03-22T13:44:58.999Z</time></trkpt><trkpt lat="44.692132948008336" lon="10.083240587273691"><ele>167.0</ele><time>2026-03-22T13:45:13.999Z</time></trkpt><trkpt lat="44.69210197790861" lon="10.082927555501945"><ele>167.0</ele><time>2026-03-22T13:45:19.999Z</time></trkpt><trkpt lat="44.692132948008336" lon="10.083240587273691"><ele>167.0</ele><time>2026-03-22T13:46:32Z</time></trkpt><trkpt lat="44.69210886739013" lon="10.08291371903573"><ele>167.0</ele><time>2026-03-22T13:46:38Z</time></trkpt><trkpt lat="44.692132948008336" lon="10.083240587273691"><ele>167.0</ele><time>2026-03-22T13:46:58.999Z</time></trkpt><trkpt lat="44.69210282081468" lon="10.082951404543678"><ele>167.0</ele><time>2026-03-22T13:47:04.999Z</time></trkpt><trkpt lat="44.692132948008336" lon="10.083240587273691"><ele>167.0</ele><time>2026-03-22T13:47:24.999Z</time></trkpt><trkpt lat="44.69210189823574" lon="10.082910061498549"><ele>167.0</ele><time>2026-03-22T13:47:29.999Z</time></trkpt><trkpt lat="44.692132948008336" lon="10.083240587273691"><ele>167.0</ele><time>2026-03-22T13:47:42.999Z</time></trkpt><trkpt lat="44.69210557504128" lon="10.082953779524424"><ele>167.0</ele><time>2026-03-22T13:47:48.999Z</time></trkpt><trkpt lat="44.692132948008336" lon="10.083240587273691"><ele>167.0</ele><time>2026-03-22T13:48:11Z</time></trkpt><trkpt lat="44.69210934161144" lon="10.082996736173001"><ele>167.0</ele><time>2026-03-22T13:48:17Z</time></trkpt><trkpt lat="44.692132948008336" lon="10.083240587273691"><ele>167.0</ele><time>2026-03-22T13:48:48.999Z</time></trkpt><trkpt lat="44.69212063695163" lon="10.082907569782856"><ele>167.0</ele><time>2026-03-22T13:48:53.999Z</time></trkpt><trkpt lat="44.692132948008336" lon="10.083240587273691"><ele>167.0</ele><time>2026-03-22T13:49:30.999Z</time></trkpt><trkpt lat="44.69211871721767" lon="10.08296755314584"><ele>167.0</ele><time>2026-03-22T13:49:36.999Z</time></trkpt></trkseg></trk></gpx>